RJ263 / JY-BAG 7700 Squawk Report (22nd of September, 2021)

Aircraft B788 Reg No. JY-BAG Age 4 years old
Model 787 Jet engines 2 First flight 07-11-16
Registered 16-11-16 Rollout N/A Delivered 16-11-16
Construction No. 37984 Line No. 0499 Series 8
ADSHEX 740827 Airline name Royal Jordanian Airlines Owner N/A
Airfield based Amman-Queen Alia International~Amman~JY First tracked N/A
Time Lat Lon Altitude Heading Speed Vertical Rate
2021-09-22 23:20:28 GMT 41.975151 -87.892113 0 84 0 32
2021-09-22 23:20:28 GMT 41.975151 -87.892113 0 84 0 32
2021-09-22 23:20:25 GMT 41.975155 -87.892105 0 84 0 32
2021-09-22 23:20:14 GMT 41.974869 -87.893433 0 182 0 32
2021-09-22 23:20:13 GMT 41.974869 -87.893440 0 182 0 32
2021-09-22 23:20:11 GMT 41.974869 -87.893433 0 182 0 32
2021-09-22 23:20:09 GMT 41.974869 -87.893440 0 182 0 32
2021-09-22 23:20:06 GMT 41.974869 -87.893417 0 182 0 32
2021-09-22 23:20:04 GMT 41.974869 -87.893433 0 182 0 32
2021-09-22 23:20:03 GMT 41.974880 -87.893440 0 182 0 32
2021-09-22 23:20:01 GMT 41.974869 -87.893440 0 181 1 32
2021-09-22 23:20:00 GMT 41.974869 -87.893410 0 181 1 32
2021-09-22 23:19:58 GMT 41.974880 -87.893387 0 181 3 32
2021-09-22 23:19:57 GMT 41.974880 -87.893402 0 181 4 32
2021-09-22 23:19:56 GMT 41.974880 -87.893417 0 181 3 32
2021-09-22 23:19:55 GMT 41.974861 -87.893440 0 181 1 32
2021-09-22 23:19:54 GMT 41.974850 -87.893448 0 180 3 32
2021-09-22 23:19:52 GMT 41.974838 -87.893517 0 180 9 32
2021-09-22 23:19:51 GMT 41.974850 -87.893517 0 164 12 32
2021-09-22 23:19:49 GMT 41.974861 -87.893494 0 129 13 32
2021-09-22 23:19:48 GMT 41.974991 -87.893089 0 79 6 32
2021-09-22 23:19:46 GMT 41.974972 -87.893120 0 79 6 32
2021-09-22 23:19:45 GMT 41.974979 -87.893158 0 79 5 32
2021-09-22 23:19:43 GMT 41.974998 -87.893097 0 79 5 32
2021-09-22 23:19:42 GMT 41.975010 -87.892982 0 80 7 32
2021-09-22 23:19:41 GMT 41.974998 -87.893013 0 81 7 32
2021-09-22 23:19:39 GMT 41.974991 -87.893082 0 80 7 32
2021-09-22 23:19:38 GMT 41.974998 -87.893097 0 80 8 32
2021-09-22 23:19:37 GMT 41.974949 -87.893097 0 80 10 32
2021-09-22 23:19:36 GMT 41.974941 -87.893181 0 78 8 32
2021-09-22 23:19:34 GMT 41.974949 -87.893303 0 74 7 32
2021-09-22 23:19:33 GMT 41.974941 -87.893318 0 75 9 32
2021-09-22 23:19:32 GMT 41.974930 -87.893349 0 71 10 32
2021-09-22 23:19:31 GMT 41.974918 -87.893517 0 52 5 32
2021-09-22 23:19:29 GMT 41.974892 -87.893578 0 58 2 32
2021-09-22 23:19:28 GMT 41.974880 -87.893578 0 58 3 32
2021-09-22 23:19:26 GMT 41.974838 -87.893730 0 52 0 32
2021-09-22 23:19:25 GMT 41.974819 -87.893768 0 52 0 32
2021-09-22 23:19:24 GMT 41.974812 -87.893837 0 52 1 32
2021-09-22 23:19:22 GMT 41.974781 -87.893929 0 57 2 32
2021-09-22 23:19:21 GMT 41.974800 -87.893883 0 57 0 32
2021-09-22 23:19:19 GMT 41.974819 -87.893799 0 57 0 32
2021-09-22 23:19:18 GMT 41.974812 -87.893829 0 57 0 32
2021-09-22 23:19:17 GMT 41.974819 -87.893822 0 57 0 32
2021-09-22 23:19:14 GMT 41.974812 -87.893829 0 57 0 32
2021-09-22 23:19:13 GMT 41.974812 -87.893852 0 57 0 32
2021-09-22 23:19:12 GMT 41.974812 -87.893829 0 57 0 32
2021-09-22 23:19:08 GMT 41.974812 -87.893852 0 57 0 32
2021-09-22 23:19:06 GMT 41.974812 -87.893837 0 57 0 32
2021-09-22 23:19:04 GMT 41.974812 -87.893852 0 57 0 32
2021-09-22 23:19:02 GMT 41.974812 -87.893829 0 57 0 32
2021-09-22 23:19:01 GMT 41.974812 -87.893837 0 57 0 32
2021-09-22 23:18:59 GMT 41.974812 -87.893829 0 57 0 32
2021-09-22 23:18:57 GMT 41.974812 -87.893829 0 57 0 32
2021-09-22 23:18:56 GMT 41.974812 -87.893837 0 56 0 32
2021-09-22 23:18:54 GMT 41.974812 -87.893852 0 56 0 32
2021-09-22 23:18:52 GMT 41.974812 -87.893829 0 56 0 32
2021-09-22 23:18:49 GMT 41.974812 -87.893852 0 56 0 32
2021-09-22 23:18:47 GMT 41.974812 -87.893829 0 56 0 32
2021-09-22 23:18:44 GMT 41.974812 -87.893852 0 56 0 32
2021-09-22 23:18:42 GMT 41.974812 -87.893829 0 56 0 32
2021-09-22 23:18:38 GMT 41.974812 -87.893829 0 56 0 32
2021-09-22 23:18:36 GMT 41.974812 -87.893837 0 56 0 32
2021-09-22 23:18:33 GMT 41.974812 -87.893852 0 56 0 32
2021-09-22 23:18:32 GMT 41.974812 -87.893829 0 56 0 32
2021-09-22 23:18:28 GMT 41.974812 -87.893852 0 56 0 32
2021-09-22 23:18:27 GMT 41.974812 -87.893829 0 56 0 32
2021-09-22 23:18:26 GMT 41.974812 -87.893837 0 56 0 32
2021-09-22 23:18:24 GMT 41.974812 -87.893852 0 56 0 32
2021-09-22 23:18:21 GMT 41.974812 -87.893829 0 54 0 32
2021-09-22 23:18:20 GMT 41.974812 -87.893837 0 53 0 32
2021-09-22 23:18:19 GMT 41.974812 -87.893852 0 53 0 32
2021-09-22 23:18:18 GMT 41.974812 -87.893837 0 53 0 32
2021-09-22 23:18:17 GMT 41.974819 -87.893806 0 53 2 32
2021-09-22 23:18:15 GMT 41.974819 -87.893822 0 53 3 32
2021-09-22 23:18:14 GMT 41.974819 -87.893829 0 53 3 32
2021-09-22 23:18:13 GMT 41.974819 -87.893822 0 53 3 32
2021-09-22 23:18:11 GMT 41.974831 -87.893799 0 54 4 32
2021-09-22 23:18:10 GMT 41.974831 -87.893806 0 55 5 32
2021-09-22 23:18:09 GMT 41.974819 -87.893822 0 55 5 32
2021-09-22 23:18:08 GMT 41.974819 -87.893837 0 59 5 32
2021-09-22 23:18:06 GMT 41.974789 -87.893898 0 61 4 32
2021-09-22 23:18:05 GMT 41.974751 -87.893997 0 63 2 32
2021-09-22 23:18:04 GMT 41.974720 -87.894028 0 63 2 32
2021-09-22 23:18:02 GMT 41.974659 -87.894096 0 64 1 32
2021-09-22 23:18:01 GMT 41.974670 -87.894081 0 64 1 32
2021-09-22 23:17:59 GMT 41.974689 -87.894058 0 62 1 32
2021-09-22 23:17:58 GMT 41.974739 -87.893997 0 62 1 32
2021-09-22 23:17:57 GMT 41.974709 -87.894051 0 62 1 32
2021-09-22 23:17:56 GMT 41.974701 -87.894051 0 62 1 32
2021-09-22 23:17:54 GMT 41.974682 -87.894073 0 62 1 32
2021-09-22 23:17:53 GMT 41.974720 -87.894043 0 62 1 32
2021-09-22 23:17:51 GMT 41.974701 -87.894051 0 62 1 32
2021-09-22 23:17:50 GMT 41.974670 -87.894073 0 65 1 32
2021-09-22 23:17:48 GMT 41.974709 -87.894028 0 62 1 32
2021-09-22 23:17:47 GMT 41.974682 -87.894081 0 62 1 32
2021-09-22 23:17:45 GMT 41.974739 -87.894012 0 62 1 32
2021-09-22 23:17:44 GMT 41.974758 -87.893951 0 62 1 32
2021-09-22 23:17:43 GMT 41.974758 -87.893951 0 62 0 32
2021-09-22 23:17:42 GMT 41.974731 -87.894028 0 62 1 32
2021-09-22 23:17:40 GMT 41.974758 -87.893951 0 62 1 32
2021-09-22 23:17:39 GMT 41.974739 -87.894020 0 62 0 32
2021-09-22 23:17:37 GMT 41.974731 -87.894020 0 62 1 32
2021-09-22 23:17:35 GMT 41.974751 -87.893990 0 62 1 32
2021-09-22 23:17:34 GMT 41.974751 -87.893997 0 63 2 32
2021-09-22 23:17:33 GMT 41.974709 -87.894051 0 62 1 32
2021-09-22 23:17:31 GMT 41.974720 -87.894043 0 62 1 32
2021-09-22 23:17:30 GMT 41.974701 -87.894051 0 64 0 32
2021-09-22 23:17:28 GMT 41.974682 -87.894073 0 62 1 32
2021-09-22 23:17:27 GMT 41.974659 -87.894089 0 62 1 32
2021-09-22 23:17:25 GMT 41.974731 -87.894012 0 62 1 32
2021-09-22 23:17:24 GMT 41.974682 -87.894073 0 62 1 32
2021-09-22 23:17:23 GMT 41.974659 -87.894119 0 64 0 32
2021-09-22 23:17:22 GMT 41.974651 -87.894096 0 64 0 32
2021-09-22 23:17:20 GMT 41.974670 -87.894073 0 62 1 32
2021-09-22 23:17:19 GMT 41.974739 -87.894012 0 62 1 32
2021-09-22 23:17:17 GMT 41.974731 -87.894028 0 62 1 32
2021-09-22 23:17:16 GMT 41.974739 -87.894012 0 62 1 32
2021-09-22 23:17:15 GMT 41.974731 -87.894012 0 62 1 32
2021-09-22 23:17:14 GMT 41.974709 -87.894028 0 64 0 32
2021-09-22 23:17:12 GMT 41.974682 -87.894081 0 62 1 32
2021-09-22 23:17:11 GMT 41.974739 -87.894012 0 62 1 32
2021-09-22 23:17:09 GMT 41.974739 -87.893997 0 65 0 32
2021-09-22 23:17:08 GMT 41.974709 -87.894058 0 62 1 32
2021-09-22 23:17:07 GMT 41.974689 -87.894051 0 62 1 32
2021-09-22 23:17:06 GMT 41.974739 -87.893997 0 65 1 32
2021-09-22 23:17:05 GMT 41.974731 -87.894012 0 62 1 32
2021-09-22 23:17:03 GMT 41.974689 -87.894051 0 62 1 32
2021-09-22 23:17:02 GMT 41.974720 -87.894012 0 63 1 32
2021-09-22 23:17:00 GMT 41.974739 -87.893967 0 62 1 32
2021-09-22 23:16:59 GMT 41.974770 -87.893951 0 62 1 32
2021-09-22 23:16:58 GMT 41.974758 -87.893951 0 62 1 32
2021-09-22 23:16:56 GMT 41.974781 -87.893913 0 65 1 32
2021-09-22 23:16:55 GMT 41.974781 -87.893898 0 67 1 32
2021-09-22 23:16:53 GMT 41.974781 -87.893898 0 70 2 32
2021-09-22 23:16:52 GMT 41.974781 -87.893890 0 71 0 32
2021-09-22 23:16:51 GMT 41.974758 -87.893890 0 70 3 32
2021-09-22 23:16:49 GMT 41.974789 -87.893852 0 70 0 32
2021-09-22 23:16:47 GMT 41.974789 -87.893860 0 70 0 32
2021-09-22 23:16:45 GMT 41.974789 -87.893852 0 71 1 32
2021-09-22 23:16:44 GMT 41.974781 -87.893883 0 71 0 32
2021-09-22 23:16:43 GMT 41.974781 -87.893867 0 71 1 32
2021-09-22 23:16:41 GMT 41.974781 -87.893898 0 71 0 32
2021-09-22 23:16:39 GMT 41.974781 -87.893913 0 72 0 32
2021-09-22 23:16:34 GMT 41.974770 -87.893913 0 73 0 32
2021-09-22 23:16:33 GMT 41.974781 -87.893898 0 73 0 32
2021-09-22 23:16:32 GMT 41.974770 -87.893913 0 74 0 32
2021-09-22 23:16:30 GMT 41.974758 -87.893921 0 75 0 32
2021-09-22 23:16:29 GMT 41.974770 -87.893913 0 75 2 32
2021-09-22 23:16:28 GMT 41.974751 -87.893898 0 76 2 32
2021-09-22 23:16:26 GMT 41.974751 -87.893929 0 74 2 32
2021-09-22 23:16:25 GMT 41.974758 -87.893921 0 69 4 32
2021-09-22 23:16:24 GMT 41.974781 -87.893959 0 52 5 32
2021-09-22 23:16:22 GMT 41.974781 -87.894020 0 41 7 32
2021-09-22 23:16:20 GMT 41.974731 -87.894043 0 46 6 32
2021-09-22 23:16:19 GMT 41.974701 -87.894096 0 40 6 32
2021-09-22 23:16:17 GMT 41.974682 -87.894119 0 37 6 32
2021-09-22 23:16:16 GMT 41.974670 -87.894180 0 24 6 32
2021-09-22 23:16:15 GMT 41.974609 -87.894218 0 23 4 32
2021-09-22 23:16:13 GMT 41.974602 -87.894211 0 23 6 32
2021-09-22 23:16:12 GMT 41.974590 -87.894249 0 11 7 32
2021-09-22 23:16:11 GMT 41.974560 -87.894257 0 7 7 32
2021-09-22 23:16:09 GMT 41.974499 -87.894279 0 2 9 32
2021-09-22 23:16:08 GMT 41.974449 -87.894272 0 3 9 32
2021-09-22 23:16:07 GMT 41.974411 -87.894310 0 357 8 32
2021-09-22 23:16:05 GMT 41.974350 -87.894318 0 355 11 32
2021-09-22 23:16:04 GMT 41.974281 -87.894287 0 355 9 32
2021-09-22 23:16:02 GMT 41.974178 -87.894302 0 355 7 32
2021-09-22 23:16:01 GMT 41.974152 -87.894287 0 358 7 32
2021-09-22 23:16:00 GMT 41.974159 -87.894287 0 359 11 32
2021-09-22 23:15:58 GMT 41.974072 -87.894257 0 6 11 32
2021-09-22 23:15:57 GMT 41.974030 -87.894279 0 2 12 32
2021-09-22 23:15:56 GMT 41.973969 -87.894302 0 359 12 32
2021-09-22 23:15:54 GMT 41.973869 -87.894310 0 2 13 32
2021-09-22 23:15:53 GMT 41.973770 -87.894272 0 10 9 32
2021-09-22 23:15:52 GMT 41.973690 -87.894302 0 4 8 32
2021-09-22 23:15:50 GMT 41.973660 -87.894318 0 2 8 32
2021-09-22 23:15:49 GMT 41.973652 -87.894310 0 10 12 32
2021-09-22 23:15:48 GMT 41.973530 -87.894310 0 20 12 32
2021-09-22 23:15:46 GMT 41.973480 -87.894333 0 22 12 32
2021-09-22 23:15:45 GMT 41.973412 -87.894341 0 27 10 32
2021-09-22 23:15:44 GMT 41.973331 -87.894386 0 24 11 32
2021-09-22 23:15:43 GMT 41.973289 -87.894440 0 25 12 32
2021-09-22 23:15:41 GMT 41.973251 -87.894432 0 31 14 32
2021-09-22 23:15:40 GMT 41.973122 -87.894508 0 41 12 32
2021-09-22 23:15:38 GMT 41.973080 -87.894547 0 44 13 32
2021-09-22 23:15:37 GMT 41.973030 -87.894592 0 48 14 32
2021-09-22 23:15:35 GMT 41.972931 -87.894699 0 56 14 32
2021-09-22 23:15:34 GMT 41.972912 -87.894783 0 52 15 32
2021-09-22 23:15:33 GMT 41.972870 -87.894852 0 56 15 32
2021-09-22 23:15:32 GMT 41.972778 -87.895020 0 56 14 32
2021-09-22 23:15:30 GMT 41.972740 -87.895081 0 64 14 32
2021-09-22 23:15:29 GMT 41.972710 -87.895126 0 68 15 32
2021-09-22 23:15:28 GMT 41.972672 -87.895302 0 62 17 32
2021-09-22 23:15:26 GMT 41.972649 -87.895401 0 58 17 32
2021-09-22 23:15:25 GMT 41.972610 -87.895500 0 58 17 32
2021-09-22 23:15:24 GMT 41.972519 -87.895683 0 60 17 32
2021-09-22 23:15:22 GMT 41.972488 -87.895760 0 61 18 32
2021-09-22 23:15:21 GMT 41.972439 -87.895828 0 65 20 32
2021-09-22 23:15:20 GMT 41.972408 -87.895950 0 64 20 32
2021-09-22 23:15:18 GMT 41.972328 -87.896179 0 66 18 32
2021-09-22 23:15:17 GMT 41.972309 -87.896294 0 60 18 32
2021-09-22 23:15:16 GMT 41.972271 -87.896400 0 59 17 32
2021-09-22 23:15:14 GMT 41.972191 -87.896561 0 65 19 32
2021-09-22 23:15:13 GMT 41.972149 -87.896683 0 62 17 32
2021-09-22 23:15:12 GMT 41.972111 -87.896782 0 62 17 32
2021-09-22 23:15:10 GMT 41.972050 -87.896980 0 59 16 32
2021-09-22 23:15:09 GMT 41.972000 -87.897049 0 63 17 32
2021-09-22 23:15:08 GMT 41.971970 -87.897141 0 61 19 32
2021-09-22 23:15:06 GMT 41.971889 -87.897362 0 59 18 32
2021-09-22 23:15:05 GMT 41.971828 -87.897438 0 66 17 32
2021-09-22 23:15:04 GMT 41.971760 -87.897629 0 67 18 32
2021-09-22 23:15:02 GMT 41.971741 -87.897743 0 65 18 32
2021-09-22 23:15:01 GMT 41.971710 -87.897842 0 63 18 32
2021-09-22 23:15:00 GMT 41.971619 -87.898033 0 68 19 32
2021-09-22 23:14:58 GMT 41.971588 -87.898163 0 69 18 32
2021-09-22 23:14:57 GMT 41.971550 -87.898270 0 70 17 32
2021-09-22 23:14:56 GMT 41.971500 -87.898460 0 76 19 32
2021-09-22 23:14:54 GMT 41.971481 -87.898590 0 78 17 32
2021-09-22 23:14:53 GMT 41.971470 -87.898689 0 77 18 32
2021-09-22 23:14:51 GMT 41.971409 -87.899002 0 82 19 32
2021-09-22 23:14:49 GMT 41.971390 -87.899109 0 86 19 32
2021-09-22 23:14:48 GMT 41.971401 -87.899223 0 80 20 32
2021-09-22 23:14:47 GMT 41.971371 -87.899361 0 89 19 32
2021-09-22 23:14:45 GMT 41.971359 -87.899590 0 92 18 32
2021-09-22 23:14:44 GMT 41.971371 -87.899689 0 87 19 32
2021-09-22 23:14:43 GMT 41.971359 -87.899811 0 89 18 32
2021-09-22 23:14:42 GMT 41.971371 -87.899940 0 86 17 32
2021-09-22 23:14:40 GMT 41.971359 -87.900131 0 85 19 32
2021-09-22 23:14:39 GMT 41.971329 -87.900368 0 91 20 32
2021-09-22 23:14:38 GMT 41.971340 -87.900497 0 91 19 32
2021-09-22 23:14:36 GMT 41.971352 -87.900612 0 89 20 32
2021-09-22 23:14:35 GMT 41.971340 -87.900749 0 93 18 32
2021-09-22 23:14:34 GMT 41.971352 -87.900848 0 90 19 32
2021-09-22 23:14:32 GMT 41.971340 -87.901093 0 93 19 32
2021-09-22 23:14:31 GMT 41.971359 -87.901192 0 90 20 32
2021-09-22 23:14:30 GMT 41.971371 -87.901314 0 86 21 32
2021-09-22 23:14:29 GMT 41.971371 -87.901573 0 86 20 32
2021-09-22 23:14:27 GMT 41.971359 -87.901688 0 89 21 32
2021-09-22 23:14:26 GMT 41.971352 -87.901833 0 91 20 32
2021-09-22 23:14:24 GMT 41.971352 -87.902077 0 92 22 32
2021-09-22 23:14:23 GMT 41.971352 -87.902283 0 91 16 32
2021-09-22 23:14:22 GMT 41.971371 -87.902321 0 87 21 32
2021-09-22 23:14:20 GMT 41.971359 -87.902573 0 88 22 32
2021-09-22 23:14:19 GMT 41.971352 -87.902687 0 90 23 32
2021-09-22 23:14:17 GMT 41.971359 -87.902977 0 90 22 32
2021-09-22 23:14:16 GMT 41.971359 -87.903137 0 89 21 32
2021-09-22 23:14:15 GMT 41.971371 -87.903267 0 88 21 32
2021-09-22 23:14:13 GMT 41.971352 -87.903542 0 93 20 32
2021-09-22 23:14:12 GMT 41.971352 -87.903664 0 95 20 32
2021-09-22 23:14:11 GMT 41.971359 -87.903793 0 96 20 32
2021-09-22 23:14:09 GMT 41.971378 -87.904053 0 94 19 32
2021-09-22 23:14:08 GMT 41.971378 -87.904190 0 95 17 32
2021-09-22 23:14:07 GMT 41.971420 -87.904404 0 87 18 32
2021-09-22 23:14:05 GMT 41.971401 -87.904510 0 95 18 32
2021-09-22 23:14:04 GMT 41.971409 -87.904610 0 95 19 32
2021-09-22 23:14:03 GMT 41.971409 -87.904716 0 94 20 32
2021-09-22 23:14:01 GMT 41.971432 -87.904953 0 90 21 32
2021-09-22 23:14:00 GMT 41.971420 -87.905083 0 92 20 32
2021-09-22 23:13:59 GMT 41.971458 -87.905197 0 85 20 32
2021-09-22 23:13:57 GMT 41.971409 -87.905449 0 97 19 32
2021-09-22 23:13:55 GMT 41.971420 -87.905678 0 99 18 32
2021-09-22 23:13:53 GMT 41.971451 -87.905907 0 96 17 32
2021-09-22 23:13:52 GMT 41.971481 -87.906013 0 91 17 32
2021-09-22 23:13:51 GMT 41.971481 -87.906219 0 95 16 32
2021-09-22 23:13:49 GMT 41.971481 -87.906319 0 97 17 32
2021-09-22 23:13:48 GMT 41.971481 -87.906433 0 103 16 32
2021-09-22 23:13:47 GMT 41.971489 -87.906540 0 104 15 32
2021-09-22 23:13:45 GMT 41.971519 -87.906700 0 103 16 32
2021-09-22 23:13:44 GMT 41.971550 -87.906799 0 100 15 32
2021-09-22 23:13:43 GMT 41.971561 -87.906883 0 101 17 32
2021-09-22 23:13:41 GMT 41.971581 -87.907089 0 108 17 32
2021-09-22 23:13:40 GMT 41.971611 -87.907211 0 106 14 32
2021-09-22 23:13:39 GMT 41.971611 -87.907288 0 116 15 32
2021-09-22 23:13:37 GMT 41.971661 -87.907463 0 118 18 32
2021-09-22 23:13:36 GMT 41.971710 -87.907539 0 114 18 32
2021-09-22 23:13:35 GMT 41.971741 -87.907654 0 114 18 32
2021-09-22 23:13:34 GMT 41.971802 -87.907860 0 124 18 32
2021-09-22 23:13:32 GMT 41.971828 -87.907951 0 129 19 32
2021-09-22 23:13:31 GMT 41.971939 -87.908142 0 131 18 32
2021-09-22 23:13:29 GMT 41.972000 -87.908241 0 130 17 32
2021-09-22 23:13:28 GMT 41.972099 -87.908379 0 128 19 32
2021-09-22 23:13:26 GMT 41.972172 -87.908493 0 127 16 32
2021-09-22 23:13:25 GMT 41.972198 -87.908577 0 132 16 32
2021-09-22 23:13:24 GMT 41.972301 -87.908730 0 132 17 32
2021-09-22 23:13:22 GMT 41.972359 -87.908798 0 131 16 32
2021-09-22 23:13:20 GMT 41.972450 -87.908958 0 136 17 32
2021-09-22 23:13:19 GMT 41.972511 -87.909042 0 139 16 32
2021-09-22 23:13:18 GMT 41.972618 -87.909172 0 137 15 32
2021-09-22 23:13:16 GMT 41.972679 -87.909233 0 133 15 32
2021-09-22 23:13:15 GMT 41.972721 -87.909286 0 134 15 32
2021-09-22 23:13:14 GMT 41.972771 -87.909370 0 138 15 32
2021-09-22 23:13:12 GMT 41.972881 -87.909500 0 130 15 32
2021-09-22 23:13:11 GMT 41.972919 -87.909554 0 130 16 32
2021-09-22 23:13:10 GMT 41.973019 -87.909721 0 137 13 32
2021-09-22 23:13:08 GMT 41.973091 -87.909760 0 132 12 32
2021-09-22 23:13:07 GMT 41.973110 -87.909813 0 136 14 32
2021-09-22 23:13:06 GMT 41.973160 -87.909882 0 139 13 32
2021-09-22 23:13:04 GMT 41.973251 -87.909958 0 135 13 32
2021-09-22 23:13:03 GMT 41.973289 -87.910027 0 137 14 32
2021-09-22 23:13:02 GMT 41.973331 -87.910110 0 142 12 32
2021-09-22 23:13:00 GMT 41.973419 -87.910210 0 144 12 32
2021-09-22 23:12:59 GMT 41.973480 -87.910271 0 138 10 32
2021-09-22 23:12:58 GMT 41.973549 -87.910347 0 144 11 32
2021-09-22 23:12:56 GMT 41.973591 -87.910378 0 138 12 32
2021-09-22 23:12:55 GMT 41.973629 -87.910423 0 134 13 32
2021-09-22 23:12:54 GMT 41.973701 -87.910469 0 131 11 32
2021-09-22 23:12:52 GMT 41.973751 -87.910606 0 144 9 32
2021-09-22 23:12:51 GMT 41.973801 -87.910629 0 132 9 32
2021-09-22 23:12:49 GMT 41.973862 -87.910698 0 129 9 32
2021-09-22 23:12:48 GMT 41.973900 -87.910728 0 125 8 32
2021-09-22 23:12:47 GMT 41.973930 -87.910782 0 124 8 32
2021-09-22 23:12:45 GMT 41.973949 -87.910858 0 123 10 32
2021-09-22 23:12:44 GMT 41.974010 -87.910912 0 102 8 32
2021-09-22 23:12:43 GMT 41.974041 -87.910927 0 86 8 32
2021-09-22 23:12:42 GMT 41.974072 -87.910957 0 76 10 32
2021-09-22 23:12:40 GMT 41.974091 -87.911072 0 57 12 32
2021-09-22 23:12:39 GMT 41.974060 -87.911148 0 53 11 32
2021-09-22 23:12:37 GMT 41.974018 -87.911293 0 39 11 32
2021-09-22 23:12:36 GMT 41.973980 -87.911339 0 37 10 32
2021-09-22 23:12:34 GMT 41.973900 -87.911423 0 29 9 32
2021-09-22 23:12:32 GMT 41.973839 -87.911491 0 38 12 32
2021-09-22 23:12:31 GMT 41.973789 -87.911499 0 46 11 32
2021-09-22 23:12:30 GMT 41.973701 -87.911598 0 61 13 32
2021-09-22 23:12:28 GMT 41.973660 -87.911667 0 63 12 32
2021-09-22 23:12:27 GMT 41.973629 -87.911720 0 65 13 32
2021-09-22 23:12:25 GMT 41.973572 -87.911888 0 76 11 32
2021-09-22 23:12:24 GMT 41.973549 -87.911926 0 81 12 32
2021-09-22 23:12:23 GMT 41.973530 -87.911980 0 86 14 32
2021-09-22 23:12:22 GMT 41.973530 -87.912064 0 84 16 32
2021-09-22 23:12:20 GMT 41.973518 -87.912247 0 86 16 32
2021-09-22 23:12:19 GMT 41.973518 -87.912354 0 86 15 32
2021-09-22 23:12:17 GMT 41.973511 -87.912529 0 91 14 32
2021-09-22 23:12:16 GMT 41.973518 -87.912613 0 86 14 32
2021-09-22 23:12:15 GMT 41.973530 -87.912682 0 83 15 32
2021-09-22 23:12:13 GMT 41.973499 -87.912888 0 93 12 32
2021-09-22 23:12:12 GMT 41.973492 -87.912956 0 96 13 32
2021-09-22 23:12:11 GMT 41.973511 -87.913116 0 88 12 32
2021-09-22 23:12:09 GMT 41.973511 -87.913223 0 84 10 32
2021-09-22 23:12:08 GMT 41.973530 -87.913307 0 75 7 32
2021-09-22 23:12:07 GMT 41.973518 -87.913322 0 84 10 32
2021-09-22 23:12:05 GMT 41.973499 -87.913437 0 95 9 32
2021-09-22 23:12:04 GMT 41.973492 -87.913490 0 93 10 32
2021-09-22 23:12:02 GMT 41.973511 -87.913620 0 85 8 32
2021-09-22 23:12:01 GMT 41.973530 -87.913658 0 85 9 32
2021-09-22 23:11:59 GMT 41.973499 -87.913780 0 90 6 32
2021-09-22 23:11:58 GMT 41.973511 -87.913841 0 86 4 32
2021-09-22 23:11:57 GMT 41.973511 -87.913849 0 85 5 32
2021-09-22 23:11:55 GMT 41.973492 -87.913910 0 93 8 32
2021-09-22 23:11:54 GMT 41.973492 -87.913979 0 94 7 32
2021-09-22 23:11:53 GMT 41.973492 -87.914047 0 89 5 32
2021-09-22 23:11:51 GMT 41.973499 -87.914093 0 82 8 32
2021-09-22 23:11:50 GMT 41.973499 -87.914139 0 79 8 32
2021-09-22 23:11:49 GMT 41.973499 -87.914177 0 77 8 32
2021-09-22 23:11:48 GMT 41.973492 -87.914230 0 74 7 32
2021-09-22 23:11:47 GMT 41.973492 -87.914291 0 69 7 32
2021-09-22 23:11:45 GMT 41.973480 -87.914368 0 66 6 32
2021-09-22 23:11:44 GMT 41.973480 -87.914383 0 62 9 32
2021-09-22 23:11:43 GMT 41.973461 -87.914429 0 64 9 32
2021-09-22 23:11:41 GMT 41.973431 -87.914520 0 61 10 32
2021-09-22 23:11:40 GMT 41.973412 -87.914574 0 64 9 32
2021-09-22 23:11:39 GMT 41.973370 -87.914658 0 65 13 32
2021-09-22 23:11:37 GMT 41.973358 -87.914719 0 64 14 32
2021-09-22 23:11:36 GMT 41.973320 -87.914810 0 62 13 32
2021-09-22 23:11:34 GMT 41.973282 -87.914940 0 60 15 32
2021-09-22 23:11:33 GMT 41.973251 -87.915024 0 55 15 32
2021-09-22 23:11:31 GMT 41.973160 -87.915192 0 59 14 32
2021-09-22 23:11:29 GMT 41.973099 -87.915329 0 58 17 32
2021-09-22 23:11:28 GMT 41.973049 -87.915443 0 61 16 32
2021-09-22 23:11:27 GMT 41.973011 -87.915527 0 61 16 32
2021-09-22 23:11:25 GMT 41.972969 -87.915710 0 54 17 32
2021-09-22 23:11:24 GMT 41.972912 -87.915787 0 58 17 32
2021-09-22 23:11:22 GMT 41.972820 -87.915977 0 58 15 32
2021-09-22 23:11:21 GMT 41.972771 -87.916061 0 63 14 32
2021-09-22 23:11:19 GMT 41.972698 -87.916313 0 46 14 32
2021-09-22 23:11:17 GMT 41.972660 -87.916344 0 53 16 32
2021-09-22 23:11:16 GMT 41.972610 -87.916412 0 60 16 32
2021-09-22 23:11:14 GMT 41.972519 -87.916573 0 74 15 32
2021-09-22 23:11:13 GMT 41.972488 -87.916679 0 77 13 32
2021-09-22 23:11:12 GMT 41.972462 -87.916763 0 85 12 32
2021-09-22 23:11:11 GMT 41.972450 -87.916908 0 90 11 32
2021-09-22 23:11:09 GMT 41.972439 -87.916969 0 89 13 32
2021-09-22 23:11:08 GMT 41.972462 -87.917038 0 85 14 32
2021-09-22 23:11:06 GMT 41.972439 -87.917191 0 88 16 32
2021-09-22 23:11:05 GMT 41.972431 -87.917297 0 92 15 32
2021-09-22 23:11:04 GMT 41.972450 -87.917381 0 86 16 32
2021-09-22 23:11:02 GMT 41.972450 -87.917572 0 86 17 32
2021-09-22 23:11:01 GMT 41.972431 -87.917664 0 94 19 32
2021-09-22 23:11:00 GMT 41.972439 -87.917778 0 89 18 32
2021-09-22 23:10:59 GMT 41.972462 -87.917892 0 83 19 32
2021-09-22 23:10:57 GMT 41.972450 -87.918121 0 84 20 32
2021-09-22 23:10:56 GMT 41.972431 -87.918221 0 89 23 32
2021-09-22 23:10:55 GMT 41.972431 -87.918503 0 88 23 32
2021-09-22 23:10:53 GMT 41.972420 -87.918640 0 90 23 32
2021-09-22 23:10:52 GMT 41.972431 -87.918770 0 88 23 32
2021-09-22 23:10:50 GMT 41.972420 -87.919090 0 90 20 32
2021-09-22 23:10:49 GMT 41.972420 -87.919212 0 94 20 32
2021-09-22 23:10:47 GMT 41.972439 -87.919441 0 90 21 32
2021-09-22 23:10:46 GMT 41.972439 -87.919563 0 89 22 32
2021-09-22 23:10:45 GMT 41.972439 -87.919701 0 89 21 32
2021-09-22 23:10:43 GMT 41.972462 -87.919937 0 82 23 32
2021-09-22 23:10:42 GMT 41.972431 -87.920090 0 87 22 32
2021-09-22 23:10:41 GMT 41.972408 -87.920242 0 91 21 32
2021-09-22 23:10:39 GMT 41.972408 -87.920517 0 92 17 32
2021-09-22 23:10:38 GMT 41.972420 -87.920639 0 90 16 32
2021-09-22 23:10:37 GMT 41.972420 -87.920830 0 89 18 32
2021-09-22 23:10:35 GMT 41.972431 -87.920929 0 86 20 32
2021-09-22 23:10:34 GMT 41.972420 -87.921051 0 88 21 32
2021-09-22 23:10:32 GMT 41.972401 -87.921318 0 94 19 32
2021-09-22 23:10:31 GMT 41.972389 -87.921440 0 97 18 32
2021-09-22 23:10:30 GMT 41.972401 -87.921577 0 97 16 32
2021-09-22 23:10:28 GMT 41.972439 -87.921738 0 88 18 32
2021-09-22 23:10:27 GMT 41.972450 -87.921852 0 86 18 32
2021-09-22 23:10:25 GMT 41.972420 -87.922058 0 92 19 32
2021-09-22 23:10:24 GMT 41.972431 -87.922180 0 91 18 32
2021-09-22 23:10:23 GMT 41.972439 -87.922310 0 87 16 32
2021-09-22 23:10:21 GMT 41.972431 -87.922508 0 86 15 32
2021-09-22 23:10:20 GMT 41.972420 -87.922630 0 89 14 32
2021-09-22 23:10:19 GMT 41.972431 -87.922668 0 86 16 32
2021-09-22 23:10:18 GMT 41.972431 -87.922760 0 85 17 32
2021-09-22 23:10:16 GMT 41.972401 -87.922997 0 94 15 32
2021-09-22 23:10:15 GMT 41.972401 -87.923103 0 96 14 32
2021-09-22 23:10:14 GMT 41.972408 -87.923286 0 97 14 32
2021-09-22 23:10:12 GMT 41.972439 -87.923378 0 91 13 32
2021-09-22 23:10:11 GMT 41.972439 -87.923462 0 88 14 32
2021-09-22 23:10:09 GMT 41.972431 -87.923599 0 88 14 32
2021-09-22 23:10:08 GMT 41.972462 -87.923691 0 80 15 32
2021-09-22 23:10:07 GMT 41.972431 -87.923782 0 86 14 32
2021-09-22 23:10:06 GMT 41.972420 -87.923859 0 88 14 32
2021-09-22 23:10:04 GMT 41.972408 -87.924042 0 92 13 32
2021-09-22 23:10:03 GMT 41.972408 -87.924118 0 93 12 32
2021-09-22 23:10:02 GMT 41.972408 -87.924210 0 92 11 32
2021-09-22 23:10:00 GMT 41.972420 -87.924347 0 90 11 32
2021-09-22 23:09:59 GMT 41.972420 -87.924438 0 89 9 32
2021-09-22 23:09:58 GMT 41.972431 -87.924477 0 87 10 32
2021-09-22 23:09:57 GMT 41.972420 -87.924561 0 89 9 32
2021-09-22 23:09:55 GMT 41.972420 -87.924683 0 92 8 32
2021-09-22 23:09:54 GMT 41.972401 -87.924690 0 93 11 32
2021-09-22 23:09:53 GMT 41.972420 -87.924843 0 81 9 32
2021-09-22 23:09:51 GMT 41.972431 -87.924858 0 75 12 32
2021-09-22 23:09:50 GMT 41.972420 -87.924896 0 71 13 32
2021-09-22 23:09:48 GMT 41.972408 -87.925049 0 50 14 32
2021-09-22 23:09:47 GMT 41.972351 -87.925148 0 39 11 32
2021-09-22 23:09:45 GMT 41.972290 -87.925262 0 21 10 32
2021-09-22 23:09:44 GMT 41.972252 -87.925301 0 15 10 32
2021-09-22 23:09:42 GMT 41.972172 -87.925377 0 358 12 32
2021-09-22 23:09:40 GMT 41.972069 -87.925369 0 1 13 32
2021-09-22 23:09:39 GMT 41.972019 -87.925346 0 5 14 32
2021-09-22 23:09:38 GMT 41.971951 -87.925362 0 6 14 32
2021-09-22 23:09:36 GMT 41.971828 -87.925392 0 0 16 32
2021-09-22 23:09:35 GMT 41.971760 -87.925400 0 1 17 32
2021-09-22 23:09:34 GMT 41.971680 -87.925392 0 2 16 32
2021-09-22 23:09:32 GMT 41.971519 -87.925400 0 0 16 32
2021-09-22 23:09:31 GMT 41.971451 -87.925392 0 3 16 32
2021-09-22 23:09:30 GMT 41.971378 -87.925400 0 3 16 32
2021-09-22 23:09:29 GMT 41.971230 -87.925430 0 356 17 32
2021-09-22 23:09:27 GMT 41.971161 -87.925407 0 358 19 32
2021-09-22 23:09:26 GMT 41.971050 -87.925407 0 358 15 32
2021-09-22 23:09:25 GMT 41.970909 -87.925423 0 353 15 32
2021-09-22 23:09:23 GMT 41.970829 -87.925407 0 353 13 32
2021-09-22 23:09:22 GMT 41.970772 -87.925400 0 353 14 32
2021-09-22 23:09:21 GMT 41.970711 -87.925377 0 357 15 32
2021-09-22 23:09:20 GMT 41.970581 -87.925339 0 13 15 32
2021-09-22 23:09:18 GMT 41.970520 -87.925377 0 6 17 32
2021-09-22 23:09:17 GMT 41.970371 -87.925423 0 353 16 32
2021-09-22 23:09:15 GMT 41.970268 -87.925423 0 351 13 32
2021-09-22 23:09:14 GMT 41.970219 -87.925392 0 357 13 32
2021-09-22 23:09:12 GMT 41.970112 -87.925377 0 356 15 32
2021-09-22 23:09:11 GMT 41.970039 -87.925362 0 0 14 32
2021-09-22 23:09:10 GMT 41.969959 -87.925369 0 359 13 32
2021-09-22 23:09:08 GMT 41.969849 -87.925362 0 0 14 32
2021-09-22 23:09:07 GMT 41.969799 -87.925392 0 352 15 32
2021-09-22 23:09:06 GMT 41.969719 -87.925362 0 356 14 32
2021-09-22 23:09:04 GMT 41.969589 -87.925362 0 358 14 32
2021-09-22 23:09:03 GMT 41.969509 -87.925362 0 2 12 32
2021-09-22 23:09:02 GMT 41.969460 -87.925339 0 4 13 32
2021-09-22 23:09:00 GMT 41.969341 -87.925362 0 3 11 32
2021-09-22 23:08:59 GMT 41.969280 -87.925377 0 358 10 32
2021-09-22 23:08:58 GMT 41.969238 -87.925377 0 358 11 32
2021-09-22 23:08:56 GMT 41.969151 -87.925369 0 358 13 32
2021-09-22 23:08:55 GMT 41.969101 -87.925362 0 0 15 32
2021-09-22 23:08:54 GMT 41.968929 -87.925392 0 355 8 32
2021-09-22 23:08:52 GMT 41.968922 -87.925362 0 2 11 32
2021-09-22 23:08:51 GMT 41.968868 -87.925346 0 6 11 32
2021-09-22 23:08:50 GMT 41.968769 -87.925369 0 2 13 32
2021-09-22 23:08:48 GMT 41.968731 -87.925377 0 2 16 32
2021-09-22 23:08:47 GMT 41.968620 -87.925362 0 1 12 32
2021-09-22 23:08:45 GMT 41.968521 -87.925400 0 357 10 32
2021-09-22 23:08:44 GMT 41.968479 -87.925392 0 356 12 32
2021-09-22 23:08:42 GMT 41.968391 -87.925377 0 0 15 32
2021-09-22 23:08:41 GMT 41.968319 -87.925369 0 3 14 32
2021-09-22 23:08:40 GMT 41.968250 -87.925369 0 4 14 32
2021-09-22 23:08:39 GMT 41.968170 -87.925400 0 356 12 32
2021-09-22 23:08:38 GMT 41.968060 -87.925392 0 358 12 32
2021-09-22 23:08:36 GMT 41.967991 -87.925400 0 356 11 32
2021-09-22 23:08:35 GMT 41.967960 -87.925392 0 359 14 32
2021-09-22 23:08:34 GMT 41.967918 -87.925346 0 9 17 32
2021-09-22 23:08:32 GMT 41.967770 -87.925407 0 351 14 32
2021-09-22 23:08:31 GMT 41.967701 -87.925400 0 343 12 32
2021-09-22 23:08:29 GMT 41.967590 -87.925392 0 324 12 32
2021-09-22 23:08:28 GMT 41.967541 -87.925377 0 313 12 32
2021-09-22 23:08:26 GMT 41.967442 -87.925323 0 291 12 32
2021-09-22 23:08:25 GMT 41.967411 -87.925270 0 285 11 32
2021-09-22 23:08:24 GMT 41.967369 -87.925140 0 276 12 32
2021-09-22 23:08:22 GMT 41.967339 -87.925072 0 267 10 32
2021-09-22 23:08:21 GMT 41.967331 -87.925018 0 269 11 32
2021-09-22 23:08:20 GMT 41.967350 -87.924942 0 273 10 32
2021-09-22 23:08:18 GMT 41.967350 -87.924828 0 275 12 32
2021-09-22 23:08:17 GMT 41.967339 -87.924759 0 273 12 32
2021-09-22 23:08:16 GMT 41.967331 -87.924690 0 270 12 32
2021-09-22 23:08:14 GMT 41.967312 -87.924568 0 263 16 32
2021-09-22 23:08:13 GMT 41.967312 -87.924461 0 260 15 32
2021-09-22 23:08:12 GMT 41.967339 -87.924377 0 267 17 32
2021-09-22 23:08:11 GMT 41.967350 -87.924171 0 268 16 32
2021-09-22 23:08:09 GMT 41.967350 -87.924080 0 268 17 32
2021-09-22 23:08:08 GMT 41.967339 -87.923981 0 266 19 32
2021-09-22 23:08:06 GMT 41.967350 -87.923759 0 268 22 32
2021-09-22 23:08:05 GMT 41.967350 -87.923607 0 268 21 32
2021-09-22 23:08:03 GMT 41.967350 -87.923370 0 270 24 32
2021-09-22 23:08:02 GMT 41.967350 -87.923210 0 270 23 32
2021-09-22 23:08:01 GMT 41.967339 -87.923080 0 267 25 32
2021-09-22 23:07:59 GMT 41.967369 -87.922791 0 274 27 32
2021-09-22 23:07:58 GMT 41.967339 -87.922607 0 270 25 32
2021-09-22 23:07:57 GMT 41.967331 -87.922493 0 269 27 32
2021-09-22 23:07:56 GMT 41.967319 -87.922157 0 265 27 32
2021-09-22 23:07:54 GMT 41.967319 -87.921959 0 262 24 32
2021-09-22 23:07:53 GMT 41.967369 -87.921822 0 273 25 32
2021-09-22 23:07:51 GMT 41.967350 -87.921516 0 269 25 32
2021-09-22 23:07:50 GMT 41.967339 -87.921356 0 267 24 32
2021-09-22 23:07:49 GMT 41.967350 -87.921051 0 266 24 32
2021-09-22 23:07:47 GMT 41.967369 -87.920891 0 271 23 32
2021-09-22 23:07:46 GMT 41.967361 -87.920738 0 268 22 32
2021-09-22 23:07:44 GMT 41.967369 -87.920448 0 267 22 32
2021-09-22 23:07:43 GMT 41.967388 -87.920326 0 274 24 32
2021-09-22 23:07:42 GMT 41.967381 -87.920197 0 273 25 32
2021-09-22 23:07:40 GMT 41.967369 -87.919891 0 269 23 32
2021-09-22 23:07:39 GMT 41.967369 -87.919762 0 270 24 32
2021-09-22 23:07:38 GMT 41.967381 -87.919594 0 273 22 32
2021-09-22 23:07:36 GMT 41.967339 -87.919350 0 264 24 32
2021-09-22 23:07:35 GMT 41.967361 -87.919189 0 265 22 32
2021-09-22 23:07:34 GMT 41.967381 -87.918922 0 268 22 32
2021-09-22 23:07:32 GMT 41.967388 -87.918777 0 273 22 32
2021-09-22 23:07:31 GMT 41.967381 -87.918640 0 272 22 32
2021-09-22 23:07:30 GMT 41.967381 -87.918480 0 271 20 32
2021-09-22 23:07:28 GMT 41.967381 -87.918213 0 272 20 32
2021-09-22 23:07:27 GMT 41.967369 -87.918083 0 271 20 32
2021-09-22 23:07:26 GMT 41.967361 -87.917969 0 270 21 32
2021-09-22 23:07:25 GMT 41.967339 -87.917664 0 263 18 32
2021-09-22 23:07:23 GMT 41.967361 -87.917557 0 268 20 32
2021-09-22 23:07:22 GMT 41.967369 -87.917427 0 270 19 32
2021-09-22 23:07:20 GMT 41.967381 -87.917168 0 273 18 32
2021-09-22 23:07:19 GMT 41.967361 -87.917091 0 270 20 32
2021-09-22 23:07:17 GMT 41.967350 -87.916847 0 264 20 32
2021-09-22 23:07:16 GMT 41.967381 -87.916710 0 271 19 32
2021-09-22 23:07:15 GMT 41.967388 -87.916481 0 273 21 32
2021-09-22 23:07:13 GMT 41.967381 -87.916359 0 272 21 32
2021-09-22 23:07:12 GMT 41.967369 -87.916199 0 270 19 32
2021-09-22 23:07:11 GMT 41.967381 -87.916069 0 271 18 32
2021-09-22 23:07:09 GMT 41.967361 -87.915848 0 268 19 32
2021-09-22 23:07:08 GMT 41.967361 -87.915733 0 268 19 32
2021-09-22 23:07:07 GMT 41.967361 -87.915482 0 268 17 32
2021-09-22 23:07:05 GMT 41.967361 -87.915398 0 265 19 32
2021-09-22 23:07:04 GMT 41.967369 -87.915260 0 268 18 32
2021-09-22 23:07:03 GMT 41.967369 -87.915047 0 267 19 32
2021-09-22 23:07:01 GMT 41.967388 -87.914940 0 271 19 32
2021-09-22 23:06:59 GMT 41.967369 -87.914711 0 266 19 32
2021-09-22 23:06:58 GMT 41.967400 -87.914467 0 274 18 32
2021-09-22 23:06:57 GMT 41.967381 -87.914352 0 268 18 32
2021-09-22 23:06:55 GMT 41.967381 -87.914200 0 269 15 32
2021-09-22 23:06:54 GMT 41.967381 -87.914139 0 269 18 32
2021-09-22 23:06:52 GMT 41.967388 -87.913963 0 272 21 32
2021-09-22 23:06:51 GMT 41.967400 -87.913841 0 274 23 32
2021-09-22 23:06:50 GMT 41.967381 -87.913651 0 273 17 32
2021-09-22 23:06:48 GMT 41.967369 -87.913437 0 270 16 32
2021-09-22 23:06:47 GMT 41.967369 -87.913353 0 271 17 32
2021-09-22 23:06:46 GMT 41.967350 -87.913300 0 264 22 32
2021-09-22 23:06:44 GMT 41.967369 -87.912987 0 266 18 32
2021-09-22 23:06:43 GMT 41.967381 -87.912857 0 268 15 32
2021-09-22 23:06:42 GMT 41.967369 -87.912788 0 267 17 32
2021-09-22 23:06:40 GMT 41.967388 -87.912567 0 270 17 32
2021-09-22 23:06:39 GMT 41.967381 -87.912483 0 268 17 32
2021-09-22 23:06:38 GMT 41.967400 -87.912369 0 274 18 32
2021-09-22 23:06:37 GMT 41.967388 -87.912247 0 273 17 32
2021-09-22 23:06:36 GMT 41.967381 -87.912148 0 268 17 32
2021-09-22 23:06:34 GMT 41.967388 -87.911926 0 270 17 32
2021-09-22 23:06:33 GMT 41.967388 -87.911850 0 271 19 32
2021-09-22 23:06:32 GMT 41.967388 -87.911720 0 269 18 32
2021-09-22 23:06:30 GMT 41.967369 -87.911491 0 266 16 32
2021-09-22 23:06:29 GMT 41.967381 -87.911377 0 270 15 32
2021-09-22 23:06:28 GMT 41.967388 -87.911331 0 272 18 32
2021-09-22 23:06:26 GMT 41.967369 -87.911102 0 268 17 32
2021-09-22 23:06:24 GMT 41.967369 -87.910881 0 267 18 32
2021-09-22 23:06:23 GMT 41.967400 -87.910629 0 274 13 32
2021-09-22 23:06:21 GMT 41.967400 -87.910591 0 278 17 32
2021-09-22 23:06:20 GMT 41.967388 -87.910492 0 276 18 32
2021-09-22 23:06:18 GMT 41.967361 -87.910240 0 269 14 32
2021-09-22 23:06:17 GMT 41.967361 -87.910179 0 270 17 32
2021-09-22 23:06:16 GMT 41.967361 -87.910057 0 269 15 32
2021-09-22 23:06:15 GMT 41.967361 -87.909882 0 264 17 32
2021-09-22 23:06:13 GMT 41.967369 -87.909737 0 267 14 32
2021-09-22 23:06:12 GMT 41.967381 -87.909668 0 268 15 32
2021-09-22 23:06:10 GMT 41.967381 -87.909492 0 266 17 32
2021-09-22 23:06:09 GMT 41.967388 -87.909340 0 268 14 32
2021-09-22 23:06:08 GMT 41.967388 -87.909241 0 270 13 32
2021-09-22 23:06:06 GMT 41.967411 -87.909081 0 274 13 32
2021-09-22 23:06:05 GMT 41.967388 -87.909012 0 273 14 32
2021-09-22 23:06:04 GMT 41.967388 -87.908920 0 274 14 32
2021-09-22 23:06:02 GMT 41.967381 -87.908760 0 273 15 32
2021-09-22 23:06:01 GMT 41.967369 -87.908653 0 273 15 32
2021-09-22 23:05:59 GMT 41.967361 -87.908447 0 262 12 32
2021-09-22 23:05:58 GMT 41.967361 -87.908379 0 261 13 32
2021-09-22 23:05:56 GMT 41.967388 -87.908234 0 272 13 32
2021-09-22 23:05:55 GMT 41.967388 -87.908157 0 275 15 32
2021-09-22 23:05:54 GMT 41.967400 -87.908051 0 274 14 32
2021-09-22 23:05:52 GMT 41.967369 -87.907890 0 270 14 32
2021-09-22 23:05:51 GMT 41.967381 -87.907799 0 269 13 32
2021-09-22 23:05:50 GMT 41.967361 -87.907707 0 263 12 32
2021-09-22 23:05:48 GMT 41.967369 -87.907570 0 266 12 32
2021-09-22 23:05:47 GMT 41.967361 -87.907501 0 268 12 32
2021-09-22 23:05:46 GMT 41.967400 -87.907417 0 276 12 32
2021-09-22 23:05:45 GMT 41.967369 -87.907280 0 268 11 32
2021-09-22 23:05:43 GMT 41.967381 -87.907219 0 268 12 32
2021-09-22 23:05:42 GMT 41.967369 -87.907150 0 266 13 32
2021-09-22 23:05:40 GMT 41.967388 -87.906982 0 269 11 32
2021-09-22 23:05:39 GMT 41.967388 -87.906914 0 272 11 32
2021-09-22 23:05:38 GMT 41.967400 -87.906837 0 273 11 32
2021-09-22 23:05:36 GMT 41.967388 -87.906708 0 269 12 32
2021-09-22 23:05:35 GMT 41.967381 -87.906631 0 266 11 32
2021-09-22 23:05:34 GMT 41.967381 -87.906578 0 265 13 32
2021-09-22 23:05:32 GMT 41.967411 -87.906387 0 271 9 32
2021-09-22 23:05:31 GMT 41.967400 -87.906342 0 271 9 32
2021-09-22 23:05:30 GMT 41.967400 -87.906219 0 271 9 32
2021-09-22 23:05:28 GMT 41.967388 -87.906158 0 270 9 32
2021-09-22 23:05:27 GMT 41.967400 -87.906113 0 272 10 32
2021-09-22 23:05:25 GMT 41.967411 -87.905983 0 273 9 32
2021-09-22 23:05:24 GMT 41.967388 -87.905922 0 266 9 32
2021-09-22 23:05:23 GMT 41.967361 -87.905899 0 262 12 32
2021-09-22 23:05:22 GMT 41.967381 -87.905731 0 271 9 32
2021-09-22 23:05:20 GMT 41.967411 -87.905663 0 275 8 32
2021-09-22 23:05:19 GMT 41.967388 -87.905609 0 265 9 32
2021-09-22 23:05:17 GMT 41.967388 -87.905510 0 264 10 32
2021-09-22 23:05:16 GMT 41.967400 -87.905457 0 267 10 32
2021-09-22 23:05:15 GMT 41.967411 -87.905411 0 275 11 32
2021-09-22 23:05:13 GMT 41.967411 -87.905243 0 282 6 32
2021-09-22 23:05:12 GMT 41.967400 -87.905212 0 273 7 32
2021-09-22 23:05:11 GMT 41.967381 -87.905144 0 271 8 32
2021-09-22 23:05:09 GMT 41.967388 -87.905113 0 273 9 32
2021-09-22 23:05:08 GMT 41.967388 -87.905052 0 271 10 32
2021-09-22 23:05:06 GMT 41.967369 -87.904938 0 263 11 32
2021-09-22 23:05:05 GMT 41.967400 -87.904869 0 272 10 32
2021-09-22 23:05:04 GMT 41.967388 -87.904793 0 268 8 32
2021-09-22 23:05:02 GMT 41.967388 -87.904701 0 265 9 32
2021-09-22 23:05:01 GMT 41.967381 -87.904640 0 261 10 32
2021-09-22 23:05:00 GMT 41.967381 -87.904579 0 260 10 32
2021-09-22 23:04:59 GMT 41.967400 -87.904518 0 271 10 32
2021-09-22 23:04:58 GMT 41.967411 -87.904404 0 276 8 32
2021-09-22 23:04:56 GMT 41.967419 -87.904358 0 281 9 32
2021-09-22 23:04:54 GMT 41.967400 -87.904266 0 281 11 32
2021-09-22 23:04:53 GMT 41.967381 -87.904198 0 283 11 32
2021-09-22 23:04:52 GMT 41.967400 -87.904121 0 293 10 32
2021-09-22 23:04:51 GMT 41.967369 -87.903992 0 304 10 32
2021-09-22 23:04:49 GMT 41.967350 -87.903893 0 316 8 32
2021-09-22 23:04:48 GMT 41.967350 -87.903900 0 319 13 32
2021-09-22 23:04:47 GMT 41.967270 -87.903801 0 317 12 32
2021-09-22 23:04:45 GMT 41.967232 -87.903709 0 327 9 32
2021-09-22 23:04:44 GMT 41.967171 -87.903709 0 323 9 32
2021-09-22 23:04:42 GMT 41.967140 -87.903618 0 346 10 32
2021-09-22 23:04:41 GMT 41.967098 -87.903557 0 3 10 32
2021-09-22 23:04:40 GMT 41.967060 -87.903542 0 3 10 32
2021-09-22 23:04:38 GMT 41.966961 -87.903580 0 5 9 32
2021-09-22 23:04:37 GMT 41.966919 -87.903580 0 15 9 32
2021-09-22 23:04:36 GMT 41.966869 -87.903572 0 25 8 32
2021-09-22 23:04:34 GMT 41.966808 -87.903572 0 39 12 32
2021-09-22 23:04:33 GMT 41.966759 -87.903633 0 38 10 32
2021-09-22 23:04:32 GMT 41.966721 -87.903687 0 40 8 32
2021-09-22 23:04:31 GMT 41.966679 -87.903709 0 48 9 32
2021-09-22 23:04:29 GMT 41.966610 -87.903778 0 57 11 32
2021-09-22 23:04:28 GMT 41.966591 -87.903831 0 61 12 32
2021-09-22 23:04:27 GMT 41.966530 -87.903969 0 56 15 32
2021-09-22 23:04:25 GMT 41.966518 -87.904007 0 58 19 32
2021-09-22 23:04:24 GMT 41.966461 -87.904099 0 61 19 32
2021-09-22 23:04:22 GMT 41.966400 -87.904289 0 60 21 32
2021-09-22 23:04:21 GMT 41.966339 -87.904411 0 62 20 32
2021-09-22 23:04:20 GMT 41.966290 -87.904510 0 66 21 32
2021-09-22 23:04:18 GMT 41.966221 -87.904716 0 69 25 32
2021-09-22 23:04:17 GMT 41.966179 -87.904846 0 70 27 32
2021-09-22 23:04:15 GMT 41.966068 -87.905182 0 74 25 32
2021-09-22 23:04:14 GMT 41.966042 -87.905327 0 74 25 32
2021-09-22 23:04:13 GMT 41.966011 -87.905457 0 75 27 32
2021-09-22 23:04:11 GMT 41.965950 -87.905777 0 76 25 32
2021-09-22 23:04:10 GMT 41.965919 -87.905922 0 77 26 32
2021-09-22 23:04:09 GMT 41.965900 -87.906082 0 77 26 32
2021-09-22 23:04:07 GMT 41.965832 -87.906380 0 83 28 32
2021-09-22 23:04:06 GMT 41.965839 -87.906548 0 78 28 32
2021-09-22 23:04:05 GMT 41.965809 -87.906700 0 80 30 32
2021-09-22 23:04:04 GMT 41.965771 -87.906868 0 86 30 32
2021-09-22 23:04:02 GMT 41.965740 -87.907227 0 87 32 32
2021-09-22 23:04:01 GMT 41.965729 -87.907463 0 87 28 32
2021-09-22 23:04:00 GMT 41.965729 -87.907639 0 87 28 32
2021-09-22 23:03:58 GMT 41.965698 -87.908020 0 92 29 32
2021-09-22 23:03:56 GMT 41.965729 -87.908379 0 88 34 32
2021-09-22 23:03:55 GMT 41.965729 -87.908592 0 89 35 32
2021-09-22 23:03:54 GMT 41.965721 -87.908813 0 90 36 32
2021-09-22 23:03:52 GMT 41.965721 -87.909264 0 91 42 32
2021-09-22 23:03:51 GMT 41.965710 -87.909538 525 92 42 32
2021-09-22 23:03:49 GMT 41.965740 -87.910072 525 89 48 32
2021-09-22 23:03:48 GMT 41.965740 -87.910362 525 89 51 32
2021-09-22 23:03:47 GMT 41.965721 -87.910698 525 90 51 32
2021-09-22 23:03:45 GMT 41.965710 -87.911339 525 91 57 32
2021-09-22 23:03:44 GMT 41.965698 -87.911713 525 92 60 32
2021-09-22 23:03:43 GMT 41.965721 -87.912071 525 91 64 32
2021-09-22 23:03:41 GMT 41.965752 -87.912888 525 88 70 32
2021-09-22 23:03:40 GMT 41.965740 -87.913300 525 89 76 32
2021-09-22 23:03:38 GMT 41.965710 -87.914261 525 90 82 32
2021-09-22 23:03:37 GMT 41.965698 -87.914742 525 91 85 32
2021-09-22 23:03:35 GMT 41.965740 -87.915817 525 89 91 32
2021-09-22 23:03:34 GMT 41.965752 -87.916367 525 88 97 32
2021-09-22 23:03:33 GMT 41.965729 -87.916946 525 90 101 32
2021-09-22 23:03:32 GMT 41.965729 -87.917557 500 89 106 -160
2021-09-22 23:03:30 GMT 41.965729 -87.918861 525 90 114 -160
2021-09-22 23:03:29 GMT 41.965759 -87.919510 525 89 121 -192
2021-09-22 23:03:27 GMT 41.965759 -87.920967 500 88 129 -192
2021-09-22 23:03:26 GMT 41.965759 -87.921730 500 88 133 -192
2021-09-22 23:03:25 GMT 41.965740 -87.922539 500 88 135 -192
2021-09-22 23:03:24 GMT 41.965691 -87.924179 500 90 140 -192
2021-09-22 23:03:22 GMT 41.965698 -87.925056 475 89 139 -192
2021-09-22 23:03:21 GMT 41.965691 -87.925911 475 89 141 -192
2021-09-22 23:03:19 GMT 41.965679 -87.927673 525 89 140 -192
2021-09-22 23:03:18 GMT 41.965660 -87.928520 525 90 144 -192
2021-09-22 23:03:17 GMT 41.965679 -87.929413 550 90 143 -192
2021-09-22 23:03:16 GMT 41.965679 -87.931190 550 89 144 -192
2021-09-22 23:03:14 GMT 41.965660 -87.932098 575 90 139 -192
2021-09-22 23:03:13 GMT 41.965691 -87.932938 625 88 143 -192
2021-09-22 23:03:12 GMT 41.965679 -87.933792 625 89 147 -192
2021-09-22 23:03:10 GMT 41.965641 -87.935547 625 91 150 -192
2021-09-22 23:03:09 GMT 41.965679 -87.936508 625 88 143 -192
2021-09-22 23:03:08 GMT 41.965679 -87.938332 650 88 141 -192
2021-09-22 23:03:06 GMT 41.965649 -87.939171 700 89 147 -192
2021-09-22 23:03:05 GMT 41.965649 -87.940132 700 89 143 -192
2021-09-22 23:03:04 GMT 41.965649 -87.940971 700 88 147 -192
2021-09-22 23:03:02 GMT 41.965630 -87.942787 700 89 147 -192
2021-09-22 23:03:01 GMT 41.965591 -87.943779 725 90 139 -192
2021-09-22 23:03:00 GMT 41.965649 -87.945419 800 88 144 -192
2021-09-22 23:02:58 GMT 41.965611 -87.946289 800 90 149 -192
2021-09-22 23:02:57 GMT 41.965630 -87.947227 800 89 145 -960
2021-09-22 23:02:55 GMT 41.965611 -87.949013 900 89 148 -960
2021-09-22 23:02:54 GMT 41.965618 -87.949890 900 87 151 -960
2021-09-22 23:02:53 GMT 41.965530 -87.950890 900 90 145 -960
2021-09-22 23:02:51 GMT 41.965591 -87.952690 900 88 146 -960
2021-09-22 23:02:50 GMT 41.965549 -87.953621 900 90 145 -960
2021-09-22 23:02:49 GMT 41.965569 -87.954529 900 89 145 -960
2021-09-22 23:02:48 GMT 41.965549 -87.956360 900 90 141 -960
2021-09-22 23:02:46 GMT 41.965542 -87.957199 900 90 145 -960
2021-09-22 23:02:45 GMT 41.965561 -87.958099 925 90 143 -960
2021-09-22 23:02:44 GMT 41.965530 -87.958992 1,000 91 144 -960
2021-09-22 23:02:42 GMT 41.965561 -87.960777 1,000 90 143 -960
2021-09-22 23:02:41 GMT 41.965569 -87.961678 1,025 89 140 -960
2021-09-22 23:02:40 GMT 41.965561 -87.963379 1,025 90 149 -960
2021-09-22 23:02:38 GMT 41.965569 -87.964279 1,025 89 150 -960
2021-09-22 23:02:37 GMT 41.965580 -87.965279 1,100 89 144 -960
2021-09-22 23:02:36 GMT 41.965618 -87.967056 1,050 86 145 -960
2021-09-22 23:02:34 GMT 41.965530 -87.967949 1,100 89 147 -960
2021-09-22 23:02:33 GMT 41.965500 -87.968910 1,100 91 143 -960
2021-09-22 23:02:32 GMT 41.965500 -87.969727 1,100 91 146 -960
2021-09-22 23:02:31 GMT 41.965542 -87.971519 1,200 89 149 -960
2021-09-22 23:02:29 GMT 41.965542 -87.972488 1,200 88 141 -960
2021-09-22 23:02:28 GMT 41.965511 -87.973419 1,200 88 139 -960
2021-09-22 23:02:26 GMT 41.965500 -87.975121 1,175 88 141 -960
2021-09-22 23:02:25 GMT 41.965462 -87.975998 1,175 90 141 -960
2021-09-22 23:02:23 GMT 41.965481 -87.977676 1,200 90 151 -960
2021-09-22 23:02:22 GMT 41.965488 -87.978653 1,225 89 147 -960
2021-09-22 23:02:21 GMT 41.965469 -87.979584 1,300 90 145 -960
2021-09-22 23:02:19 GMT 41.965549 -87.981430 1,300 88 143 -960
2021-09-22 23:02:18 GMT 41.965500 -87.982338 1,300 90 141 -960
2021-09-22 23:02:17 GMT 41.965500 -87.983162 1,300 90 144 -960
2021-09-22 23:02:15 GMT 41.965488 -87.984970 1,300 92 145 -960
2021-09-22 23:02:14 GMT 41.965591 -87.985878 1,300 88 145 -960
2021-09-22 23:02:12 GMT 41.965569 -87.987663 1,400 89 146 -960
2021-09-22 23:02:11 GMT 41.965530 -87.988632 1,400 90 143 -960
2021-09-22 23:02:10 GMT 41.965519 -87.989441 1,400 90 147 -960
2021-09-22 23:02:09 GMT 41.965530 -87.990387 1,400 90 146 -960
2021-09-22 23:02:07 GMT 41.965519 -87.992142 1,500 90 149 -960
2021-09-22 23:02:06 GMT 41.965519 -87.993073 1,500 90 149 -960
2021-09-22 23:02:04 GMT 41.965542 -87.994957 1,500 90 144 -960
2021-09-22 23:02:03 GMT 41.965542 -87.995918 1,500 89 143 -960
2021-09-22 23:02:02 GMT 41.965542 -87.996750 1,500 89 146 -960
2021-09-22 23:02:00 GMT 41.965519 -87.998466 1,500 90 152 -960
2021-09-22 23:01:59 GMT 41.965530 -87.999397 1,600 89 153 -960
2021-09-22 23:01:58 GMT 41.965549 -88.000351 1,600 89 152 -960
2021-09-22 23:01:57 GMT 41.965549 -88.002281 1,600 89 150 -832
2021-09-22 23:01:55 GMT 41.965542 -88.003227 1,600 89 149 -832
2021-09-22 23:01:54 GMT 41.965530 -88.004028 1,700 89 155 -832
2021-09-22 23:01:52 GMT 41.965500 -88.006012 1,700 89 152 -832
2021-09-22 23:01:51 GMT 41.965488 -88.006943 1,700 89 153 -832
2021-09-22 23:01:50 GMT 41.965481 -88.007843 1,700 89 155 -832
2021-09-22 23:01:49 GMT 41.965488 -88.008789 1,700 89 156 -832
2021-09-22 23:01:48 GMT 41.965469 -88.010818 1,700 90 149 -832
2021-09-22 23:01:46 GMT 41.965481 -88.011673 1,700 90 154 -832
2021-09-22 23:01:45 GMT 41.965488 -88.013580 1,800 89 155 -832
2021-09-22 23:01:43 GMT 41.965500 -88.014503 1,800 89 157 -832
2021-09-22 23:01:42 GMT 41.965481 -88.015503 1,800 89 155 -832
2021-09-22 23:01:41 GMT 41.965481 -88.016472 1,800 89 156 -832
2021-09-22 23:01:39 GMT 41.965462 -88.018494 1,800 89 152 -832
2021-09-22 23:01:38 GMT 41.965450 -88.019379 1,800 89 155 -832
2021-09-22 23:01:37 GMT 41.965450 -88.020332 1,900 89 156 -832
2021-09-22 23:01:35 GMT 41.965431 -88.022232 1,900 90 160 -832
2021-09-22 23:01:34 GMT 41.965439 -88.023178 1,900 90 162 -832
2021-09-22 23:01:32 GMT 41.965431 -88.025169 1,900 90 164 -832
2021-09-22 23:01:31 GMT 41.965431 -88.026192 2,000 90 163 -832
2021-09-22 23:01:29 GMT 41.965439 -88.028198 2,000 90 166 -832
2021-09-22 23:01:28 GMT 41.965439 -88.029198 2,000 90 167 -832
2021-09-22 23:01:26 GMT 41.965462 -88.031273 2,000 89 167 -832
2021-09-22 23:01:25 GMT 41.965462 -88.032257 2,000 89 170 -832
2021-09-22 23:01:24 GMT 41.965462 -88.033348 2,000 89 167 -832
2021-09-22 23:01:23 GMT 41.965450 -88.034409 2,100 89 167 -832
2021-09-22 23:01:21 GMT 41.965462 -88.036400 2,100 89 173 -832
2021-09-22 23:01:20 GMT 41.965439 -88.037491 2,100 89 172 -832
2021-09-22 23:01:18 GMT 41.965401 -88.039627 2,100 89 173 -832
2021-09-22 23:01:16 GMT 41.965401 -88.041786 2,200 89 173 -832
2021-09-22 23:01:14 GMT 41.965408 -88.043961 2,200 89 172 -832
2021-09-22 23:01:13 GMT 41.965401 -88.044968 2,300 89 175 -832
2021-09-22 23:01:12 GMT 41.965389 -88.046089 2,300 89 174 -832
2021-09-22 23:01:11 GMT 41.965370 -88.048210 2,300 89 178 -832
2021-09-22 23:01:09 GMT 41.965351 -88.049316 2,300 90 176 -832
2021-09-22 23:01:08 GMT 41.965351 -88.050423 2,400 90 177 -832
2021-09-22 23:01:07 GMT 41.965340 -88.051552 2,400 90 176 -832
2021-09-22 23:01:05 GMT 41.965351 -88.053650 2,400 90 183 -832
2021-09-22 23:01:04 GMT 41.965351 -88.054710 2,400 89 190 -832
2021-09-22 23:01:03 GMT 41.965340 -88.055748 2,400 90 197 -832
2021-09-22 23:00:57 GMT 41.965347 -88.061974 2,450 89 177 -960
2021-09-22 23:00:54 GMT 41.965347 -88.065659 2,475 89 176 -960
2021-09-22 23:00:52 GMT 41.965302 -88.068527 2,525 89 176 -1024
2021-09-22 23:00:47 GMT 41.965305 -88.073242 2,625 89 177 -1024
2021-09-22 23:00:44 GMT 41.965260 -88.077393 2,650 90 177 -1024
2021-09-22 23:00:41 GMT 41.965260 -88.080009 2,700 89 178 -1024
2021-09-22 23:00:35 GMT 41.965256 -88.087631 2,800 90 178 -960
2021-09-22 23:00:32 GMT 41.965210 -88.095810 2,925 89 179 -1024
2021-09-22 23:00:27 GMT 41.965210 -88.095810 2,925 89 179 -1024
2021-09-22 23:00:23 GMT 41.965214 -88.099937 2,975 89 179 -1088
2021-09-22 23:00:19 GMT 41.965214 -88.103897 3,050 89 179 -1152
2021-09-22 23:00:16 GMT 41.965168 -88.107285 3,100 89 179 -1088
2021-09-22 23:00:12 GMT 41.965164 -88.111786 3,175 89 178 -1024
2021-09-22 23:00:10 GMT 41.965164 -88.114906 3,250 90 178 -960
2021-09-22 23:00:06 GMT 41.965164 -88.118217 3,300 90 177 -1024
2021-09-22 23:00:03 GMT 41.965164 -88.122833 3,325 89 177 -960
2021-09-22 23:00:00 GMT 41.965118 -88.130470 3,400 89 178 -896
2021-09-22 22:59:55 GMT 41.965118 -88.130470 3,650 89 179 -1024
2021-09-22 22:59:51 GMT 41.965118 -88.135635 3,525 89 178 -960
2021-09-22 22:59:48 GMT 41.965073 -88.139282 3,575 89 179 -1024
2021-09-22 22:59:45 GMT 41.965073 -88.141266 3,600 89 179 -1024
2021-09-22 22:59:42 GMT 41.965073 -88.144936 3,675 89 179 -1088
2021-09-22 22:59:39 GMT 41.965073 -88.148613 3,725 89 178 -1024
2021-09-22 22:59:36 GMT 41.965027 -88.156342 3,875 89 178 -1024
2021-09-22 22:59:32 GMT 41.965027 -88.156342 3,850 89 178 -960
2021-09-22 22:59:29 GMT 41.964981 -88.159218 3,850 89 178 -960
2021-09-22 22:59:25 GMT 41.964981 -88.163284 4,000 89 178 -1024
2021-09-22 22:59:21 GMT 41.964981 -88.168732 4,000 89 178 -1088
2021-09-22 22:59:18 GMT 41.964935 -88.172340 4,050 89 179 -1088
2021-09-22 22:59:15 GMT 41.964935 -88.174583 5,825 89 200 -1600
2021-09-22 22:59:11 GMT 41.964935 -88.178886 4,175 89 179 -1088
2021-09-22 22:59:08 GMT 41.964935 -88.183014 4,225 89 179 -1024
2021-09-22 22:59:04 GMT 41.964886 -88.186234 4,275 89 179 -1024
2021-09-22 22:59:01 GMT 41.964890 -88.190498 4,350 89 178 -960
2021-09-22 22:58:56 GMT 41.964886 -88.195305 4,475 89 178 -896
2021-09-22 22:58:53 GMT 41.964844 -88.200676 4,475 89 178 -896
2021-09-22 22:58:50 GMT 41.964844 -88.202049 4,500 89 178 -896
2021-09-22 22:58:47 GMT 41.964844 -88.205795 4,550 89 178 -896
2021-09-22 22:58:45 GMT 41.964840 -88.208778 4,600 89 178 -896
2021-09-22 22:58:42 GMT 41.964840 -88.211403 4,625 89 178 -832
2021-09-22 22:58:38 GMT 41.964794 -88.216064 4,675 89 179 -960
2021-09-22 22:58:34 GMT 41.964794 -88.219643 4,750 89 179 -1024
2021-09-22 22:58:32 GMT 41.964752 -88.223274 4,775 89 180 -1024
2021-09-22 22:58:29 GMT 41.964752 -88.226646 4,825 89 181 -1088
2021-09-22 22:58:25 GMT 41.964706 -88.230019 4,875 89 183 -1088
2021-09-22 22:58:23 GMT 41.964703 -88.231712 4,900 89 183 -1088
2021-09-22 22:58:20 GMT 41.964653 -88.235992 5,275 89 192 -1536
2021-09-22 22:58:17 GMT 41.964607 -88.239441 5,100 89 189 -1280
2021-09-22 22:58:14 GMT 41.964615 -88.242874 5,100 89 190 -1408
2021-09-22 22:58:11 GMT 41.964569 -88.247116 5,275 89 197 -1664
2021-09-22 22:58:08 GMT 41.964569 -88.250740 5,275 89 197 -1664
2021-09-22 22:58:04 GMT 41.964561 -88.255089 5,375 89 202 -1664
2021-09-22 22:58:01 GMT 41.964516 -88.260330 5,475 89 204 -1600
2021-09-22 22:57:58 GMT 41.964516 -88.262886 5,525 90 206 -1408
2021-09-22 22:57:55 GMT 41.964516 -88.271568 5,650 89 206 -1280
2021-09-22 22:57:52 GMT 41.964516 -88.271568 5,675 89 207 -1152
2021-09-22 22:57:48 GMT 41.964516 -88.275146 5,750 89 208 -896
2021-09-22 22:57:45 GMT 41.964466 -88.278786 5,800 89 211 -256
2021-09-22 22:57:42 GMT 41.964466 -88.282875 5,800 89 210 -384
2021-09-22 22:57:40 GMT 41.964432 -88.288002 5,825 89 211 -128
2021-09-22 22:57:37 GMT 41.964432 -88.290627 5,825 89 211 -128
2021-09-22 22:57:31 GMT 41.964329 -88.298843 5,825 89 211 -64
2021-09-22 22:57:28 GMT 41.964294 -88.302864 5,825 89 211 -64
2021-09-22 22:57:25 GMT 41.964294 -88.305481 5,825 89 211 -64
2021-09-22 22:57:21 GMT 41.964233 -88.311111 5,825 89 211 -64
2021-09-22 22:57:18 GMT 41.964233 -88.315071 5,825 89 211 -64
2021-09-22 22:57:15 GMT 41.964188 -88.319733 5,825 90 211 -64
2021-09-22 22:57:12 GMT 41.964188 -88.322350 5,825 90 211 -64
2021-09-22 22:57:08 GMT 41.964203 -88.329018 5,825 90 211 -64
2021-09-22 22:57:05 GMT 41.964249 -88.332199 5,825 90 211 -64
2021-09-22 22:57:01 GMT 41.964249 -88.336884 5,850 90 211 -64
2021-09-22 22:56:58 GMT 41.964283 -88.340935 5,825 90 211 -64
2021-09-22 22:56:55 GMT 41.964249 -88.344498 5,825 88 210 -64
2021-09-22 22:56:51 GMT 41.964142 -88.350327 5,850 87 210 0
2021-09-22 22:56:47 GMT 41.963863 -88.355820 5,850 84 209 64
2021-09-22 22:56:44 GMT 41.963676 -88.358116 5,825 71 205 -64
2021-09-22 22:56:41 GMT 41.963120 -88.362976 5,825 76 206 64
2021-09-22 22:56:37 GMT 41.962093 -88.367889 5,825 71 205 -64
2021-09-22 22:56:34 GMT 41.961090 -88.371338 5,825 64 203 -64
2021-09-22 22:56:30 GMT 41.959259 -88.376022 5,825 59 202 -128
2021-09-22 22:56:26 GMT 41.957577 -88.379837 5,850 58 202 -64
2021-09-22 22:56:24 GMT 41.956413 -88.382393 5,850 58 202 -64
2021-09-22 22:56:20 GMT 41.954227 -88.387054 5,850 56 202 -64
2021-09-22 22:56:16 GMT 41.951992 -88.391464 5,850 54 203 0
2021-09-22 22:56:13 GMT 41.950241 -88.394562 5,850 52 202 64
2021-09-22 22:56:09 GMT 41.948269 -88.397720 5,825 39 201 -64
2021-09-22 22:56:05 GMT 41.945206 -88.401550 5,825 34 199 0
2021-09-22 22:56:01 GMT 41.942032 -88.404366 5,825 30 199 0
2021-09-22 22:55:58 GMT 41.940811 -88.405174 5,825 22 199 0
2021-09-22 22:55:55 GMT 41.937698 -88.406731 5,825 13 199 64
2021-09-22 22:55:49 GMT 41.931061 -88.408043 5,825 0 203 -64
2021-09-22 22:55:46 GMT 41.928635 -88.407921 5,825 357 204 -64
2021-09-22 22:55:43 GMT 41.926666 -88.407745 5,825 354 205 -64
2021-09-22 22:55:39 GMT 41.922775 -88.407043 5,825 352 206 -64
2021-09-22 22:55:36 GMT 41.919498 -88.406410 5,825 352 206 0
2021-09-22 22:55:33 GMT 41.916100 -88.405769 5,825 352 206 0
2021-09-22 22:55:30 GMT 41.913074 -88.405128 5,825 352 206 -64
2021-09-22 22:55:26 GMT 41.910049 -88.404556 5,850 350 207 -64
2021-09-22 22:55:23 GMT 41.907394 -88.403976 5,825 351 206 -64
2021-09-22 22:55:20 GMT 41.903732 -88.403114 5,850 350 207 -64
2021-09-22 22:55:15 GMT 41.900711 -88.402367 5,850 348 207 -64
2021-09-22 22:55:12 GMT 41.896641 -88.401237 5,850 346 207 -64
2021-09-22 22:55:09 GMT 41.894485 -88.400490 5,850 341 209 64
2021-09-22 22:55:06 GMT 41.890961 -88.399117 5,850 341 209 64
2021-09-22 22:55:02 GMT 41.887344 -88.397179 5,850 332 212 0
2021-09-22 22:54:59 GMT 41.885700 -88.396057 5,850 330 213 -64
2021-09-22 22:54:54 GMT 41.881714 -88.392311 5,850 303 226 64
2021-09-22 22:54:51 GMT 41.879326 -88.389221 5,850 310 222 0
2021-09-22 22:54:49 GMT 41.874390 -88.379135 5,825 267 244 -64
2021-09-22 22:54:43 GMT 41.874390 -88.379135 5,825 276 239 -64
2021-09-22 22:54:40 GMT 41.873291 -88.375275 5,825 287 233 0
2021-09-22 22:54:35 GMT 41.872055 -88.368469 5,825 276 239 -64
2021-09-22 22:54:32 GMT 41.871643 -88.363472 5,825 269 243 0
2021-09-22 22:54:29 GMT 41.871597 -88.358978 5,825 270 243 0
2021-09-22 22:54:25 GMT 41.871689 -88.353394 5,825 267 244 0
2021-09-22 22:54:19 GMT 41.872055 -88.343872 5,825 267 244 0
2021-09-22 22:54:15 GMT 41.872330 -88.336884 5,825 267 244 -64
2021-09-22 22:54:12 GMT 41.872482 -88.333145 5,850 267 244 -64
2021-09-22 22:54:09 GMT 41.872665 -88.329185 5,850 267 244 -64
2021-09-22 22:54:03 GMT 41.873016 -88.319656 5,825 268 243 64
2021-09-22 22:53:59 GMT 41.873226 -88.314049 5,825 268 243 64
2021-09-22 22:53:57 GMT 41.873596 -88.305298 5,825 268 243 64
2021-09-22 22:53:54 GMT 41.873596 -88.305298 5,825 268 243 0
2021-09-22 22:53:51 GMT 41.873878 -88.297760 5,825 268 244 0
2021-09-22 22:53:48 GMT 41.873878 -88.297760 5,825 268 244 -64
2021-09-22 22:53:41 GMT 41.874252 -88.286697 5,825 268 245 0
2021-09-22 22:53:37 GMT 41.874435 -88.280830 5,825 268 245 -64
2021-09-22 22:53:34 GMT 41.874802 -88.270653 5,850 268 245 0
2021-09-22 22:53:30 GMT 41.874802 -88.270653 5,825 268 245 0
2021-09-22 22:53:26 GMT 41.875042 -88.264671 5,825 268 248 64
2021-09-22 22:53:21 GMT 41.875320 -88.256432 5,825 268 256 0
2021-09-22 22:53:17 GMT 41.875580 -88.249428 5,825 268 254 0
2021-09-22 22:53:14 GMT 41.875671 -88.246872 5,825 268 256 0
2021-09-22 22:53:10 GMT 41.875973 -88.238098 5,825 268 289 -1152
2021-09-22 22:53:07 GMT 41.876266 -88.230141 5,825 268 265 0
2021-09-22 22:53:04 GMT 41.876266 -88.230141 7,175 268 291 -1280
2021-09-22 22:53:02 GMT 41.876438 -88.225327 5,825 268 268 0
2021-09-22 22:52:57 GMT 41.876717 -88.217339 5,825 268 276 -128
2021-09-22 22:52:54 GMT 41.876858 -88.213249 5,825 268 275 -64
2021-09-22 22:52:51 GMT 41.877045 -88.207664 5,825 268 278 -256
2021-09-22 22:52:47 GMT 41.877457 -88.195244 5,850 268 280 -448
2021-09-22 22:52:44 GMT 41.877457 -88.195244 5,850 268 281 -512
2021-09-22 22:52:42 GMT 41.877548 -88.192810 5,875 268 282 -512
2021-09-22 22:52:39 GMT 41.877777 -88.185074 5,925 268 284 -576
2021-09-22 22:52:36 GMT 41.877930 -88.180679 5,925 268 285 -704
2021-09-22 22:52:33 GMT 41.878067 -88.176079 5,975 268 286 -832
2021-09-22 22:52:31 GMT 41.878189 -88.172714 6,000 268 286 -960
2021-09-22 22:52:28 GMT 41.878391 -88.167580 6,050 268 287 -1088
2021-09-22 22:52:24 GMT 41.878601 -88.160599 6,125 268 288 -1216
2021-09-22 22:52:21 GMT 41.878860 -88.154358 6,175 268 288 -1216
2021-09-22 22:52:18 GMT 41.879044 -88.148674 6,275 268 289 -1152
2021-09-22 22:52:14 GMT 41.879288 -88.142746 6,325 268 289 -1088
2021-09-22 22:52:11 GMT 41.879471 -88.138130 6,400 268 290 -1152
2021-09-22 22:52:07 GMT 41.879791 -88.130028 6,475 268 290 -1152
2021-09-22 22:52:04 GMT 41.880020 -88.123772 6,600 268 291 -1216
2021-09-22 22:51:59 GMT 41.880348 -88.114182 6,600 268 291 -1216
2021-09-22 22:51:56 GMT 41.880524 -88.108604 6,700 268 291 -1280
2021-09-22 22:51:53 GMT 41.880661 -88.105049 6,750 268 291 -1280
2021-09-22 22:51:50 GMT 41.880905 -88.098724 6,775 268 291 -1280
2021-09-22 22:51:48 GMT 41.881046 -88.094002 6,850 268 291 -1280
2021-09-22 22:51:45 GMT 41.881142 -88.090744 6,900 268 292 -1280
2021-09-22 22:51:42 GMT 41.881371 -88.084610 6,950 268 292 -1280
2021-09-22 22:51:39 GMT 41.881531 -88.079765 7,000 268 292 -1344
2021-09-22 22:51:34 GMT 41.881897 -88.069588 7,125 268 292 -1344
2021-09-22 22:51:31 GMT 41.882126 -88.064156 7,175 268 292 -1344
2021-09-22 22:51:28 GMT 41.882309 -88.058357 7,275 268 292 -1344
2021-09-22 22:51:25 GMT 41.882492 -88.053299 7,300 268 292 -1344
2021-09-22 22:51:21 GMT 41.882721 -88.048073 7,375 268 292 -1344
2021-09-22 22:51:18 GMT 41.882996 -88.041000 7,450 268 293 -1280
2021-09-22 22:51:16 GMT 41.883179 -88.036255 7,525 268 293 -1280
2021-09-22 22:51:12 GMT 41.883373 -88.030319 7,575 268 293 -1216
2021-09-22 22:51:07 GMT 41.883728 -88.021713 7,700 268 294 -1152
2021-09-22 22:51:05 GMT 41.883839 -88.017540 7,725 268 294 -1152
2021-09-22 22:51:02 GMT 41.884071 -88.011024 7,775 269 294 -1216
2021-09-22 22:50:59 GMT 41.884186 -88.005356 7,850 269 294 -1280
2021-09-22 22:50:56 GMT 41.884323 -87.999863 7,900 269 295 -1280
2021-09-22 22:50:52 GMT 41.884399 -87.992760 8,000 270 295 -1216
2021-09-22 22:50:49 GMT 41.884491 -87.987267 8,050 270 295 -1280
2021-09-22 22:50:46 GMT 41.885181 -87.977493 8,125 270 296 -1280
2021-09-22 22:50:43 GMT 41.885181 -87.977493 8,900 270 301 -1376
2021-09-22 22:50:42 GMT 41.885170 -87.975616 8,900 270 301 -1376
2021-09-22 22:50:41 GMT 41.885170 -87.971893 8,900 270 301 -1376
2021-09-22 22:50:39 GMT 41.885159 -87.968163 8,900 270 301 -1376
2021-09-22 22:50:36 GMT 41.885151 -87.964432 8,900 270 301 -1376
2021-09-22 22:50:35 GMT 41.885151 -87.962563 8,900 270 301 -1376
2021-09-22 22:50:34 GMT 41.885139 -87.960701 8,900 270 301 -1376
2021-09-22 22:50:32 GMT 41.885139 -87.956970 8,900 270 301 -1376
2021-09-22 22:50:31 GMT 41.885132 -87.955101 8,900 270 301 -1376
2021-09-22 22:50:30 GMT 41.885132 -87.953232 8,900 270 301 -1376
2021-09-22 22:50:28 GMT 41.885120 -87.949501 8,900 270 301 -1376
2021-09-22 22:50:27 GMT 41.885120 -87.947639 8,900 270 301 -1376
2021-09-22 22:50:26 GMT 41.885109 -87.945770 8,900 270 301 -1376
2021-09-22 22:50:25 GMT 41.885109 -87.943909 8,900 270 301 -1376
2021-09-22 22:50:23 GMT 41.885101 -87.940178 8,900 270 301 -1376
2021-09-22 22:50:22 GMT 41.885101 -87.938309 8,900 270 301 -1376
2021-09-22 22:50:21 GMT 41.885090 -87.934578 8,900 270 301 -1376
2021-09-22 22:50:19 GMT 41.885078 -87.932709 8,900 270 301 -1376
2021-09-22 22:50:17 GMT 41.885078 -87.928978 8,900 270 301 -1376
2021-09-22 22:50:16 GMT 41.885071 -87.927116 8,900 270 301 -1376
2021-09-22 22:50:15 GMT 41.885071 -87.925247 8,900 270 301 -1376
2021-09-22 22:50:14 GMT 41.885059 -87.923393 8,900 270 301 -1376
2021-09-22 22:50:13 GMT 41.885059 -87.921516 8,900 270 301 -1376
2021-09-22 22:50:11 GMT 41.885021 -87.917503 9,000 270 299 -1376
2021-09-22 22:50:10 GMT 41.885021 -87.915649 9,000 270 299 -1376
2021-09-22 22:50:08 GMT 41.885029 -87.911949 9,000 270 299 -1376
2021-09-22 22:50:07 GMT 41.885101 -87.909920 9,200 270 297 -1376
2021-09-22 22:50:06 GMT 41.885101 -87.908081 9,200 270 297 -1376
2021-09-22 22:50:04 GMT 41.885090 -87.904388 9,200 270 297 -1376
2021-09-22 22:50:03 GMT 41.885040 -87.902031 9,200 269 293 -1376
2021-09-22 22:50:02 GMT 41.885040 -87.900223 9,200 269 293 -1376
2021-09-22 22:50:00 GMT 41.885059 -87.896584 9,200 269 293 -1376
2021-09-22 22:49:59 GMT 41.885059 -87.894760 9,200 269 293 -1376
2021-09-22 22:49:58 GMT 41.885132 -87.892326 9,300 269 289 -1376
2021-09-22 22:49:56 GMT 41.885139 -87.888748 9,300 269 289 -32
2021-09-22 22:49:55 GMT 41.885151 -87.886963 9,300 269 289 -32
2021-09-22 22:49:53 GMT 41.884472 -87.885529 9,300 269 289 -32
2021-09-22 22:49:52 GMT 41.884499 -87.883636 9,400 268 305 -32
2021-09-22 22:49:51 GMT 41.884529 -87.881752 9,400 268 305 -32
2021-09-22 22:49:50 GMT 41.884571 -87.879860 9,400 268 305 -32
2021-09-22 22:49:48 GMT 41.884281 -87.876328 9,500 267 306 -32
2021-09-22 22:49:47 GMT 41.884361 -87.874428 9,500 267 306 -32
2021-09-22 22:49:45 GMT 41.884399 -87.868721 9,700 268 304 -32
2021-09-22 22:49:42 GMT 41.884548 -87.864960 9,700 268 304 -32
2021-09-22 22:49:41 GMT 41.884621 -87.863083 9,700 268 304 -32
2021-09-22 22:49:40 GMT 41.884811 -87.861259 9,700 271 303 -32
2021-09-22 22:49:38 GMT 41.884869 -87.857498 9,700 271 303 -32
2021-09-22 22:49:37 GMT 41.884892 -87.855629 9,700 271 303 -32
2021-09-22 22:49:36 GMT 41.884918 -87.853752 9,700 271 303 -32
2021-09-22 22:49:33 GMT 41.885571 -87.848457 9,800 277 307 -32
2021-09-22 22:49:31 GMT 41.885319 -87.844673 9,800 277 307 -32
2021-09-22 22:49:30 GMT 41.885189 -87.842781 9,800 277 307 -32
2021-09-22 22:49:28 GMT 41.884941 -87.838989 9,800 277 307 -32
2021-09-22 22:49:27 GMT 41.884819 -87.837097 9,800 277 307 -32
2021-09-22 22:49:25 GMT 41.884701 -87.833153 9,800 282 303 -32
2021-09-22 22:49:24 GMT 41.884510 -87.831291 9,800 282 303 -32
2021-09-22 22:49:23 GMT 41.884319 -87.829430 9,800 282 303 -32
2021-09-22 22:49:21 GMT 41.886360 -87.823776 9,800 282 303 -32
2021-09-22 22:49:20 GMT 41.885880 -87.822067 9,800 292 294 -32
2021-09-22 22:49:19 GMT 41.885399 -87.820374 9,800 292 294 -32
2021-09-22 22:49:18 GMT 41.884441 -87.816963 9,800 292 294 -32
2021-09-22 22:49:16 GMT 41.883968 -87.815262 9,800 292 294 -32
2021-09-22 22:49:15 GMT 41.883492 -87.813560 9,800 292 294 -32
2021-09-22 22:49:14 GMT 41.883011 -87.811859 9,800 292 294 -32
2021-09-22 22:49:12 GMT 41.882050 -87.808449 9,800 292 294 -32
2021-09-22 22:49:11 GMT 41.881580 -87.806747 9,800 292 294 -32
2021-09-22 22:49:09 GMT 41.880619 -87.803337 9,800 292 294 -32
2021-09-22 22:49:08 GMT 41.880138 -87.801643 9,800 292 294 -32
2021-09-22 22:49:07 GMT 41.880211 -87.799316 9,800 298 295 -32
2021-09-22 22:49:05 GMT 41.879009 -87.796043 9,800 298 295 -32
2021-09-22 22:49:04 GMT 41.878410 -87.794403 9,800 298 295 -32
2021-09-22 22:49:03 GMT 41.878960 -87.792427 9,800 303 311 -32
2021-09-22 22:49:01 GMT 41.877399 -87.789200 9,800 303 311 -32
2021-09-22 22:49:00 GMT 41.876621 -87.787582 9,800 303 311 -32
2021-09-22 22:48:59 GMT 41.875839 -87.785957 9,800 303 311 -32
2021-09-22 22:48:57 GMT 41.874779 -87.782768 9,800 304 316 -32
2021-09-22 22:48:56 GMT 41.873951 -87.781151 9,800 304 316 -64
2021-09-22 22:48:55 GMT 41.872478 -87.778122 9,800 304 319 -64
2021-09-22 22:48:53 GMT 41.871639 -87.776497 9,800 304 319 -64
2021-09-22 22:48:52 GMT 41.870800 -87.774872 9,800 304 319 -64
2021-09-22 22:48:51 GMT 41.869968 -87.773239 9,800 304 319 -64
2021-09-22 22:48:49 GMT 41.868519 -87.770630 9,800 304 324 -64
2021-09-22 22:48:48 GMT 41.867668 -87.768967 9,800 304 324 -64
2021-09-22 22:48:46 GMT 41.865971 -87.765663 9,800 304 324 -64
2021-09-22 22:48:45 GMT 41.865120 -87.764008 9,800 304 324 -64
2021-09-22 22:48:44 GMT 41.863411 -87.760696 9,800 304 324 -64
2021-09-22 22:48:42 GMT 41.862560 -87.759041 9,800 304 324 -64
2021-09-22 22:48:41 GMT 41.861710 -87.757393 9,800 304 324 -64
2021-09-22 22:48:40 GMT 41.860008 -87.754082 9,800 304 324 -64
2021-09-22 22:48:38 GMT 41.859161 -87.752434 9,800 304 324 -64
2021-09-22 22:48:37 GMT 41.858311 -87.750771 9,800 304 324 -64
2021-09-22 22:48:36 GMT 41.856831 -87.747650 9,800 304 330 -64
2021-09-22 22:48:34 GMT 41.855949 -87.745972 9,800 304 330 -64
2021-09-22 22:48:33 GMT 41.855080 -87.744301 9,800 304 330 -64
2021-09-22 22:48:31 GMT 41.853329 -87.740952 9,800 304 330 -64
2021-09-22 22:48:30 GMT 41.852268 -87.739403 9,800 303 329 -64
2021-09-22 22:48:29 GMT 41.851421 -87.737709 9,800 303 329 -64
2021-09-22 22:48:28 GMT 41.850571 -87.736023 9,800 303 329 -64
2021-09-22 22:48:27 GMT 41.848770 -87.732613 9,825 303 326 -32
2021-09-22 22:48:25 GMT 41.847912 -87.730942 9,825 303 325 -32
2021-09-22 22:48:24 GMT 41.847130 -87.729240 9,825 303 326 -32
2021-09-22 22:48:22 GMT 41.845490 -87.725906 9,825 304 328 -32
2021-09-22 22:48:21 GMT 41.844700 -87.724258 9,825 304 330 -32
2021-09-22 22:48:19 GMT 41.842991 -87.720757 9,825 304 326 -32
2021-09-22 22:48:18 GMT 41.842140 -87.719116 9,825 304 327 -32
2021-09-22 22:48:17 GMT 41.841259 -87.717377 9,825 304 324 -32
2021-09-22 22:48:16 GMT 41.840450 -87.715523 9,825 305 318 -32
2021-09-22 22:48:14 GMT 41.838741 -87.712357 9,825 305 320 -32
2021-09-22 22:48:13 GMT 41.837910 -87.710709 9,800 305 320 -32
2021-09-22 22:48:12 GMT 41.836861 -87.709381 9,825 304 323 -64
2021-09-22 22:48:10 GMT 41.835281 -87.705963 9,825 304 323 -64
2021-09-22 22:48:09 GMT 41.834461 -87.704399 9,825 304 326 -64
2021-09-22 22:48:08 GMT 41.833061 -87.703300 9,825 301 325 0
2021-09-22 22:48:07 GMT 41.832291 -87.701599 9,825 302 326 0
2021-09-22 22:48:05 GMT 41.830719 -87.698196 9,825 301 328 0
2021-09-22 22:48:04 GMT 41.829769 -87.696609 9,825 300 327 0
2021-09-22 22:48:03 GMT 41.828960 -87.694710 9,800 301 322 0
2021-09-22 22:48:01 GMT 41.827599 -87.691208 9,800 303 327 0
2021-09-22 22:48:00 GMT 41.826832 -87.689468 9,800 303 328 0
2021-09-22 22:47:59 GMT 41.825981 -87.687668 9,800 303 324 0
2021-09-22 22:47:57 GMT 41.824291 -87.684471 9,800 303 327 0
2021-09-22 22:47:56 GMT 41.823559 -87.682739 9,800 303 330 32
2021-09-22 22:47:54 GMT 41.821800 -87.679352 9,800 303 327 32
2021-09-22 22:47:53 GMT 41.820969 -87.677589 9,800 303 326 32
2021-09-22 22:47:52 GMT 41.819309 -87.674202 9,800 304 327 32
2021-09-22 22:47:51 GMT 41.819309 -87.674202 9,800 304 327 32
2021-09-22 22:47:48 GMT 41.816757 -87.669746 9,825 305 320 0
2021-09-22 22:47:44 GMT 41.812637 -87.661720 9,825 305 320 0
2021-09-22 22:47:40 GMT 41.810303 -87.657166 9,825 305 320 0
2021-09-22 22:47:36 GMT 41.806641 -87.649986 9,825 305 319 -64
2021-09-22 22:47:33 GMT 41.803757 -87.644432 9,825 305 319 -64
2021-09-22 22:47:30 GMT 41.802189 -87.641327 9,825 305 319 0
2021-09-22 22:47:27 GMT 41.798904 -87.635010 9,825 305 318 0
2021-09-22 22:47:24 GMT 41.796249 -87.629761 9,825 305 319 -64
2021-09-22 22:47:21 GMT 41.793411 -87.624268 9,825 305 318 -64
2021-09-22 22:47:18 GMT 41.791294 -87.620178 9,825 305 318 -64
2021-09-22 22:47:15 GMT 41.789246 -87.616089 9,825 305 319 0
2021-09-22 22:47:11 GMT 41.786545 -87.610909 9,825 305 320 0
2021-09-22 22:47:07 GMT 41.782059 -87.602112 9,825 305 320 -64
2021-09-22 22:47:04 GMT 41.779934 -87.598015 9,825 305 319 0
2021-09-22 22:47:02 GMT 41.775932 -87.590164 9,825 305 320 64
2021-09-22 22:46:59 GMT 41.775932 -87.590164 9,825 305 320 64
2021-09-22 22:46:56 GMT 41.772949 -87.584442 9,825 305 320 -64
2021-09-22 22:46:53 GMT 41.768482 -87.575790 9,825 305 322 -64
2021-09-22 22:46:51 GMT 41.768482 -87.575790 9,825 305 321 -64
2021-09-22 22:46:47 GMT 41.764946 -87.568893 9,825 305 321 64
2021-09-22 22:46:44 GMT 41.762897 -87.564995 9,825 305 321 64
2021-09-22 22:46:40 GMT 41.759445 -87.558289 9,825 305 321 0
2021-09-22 22:46:36 GMT 41.755737 -87.551048 9,825 305 321 -64
2021-09-22 22:46:33 GMT 41.754044 -87.547806 9,825 305 321 -64
2021-09-22 22:46:30 GMT 41.750607 -87.541046 9,825 305 321 64
2021-09-22 22:46:26 GMT 41.747906 -87.535805 9,825 305 322 0
2021-09-22 22:46:23 GMT 41.745346 -87.530884 9,825 305 322 0
2021-09-22 22:46:21 GMT 41.743240 -87.526825 9,825 305 322 -64
2021-09-22 22:46:18 GMT 41.740459 -87.521370 9,825 305 322 -64
2021-09-22 22:46:15 GMT 41.738342 -87.517281 9,825 305 322 0
2021-09-22 22:46:12 GMT 41.736362 -87.513512 9,825 305 321 64
2021-09-22 22:46:10 GMT 41.733582 -87.508163 9,825 305 321 64
2021-09-22 22:46:07 GMT 41.731800 -87.504700 9,825 305 321 0
2021-09-22 22:46:04 GMT 41.728447 -87.498184 9,825 305 321 -64
2021-09-22 22:46:00 GMT 41.725235 -87.491989 9,825 305 320 -64
2021-09-22 22:45:57 GMT 41.722778 -87.487251 9,825 305 320 0
2021-09-22 22:45:53 GMT 41.720444 -87.482697 9,825 305 320 64
2021-09-22 22:45:50 GMT 41.717239 -87.476456 9,825 305 320 -64
2021-09-22 22:45:46 GMT 41.714401 -87.470963 9,825 305 317 0
2021-09-22 22:45:43 GMT 41.710991 -87.464333 9,825 305 318 64
2021-09-22 22:45:39 GMT 41.708477 -87.459473 9,825 305 317 0
2021-09-22 22:45:35 GMT 41.704102 -87.451111 9,825 305 318 -64
2021-09-22 22:45:32 GMT 41.699863 -87.442993 9,825 305 319 0
2021-09-22 22:45:29 GMT 41.699863 -87.442993 9,825 305 318 64
2021-09-22 22:45:26 GMT 41.696594 -87.436691 9,825 305 319 64
2021-09-22 22:45:23 GMT 41.694122 -87.431824 9,825 305 319 0
2021-09-22 22:45:19 GMT 41.691208 -87.426071 9,825 305 319 -64
2021-09-22 22:45:17 GMT 41.690044 -87.423836 9,825 305 318 0
2021-09-22 22:45:14 GMT 41.687531 -87.418915 9,825 305 319 64
2021-09-22 22:45:11 GMT 41.684875 -87.413742 9,825 305 319 -64
2021-09-22 22:45:08 GMT 41.681900 -87.408035 9,825 305 319 0
2021-09-22 22:45:05 GMT 41.678963 -87.402374 9,825 305 319 -64
2021-09-22 22:45:01 GMT 41.676449 -87.397583 9,825 305 317 0
2021-09-22 22:44:57 GMT 41.673843 -87.392555 9,825 305 317 128
2021-09-22 22:44:54 GMT 41.668442 -87.382126 9,825 305 317 -64
2021-09-22 22:44:51 GMT 41.668442 -87.382126 9,825 305 317 0
2021-09-22 22:44:48 GMT 41.665092 -87.375671 9,825 305 317 64
2021-09-22 22:44:44 GMT 41.662994 -87.371582 9,825 305 318 0
2021-09-22 22:44:41 GMT 41.659737 -87.365257 9,825 305 318 -64
2021-09-22 22:44:36 GMT 41.656059 -87.358170 9,825 305 317 -128
2021-09-22 22:44:33 GMT 41.652832 -87.351860 9,850 305 316 -320
2021-09-22 22:44:30 GMT 41.650612 -87.347504 9,850 305 315 -448
2021-09-22 22:44:27 GMT 41.644226 -87.335129 9,875 305 321 -1088
2021-09-22 22:44:22 GMT 41.644226 -87.335129 9,950 305 317 -960
2021-09-22 22:44:18 GMT 41.640976 -87.328789 9,975 305 318 -960
2021-09-22 22:44:15 GMT 41.638275 -87.323616 10,025 305 318 -1088
2021-09-22 22:44:12 GMT 41.635113 -87.317482 10,100 305 319 -1024
2021-09-22 22:44:09 GMT 41.632549 -87.312630 10,150 305 321 -1088
2021-09-22 22:44:05 GMT 41.630310 -87.308289 10,175 305 320 -1088
2021-09-22 22:44:01 GMT 41.626740 -87.301483 10,400 305 321 -1088
2021-09-22 22:43:58 GMT 41.623856 -87.295929 10,325 305 323 -1024
2021-09-22 22:43:54 GMT 41.620926 -87.290375 10,375 305 323 -1024
2021-09-22 22:43:52 GMT 41.618729 -87.286125 10,450 305 322 -1024
2021-09-22 22:43:48 GMT 41.614792 -87.278641 10,500 305 321 -1088
2021-09-22 22:43:44 GMT 41.612160 -87.273537 10,575 305 320 -1024
2021-09-22 22:43:40 GMT 41.607971 -87.265427 10,675 305 319 -1152
2021-09-22 22:43:37 GMT 41.605782 -87.261208 10,700 305 320 -1088
2021-09-22 22:43:33 GMT 41.601974 -87.253853 10,775 305 322 -1152
2021-09-22 22:43:28 GMT 41.598335 -87.246841 10,825 305 322 -1088
2021-09-22 22:43:25 GMT 41.595821 -87.241920 10,900 305 323 -1216
2021-09-22 22:43:22 GMT 41.593262 -87.236938 10,925 305 324 -1216
2021-09-22 22:43:19 GMT 41.586960 -87.224892 11,050 305 326 -1344
2021-09-22 22:43:15 GMT 41.586960 -87.224892 11,125 305 327 -1536
2021-09-22 22:43:11 GMT 41.584648 -87.220398 11,175 305 327 -1664
2021-09-22 22:43:08 GMT 41.580460 -87.212479 11,325 306 328 -2048
2021-09-22 22:43:04 GMT 41.577850 -87.207497 11,425 306 328 -2048
2021-09-22 22:43:00 GMT 41.573914 -87.199982 11,575 305 329 -1856
2021-09-22 22:42:54 GMT 41.569839 -87.191933 11,725 304 330 -1728
2021-09-22 22:42:51 GMT 41.566772 -87.185585 11,925 301 333 -1664
2021-09-22 22:42:49 GMT 41.565144 -87.182068 11,875 302 332 -1792
2021-09-22 22:42:44 GMT 41.560581 -87.171852 12,050 300 334 -1664
2021-09-22 22:42:38 GMT 41.556808 -87.162842 12,175 299 334 -1664
2021-09-22 22:42:33 GMT 41.553040 -87.153328 12,325 297 336 -1600
2021-09-22 22:42:28 GMT 41.549549 -87.144066 12,450 296 336 -1536
2021-09-22 22:42:23 GMT 41.545761 -87.133316 12,575 295 339 -1472
2021-09-22 22:42:19 GMT 41.543335 -87.126076 12,675 294 340 -1536
2021-09-22 22:42:15 GMT 41.540771 -87.118401 12,775 295 340 -1728
2021-09-22 22:42:11 GMT 41.538376 -87.111298 12,875 295 340 -1728
2021-09-22 22:42:08 GMT 41.536148 -87.104607 13,000 295 340 -2048
2021-09-22 22:42:05 GMT 41.533905 -87.098114 13,125 295 339 -2432
2021-09-22 22:42:02 GMT 41.529716 -87.085747 14,275 294 342 -1792
2021-09-22 22:41:58 GMT 41.529716 -87.085747 13,450 295 334 -3392
2021-09-22 22:41:54 GMT 41.526783 -87.077126 13,700 295 333 -3584
2021-09-22 22:41:51 GMT 41.525070 -87.072083 13,875 295 334 -3392
2021-09-22 22:41:46 GMT 41.522827 -87.065498 14,050 295 336 -2944
2021-09-22 22:41:41 GMT 41.519009 -87.054070 14,475 294 348 -1344
2021-09-22 22:41:37 GMT 41.516914 -87.047806 14,375 294 348 -1344
2021-09-22 22:41:32 GMT 41.513050 -87.035927 14,525 294 357 -1344
2021-09-22 22:41:29 GMT 41.511467 -87.031075 14,550 293 359 -1600
2021-09-22 22:41:26 GMT 41.509598 -87.025139 14,750 294 364 -2048
2021-09-22 22:41:22 GMT 41.506813 -87.016319 14,750 294 362 -1920
2021-09-22 22:41:19 GMT 41.505230 -87.011398 14,800 294 364 -2048
2021-09-22 22:41:16 GMT 41.503090 -87.004753 14,950 294 366 -2112
2021-09-22 22:41:12 GMT 41.500076 -86.995430 15,100 294 367 -1984
2021-09-22 22:41:09 GMT 41.497875 -86.988533 15,200 294 369 -1856
2021-09-22 22:41:05 GMT 41.495827 -86.982269 15,275 294 372 -1344
2021-09-22 22:41:03 GMT 41.493641 -86.975563 15,350 294 373 -1152
2021-09-22 22:40:59 GMT 41.491264 -86.968346 15,400 294 376 -1152
2021-09-22 22:40:55 GMT 41.488724 -86.960472 15,450 294 377 -1088
2021-09-22 22:40:49 GMT 41.483864 -86.945671 15,550 294 382 -640
2021-09-22 22:40:45 GMT 41.481400 -86.938126 15,575 294 383 -704
2021-09-22 22:40:41 GMT 41.478325 -86.928810 15,700 294 386 -1664
2021-09-22 22:40:38 GMT 41.476685 -86.923767 16,300 294 390 -1664
2021-09-22 22:40:35 GMT 41.474598 -86.917442 15,800 294 387 -1664
2021-09-22 22:40:29 GMT 41.469524 -86.902176 16,000 294 389 -1664
2021-09-22 22:40:25 GMT 41.467056 -86.894699 16,075 294 389 -1664
2021-09-22 22:40:18 GMT 41.461533 -86.877762 16,275 294 391 -1664
2021-09-22 22:40:13 GMT 41.458401 -86.868256 16,375 294 391 -1664
2021-09-22 22:40:07 GMT 41.453979 -86.854790 16,550 294 393 -1664
2021-09-22 22:40:04 GMT 41.451557 -86.847496 16,625 294 393 -1728
2021-09-22 22:39:57 GMT 41.446854 -86.833321 16,850 294 393 -1856
2021-09-22 22:39:53 GMT 41.443733 -86.823990 16,950 294 393 -1984
2021-09-22 22:39:50 GMT 41.441162 -86.816216 17,100 294 393 -2496
2021-09-22 22:39:47 GMT 41.438892 -86.809364 17,175 294 393 -2496
2021-09-22 22:39:42 GMT 41.435898 -86.800293 17,350 294 392 -2112
2021-09-22 22:39:35 GMT 41.430561 -86.784203 17,575 294 392 -1664
2021-09-22 22:39:29 GMT 41.425598 -86.769394 17,750 295 393 -1664
2021-09-22 22:39:24 GMT 41.422878 -86.761269 17,850 295 392 -1664
2021-09-22 22:39:18 GMT 41.418644 -86.748878 18,000 295 393 -1664
2021-09-22 22:39:16 GMT 41.416077 -86.741119 18,075 294 395 -1664
2021-09-22 22:39:09 GMT 41.411800 -86.727417 18,250 292 396 -1664
2021-09-22 22:39:04 GMT 41.408543 -86.716560 18,375 291 397 -1664
2021-09-22 22:39:01 GMT 41.406448 -86.709213 19,025 291 398 -1728
2021-09-22 22:38:57 GMT 41.403854 -86.699730 18,575 290 400 -1664
2021-09-22 22:38:54 GMT 41.402351 -86.693947 18,650 289 400 -1728
2021-09-22 22:38:47 GMT 41.397415 -86.673759 18,875 287 402 -1728
2021-09-22 22:38:43 GMT 41.395798 -86.666458 18,975 287 402 -1728
2021-09-22 22:38:38 GMT 41.393005 -86.653038 19,125 285 404 -1664
2021-09-22 22:38:36 GMT 41.392090 -86.648232 19,175 285 405 -1664
2021-09-22 22:38:32 GMT 41.390663 -86.640739 19,250 284 406 -1536
2021-09-22 22:38:27 GMT 41.388611 -86.629318 19,375 284 407 -1472
2021-09-22 22:38:23 GMT 41.386242 -86.616463 19,500 284 408 -1472
2021-09-22 22:38:20 GMT 41.384995 -86.609375 19,625 284 409 -1792
2021-09-22 22:38:17 GMT 41.383823 -86.602791 19,650 284 408 -1792
2021-09-22 22:38:12 GMT 41.381973 -86.592224 19,775 284 410 -1792
2021-09-22 22:38:07 GMT 41.379539 -86.578194 19,975 283 414 -2176
2021-09-22 22:38:03 GMT 41.377487 -86.566040 20,125 283 421 -2240
2021-09-22 22:37:55 GMT 41.374886 -86.550102 20,350 283 426 -2048
2021-09-22 22:37:52 GMT 41.373535 -86.541931 20,450 283 431 -1664
2021-09-22 22:37:44 GMT 41.369980 -86.520752 20,625 283 440 -1920
2021-09-22 22:37:42 GMT 41.367764 -86.507843 20,825 284 442 -1920
2021-09-22 22:37:36 GMT 41.366550 -86.500977 20,850 284 442 -1856
2021-09-22 22:37:32 GMT 41.363201 -86.481941 21,075 284 443 -1920
2021-09-22 22:37:24 GMT 41.360367 -86.465698 21,250 284 444 -1856
2021-09-22 22:37:20 GMT 41.358917 -86.457474 21,450 284 445 -1920
2021-09-22 22:37:10 GMT 41.352352 -86.420021 21,775 284 448 -1920
2021-09-22 22:37:05 GMT 41.351395 -86.414429 21,850 284 448 -1920
2021-09-22 22:37:02 GMT 41.350433 -86.409058 21,900 284 448 -1856
2021-09-22 22:36:58 GMT 41.348675 -86.399109 22,025 284 451 -1920
2021-09-22 22:36:54 GMT 41.346909 -86.389160 22,125 284 449 -1920
2021-09-22 22:36:50 GMT 41.344345 -86.374634 22,300 284 451 -1920
2021-09-22 22:36:46 GMT 41.342422 -86.363831 22,425 284 451 -1920
2021-09-22 22:36:42 GMT 41.340729 -86.354675 22,525 284 452 -1920
2021-09-22 22:36:38 GMT 41.339085 -86.345734 22,650 284 452 -1920
2021-09-22 22:36:35 GMT 41.337296 -86.335754 22,750 284 453 -1984
2021-09-22 22:36:30 GMT 41.334896 -86.322517 22,900 284 454 -1984
2021-09-22 22:36:27 GMT 41.333500 -86.314896 23,125 284 457 -1984
2021-09-22 22:36:23 GMT 41.331684 -86.304535 23,125 284 455 -1920
2021-09-22 22:36:19 GMT 41.329170 -86.290428 23,300 284 455 -1856
2021-09-22 22:36:15 GMT 41.327122 -86.279007 23,375 284 456 -1920
2021-09-22 22:36:04 GMT 41.320370 -86.241302 23,825 284 458 -1984
2021-09-22 22:35:57 GMT 41.318527 -86.230591 23,950 283 459 -1984
2021-09-22 22:35:51 GMT 41.316376 -86.217896 24,100 283 460 -1920
2021-09-22 22:35:48 GMT 41.313126 -86.198608 24,325 283 460 -2048
2021-09-22 22:35:42 GMT 41.311619 -86.189491 24,800 283 460 -2304
2021-09-22 22:35:38 GMT 41.310150 -86.180969 24,550 283 459 -2816
2021-09-22 22:35:36 GMT 41.308685 -86.172729 24,700 284 458 -3136
2021-09-22 22:35:28 GMT 41.304962 -86.151665 24,975 284 459 -448
2021-09-22 22:35:23 GMT 41.297928 -86.112915 27,825 262 467 -3072
2021-09-22 22:35:15 GMT 41.297928 -86.112915 25,000 284 461 128
2021-09-22 22:35:10 GMT 41.296143 -86.102417 24,975 282 463 -64
2021-09-22 22:35:04 GMT 41.293743 -86.085930 24,975 281 464 64
2021-09-22 22:35:00 GMT 41.292114 -86.072144 24,975 276 466 -64
2021-09-22 22:34:55 GMT 41.291153 -86.061951 25,000 276 466 -64
2021-09-22 22:34:51 GMT 41.290237 -86.048828 24,975 274 467 -64
2021-09-22 22:34:46 GMT 41.289688 -86.034546 25,000 272 467 -320
2021-09-22 22:34:41 GMT 41.289600 -86.017578 25,025 268 465 -1088
2021-09-22 22:34:34 GMT 41.290009 -86.000183 25,175 267 464 -1408
2021-09-22 22:34:27 GMT 41.291107 -85.982544 25,300 264 463 -2048
2021-09-22 22:34:24 GMT 41.292439 -85.969887 25,425 261 462 -2432
2021-09-22 22:34:21 GMT 41.292908 -85.966019 25,475 260 462 -2432
2021-09-22 22:34:17 GMT 41.294628 -85.953163 25,600 260 462 -2432
2021-09-22 22:34:13 GMT 41.297607 -85.930420 25,850 261 463 -1920
2021-09-22 22:34:09 GMT 41.297607 -85.930420 26,125 261 465 -1664
2021-09-22 22:34:03 GMT 41.299934 -85.911522 26,125 262 467 -1792
2021-09-22 22:33:59 GMT 41.301178 -85.900513 26,250 262 467 -2432
2021-09-22 22:33:55 GMT 41.302448 -85.889427 26,425 261 467 -3136
2021-09-22 22:33:49 GMT 41.304245 -85.875000 26,675 261 467 -3136
2021-09-22 22:33:47 GMT 41.305023 -85.869385 26,825 260 465 -3456
2021-09-22 22:33:42 GMT 41.307037 -85.855347 27,825 260 466 -4224
2021-09-22 22:33:38 GMT 41.309151 -85.841171 27,500 260 459 -4736
2021-09-22 22:33:33 GMT 41.310608 -85.830933 28,100 260 466 -4224
2021-09-22 22:33:30 GMT 41.312027 -85.820923 28,025 260 467 -4160
2021-09-22 22:33:27 GMT 41.313171 -85.813049 28,225 260 466 -4224
2021-09-22 22:33:24 GMT 41.314785 -85.801476 28,625 260 472 -4352
2021-09-22 22:33:18 GMT 41.316696 -85.787476 28,875 260 473 -4480
2021-09-22 22:33:15 GMT 41.318207 -85.776550 29,150 260 478 -4096
2021-09-22 22:33:11 GMT 41.319855 -85.764954 29,375 260 484 -3328
2021-09-22 22:33:07 GMT 41.321640 -85.752075 29,625 260 489 -3200
2021-09-22 22:33:03 GMT 41.323071 -85.741737 29,775 260 493 -3200
2021-09-22 22:32:59 GMT 41.324341 -85.732544 29,950 261 497 -3328
2021-09-22 22:32:55 GMT 41.326080 -85.719360 30,175 261 497 -3200
2021-09-22 22:32:52 GMT 41.327076 -85.711838 30,325 261 497 -3584
2021-09-22 22:32:49 GMT 41.328518 -85.700417 30,750 261 496 -3968
2021-09-22 22:32:45 GMT 41.329823 -85.690178 30,750 261 496 -4288
2021-09-22 22:32:39 GMT 41.332352 -85.670776 31,400 261 489 -5184
2021-09-22 22:32:34 GMT 41.334385 -85.655029 31,725 260 486 -4416
2021-09-22 22:32:28 GMT 41.336563 -85.637695 32,125 261 484 -4736
2021-09-22 22:32:22 GMT 41.338528 -85.622757 32,475 261 485 -4480
2021-09-22 22:32:17 GMT 41.340683 -85.606628 33,225 261 488 -4160
2021-09-22 22:32:12 GMT 41.342789 -85.590698 33,225 261 490 -3264
2021-09-22 22:32:09 GMT 41.344208 -85.580017 33,350 261 494 -2240
2021-09-22 22:32:03 GMT 41.346497 -85.562561 33,550 261 498 -1856
2021-09-22 22:31:58 GMT 41.349380 -85.540833 33,700 261 501 -1472
2021-09-22 22:31:55 GMT 41.349380 -85.540833 33,725 261 501 -1472
2021-09-22 22:31:51 GMT 41.350937 -85.529297 33,800 261 502 -1408
2021-09-22 22:31:48 GMT 41.352539 -85.517151 33,900 261 503 -1088
2021-09-22 22:31:44 GMT 41.354076 -85.505219 33,950 261 505 -448
2021-09-22 22:31:41 GMT 41.355377 -85.495178 33,950 261 505 -448
2021-09-22 22:31:38 GMT 41.355984 -85.490547 33,975 261 504 -192
2021-09-22 22:31:34 GMT 41.358948 -85.467041 33,975 261 503 -64
2021-09-22 22:31:31 GMT 41.358948 -85.467041 34,000 261 505 0
2021-09-22 22:31:26 GMT 41.360592 -85.453903 34,000 261 505 -64
2021-09-22 22:31:21 GMT 41.363068 -85.434631 34,000 261 505 0
2021-09-22 22:31:17 GMT 41.364670 -85.422424 34,000 261 505 0
2021-09-22 22:31:14 GMT 41.365860 -85.413269 34,000 261 505 0
2021-09-22 22:31:08 GMT 41.367714 -85.398849 33,975 261 505 0
2021-09-22 22:31:03 GMT 41.369904 -85.382370 33,975 261 504 0
2021-09-22 22:30:59 GMT 41.371674 -85.368950 34,000 261 504 0
2021-09-22 22:30:56 GMT 41.373070 -85.357964 34,000 261 503 -64
2021-09-22 22:30:52 GMT 41.374046 -85.350662 34,000 261 503 -64
2021-09-22 22:30:49 GMT 41.376480 -85.332092 34,000 261 503 0
2021-09-22 22:30:43 GMT 41.378128 -85.319275 33,975 261 503 -64
2021-09-22 22:30:39 GMT 41.379864 -85.306213 33,975 261 503 -64
2021-09-22 22:30:32 GMT 41.382111 -85.288818 33,975 261 503 -64
2021-09-22 22:30:26 GMT 41.384239 -85.272072 33,975 261 504 -64
2021-09-22 22:30:22 GMT 41.386429 -85.254967 33,975 261 504 -64
2021-09-22 22:30:19 GMT 41.387218 -85.248863 33,975 261 505 -64
2021-09-22 22:30:16 GMT 41.388569 -85.238510 34,000 261 504 -128
2021-09-22 22:30:13 GMT 41.389709 -85.229622 34,000 261 505 -64
2021-09-22 22:30:10 GMT 41.391270 -85.217117 34,000 261 505 -128
2021-09-22 22:30:06 GMT 41.392761 -85.205429 34,000 261 505 -128
2021-09-22 22:30:03 GMT 41.393829 -85.196869 34,000 261 506 -64
2021-09-22 22:30:00 GMT 41.395134 -85.186455 34,000 261 507 -64
2021-09-22 22:29:57 GMT 41.396111 -85.178474 34,000 261 506 0
2021-09-22 22:29:53 GMT 41.397308 -85.168945 34,000 261 507 0
2021-09-22 22:29:48 GMT 41.399643 -85.150475 34,000 261 507 64
2021-09-22 22:29:45 GMT 41.400421 -85.144356 34,000 261 507 0
2021-09-22 22:29:41 GMT 41.402298 -85.129623 34,000 261 507 0
2021-09-22 22:29:36 GMT 41.404305 -85.113960 33,975 261 507 0
2021-09-22 22:29:30 GMT 41.406261 -85.098564 33,975 261 507 -64
2021-09-22 22:29:25 GMT 41.408310 -85.082596 34,000 261 507 -64
2021-09-22 22:29:19 GMT 41.410400 -85.066330 34,000 261 507 -64
2021-09-22 22:29:15 GMT 41.412453 -85.050018 34,000 261 508 -64
2021-09-22 22:29:11 GMT 41.414268 -85.035843 34,000 261 507 -64
2021-09-22 22:29:08 GMT 41.415337 -85.027214 34,000 261 508 -64
2021-09-22 22:29:04 GMT 41.416580 -85.017700 34,000 261 508 0
2021-09-22 22:28:59 GMT 41.418549 -85.002281 34,000 261 508 64
2021-09-22 22:28:54 GMT 41.420746 -84.985054 33,975 261 509 64
2021-09-22 22:28:51 GMT 41.421993 -84.975479 33,975 261 509 64
2021-09-22 22:28:48 GMT 41.422600 -84.970558 33,975 261 509 0
2021-09-22 22:28:43 GMT 41.425140 -84.950531 33,975 261 508 -64
2021-09-22 22:28:40 GMT 41.425919 -84.944351 33,975 261 508 -64
2021-09-22 22:28:37 GMT 41.427475 -84.931992 33,975 261 508 -64
2021-09-22 22:28:33 GMT 41.428894 -84.920883 34,000 261 508 -128
2021-09-22 22:28:30 GMT 41.430141 -84.910713 34,000 261 508 -128
2021-09-22 22:28:25 GMT 41.431641 -84.898659 34,000 261 509 -128
2021-09-22 22:28:21 GMT 41.433701 -84.881996 34,000 261 509 -128
2021-09-22 22:28:18 GMT 41.434433 -84.875816 34,000 261 509 -128
2021-09-22 22:28:15 GMT 41.435867 -84.864342 34,000 261 509 -64
2021-09-22 22:28:11 GMT 41.436985 -84.855080 34,000 261 509 -64
2021-09-22 22:28:08 GMT 41.438553 -84.842415 34,000 261 510 -64
2021-09-22 22:28:05 GMT 41.439514 -84.834366 34,000 261 510 0
2021-09-22 22:28:02 GMT 41.440750 -84.824440 33,975 261 510 0
2021-09-22 22:27:59 GMT 41.441986 -84.814575 33,975 261 510 0
2021-09-22 22:27:56 GMT 41.442757 -84.808640 33,975 261 510 0
2021-09-22 22:27:53 GMT 41.443863 -84.799660 33,975 261 510 64
2021-09-22 22:27:50 GMT 41.446575 -84.778297 33,975 261 510 64
2021-09-22 22:27:46 GMT 41.446575 -84.778297 33,975 261 510 -64
2021-09-22 22:27:43 GMT 41.447880 -84.767761 33,975 261 510 0
2021-09-22 22:27:40 GMT 41.449127 -84.757523 34,000 261 510 -64
2021-09-22 22:27:37 GMT 41.450485 -84.746681 33,975 261 510 -64
2021-09-22 22:27:34 GMT 41.451691 -84.737045 33,975 261 510 -64
2021-09-22 22:27:29 GMT 41.453064 -84.725937 33,975 261 504 -64
2021-09-22 22:27:25 GMT 41.454906 -84.710724 33,975 261 510 -128
2021-09-22 22:27:20 GMT 41.457047 -84.693726 34,000 261 510 -128
2021-09-22 22:27:15 GMT 41.458351 -84.682877 34,000 261 510 -64
2021-09-22 22:27:12 GMT 41.459473 -84.673882 34,000 261 510 -64
2021-09-22 22:27:08 GMT 41.461075 -84.660896 34,000 261 510 -64
2021-09-22 22:27:05 GMT 41.462261 -84.651253 34,000 261 510 -64
2021-09-22 22:27:02 GMT 41.464050 -84.636734 34,000 261 510 -64
2021-09-22 22:26:59 GMT 41.464916 -84.629601 34,000 261 509 -64
2021-09-22 22:26:55 GMT 41.467300 -84.610146 34,000 261 509 -64
2021-09-22 22:26:52 GMT 41.467300 -84.610146 34,000 261 508 -64
2021-09-22 22:26:48 GMT 41.468903 -84.597160 34,000 261 508 -64
2021-09-22 22:26:44 GMT 41.470139 -84.587296 34,000 261 507 -64
2021-09-22 22:26:41 GMT 41.471695 -84.574379 34,000 261 507 0
2021-09-22 22:26:38 GMT 41.473068 -84.563263 34,000 261 506 0
2021-09-22 22:26:34 GMT 41.474030 -84.555275 33,975 261 506 -64
2021-09-22 22:26:30 GMT 41.475903 -84.539604 33,975 261 506 64
2021-09-22 22:26:23 GMT 41.478287 -84.520256 33,975 261 505 -64
2021-09-22 22:26:20 GMT 41.479210 -84.512589 34,000 261 504 -64
2021-09-22 22:26:16 GMT 41.481171 -84.496346 34,000 261 504 -64
2021-09-22 22:26:11 GMT 41.482773 -84.482864 34,000 261 503 -64
2021-09-22 22:26:07 GMT 41.484001 -84.472794 34,000 261 503 -64
2021-09-22 22:26:04 GMT 41.485611 -84.459023 33,975 262 503 -64
2021-09-22 22:26:00 GMT 41.486748 -84.449539 34,000 262 503 -64
2021-09-22 22:25:56 GMT 41.488331 -84.436127 34,000 262 503 -128
2021-09-22 22:25:53 GMT 41.489182 -84.429054 34,000 262 502 -64
2021-09-22 22:25:49 GMT 41.490784 -84.415634 34,000 262 502 -64
2021-09-22 22:25:46 GMT 41.491928 -84.405899 34,000 262 501 -64
2021-09-22 22:25:43 GMT 41.492943 -84.397034 33,975 262 501 -64
2021-09-22 22:25:40 GMT 41.494385 -84.384834 34,000 262 501 -64
2021-09-22 22:25:35 GMT 41.495827 -84.372635 34,000 262 501 -64
2021-09-22 22:25:30 GMT 41.497364 -84.359222 33,975 262 502 -64
2021-09-22 22:25:27 GMT 41.498482 -84.350021 33,975 262 502 -64
2021-09-22 22:25:22 GMT 41.500397 -84.333862 33,975 261 504 -128
2021-09-22 22:25:18 GMT 41.501644 -84.323708 34,000 261 505 -192
2021-09-22 22:25:12 GMT 41.504253 -84.302185 34,050 261 508 -640
2021-09-22 22:25:08 GMT 41.505981 -84.288292 34,075 261 508 -896
2021-09-22 22:25:04 GMT 41.507652 -84.275040 34,125 261 509 -1280
2021-09-22 22:25:01 GMT 41.508396 -84.268845 34,250 262 509 -1600
2021-09-22 22:24:58 GMT 41.509552 -84.259270 34,250 262 509 -1600
2021-09-22 22:24:50 GMT 41.512398 -84.234795 34,450 262 506 -1600
2021-09-22 22:24:47 GMT 41.513657 -84.224319 34,525 261 506 -1600
2021-09-22 22:24:43 GMT 41.515194 -84.211418 34,625 261 504 -1600
2021-09-22 22:24:40 GMT 41.516449 -84.201004 34,725 261 504 -1600
2021-09-22 22:24:37 GMT 41.517151 -84.195221 34,775 261 503 -1600
2021-09-22 22:24:30 GMT 41.519669 -84.173874 35,000 262 498 -1664
2021-09-22 22:24:27 GMT 41.520920 -84.163261 35,025 262 497 -1600
2021-09-22 22:24:22 GMT 41.522736 -84.147842 35,175 262 494 -1600
2021-09-22 22:24:18 GMT 41.524063 -84.136421 35,250 262 492 -1664
2021-09-22 22:24:10 GMT 41.526901 -84.111954 35,475 262 488 -1600
2021-09-22 22:24:06 GMT 41.528412 -84.099190 35,575 262 486 -1600
2021-09-22 22:24:00 GMT 41.530380 -84.082367 35,725 262 484 -1600
2021-09-22 22:23:57 GMT 41.531616 -84.071754 35,975 262 479 -1600
2021-09-22 22:23:54 GMT 41.532074 -84.067635 35,825 262 482 -1600
2021-09-22 22:23:48 GMT 41.534187 -84.049751 37,175 262 478 -1600
2021-09-22 22:23:44 GMT 41.536011 -84.034241 36,100 262 479 -1600
2021-09-22 22:23:38 GMT 41.537613 -84.020256 36,225 262 478 -1600
2021-09-22 22:23:34 GMT 41.539215 -84.006577 36,325 262 477 -1600
2021-09-22 22:23:28 GMT 41.541122 -83.990349 36,475 262 475 -1600
2021-09-22 22:23:25 GMT 41.542286 -83.980515 36,550 262 475 -1600
2021-09-22 22:23:22 GMT 41.543243 -83.972122 36,625 262 474 -1600
2021-09-22 22:23:17 GMT 41.544891 -83.957970 36,800 262 472 -1600
2021-09-22 22:23:12 GMT 41.546814 -83.941605 36,875 262 472 -1536
2021-09-22 22:23:07 GMT 41.548153 -83.930374 37,050 262 470 -1600
2021-09-22 22:23:04 GMT 41.549377 -83.919754 37,175 262 469 -1600
2021-09-22 22:23:00 GMT 41.550705 -83.908333 37,175 262 469 -1536
2021-09-22 22:22:57 GMT 41.551552 -83.901184 37,225 262 468 -1536
2021-09-22 22:22:54 GMT 41.552574 -83.892624 37,325 262 468 -1536
2021-09-22 22:22:50 GMT 41.553818 -83.882111 37,425 262 467 -1600
2021-09-22 22:22:47 GMT 41.555134 -83.871033 37,475 262 467 -1536
2021-09-22 22:22:43 GMT 41.556290 -83.861076 37,575 262 466 -1536
2021-09-22 22:22:39 GMT 41.558624 -83.840950 37,675 262 466 -1472
2021-09-22 22:22:36 GMT 41.558624 -83.840950 37,800 262 466 -1408
2021-09-22 22:22:33 GMT 41.559952 -83.829865 37,825 262 466 -1472
2021-09-22 22:22:28 GMT 41.561512 -83.816483 37,925 262 466 -1216
2021-09-22 22:22:25 GMT 41.561920 -83.812828 37,950 262 466 -1216
2021-09-22 22:22:19 GMT 41.564392 -83.791229 38,100 262 467 -1280
2021-09-22 22:22:16 GMT 41.565376 -83.782951 38,150 262 467 -1216
2021-09-22 22:22:12 GMT 41.566360 -83.774124 38,225 262 468 -1280
2021-09-22 22:22:09 GMT 41.567703 -83.762451 38,300 262 468 -1280
2021-09-22 22:22:05 GMT 41.568775 -83.753311 38,550 262 470 -1216
2021-09-22 22:22:00 GMT 41.570171 -83.741302 38,450 262 470 -1216
2021-09-22 22:21:55 GMT 41.572033 -83.725273 38,750 262 474 -1216
2021-09-22 22:21:52 GMT 41.572777 -83.718307 38,575 262 473 -1216
2021-09-22 22:21:49 GMT 41.573914 -83.708267 38,650 262 474 -1216
2021-09-22 22:21:46 GMT 41.575104 -83.697845 38,700 262 474 -1216
2021-09-22 22:21:43 GMT 41.576157 -83.688606 38,750 262 475 -1216
2021-09-22 22:21:37 GMT 41.579041 -83.663139 38,875 262 476 -1216
2021-09-22 22:21:34 GMT 41.579041 -83.663139 38,925 262 477 -1216
2021-09-22 22:21:31 GMT 41.579681 -83.657265 38,975 262 477 -1152
2021-09-22 22:21:26 GMT 41.581512 -83.640976 39,050 262 479 -1152
2021-09-22 22:21:22 GMT 41.583160 -83.626076 39,150 262 480 -1152
2021-09-22 22:21:19 GMT 41.583672 -83.621414 39,175 262 481 -1152
2021-09-22 22:21:16 GMT 41.585953 -83.600914 39,275 262 481 -1152
2021-09-22 22:21:12 GMT 41.585953 -83.600914 39,350 262 482 -1152
2021-09-22 22:21:09 GMT 41.586914 -83.592407 39,325 262 482 -1152
2021-09-22 22:21:05 GMT 41.588654 -83.577118 39,425 262 483 -1152
2021-09-22 22:21:02 GMT 41.589630 -83.568527 39,475 262 483 -1152
2021-09-22 22:20:59 GMT 41.590420 -83.561501 39,825 262 482 -960
2021-09-22 22:20:54 GMT 41.592098 -83.546745 39,650 262 483 -1088
2021-09-22 22:20:51 GMT 41.593262 -83.536720 39,675 262 483 -1088
2021-09-22 22:20:48 GMT 41.594193 -83.528481 39,750 262 483 -1088
2021-09-22 22:20:45 GMT 41.595062 -83.520561 39,850 262 482 -960
2021-09-22 22:20:42 GMT 41.596424 -83.508484 39,825 262 482 -960
2021-09-22 22:20:38 GMT 41.597404 -83.499672 39,975 262 480 -576
2021-09-22 22:20:35 GMT 41.598427 -83.490921 39,925 262 481 -832
2021-09-22 22:20:31 GMT 41.599545 -83.480957 39,975 262 480 -576
2021-09-22 22:20:28 GMT 41.600555 -83.471870 39,975 262 480 -192
2021-09-22 22:20:25 GMT 41.601791 -83.460762 40,000 262 480 -64
2021-09-22 22:20:20 GMT 41.603577 -83.444969 39,975 262 480 0
2021-09-22 22:20:17 GMT 41.605412 -83.428833 39,975 262 482 -128
2021-09-22 22:20:13 GMT 41.605412 -83.428833 39,975 262 481 64
2021-09-22 22:20:10 GMT 41.606644 -83.417442 40,000 262 482 -128
2021-09-22 22:20:07 GMT 41.607597 -83.408905 40,000 262 482 0
2021-09-22 22:20:04 GMT 41.608566 -83.400398 40,000 262 482 -192
2021-09-22 22:20:00 GMT 41.609756 -83.389786 39,975 262 482 -128
2021-09-22 22:19:57 GMT 41.611229 -83.376587 40,000 262 482 -64
2021-09-22 22:19:54 GMT 41.613190 -83.359200 40,000 262 482 -64
2021-09-22 22:19:51 GMT 41.613190 -83.359200 40,000 262 482 -64
2021-09-22 22:19:47 GMT 41.614105 -83.351021 40,000 262 482 -64
2021-09-22 22:19:44 GMT 41.615295 -83.340408 39,975 262 481 0
2021-09-22 22:19:41 GMT 41.616486 -83.329865 40,000 262 481 -64
2021-09-22 22:19:38 GMT 41.617264 -83.322807 40,000 262 480 0
2021-09-22 22:19:35 GMT 41.618134 -83.315193 39,975 262 481 -64
2021-09-22 22:19:32 GMT 41.618912 -83.307854 40,000 262 481 -64
2021-09-22 22:19:29 GMT 41.620213 -83.296104 40,000 263 481 -64
2021-09-22 22:19:26 GMT 41.621246 -83.286415 40,000 263 482 -64
2021-09-22 22:19:23 GMT 41.622208 -83.276993 39,975 263 482 0
2021-09-22 22:19:19 GMT 41.623260 -83.267006 40,000 262 481 -64
2021-09-22 22:19:16 GMT 41.625412 -83.248901 40,000 260 477 -64
2021-09-22 22:19:13 GMT 41.625412 -83.248901 40,000 260 477 -64
2021-09-22 22:19:09 GMT 41.626869 -83.238808 40,000 258 473 -64
2021-09-22 22:19:03 GMT 41.631435 -83.212112 40,000 255 468 -64
2021-09-22 22:19:00 GMT 41.631435 -83.212112 40,000 256 468 -64
2021-09-22 22:18:57 GMT 41.633057 -83.204018 40,000 255 468 -64
2021-09-22 22:18:54 GMT 41.634613 -83.196777 40,000 254 466 -64
2021-09-22 22:18:48 GMT 41.639191 -83.177116 40,000 252 462 0
2021-09-22 22:18:45 GMT 41.640564 -83.171745 40,000 251 460 -64
2021-09-22 22:18:42 GMT 41.642654 -83.163948 39,975 250 459 -64
2021-09-22 22:18:39 GMT 41.648346 -83.144218 40,000 248 456 -64
2021-09-22 22:18:35 GMT 41.648346 -83.144218 40,000 248 454 -64
2021-09-22 22:18:32 GMT 41.650452 -83.137482 40,000 247 452 -64
2021-09-22 22:18:28 GMT 41.654297 -83.125679 40,000 246 451 0
2021-09-22 22:18:25 GMT 41.659317 -83.111320 40,000 245 450 0
2021-09-22 22:18:22 GMT 41.659317 -83.111320 40,000 245 450 0
2021-09-22 22:18:17 GMT 41.664185 -83.097527 39,975 245 450 -64
2021-09-22 22:18:14 GMT 41.666519 -83.090973 39,975 245 450 0
2021-09-22 22:18:11 GMT 41.668259 -83.085976 39,975 245 450 -64
2021-09-22 22:18:07 GMT 41.672260 -83.074654 39,975 245 450 0
2021-09-22 22:18:04 GMT 41.675426 -83.065643 39,975 245 449 -64
2021-09-22 22:18:01 GMT 41.677567 -83.059647 39,975 245 449 -64
2021-09-22 22:17:58 GMT 41.680664 -83.050835 39,975 245 449 -64
2021-09-22 22:17:55 GMT 41.682770 -83.044846 40,000 245 450 -64
2021-09-22 22:17:51 GMT 41.685791 -83.036293 40,000 245 449 -64
2021-09-22 22:17:48 GMT 41.689682 -83.025246 40,000 245 449 -64
2021-09-22 22:17:45 GMT 41.692417 -83.017426 39,975 245 449 -64
2021-09-22 22:17:41 GMT 41.695583 -83.008415 40,000 245 450 -64
2021-09-22 22:17:36 GMT 41.699707 -82.996590 40,000 245 450 -64
2021-09-22 22:17:33 GMT 41.701492 -82.991531 40,000 246 450 -64
2021-09-22 22:17:30 GMT 41.705776 -82.979225 40,000 246 450 -64
2021-09-22 22:17:24 GMT 41.710712 -82.965111 40,000 245 451 -64
2021-09-22 22:17:19 GMT 41.715225 -82.952209 40,000 245 451 -64
2021-09-22 22:17:14 GMT 41.718246 -82.943657 40,000 245 451 -64
2021-09-22 22:17:10 GMT 41.722641 -82.931046 40,000 245 451 -64
2021-09-22 22:17:07 GMT 41.726166 -82.920937 40,000 245 451 -64
2021-09-22 22:17:04 GMT 41.727768 -82.916374 40,000 245 451 -64
2021-09-22 22:17:01 GMT 41.730927 -82.907265 40,000 245 451 -64
2021-09-22 22:16:57 GMT 41.734314 -82.897713 40,000 245 451 -64
2021-09-22 22:16:53 GMT 41.736969 -82.890099 40,000 245 451 -64
2021-09-22 22:16:49 GMT 41.740860 -82.878990 40,000 245 451 -64
2021-09-22 22:16:45 GMT 41.744835 -82.867638 40,000 245 450 -64
2021-09-22 22:16:42 GMT 41.749695 -82.853767 40,000 245 450 -64
2021-09-22 22:16:39 GMT 41.749695 -82.853767 39,975 245 450 -64
2021-09-22 22:16:35 GMT 41.754051 -82.841446 40,000 246 450 0
2021-09-22 22:16:32 GMT 41.757030 -82.832893 40,000 246 450 0
2021-09-22 22:16:29 GMT 41.758801 -82.827843 40,000 246 452 -64
2021-09-22 22:16:24 GMT 41.764160 -82.812447 39,975 246 450 -64
2021-09-22 22:16:21 GMT 41.766815 -82.804893 39,975 246 450 0
2021-09-22 22:16:18 GMT 41.768005 -82.801399 39,975 246 450 -64
2021-09-22 22:16:14 GMT 41.771790 -82.790543 39,975 246 450 -64
2021-09-22 22:16:11 GMT 41.774002 -82.784233 39,975 246 450 -64
2021-09-22 22:16:08 GMT 41.776978 -82.775612 39,975 246 450 -64
2021-09-22 22:16:05 GMT 41.780445 -82.765755 40,000 245 451 -64
2021-09-22 22:16:02 GMT 41.783100 -82.758156 40,000 246 452 -64
2021-09-22 22:15:58 GMT 41.785629 -82.750832 39,975 246 453 -64
2021-09-22 22:15:52 GMT 41.791306 -82.734604 39,975 246 453 0
2021-09-22 22:15:49 GMT 41.795013 -82.723991 39,975 246 453 -64
2021-09-22 22:15:45 GMT 41.800419 -82.708466 39,975 246 453 -64
2021-09-22 22:15:41 GMT 41.800419 -82.708466 40,000 246 453 -64
2021-09-22 22:15:38 GMT 41.805912 -82.692749 40,000 246 454 -64
2021-09-22 22:15:32 GMT 41.810028 -82.680794 40,000 246 454 -64
2021-09-22 22:15:29 GMT 41.812241 -82.674416 40,000 246 454 -128
2021-09-22 22:15:26 GMT 41.813641 -82.670334 40,000 246 454 -64
2021-09-22 22:15:23 GMT 41.816895 -82.660881 40,000 246 455 -64
2021-09-22 22:15:20 GMT 41.819046 -82.654762 40,000 246 455 -64
2021-09-22 22:15:16 GMT 41.823879 -82.640755 40,000 246 455 0
2021-09-22 22:15:11 GMT 41.828304 -82.627914 40,000 246 456 -64
2021-09-22 22:15:05 GMT 41.833878 -82.611755 39,975 246 457 -64
2021-09-22 22:15:02 GMT 41.835159 -82.608200 39,975 246 457 -64
2021-09-22 22:14:59 GMT 41.837814 -82.600456 40,000 246 458 -64
2021-09-22 22:14:56 GMT 41.841705 -82.589157 39,975 246 458 0
2021-09-22 22:14:52 GMT 41.845093 -82.579361 39,975 246 458 -64
2021-09-22 22:14:48 GMT 41.847610 -82.572182 40,000 246 458 -64
2021-09-22 22:14:45 GMT 41.851135 -82.561882 39,975 246 458 0
2021-09-22 22:14:42 GMT 41.853836 -82.554199 39,975 246 458 -64
2021-09-22 22:14:39 GMT 41.856491 -82.546463 39,975 246 458 0
2021-09-22 22:14:34 GMT 41.861031 -82.533318 39,975 246 458 -64
2021-09-22 22:14:29 GMT 41.864685 -82.522743 40,000 246 458 -64
2021-09-22 22:14:25 GMT 41.869308 -82.509384 40,000 246 459 -64
2021-09-22 22:14:22 GMT 41.871964 -82.501640 40,000 246 459 -64
2021-09-22 22:14:19 GMT 41.873749 -82.496460 40,000 246 459 -64
2021-09-22 22:14:16 GMT 41.876530 -82.488480 39,975 246 459 0
2021-09-22 22:14:13 GMT 41.879696 -82.479218 40,000 246 459 0
2021-09-22 22:14:09 GMT 41.883179 -82.469185 40,000 246 459 -64
2021-09-22 22:14:06 GMT 41.885834 -82.461441 39,975 246 459 0
2021-09-22 22:14:01 GMT 41.889847 -82.449837 40,000 246 459 0
2021-09-22 22:13:58 GMT 41.892242 -82.442841 40,000 246 454 -64
2021-09-22 22:13:52 GMT 41.898651 -82.424240 39,975 246 459 0
2021-09-22 22:13:48 GMT 41.901306 -82.416435 39,975 246 460 -64
2021-09-22 22:13:45 GMT 41.904144 -82.408134 39,975 246 460 -64
2021-09-22 22:13:42 GMT 41.906555 -82.401169 39,975 246 461 -64
2021-09-22 22:13:39 GMT 41.910469 -82.389732 39,975 246 462 -64
2021-09-22 22:13:32 GMT 41.916332 -82.372551 39,975 246 462 -128
2021-09-22 22:13:28 GMT 41.919662 -82.362938 40,000 246 461 -128
2021-09-22 22:13:23 GMT 41.924286 -82.349457 40,000 246 461 -64
2021-09-22 22:13:20 GMT 41.925598 -82.345596 40,000 246 461 -64
2021-09-22 22:13:17 GMT 41.929092 -82.335480 40,000 246 459 -64
2021-09-22 22:13:14 GMT 41.931461 -82.328476 40,000 246 457 0
2021-09-22 22:13:11 GMT 41.934586 -82.319435 40,000 246 457 0
2021-09-22 22:13:08 GMT 41.936874 -82.312752 40,000 246 457 0
2021-09-22 22:13:04 GMT 41.940308 -82.302734 39,975 246 456 0
2021-09-22 22:13:00 GMT 41.943848 -82.292389 39,975 246 455 64
2021-09-22 22:12:57 GMT 41.950687 -82.272392 39,975 246 455 -64
2021-09-22 22:12:53 GMT 41.950687 -82.272392 39,975 246 455 -64
2021-09-22 22:12:50 GMT 41.953297 -82.264732 40,000 246 454 -64
2021-09-22 22:12:47 GMT 41.956375 -82.255760 40,000 246 454 -64
2021-09-22 22:12:44 GMT 41.958557 -82.249336 40,000 246 454 -64
2021-09-22 22:12:39 GMT 41.962463 -82.237846 39,975 246 453 -64
2021-09-22 22:12:35 GMT 41.966423 -82.226341 39,975 246 451 -64
2021-09-22 22:12:32 GMT 41.969170 -82.218231 40,000 246 450 -64
2021-09-22 22:12:29 GMT 41.971638 -82.211075 39,975 246 451 0
2021-09-22 22:12:26 GMT 41.974319 -82.203140 40,000 246 451 -64
2021-09-22 22:12:23 GMT 41.976337 -82.197342 40,000 246 451 -64
2021-09-22 22:12:20 GMT 41.978851 -82.189972 40,000 246 450 -64
2021-09-22 22:12:15 GMT 41.983276 -82.176971 40,000 246 450 -64
2021-09-22 22:12:10 GMT 41.988373 -82.162003 40,000 246 450 -64
2021-09-22 22:12:07 GMT 41.990616 -82.155388 39,975 246 450 -64
2021-09-22 22:12:04 GMT 41.993145 -82.148033 40,000 246 450 -64
2021-09-22 22:11:57 GMT 41.998764 -82.131538 39,975 246 450 -64
2021-09-22 22:11:54 GMT 42.001244 -82.124146 40,000 246 450 0
2021-09-22 22:11:49 GMT 42.005062 -82.112968 39,975 246 450 -64
2021-09-22 22:11:45 GMT 42.008789 -82.102081 40,000 246 450 -64
2021-09-22 22:11:42 GMT 42.011719 -82.093468 40,000 246 450 -64
2021-09-22 22:11:36 GMT 42.017075 -82.077667 40,000 246 450 -64
2021-09-22 22:11:33 GMT 42.019402 -82.070808 39,975 246 450 -64
2021-09-22 22:11:25 GMT 42.026917 -82.048767 39,975 246 449 -64
2021-09-22 22:11:22 GMT 42.028610 -82.043648 39,975 246 447 64
2021-09-22 22:11:18 GMT 42.031906 -82.034035 40,000 246 449 -64
2021-09-22 22:11:14 GMT 42.035927 -82.022141 40,000 246 449 -64
2021-09-22 22:11:11 GMT 42.038021 -82.016006 40,000 246 449 -64
2021-09-22 22:11:08 GMT 42.041153 -82.006638 40,000 246 447 -64
2021-09-22 22:11:05 GMT 42.044266 -81.997520 39,975 246 447 -64
2021-09-22 22:11:00 GMT 42.047333 -81.988403 39,975 246 447 64
2021-09-22 22:10:57 GMT 42.050400 -81.979294 40,000 246 447 0
2021-09-22 22:10:54 GMT 42.053329 -81.970680 40,000 246 447 -64
2021-09-22 22:10:50 GMT 42.056076 -81.962624 40,000 246 447 -64
2021-09-22 22:10:47 GMT 42.059715 -81.951752 40,000 246 447 0
2021-09-22 22:10:42 GMT 42.063263 -81.941406 40,000 246 447 0
2021-09-22 22:10:39 GMT 42.065392 -81.935074 39,975 246 447 -64
2021-09-22 22:10:34 GMT 42.069580 -81.922676 39,975 246 447 0
2021-09-22 22:10:31 GMT 42.073261 -81.911827 39,975 246 447 0
2021-09-22 22:10:23 GMT 42.079731 -81.892601 39,975 246 447 -64
2021-09-22 22:10:19 GMT 42.082291 -81.885002 39,975 246 446 -64
2021-09-22 22:10:13 GMT 42.088436 -81.866798 40,000 246 446 -64
2021-09-22 22:10:10 GMT 42.091599 -81.857445 40,000 246 446 -128
2021-09-22 22:10:06 GMT 42.094769 -81.848145 40,000 246 445 -64
2021-09-22 22:10:02 GMT 42.097549 -81.839783 40,000 246 445 -64
2021-09-22 22:09:59 GMT 42.100296 -81.831726 40,000 246 445 -64
2021-09-22 22:09:51 GMT 42.109772 -81.803513 40,000 246 445 -64
2021-09-22 22:09:48 GMT 42.109772 -81.803513 40,000 246 445 -64
2021-09-22 22:09:44 GMT 42.113064 -81.793663 40,000 246 445 -64
2021-09-22 22:09:40 GMT 42.116226 -81.784348 40,000 246 445 0
2021-09-22 22:09:37 GMT 42.119534 -81.774498 40,000 246 445 -64
2021-09-22 22:09:34 GMT 42.121445 -81.768745 40,000 246 445 -64
2021-09-22 22:09:30 GMT 42.124935 -81.758400 39,975 246 445 0
2021-09-22 22:09:27 GMT 42.126610 -81.753357 40,000 246 445 -64
2021-09-22 22:09:24 GMT 42.130520 -81.741730 39,975 246 445 -64
2021-09-22 22:09:21 GMT 42.131683 -81.738220 40,000 246 445 -64
2021-09-22 22:09:18 GMT 42.134571 -81.729660 39,975 246 445 -64
2021-09-22 22:09:15 GMT 42.138294 -81.718544 40,000 246 446 -64
2021-09-22 22:09:11 GMT 42.140259 -81.712685 40,000 246 446 -64
2021-09-22 22:09:08 GMT 42.143463 -81.703140 40,000 246 446 -64
2021-09-22 22:09:04 GMT 42.146580 -81.693764 39,975 246 446 -64
2021-09-22 22:08:59 GMT 42.151245 -81.679855 39,975 246 446 -64
2021-09-22 22:08:56 GMT 42.153378 -81.673515 39,975 246 446 0
2021-09-22 22:08:51 GMT 42.160080 -81.653511 39,975 246 448 -64
2021-09-22 22:08:48 GMT 42.160080 -81.653511 39,975 246 447 -64
2021-09-22 22:08:45 GMT 42.162094 -81.647453 39,975 246 447 -64
2021-09-22 22:08:40 GMT 42.166672 -81.633720 39,975 246 448 -64
2021-09-22 22:08:36 GMT 42.170322 -81.622795 40,000 246 448 -64
2021-09-22 22:08:31 GMT 42.175072 -81.608620 39,975 246 448 -64
2021-09-22 22:08:28 GMT 42.178024 -81.599701 40,000 246 448 -64
2021-09-22 22:08:25 GMT 42.179817 -81.594376 40,000 246 448 -64
2021-09-22 22:08:22 GMT 42.182194 -81.587219 40,000 246 448 -64
2021-09-22 22:08:19 GMT 42.184708 -81.579552 39,975 246 448 -64
2021-09-22 22:08:15 GMT 42.187500 -81.571175 39,975 246 448 0
2021-09-22 22:08:11 GMT 42.190887 -81.561005 40,000 246 448 0
2021-09-22 22:08:08 GMT 42.194016 -81.551575 40,000 246 448 -64
2021-09-22 22:08:05 GMT 42.196335 -81.544647 40,000 246 448 0
2021-09-22 22:08:02 GMT 42.200043 -81.533478 40,000 246 448 -64
2021-09-22 22:07:59 GMT 42.202164 -81.527115 40,000 246 448 -64
2021-09-22 22:07:55 GMT 42.205811 -81.516121 40,000 246 448 0
2021-09-22 22:07:51 GMT 42.208511 -81.508003 40,000 246 448 0
2021-09-22 22:07:46 GMT 42.213455 -81.493210 39,975 246 448 64
2021-09-22 22:07:43 GMT 42.216084 -81.485336 39,975 246 446 -64
2021-09-22 22:07:38 GMT 42.220230 -81.472862 39,975 246 448 64
2021-09-22 22:07:34 GMT 42.222694 -81.465477 39,975 246 447 -64
2021-09-22 22:07:31 GMT 42.226044 -81.455322 39,975 246 447 0
2021-09-22 22:07:26 GMT 42.229908 -81.443695 39,975 246 446 -64
2021-09-22 22:07:23 GMT 42.235428 -81.427170 39,975 246 446 -64
2021-09-22 22:07:20 GMT 42.235428 -81.427170 39,975 247 445 -64
2021-09-22 22:07:17 GMT 42.237171 -81.421852 39,975 247 446 -64
2021-09-22 22:07:14 GMT 42.240337 -81.412201 40,000 247 445 -64
2021-09-22 22:07:08 GMT 42.244308 -81.400330 40,000 247 445 -64
2021-09-22 22:07:05 GMT 42.247551 -81.390427 40,000 247 445 64
2021-09-22 22:07:02 GMT 42.249161 -81.385597 40,000 247 445 -64
2021-09-22 22:06:59 GMT 42.251862 -81.377541 39,975 247 445 -64
2021-09-22 22:06:56 GMT 42.254517 -81.369431 40,000 247 445 64
2021-09-22 22:06:53 GMT 42.257721 -81.359818 40,000 247 445 -64
2021-09-22 22:06:49 GMT 42.261147 -81.349419 40,000 247 445 -64
2021-09-22 22:06:46 GMT 42.263474 -81.342323 39,975 247 445 -64
2021-09-22 22:06:42 GMT 42.267105 -81.331413 40,000 247 445 -64
2021-09-22 22:06:36 GMT 42.271454 -81.318306 40,000 247 445 0
2021-09-22 22:06:33 GMT 42.275940 -81.304573 39,975 247 445 0
2021-09-22 22:06:26 GMT 42.284180 -81.279793 40,000 247 445 0
2021-09-22 22:06:21 GMT 42.284180 -81.279793 40,000 247 445 -64
2021-09-22 22:06:18 GMT 42.286652 -81.272171 40,000 247 445 0
2021-09-22 22:06:15 GMT 42.289265 -81.264336 40,000 247 445 -64
2021-09-22 22:06:11 GMT 42.295898 -81.244331 40,000 247 442 -64
2021-09-22 22:06:08 GMT 42.295898 -81.244331 40,000 247 445 0
2021-09-22 22:06:05 GMT 42.298370 -81.236717 40,000 247 445 -64
2021-09-22 22:06:02 GMT 42.300568 -81.230164 40,000 247 445 0
2021-09-22 22:05:59 GMT 42.302399 -81.224609 40,000 247 445 -64
2021-09-22 22:05:56 GMT 42.304485 -81.218216 40,000 247 445 -64
2021-09-22 22:05:53 GMT 42.307465 -81.209152 39,975 247 444 -64
2021-09-22 22:05:50 GMT 42.310867 -81.198769 40,000 247 444 -64
2021-09-22 22:05:46 GMT 42.312820 -81.192924 39,975 247 444 0
2021-09-22 22:05:43 GMT 42.316448 -81.181808 40,000 247 444 -64
2021-09-22 22:05:40 GMT 42.321213 -81.167366 40,000 247 444 -64
2021-09-22 22:05:37 GMT 42.321213 -81.167366 40,000 247 444 -64
2021-09-22 22:05:34 GMT 42.323181 -81.161308 39,975 247 443 -64
2021-09-22 22:05:30 GMT 42.327164 -81.149200 40,000 247 443 -64
2021-09-22 22:05:26 GMT 42.330505 -81.139091 40,000 247 442 -64
2021-09-22 22:05:23 GMT 42.331833 -81.135033 40,000 247 442 -64
2021-09-22 22:05:19 GMT 42.336235 -81.121643 40,000 247 442 0
2021-09-22 22:05:15 GMT 42.338375 -81.115128 40,000 247 442 0
2021-09-22 22:05:12 GMT 42.340942 -81.107254 40,000 247 442 0
2021-09-22 22:05:09 GMT 42.344238 -81.097206 39,975 247 442 -64
2021-09-22 22:05:04 GMT 42.347855 -81.086029 39,975 247 443 0
2021-09-22 22:05:01 GMT 42.351471 -81.074921 40,000 247 442 -64
2021-09-22 22:04:58 GMT 42.352715 -81.071114 40,000 247 442 64
2021-09-22 22:04:55 GMT 42.356297 -81.060005 40,000 247 442 64
2021-09-22 22:04:51 GMT 42.362350 -81.041290 40,000 247 441 -128
2021-09-22 22:04:47 GMT 42.362350 -81.041290 39,975 247 441 0
2021-09-22 22:04:43 GMT 42.364563 -81.034531 40,000 247 440 -128
2021-09-22 22:04:39 GMT 42.367905 -81.024483 40,000 246 441 -64
2021-09-22 22:04:36 GMT 42.371662 -81.013184 39,950 247 441 -64
2021-09-22 22:04:33 GMT 42.374039 -81.005882 39,975 247 441 64
2021-09-22 22:04:30 GMT 42.376511 -80.998329 39,975 247 441 0
2021-09-22 22:04:26 GMT 42.379948 -80.987953 39,975 247 441 0
2021-09-22 22:04:23 GMT 42.382416 -80.980415 39,975 247 441 64
2021-09-22 22:04:19 GMT 42.385067 -80.972366 40,000 247 441 192
2021-09-22 22:04:16 GMT 42.387451 -80.965057 39,975 247 441 -64
2021-09-22 22:04:11 GMT 42.392284 -80.950203 39,975 247 441 -64
2021-09-22 22:04:08 GMT 42.394238 -80.944138 40,000 247 441 0
2021-09-22 22:04:05 GMT 42.396103 -80.938278 40,000 247 441 64
2021-09-22 22:04:01 GMT 42.400383 -80.924911 40,000 247 441 128
2021-09-22 22:03:57 GMT 42.403782 -80.914307 40,000 247 440 -128
2021-09-22 22:03:54 GMT 42.406311 -80.906502 39,975 247 440 -128
2021-09-22 22:03:50 GMT 42.409424 -80.896950 39,975 247 440 -64
2021-09-22 22:03:46 GMT 42.412628 -80.887093 39,975 246 440 64
2021-09-22 22:03:39 GMT 42.418350 -80.869865 39,975 247 438 0
2021-09-22 22:03:35 GMT 42.421055 -80.861549 39,975 247 438 64
2021-09-22 22:03:32 GMT 42.424072 -80.852318 39,975 247 438 0
2021-09-22 22:03:28 GMT 42.427292 -80.842514 39,975 247 438 0
2021-09-22 22:03:25 GMT 42.430222 -80.833504 39,975 247 438 0
2021-09-22 22:03:21 GMT 42.432632 -80.826225 39,975 247 438 -64
2021-09-22 22:03:17 GMT 42.436203 -80.815239 39,975 247 439 -64
2021-09-22 22:03:14 GMT 42.441788 -80.798203 39,975 247 439 -64
2021-09-22 22:03:11 GMT 42.441788 -80.798203 39,975 247 438 0
2021-09-22 22:03:08 GMT 42.443493 -80.792885 40,000 247 439 -64
2021-09-22 22:03:03 GMT 42.447647 -80.780098 40,000 247 439 -128
2021-09-22 22:02:59 GMT 42.450439 -80.771545 39,975 247 440 -64
2021-09-22 22:02:56 GMT 42.452866 -80.763992 40,000 247 439 -64
2021-09-22 22:02:53 GMT 42.455292 -80.756439 40,025 247 439 -64
2021-09-22 22:02:49 GMT 42.460949 -80.738525 39,975 247 439 64
2021-09-22 22:02:46 GMT 42.460949 -80.738525 39,975 247 439 -64
2021-09-22 22:02:43 GMT 42.463554 -80.730415 39,975 247 439 -64
2021-09-22 22:02:39 GMT 42.467373 -80.718338 39,975 247 439 0
2021-09-22 22:02:36 GMT 42.469254 -80.712555 40,000 247 438 -128
2021-09-22 22:02:33 GMT 42.472183 -80.703506 40,000 247 439 -64
2021-09-22 22:02:28 GMT 42.475517 -80.693237 40,000 247 438 -192
2021-09-22 22:02:25 GMT 42.477661 -80.686722 40,000 247 438 -64
2021-09-22 22:02:22 GMT 42.480515 -80.677979 40,025 247 437 -64
2021-09-22 22:02:19 GMT 42.483109 -80.670242 40,000 247 437 -64
2021-09-22 22:02:15 GMT 42.485962 -80.661499 40,000 247 440 -64
2021-09-22 22:02:12 GMT 42.488754 -80.653008 40,000 247 438 -128
2021-09-22 22:02:09 GMT 42.491764 -80.643669 40,000 247 438 -64
2021-09-22 22:02:06 GMT 42.494110 -80.636398 40,000 247 440 -64
2021-09-22 22:02:03 GMT 42.496468 -80.629112 39,975 247 438 64
2021-09-22 22:02:00 GMT 42.498917 -80.621300 40,000 247 439 -64
2021-09-22 22:01:57 GMT 42.503357 -80.607391 40,000 247 440 0
2021-09-22 22:01:51 GMT 42.505188 -80.601570 39,975 247 441 -64
2021-09-22 22:01:48 GMT 42.508392 -80.591461 39,975 247 443 64
2021-09-22 22:01:44 GMT 42.510757 -80.584076 39,975 247 443 64
2021-09-22 22:01:41 GMT 42.514668 -80.571877 39,975 247 443 -64
2021-09-22 22:01:38 GMT 42.519371 -80.557060 39,975 247 444 64
2021-09-22 22:01:35 GMT 42.519371 -80.557060 39,975 247 445 -64
2021-09-22 22:01:32 GMT 42.521896 -80.549194 39,975 247 445 -64
2021-09-22 22:01:29 GMT 42.522957 -80.545815 40,000 247 445 -64
2021-09-22 22:01:26 GMT 42.525375 -80.538155 40,000 247 446 -64
2021-09-22 22:01:23 GMT 42.528168 -80.529465 40,000 246 445 -128
2021-09-22 22:01:20 GMT 42.531708 -80.518799 40,000 267 459 0
2021-09-22 22:01:17 GMT 42.534302 -80.510933 40,000 247 445 -128
2021-09-22 22:01:13 GMT 42.539761 -80.493118 40,000 253 449 0
2021-09-22 22:01:10 GMT 42.539761 -80.493118 40,000 251 447 -64
2021-09-22 22:01:06 GMT 42.542274 -80.483665 40,000 252 448 -64
2021-09-22 22:01:03 GMT 42.544277 -80.475044 39,975 254 449 0
2021-09-22 22:00:59 GMT 42.546185 -80.465843 39,975 267 459 0
2021-09-22 22:00:56 GMT 42.547668 -80.457939 39,975 259 454 64
2021-09-22 22:00:53 GMT 42.548996 -80.449638 40,000 260 454 -64
2021-09-22 22:00:49 GMT 42.550735 -80.436150 40,000 263 456 64
2021-09-22 22:00:46 GMT 42.551632 -80.427399 39,975 265 458 64
2021-09-22 22:00:43 GMT 42.552097 -80.421707 39,975 268 460 64
2021-09-22 22:00:39 GMT 42.552750 -80.409698 39,950 270 462 64
2021-09-22 22:00:36 GMT 42.552933 -80.401321 39,975 278 467 -128
2021-09-22 22:00:33 GMT 42.552891 -80.389458 40,000 274 466 -128
2021-09-22 22:00:29 GMT 42.551880 -80.368736 40,000 277 468 0
2021-09-22 22:00:25 GMT 42.551880 -80.368736 39,975 277 469 0
2021-09-22 22:00:22 GMT 42.550827 -80.357124 39,975 278 468 0
2021-09-22 22:00:18 GMT 42.549820 -80.346642 39,975 278 469 -64
2021-09-22 22:00:13 GMT 42.548584 -80.333839 40,000 278 468 -64
2021-09-22 22:00:10 GMT 42.547443 -80.322578 40,000 278 467 -128
2021-09-22 22:00:07 GMT 42.546890 -80.317047 40,000 279 466 -64
2021-09-22 22:00:02 GMT 42.545582 -80.304626 39,975 279 465 64
2021-09-22 21:59:59 GMT 42.544144 -80.291702 40,000 279 464 64
2021-09-22 21:59:55 GMT 42.542694 -80.279335 40,000 280 464 0
2021-09-22 21:59:52 GMT 42.541950 -80.273651 39,975 281 464 -64
2021-09-22 21:59:47 GMT 42.539612 -80.256813 40,000 282 464 -128
2021-09-22 21:59:44 GMT 42.538689 -80.250847 39,975 283 464 -64
2021-09-22 21:59:41 GMT 42.537479 -80.243439 40,000 284 464 -128
2021-09-22 21:59:38 GMT 42.535400 -80.231842 40,000 285 464 -64
2021-09-22 21:59:35 GMT 42.534576 -80.227348 40,000 285 464 -64
2021-09-22 21:59:32 GMT 42.532127 -80.214760 39,975 286 464 -64
2021-09-22 21:59:29 GMT 42.531288 -80.210800 40,000 287 465 64
2021-09-22 21:59:26 GMT 42.528263 -80.197449 39,975 289 466 -64
2021-09-22 21:59:23 GMT 42.526913 -80.191956 39,975 291 468 64
2021-09-22 21:59:20 GMT 42.524277 -80.182343 40,000 292 469 64
2021-09-22 21:59:15 GMT 42.521046 -80.171707 40,000 294 470 0
2021-09-22 21:59:12 GMT 42.517368 -80.160980 39,975 297 474 -64
2021-09-22 21:59:09 GMT 42.514809 -80.154144 39,975 298 474 -128
2021-09-22 21:59:05 GMT 42.510201 -80.142647 39,975 300 476 0
2021-09-22 21:59:00 GMT 42.504776 -80.129967 40,000 302 478 -64
2021-09-22 21:58:56 GMT 42.501114 -80.121796 40,000 302 478 -64
2021-09-22 21:58:52 GMT 42.495117 -80.108856 40,000 304 480 0
2021-09-22 21:58:49 GMT 42.491638 -80.101570 40,000 304 480 64
2021-09-22 21:58:46 GMT 42.488506 -80.095314 40,000 305 482 0
2021-09-22 21:58:43 GMT 42.484222 -80.086884 39,975 305 482 0
2021-09-22 21:58:40 GMT 42.480560 -80.079659 40,000 305 482 -64
2021-09-22 21:58:36 GMT 42.475479 -80.069733 40,000 305 483 0
2021-09-22 21:58:33 GMT 42.470398 -80.059807 40,000 305 484 -64
2021-09-22 21:58:30 GMT 42.468613 -80.056374 40,000 306 486 -128
2021-09-22 21:58:27 GMT 42.465271 -80.049881 40,000 306 484 0
2021-09-22 21:58:22 GMT 42.456898 -80.033806 39,975 306 485 -128
2021-09-22 21:58:18 GMT 42.451733 -80.023842 39,975 306 486 -64
2021-09-22 21:58:15 GMT 42.447418 -80.015678 40,000 306 486 0
2021-09-22 21:58:11 GMT 42.439819 -80.001320 39,950 306 487 64
2021-09-22 21:58:08 GMT 42.439819 -80.001320 40,000 306 487 -64
2021-09-22 21:58:05 GMT 42.432129 -79.987022 40,000 307 488 -64
2021-09-22 21:58:02 GMT 42.432129 -79.987022 40,000 307 488 -64
2021-09-22 21:57:59 GMT 42.426918 -79.977470 40,000 308 490 -64
2021-09-22 21:57:56 GMT 42.424171 -79.972610 40,000 308 490 -64
2021-09-22 21:57:53 GMT 42.419189 -79.963860 40,000 309 491 -64
2021-09-22 21:57:50 GMT 42.415375 -79.957375 40,000 309 491 0
2021-09-22 21:57:47 GMT 42.410439 -79.948982 40,000 309 491 0
2021-09-22 21:57:42 GMT 42.402878 -79.936333 39,975 309 491 -64
2021-09-22 21:57:39 GMT 42.400757 -79.932755 39,975 309 491 -64
2021-09-22 21:57:36 GMT 42.395462 -79.923912 40,000 310 491 64
2021-09-22 21:57:32 GMT 42.388824 -79.912987 40,000 310 493 0
2021-09-22 21:57:29 GMT 42.379902 -79.898643 40,000 311 493 -64
2021-09-22 21:57:25 GMT 42.379902 -79.898643 40,000 311 493 -64
2021-09-22 21:57:22 GMT 42.375320 -79.891396 40,000 312 494 0
2021-09-22 21:57:19 GMT 42.370789 -79.884460 39,975 321 507 -64
2021-09-22 21:57:16 GMT 42.363968 -79.874413 39,975 314 497 -64
2021-09-22 21:57:12 GMT 42.354530 -79.861214 40,000 315 498 -64
2021-09-22 21:57:09 GMT 42.354530 -79.861214 39,975 316 499 0
2021-09-22 21:57:06 GMT 42.349457 -79.854439 40,000 317 501 0
2021-09-22 21:57:03 GMT 42.343826 -79.847008 39,975 317 502 0
2021-09-22 21:57:00 GMT 42.339260 -79.841225 40,000 318 503 64
2021-09-22 21:56:57 GMT 42.335117 -79.836174 39,975 320 506 0
2021-09-22 21:56:54 GMT 42.329315 -79.829346 39,975 321 508 0
2021-09-22 21:56:50 GMT 42.320732 -79.819893 39,975 323 510 0
2021-09-22 21:56:47 GMT 42.316864 -79.815796 40,000 325 515 -64
2021-09-22 21:56:44 GMT 42.310089 -79.808807 40,000 323 512 -64
2021-09-22 21:56:41 GMT 42.303680 -79.802254 39,975 323 513 -64
2021-09-22 21:56:37 GMT 42.296337 -79.794662 39,975 323 513 -64
2021-09-22 21:56:34 GMT 42.292740 -79.791016 39,975 323 513 -64
2021-09-22 21:56:28 GMT 42.278976 -79.776901 40,000 323 513 -64
2021-09-22 21:56:24 GMT 42.273102 -79.770859 39,975 323 513 -64
2021-09-22 21:56:18 GMT 42.262115 -79.759682 40,000 324 514 -64
2021-09-22 21:56:14 GMT 42.252068 -79.749496 40,000 324 514 -64
2021-09-22 21:56:08 GMT 42.241516 -79.739082 40,000 325 515 -64
2021-09-22 21:56:04 GMT 42.234703 -79.732574 40,000 326 515 0
2021-09-22 21:55:59 GMT 42.222881 -79.721718 39,975 327 517 -64
2021-09-22 21:55:56 GMT 42.217667 -79.717178 39,975 328 517 0
2021-09-22 21:55:53 GMT 42.212997 -79.713303 39,975 329 518 0
2021-09-22 21:55:49 GMT 42.202492 -79.704918 39,975 331 519 -128
2021-09-22 21:55:46 GMT 42.196793 -79.700630 40,000 331 520 -64
2021-09-22 21:55:43 GMT 42.190666 -79.696228 39,975 334 522 -64
2021-09-22 21:55:38 GMT 42.179581 -79.688896 39,975 337 525 -64
2021-09-22 21:55:35 GMT 42.168228 -79.682243 40,000 338 526 -64
2021-09-22 21:55:32 GMT 42.168228 -79.682243 39,975 339 527 -64
2021-09-22 21:55:29 GMT 42.160965 -79.678406 39,975 340 527 -64
2021-09-22 21:55:25 GMT 42.149277 -79.672661 39,975 341 528 -64
2021-09-22 21:55:22 GMT 42.144653 -79.670540 39,975 342 528 -64
2021-09-22 21:55:19 GMT 42.137966 -79.667419 40,000 342 528 -64
2021-09-22 21:55:15 GMT 42.128952 -79.663300 39,975 342 528 -128
2021-09-22 21:55:12 GMT 42.120884 -79.659569 39,975 342 528 -64
2021-09-22 21:55:09 GMT 42.114166 -79.656494 40,000 342 527 0
2021-09-22 21:55:04 GMT 42.102402 -79.651199 40,000 342 527 -64
2021-09-22 21:54:58 GMT 42.089413 -79.645325 40,000 342 528 -64
2021-09-22 21:54:54 GMT 42.078754 -79.640533 40,000 342 528 64
2021-09-22 21:54:51 GMT 42.072968 -79.637894 40,000 342 528 -64
2021-09-22 21:54:47 GMT 42.064178 -79.633965 40,000 342 529 -64
2021-09-22 21:54:44 GMT 42.056763 -79.630592 40,000 342 529 -64
2021-09-22 21:54:41 GMT 42.049099 -79.627121 39,975 342 529 -128
2021-09-22 21:54:37 GMT 42.040100 -79.622917 40,000 342 529 -64
2021-09-22 21:54:34 GMT 42.031265 -79.618858 40,000 341 530 -64
2021-09-22 21:54:31 GMT 42.026428 -79.616646 40,000 341 530 -128
2021-09-22 21:54:28 GMT 42.018311 -79.612862 40,000 341 532 -64
2021-09-22 21:54:24 GMT 42.010647 -79.609299 40,000 341 532 0
2021-09-22 21:54:20 GMT 42.001339 -79.605019 40,000 341 532 0
2021-09-22 21:54:17 GMT 41.994354 -79.601761 40,000 341 533 0
2021-09-22 21:54:13 GMT 41.977131 -79.593651 40,000 341 534 0
2021-09-22 21:54:10 GMT 41.977131 -79.593651 40,000 341 534 -64
2021-09-22 21:54:06 GMT 41.968285 -79.589371 40,000 340 535 0
2021-09-22 21:54:03 GMT 41.960175 -79.585335 39,975 340 534 0
2021-09-22 21:54:00 GMT 41.954178 -79.582336 39,975 340 534 0
2021-09-22 21:53:57 GMT 41.945892 -79.578033 39,975 339 534 64
2021-09-22 21:53:52 GMT 41.936954 -79.573212 39,975 337 533 64
2021-09-22 21:53:49 GMT 41.928131 -79.568108 39,975 337 533 -128
2021-09-22 21:53:46 GMT 41.914673 -79.559868 39,975 336 531 64
2021-09-22 21:53:43 GMT 41.914673 -79.559868 39,975 335 531 -64
2021-09-22 21:53:39 GMT 41.906708 -79.554749 40,000 335 531 -64
2021-09-22 21:53:33 GMT 41.892975 -79.545944 40,000 336 533 64
2021-09-22 21:53:29 GMT 41.883957 -79.540642 39,975 338 533 -64
2021-09-22 21:53:26 GMT 41.875214 -79.535957 40,025 340 535 -64
2021-09-22 21:53:23 GMT 41.869629 -79.533211 39,975 342 536 -64
2021-09-22 21:53:20 GMT 41.862846 -79.530090 39,975 343 538 -64
2021-09-22 21:53:17 GMT 41.854279 -79.526581 40,000 345 538 -64
2021-09-22 21:53:14 GMT 41.850677 -79.525162 39,975 346 539 -64
2021-09-22 21:53:11 GMT 41.841290 -79.521790 39,975 346 539 -64
2021-09-22 21:53:08 GMT 41.833099 -79.519043 39,975 346 539 -64
2021-09-22 21:53:05 GMT 41.826813 -79.516937 39,975 347 538 -64
2021-09-22 21:53:00 GMT 41.815933 -79.513367 40,000 347 537 -64
2021-09-22 21:52:57 GMT 41.808426 -79.510994 40,000 347 536 -128
2021-09-22 21:52:54 GMT 41.801926 -79.508995 39,975 348 536 0
2021-09-22 21:52:51 GMT 41.792679 -79.506248 40,000 349 537 0
2021-09-22 21:52:48 GMT 41.774395 -79.501541 39,975 350 537 0
2021-09-22 21:52:44 GMT 41.774395 -79.501541 39,975 351 537 64
2021-09-22 21:52:39 GMT 41.762833 -79.499191 39,975 353 538 -64
2021-09-22 21:52:36 GMT 41.758896 -79.498505 39,975 354 539 -64
2021-09-22 21:52:32 GMT 41.745529 -79.496506 39,975 355 539 -64
2021-09-22 21:52:29 GMT 41.740784 -79.495857 40,000 355 539 -64
2021-09-22 21:52:26 GMT 41.733078 -79.494888 39,975 355 539 -64
2021-09-22 21:52:22 GMT 41.721680 -79.493324 39,975 355 539 -64
2021-09-22 21:52:19 GMT 41.708313 -79.491455 40,000 355 538 -64
2021-09-22 21:52:16 GMT 41.708313 -79.491455 40,000 355 538 -64
2021-09-22 21:52:12 GMT 41.695164 -79.489594 40,000 355 538 -64
2021-09-22 21:52:09 GMT 41.688995 -79.488770 40,000 355 538 -64
2021-09-22 21:52:05 GMT 41.682541 -79.487831 40,000 355 538 -64
2021-09-22 21:52:01 GMT 41.668167 -79.485832 40,000 354 539 -64
2021-09-22 21:51:57 GMT 41.661713 -79.484901 40,000 354 539 -64
2021-09-22 21:51:54 GMT 41.655258 -79.484024 40,000 354 539 -64
2021-09-22 21:51:48 GMT 41.638412 -79.481529 40,000 354 539 -64
2021-09-22 21:51:45 GMT 41.631500 -79.480530 39,975 354 540 -64
2021-09-22 21:51:42 GMT 41.624310 -79.479507 40,000 354 540 -64
2021-09-22 21:51:37 GMT 41.610905 -79.477524 40,000 354 541 -128
2021-09-22 21:51:34 GMT 41.604946 -79.476631 40,000 354 541 -64
2021-09-22 21:51:30 GMT 41.590256 -79.474472 40,000 354 541 -64
2021-09-22 21:51:27 GMT 41.586777 -79.473976 40,000 354 542 64
2021-09-22 21:51:24 GMT 41.579529 -79.472862 40,000 354 542 64
2021-09-22 21:51:20 GMT 41.569565 -79.471329 39,975 354 542 64
2021-09-22 21:51:16 GMT 41.559139 -79.469666 39,975 353 542 64
2021-09-22 21:51:13 GMT 41.548920 -79.467918 39,975 353 541 0
2021-09-22 21:51:09 GMT 41.540749 -79.466347 40,000 350 540 0
2021-09-22 21:51:06 GMT 41.534790 -79.465134 39,975 349 538 -64
2021-09-22 21:51:02 GMT 41.524967 -79.462769 39,975 350 539 0
2021-09-22 21:50:59 GMT 41.518639 -79.461044 39,975 347 538 0
2021-09-22 21:50:55 GMT 41.505604 -79.456833 40,000 345 536 -64
2021-09-22 21:50:51 GMT 41.494904 -79.452629 39,975 343 534 -64
2021-09-22 21:50:46 GMT 41.483734 -79.447571 39,975 340 531 64
2021-09-22 21:50:43 GMT 41.477783 -79.444511 40,000 332 523 -64
2021-09-22 21:50:37 GMT 41.464497 -79.436966 40,000 335 527 -64
2021-09-22 21:50:34 GMT 41.457932 -79.432747 39,975 333 524 0
2021-09-22 21:50:28 GMT 41.446342 -79.424637 39,975 330 521 -64
2021-09-22 21:50:25 GMT 41.437820 -79.417984 39,975 328 520 -64
2021-09-22 21:50:22 GMT 41.433960 -79.414803 40,000 327 518 -64
2021-09-22 21:50:19 GMT 41.422089 -79.404068 39,975 325 514 -64
2021-09-22 21:50:16 GMT 41.415665 -79.397621 39,975 323 513 -64
2021-09-22 21:50:13 GMT 41.412506 -79.394325 40,000 322 511 -64
2021-09-22 21:50:06 GMT 41.402069 -79.382523 39,975 317 505 -64
2021-09-22 21:50:03 GMT 41.398315 -79.377907 40,000 317 505 -64
2021-09-22 21:50:00 GMT 41.394112 -79.372513 40,000 316 504 -64
2021-09-22 21:49:53 GMT 41.378952 -79.350525 39,975 306 492 -64
2021-09-22 21:49:43 GMT 41.367764 -79.330963 39,975 304 489 -64
2021-09-22 21:49:40 GMT 41.364807 -79.325256 39,975 303 488 -64
2021-09-22 21:49:36 GMT 41.358917 -79.312859 39,975 300 484 -64
2021-09-22 21:49:33 GMT 41.356403 -79.307182 39,975 299 482 -64
2021-09-22 21:49:30 GMT 41.353191 -79.299377 40,000 279 457 -64
2021-09-22 21:49:25 GMT 41.347687 -79.284302 40,000 294 477 -64
2021-09-22 21:49:22 GMT 41.344765 -79.275406 40,000 291 474 -64
2021-09-22 21:49:19 GMT 41.343136 -79.270042 40,000 291 474 -64
2021-09-22 21:49:13 GMT 41.336884 -79.245056 40,000 286 467 -64
2021-09-22 21:49:10 GMT 41.336884 -79.245056 39,975 286 467 -64
2021-09-22 21:49:07 GMT 41.334732 -79.233948 39,975 282 463 -64
2021-09-22 21:49:02 GMT 41.332993 -79.223389 40,000 280 461 -64
2021-09-22 21:48:59 GMT 41.331711 -79.214478 40,000 280 461 -64
2021-09-22 21:48:52 GMT 41.329449 -79.194633 39,975 278 459 -64
2021-09-22 21:48:48 GMT 41.328472 -79.185143 39,975 278 459 0
2021-09-22 21:48:44 GMT 41.326675 -79.168152 40,000 278 459 -64
2021-09-22 21:48:41 GMT 41.326126 -79.162537 40,000 278 459 -64
2021-09-22 21:48:38 GMT 41.325394 -79.155884 39,975 278 458 -64
2021-09-22 21:48:33 GMT 41.323837 -79.140808 39,975 278 458 -64
2021-09-22 21:48:30 GMT 41.322979 -79.132774 40,000 278 458 -64
2021-09-22 21:48:27 GMT 41.322372 -79.126892 40,000 278 457 -64
2021-09-22 21:48:22 GMT 41.320724 -79.111328 40,000 278 457 -128
2021-09-22 21:48:19 GMT 41.319901 -79.103577 40,000 278 457 -128
2021-09-22 21:48:16 GMT 41.317474 -79.080200 40,000 279 457 -64
2021-09-22 21:48:11 GMT 41.317474 -79.080200 40,000 278 457 64
2021-09-22 21:48:06 GMT 41.316238 -79.068542 40,000 278 457 64
2021-09-22 21:48:02 GMT 41.313904 -79.046326 39,975 278 457 64
2021-09-22 21:47:59 GMT 41.313309 -79.040771 39,975 278 457 64
2021-09-22 21:47:56 GMT 41.313309 -79.040771 40,000 279 457 -64
2021-09-22 21:47:50 GMT 41.311199 -79.020538 39,975 278 457 0
2021-09-22 21:47:46 GMT 41.310287 -79.011902 39,975 279 458 0
2021-09-22 21:47:40 GMT 41.308182 -78.991882 39,975 279 458 -64
2021-09-22 21:47:36 GMT 41.307266 -78.983521 39,975 279 458 0
2021-09-22 21:47:33 GMT 41.306534 -78.976257 39,975 279 458 -64
2021-09-22 21:47:29 GMT 41.305241 -78.964294 39,975 279 458 -64
2021-09-22 21:47:26 GMT 41.304291 -78.955139 40,000 279 457 -64
2021-09-22 21:47:23 GMT 41.302322 -78.936768 39,975 279 458 0
2021-09-22 21:47:19 GMT 41.302322 -78.936768 39,975 279 457 0
2021-09-22 21:47:16 GMT 41.301178 -78.926208 39,975 279 457 -64
2021-09-22 21:47:13 GMT 41.300632 -78.920914 39,975 279 457 -64
2021-09-22 21:47:08 GMT 41.298073 -78.897003 39,975 279 457 -64
2021-09-22 21:47:05 GMT 41.298073 -78.897003 40,000 279 457 -64
2021-09-22 21:47:01 GMT 41.297096 -78.888138 39,975 279 457 0
2021-09-22 21:46:57 GMT 41.295410 -78.872253 40,000 279 457 -64
2021-09-22 21:46:54 GMT 41.294952 -78.867798 39,975 279 457 -64
2021-09-22 21:46:51 GMT 41.294117 -78.859741 39,975 279 457 -64
2021-09-22 21:46:48 GMT 41.292984 -78.849487 39,975 279 457 -64
2021-09-22 21:46:44 GMT 41.291927 -78.839203 39,975 279 457 -64
2021-09-22 21:46:36 GMT 41.289185 -78.813904 40,000 279 457 -64
2021-09-22 21:46:33 GMT 41.288715 -78.809738 40,000 279 457 -64
2021-09-22 21:46:27 GMT 41.286392 -78.788391 40,000 279 457 -64
2021-09-22 21:46:24 GMT 41.285614 -78.781128 39,975 279 457 -64
2021-09-22 21:46:21 GMT 41.284836 -78.773926 40,000 279 457 -64
2021-09-22 21:46:19 GMT 41.283920 -78.765358 40,000 279 457 -64
2021-09-22 21:46:15 GMT 41.283188 -78.758362 40,000 279 457 0
2021-09-22 21:46:12 GMT 41.282089 -78.748413 40,000 279 457 0
2021-09-22 21:46:09 GMT 41.281219 -78.740051 40,000 279 457 0
2021-09-22 21:46:06 GMT 41.280521 -78.733643 40,000 279 457 0
2021-09-22 21:46:03 GMT 41.279312 -78.722534 40,000 279 457 0
2021-09-22 21:45:58 GMT 41.277603 -78.706726 39,975 279 458 0
2021-09-22 21:45:55 GMT 41.277031 -78.701431 39,975 279 458 0
2021-09-22 21:45:52 GMT 41.276241 -78.694191 39,975 279 458 0
2021-09-22 21:45:46 GMT 41.274399 -78.677246 39,975 279 458 -64
2021-09-22 21:45:43 GMT 41.273308 -78.667480 40,000 279 458 -64
2021-09-22 21:45:40 GMT 41.272377 -78.659180 40,000 279 458 -64
2021-09-22 21:45:34 GMT 41.269913 -78.636047 39,975 279 458 -64
2021-09-22 21:45:31 GMT 41.269913 -78.636047 40,000 279 458 -64
2021-09-22 21:45:26 GMT 41.268036 -78.618835 40,000 279 458 0
2021-09-22 21:45:23 GMT 41.267624 -78.614929 40,000 279 458 0
2021-09-22 21:45:20 GMT 41.266708 -78.606567 40,000 279 459 -64
2021-09-22 21:45:16 GMT 41.265152 -78.592651 39,975 279 459 0
2021-09-22 21:45:13 GMT 41.264137 -78.583458 39,975 279 459 0
2021-09-22 21:45:10 GMT 41.263531 -78.577904 39,975 279 459 -64
2021-09-22 21:45:06 GMT 41.262039 -78.564209 39,975 279 459 -64
2021-09-22 21:45:03 GMT 41.261158 -78.556114 39,975 279 460 0
2021-09-22 21:44:59 GMT 41.260273 -78.548309 40,000 279 460 -64
2021-09-22 21:44:55 GMT 41.258827 -78.534889 40,000 279 461 -64
2021-09-22 21:44:52 GMT 41.257919 -78.526794 39,975 279 461 -64
2021-09-22 21:44:48 GMT 41.256783 -78.516479 40,000 279 461 -64
2021-09-22 21:44:43 GMT 41.255245 -78.502434 40,000 279 461 -64
2021-09-22 21:44:40 GMT 41.254452 -78.495132 40,000 279 461 -64
2021-09-22 21:44:37 GMT 41.253342 -78.485352 40,000 279 462 -64
2021-09-22 21:44:35 GMT 41.251648 -78.470215 40,000 279 463 -64
2021-09-22 21:44:32 GMT 41.251648 -78.470215 39,975 279 462 -64
2021-09-22 21:44:29 GMT 41.250549 -78.460083 40,000 279 463 -64
2021-09-22 21:44:26 GMT 41.249939 -78.454803 40,000 279 463 -64
2021-09-22 21:44:22 GMT 41.248718 -78.443848 40,000 279 462 0
2021-09-22 21:44:18 GMT 41.247482 -78.432617 40,000 279 462 -64
2021-09-22 21:44:16 GMT 41.247025 -78.428711 39,975 279 462 -64
2021-09-22 21:44:11 GMT 41.244965 -78.410278 40,000 279 461 -64
2021-09-22 21:44:08 GMT 41.244049 -78.401855 40,000 279 460 0
2021-09-22 21:44:04 GMT 41.242676 -78.389259 40,000 279 460 -64
2021-09-22 21:44:00 GMT 41.241898 -78.382263 40,000 279 460 -64
2021-09-22 21:43:57 GMT 41.241119 -78.375610 40,000 279 460 0
2021-09-22 21:43:54 GMT 41.240021 -78.365540 40,000 279 460 0
2021-09-22 21:43:51 GMT 41.239197 -78.358276 40,000 279 460 64
2021-09-22 21:43:47 GMT 41.237507 -78.342941 39,975 279 460 64
2021-09-22 21:43:40 GMT 41.235458 -78.324471 39,975 279 460 64
2021-09-22 21:43:36 GMT 41.234207 -78.313049 39,975 279 460 64
2021-09-22 21:43:30 GMT 41.232513 -78.297974 39,975 279 460 -64
2021-09-22 21:43:27 GMT 41.231644 -78.289886 39,975 279 460 -64
2021-09-22 21:43:24 GMT 41.230713 -78.281517 39,975 279 460 -64
2021-09-22 21:43:20 GMT 41.229084 -78.266975 39,975 279 459 -64
2021-09-22 21:43:16 GMT 41.228432 -78.260857 39,975 279 459 -64
2021-09-22 21:43:14 GMT 41.227524 -78.252747 39,975 279 460 -64
2021-09-22 21:43:11 GMT 41.226379 -78.242737 40,000 279 459 -64
2021-09-22 21:43:07 GMT 41.225311 -78.233582 40,000 280 459 -64
2021-09-22 21:43:04 GMT 41.224136 -78.223816 40,000 280 459 64
2021-09-22 21:43:00 GMT 41.222900 -78.213806 40,000 279 459 0
2021-09-22 21:42:57 GMT 41.221069 -78.194336 39,975 276 456 0
2021-09-22 21:42:53 GMT 41.221069 -78.194336 39,975 271 453 -64
2021-09-22 21:42:50 GMT 41.220566 -78.183228 39,975 271 453 -64
2021-09-22 21:42:46 GMT 41.220425 -78.175156 39,975 270 452 -64
2021-09-22 21:42:44 GMT 41.220428 -78.168823 40,000 268 451 -64
2021-09-22 21:42:41 GMT 41.220703 -78.159424 40,000 267 450 -64
2021-09-22 21:42:38 GMT 41.221115 -78.151733 40,000 265 448 -64
2021-09-22 21:42:33 GMT 41.222122 -78.139709 40,000 257 444 -64
2021-09-22 21:42:30 GMT 41.222946 -78.132690 40,000 257 444 -64
2021-09-22 21:42:27 GMT 41.224289 -78.123344 40,000 254 443 -64
2021-09-22 21:42:23 GMT 41.228943 -78.100243 40,000 250 440 -64
2021-09-22 21:42:19 GMT 41.228943 -78.100243 40,000 251 441 -64
2021-09-22 21:42:16 GMT 41.229874 -78.096626 40,000 249 440 0
2021-09-22 21:42:13 GMT 41.233177 -78.085014 40,000 248 440 0
2021-09-22 21:42:10 GMT 41.235695 -78.077026 40,000 248 440 0
2021-09-22 21:42:07 GMT 41.239323 -78.065605 40,000 248 440 -64
2021-09-22 21:42:04 GMT 41.242081 -78.056885 40,000 248 440 -64
2021-09-22 21:42:01 GMT 41.242081 -78.056885 40,000 248 441 0
2021-09-22 21:41:58 GMT 41.244492 -78.049187 40,000 248 440 0
2021-09-22 21:41:53 GMT 41.248352 -78.036987 40,000 248 441 0
2021-09-22 21:41:50 GMT 41.249985 -78.031708 39,975 248 441 64
2021-09-22 21:41:47 GMT 41.252747 -78.023010 39,975 248 441 64
2021-09-22 21:41:44 GMT 41.257141 -78.009033 39,975 248 441 0
2021-09-22 21:41:37 GMT 41.260941 -77.997070 39,975 248 441 -64
2021-09-22 21:41:32 GMT 41.264557 -77.985596 39,975 248 442 -64
2021-09-22 21:41:29 GMT 41.266834 -77.978333 40,000 248 442 -64
2021-09-22 21:41:24 GMT 41.274563 -77.953804 40,000 248 442 -64
2021-09-22 21:41:20 GMT 41.274563 -77.953804 40,000 248 442 -64
2021-09-22 21:41:14 GMT 41.278885 -77.940063 40,000 248 442 -64
2021-09-22 21:41:12 GMT 41.280441 -77.935059 39,975 248 442 -64
2021-09-22 21:41:08 GMT 41.283279 -77.926086 40,000 248 442 0
2021-09-22 21:41:04 GMT 41.286255 -77.916565 39,975 248 442 -64
2021-09-22 21:41:02 GMT 41.288204 -77.910294 39,975 248 442 0
2021-09-22 21:40:56 GMT 41.293304 -77.894043 40,000 248 442 0
2021-09-22 21:40:53 GMT 41.296070 -77.885262 39,975 248 442 -64
2021-09-22 21:40:49 GMT 41.299118 -77.875488 40,000 248 442 -64
2021-09-22 21:40:44 GMT 41.304543 -77.858238 39,975 248 442 -64
2021-09-22 21:40:41 GMT 41.304543 -77.858238 40,000 248 442 0
2021-09-22 21:40:38 GMT 41.307266 -77.849426 39,975 248 442 0
2021-09-22 21:40:35 GMT 41.310242 -77.839905 39,975 248 442 -64
2021-09-22 21:40:31 GMT 41.313080 -77.830872 39,975 248 442 -64
2021-09-22 21:40:27 GMT 41.315231 -77.823853 40,000 248 442 -64
2021-09-22 21:40:23 GMT 41.318462 -77.813606 39,975 248 442 -64
2021-09-22 21:40:20 GMT 41.320835 -77.806053 40,000 248 442 -64
2021-09-22 21:40:17 GMT 41.323956 -77.795998 39,975 248 442 0
2021-09-22 21:40:13 GMT 41.327499 -77.784729 40,000 248 443 0
2021-09-22 21:40:10 GMT 41.329170 -77.779396 39,975 248 444 -64
2021-09-22 21:40:07 GMT 41.331497 -77.771904 39,975 248 443 -64
2021-09-22 21:40:02 GMT 41.335316 -77.759796 39,975 248 443 -64
2021-09-22 21:39:59 GMT 41.337830 -77.751740 40,000 248 444 -64
2021-09-22 21:39:56 GMT 41.340343 -77.743690 39,975 248 444 -64
2021-09-22 21:39:52 GMT 41.344578 -77.730080 40,000 248 444 -64
2021-09-22 21:39:49 GMT 41.347885 -77.719467 40,000 248 444 -64
2021-09-22 21:39:46 GMT 41.347885 -77.719467 40,000 248 444 -64
2021-09-22 21:39:42 GMT 41.351841 -77.706863 40,000 248 444 -64
2021-09-22 21:39:39 GMT 41.353958 -77.700073 40,000 248 444 0
2021-09-22 21:39:33 GMT 41.358490 -77.685425 40,000 248 444 0
2021-09-22 21:39:28 GMT 41.361851 -77.674591 40,000 248 444 -64
2021-09-22 21:39:25 GMT 41.364689 -77.665535 40,000 248 444 -64
2021-09-22 21:39:20 GMT 41.369251 -77.650871 39,975 248 445 -64
2021-09-22 21:39:17 GMT 41.370575 -77.646545 39,975 248 445 -64
2021-09-22 21:39:14 GMT 41.372589 -77.640015 39,975 248 445 -64
2021-09-22 21:39:10 GMT 41.376068 -77.628906 39,975 248 446 -64
2021-09-22 21:39:08 GMT 41.377865 -77.623093 40,000 248 448 -64
2021-09-22 21:39:05 GMT 41.380703 -77.613976 40,000 248 446 -64
2021-09-22 21:39:01 GMT 41.383438 -77.605103 39,975 248 446 0
2021-09-22 21:38:57 GMT 41.388710 -77.588066 39,975 248 446 0
2021-09-22 21:38:54 GMT 41.388710 -77.588066 39,975 248 446 0
2021-09-22 21:38:50 GMT 41.391365 -77.579445 39,975 248 447 -64
2021-09-22 21:38:47 GMT 41.393875 -77.571335 39,975 248 447 -64
2021-09-22 21:38:43 GMT 41.397125 -77.560921 40,000 248 447 -64
2021-09-22 21:38:38 GMT 41.401932 -77.545403 39,975 248 448 -64
2021-09-22 21:38:34 GMT 41.404999 -77.535446 40,000 248 449 -64
2021-09-22 21:38:29 GMT 41.408295 -77.524712 39,975 248 449 -64
2021-09-22 21:38:26 GMT 41.410263 -77.518379 39,975 248 449 -64
2021-09-22 21:38:20 GMT 41.415619 -77.501007 40,000 248 450 -64
2021-09-22 21:38:16 GMT 41.418365 -77.492004 40,000 248 450 -64
2021-09-22 21:38:12 GMT 41.422554 -77.478462 40,000 248 450 -64
2021-09-22 21:38:08 GMT 41.425114 -77.470284 40,000 248 450 -64
2021-09-22 21:38:05 GMT 41.426788 -77.464851 40,000 248 451 0
2021-09-22 21:38:02 GMT 41.429863 -77.454887 39,975 248 451 0
2021-09-22 21:37:57 GMT 41.434250 -77.440819 39,975 248 451 0
2021-09-22 21:37:52 GMT 41.437870 -77.429276 39,975 248 451 0
2021-09-22 21:37:48 GMT 41.441826 -77.416435 39,975 248 451 0
2021-09-22 21:37:45 GMT 41.443176 -77.412041 40,000 248 451 -64
2021-09-22 21:37:42 GMT 41.446472 -77.401306 40,000 248 451 0
2021-09-22 21:37:39 GMT 41.448437 -77.394852 40,000 248 452 -64
2021-09-22 21:37:36 GMT 41.449879 -77.390251 40,000 249 451 -64
2021-09-22 21:37:33 GMT 41.452206 -77.382523 40,000 249 451 -64
2021-09-22 21:37:30 GMT 41.455048 -77.373260 40,000 249 451 -64
2021-09-22 21:37:26 GMT 41.458694 -77.361099 40,000 249 451 0
2021-09-22 21:37:23 GMT 41.460354 -77.355698 40,000 249 451 0
2021-09-22 21:37:20 GMT 41.462727 -77.347969 40,000 248 452 0
2021-09-22 21:37:16 GMT 41.466640 -77.335129 39,975 248 452 0
2021-09-22 21:37:13 GMT 41.467804 -77.331200 39,975 248 452 64
2021-09-22 21:37:10 GMT 41.470825 -77.321465 39,975 248 452 64
2021-09-22 21:37:06 GMT 41.473576 -77.312386 39,975 248 452 0
2021-09-22 21:37:03 GMT 41.480896 -77.288506 39,975 248 451 0
2021-09-22 21:36:58 GMT 41.480896 -77.288506 39,975 248 451 0
2021-09-22 21:36:53 GMT 41.484936 -77.275406 39,975 248 449 0
2021-09-22 21:36:50 GMT 41.487446 -77.267227 39,975 248 450 -64
2021-09-22 21:36:47 GMT 41.488953 -77.262352 40,000 248 449 0
2021-09-22 21:36:45 GMT 41.490940 -77.255920 39,975 248 449 -64
2021-09-22 21:36:42 GMT 41.492889 -77.249557 40,000 248 449 -64
2021-09-22 21:36:39 GMT 41.495361 -77.241615 40,000 248 449 -64
2021-09-22 21:36:36 GMT 41.497364 -77.234970 40,000 248 449 -64
2021-09-22 21:36:32 GMT 41.500530 -77.224686 40,000 248 449 0
2021-09-22 21:36:28 GMT 41.503647 -77.214470 40,000 248 449 64
2021-09-22 21:36:25 GMT 41.506393 -77.205482 40,000 248 450 -64
2021-09-22 21:36:22 GMT 41.509048 -77.196747 39,975 248 450 -64
2021-09-22 21:36:19 GMT 41.511467 -77.188789 39,975 248 450 64
2021-09-22 21:36:15 GMT 41.514309 -77.179527 39,975 248 451 0
2021-09-22 21:36:11 GMT 41.517059 -77.170593 39,975 248 451 64
2021-09-22 21:36:07 GMT 41.519848 -77.161583 39,975 248 451 0
2021-09-22 21:36:03 GMT 41.523434 -77.149704 39,975 248 452 -64
2021-09-22 21:36:00 GMT 41.525436 -77.143311 39,975 248 452 0
2021-09-22 21:35:54 GMT 41.530609 -77.126274 39,975 248 452 -64
2021-09-22 21:35:51 GMT 41.533535 -77.116745 39,975 248 451 -64
2021-09-22 21:35:44 GMT 41.539165 -77.098221 40,000 248 450 -64
2021-09-22 21:35:40 GMT 41.541595 -77.090256 40,000 248 450 -64
2021-09-22 21:35:37 GMT 41.544067 -77.082016 40,000 249 448 0
2021-09-22 21:35:34 GMT 41.546661 -77.073563 40,000 249 449 0
2021-09-22 21:35:32 GMT 41.547821 -77.069717 40,000 249 449 -64
2021-09-22 21:35:29 GMT 41.556061 -77.042503 39,975 249 449 0
2021-09-22 21:35:22 GMT 41.556061 -77.042503 40,000 249 448 0
2021-09-22 21:35:17 GMT 41.559494 -77.031265 39,975 249 448 0
2021-09-22 21:35:13 GMT 41.563419 -77.018181 39,975 249 448 0
2021-09-22 21:35:09 GMT 41.565079 -77.012848 40,000 249 447 0
2021-09-22 21:35:04 GMT 41.571899 -76.990318 39,975 249 447 0
2021-09-22 21:35:01 GMT 41.571899 -76.990318 39,975 249 447 0
2021-09-22 21:34:58 GMT 41.573730 -76.984200 40,000 249 446 -64
2021-09-22 21:34:52 GMT 41.580231 -76.962723 40,000 249 446 0
2021-09-22 21:34:50 GMT 41.580231 -76.962723 40,000 249 446 -64
2021-09-22 21:34:47 GMT 41.582977 -76.953545 40,000 249 446 -64
2021-09-22 21:34:42 GMT 41.586464 -76.942108 40,000 249 446 -64
2021-09-22 21:34:40 GMT 41.588184 -76.936485 39,975 249 448 -64
2021-09-22 21:34:36 GMT 41.590794 -76.927803 40,000 249 446 -64
2021-09-22 21:34:33 GMT 41.593727 -76.918091 40,000 249 446 -64
2021-09-22 21:34:30 GMT 41.596115 -76.910225 40,000 249 446 0
2021-09-22 21:34:26 GMT 41.598450 -76.902550 40,000 249 446 -64
2021-09-22 21:34:20 GMT 41.604126 -76.883698 39,975 249 446 0
2021-09-22 21:34:17 GMT 41.605598 -76.878876 40,000 249 446 0
2021-09-22 21:34:13 GMT 41.609528 -76.865845 40,000 249 447 0
2021-09-22 21:34:09 GMT 41.611816 -76.858170 40,000 249 447 0
2021-09-22 21:34:06 GMT 41.614426 -76.849487 40,000 249 447 0
2021-09-22 21:34:02 GMT 41.617355 -76.839752 39,975 249 447 0
2021-09-22 21:33:59 GMT 41.620468 -76.829514 39,975 249 448 0
2021-09-22 21:33:49 GMT 41.627663 -76.805611 40,000 249 451 -64
2021-09-22 21:33:46 GMT 41.629852 -76.798454 40,000 249 451 -64
2021-09-22 21:33:42 GMT 41.633110 -76.787598 40,000 249 451 -64
2021-09-22 21:33:38 GMT 41.636444 -76.776520 39,975 249 452 -64
2021-09-22 21:33:35 GMT 41.637680 -76.772339 40,000 249 454 0
2021-09-22 21:33:29 GMT 41.643818 -76.751892 39,975 249 453 0
2021-09-22 21:33:25 GMT 41.646057 -76.744308 40,000 249 454 0
2021-09-22 21:33:18 GMT 41.651688 -76.725578 39,975 249 455 -64
2021-09-22 21:33:15 GMT 41.653839 -76.718338 39,975 249 455 -64
2021-09-22 21:33:10 GMT 41.657410 -76.706291 40,000 249 455 -64
2021-09-22 21:33:07 GMT 41.660480 -76.696129 40,000 249 456 0
2021-09-22 21:33:03 GMT 41.663544 -76.685944 39,975 249 456 -64
2021-09-22 21:32:58 GMT 41.670025 -76.664192 40,000 249 456 -64
2021-09-22 21:32:55 GMT 41.670025 -76.664192 40,000 249 457 -64
2021-09-22 21:32:48 GMT 41.675125 -76.647179 39,975 249 457 0
2021-09-22 21:32:46 GMT 41.677139 -76.640373 40,000 249 457 -64
2021-09-22 21:32:43 GMT 41.678741 -76.635132 40,000 249 457 -64
2021-09-22 21:32:37 GMT 41.683594 -76.618904 40,000 249 457 0
2021-09-22 21:32:34 GMT 41.686752 -76.608414 39,975 249 457 0
2021-09-22 21:32:27 GMT 41.691147 -76.593681 39,975 249 457 0
2021-09-22 21:32:23 GMT 41.694511 -76.582436 39,975 249 457 64
2021-09-22 21:32:18 GMT 41.698097 -76.570366 39,975 249 457 0
2021-09-22 21:32:15 GMT 41.701401 -76.559311 40,000 249 457 0
2021-09-22 21:32:12 GMT 41.702938 -76.554077 39,975 249 458 0
2021-09-22 21:32:07 GMT 41.712620 -76.521561 40,000 249 459 -64
2021-09-22 21:32:01 GMT 41.712620 -76.521561 39,975 249 458 0
2021-09-22 21:31:55 GMT 41.716393 -76.508919 40,000 249 458 -64
2021-09-22 21:31:52 GMT 41.718338 -76.502357 39,975 249 458 -64
2021-09-22 21:31:48 GMT 41.721771 -76.490814 40,000 249 458 -64
2021-09-22 21:31:45 GMT 41.724747 -76.480827 40,000 249 458 -64
2021-09-22 21:31:42 GMT 41.726261 -76.475830 40,000 249 458 -64
2021-09-22 21:31:39 GMT 41.729519 -76.464783 40,000 249 459 -64
2021-09-22 21:31:36 GMT 41.731934 -76.456604 39,975 249 459 -64
2021-09-22 21:31:32 GMT 41.734360 -76.448425 39,975 249 459 64
2021-09-22 21:31:28 GMT 41.737427 -76.438126 40,000 249 459 -64
2021-09-22 21:31:24 GMT 41.740181 -76.428947 39,975 249 459 0
2021-09-22 21:31:21 GMT 41.742737 -76.420212 40,000 249 459 -64
2021-09-22 21:31:16 GMT 41.746883 -76.406273 39,975 249 459 -64
2021-09-22 21:31:15 GMT 41.747673 -76.403648 39,975 249 459 -64
2021-09-22 21:31:12 GMT 41.750607 -76.393623 40,000 249 459 -64
2021-09-22 21:31:08 GMT 41.753815 -76.382820 40,000 249 458 -64
2021-09-22 21:31:04 GMT 41.756241 -76.374657 40,000 249 457 -64
2021-09-22 21:31:01 GMT 41.758942 -76.365402 40,000 249 457 -64
2021-09-22 21:30:55 GMT 41.763153 -76.351173 40,000 249 457 -64
2021-09-22 21:30:54 GMT 41.763828 -76.348846 40,000 249 457 -64
2021-09-22 21:30:51 GMT 41.766342 -76.340416 40,000 249 457 0
2021-09-22 21:30:44 GMT 41.772308 -76.320152 40,000 249 457 64
2021-09-22 21:30:39 GMT 41.775654 -76.308861 40,000 249 457 0
2021-09-22 21:30:36 GMT 41.778030 -76.300735 39,975 249 457 64
2021-09-22 21:30:33 GMT 41.780228 -76.293373 39,975 249 457 0
2021-09-22 21:30:30 GMT 41.783340 -76.282822 39,975 249 457 0
2021-09-22 21:30:25 GMT 41.788548 -76.265175 39,975 249 457 0
2021-09-22 21:30:22 GMT 41.788548 -76.265175 39,975 249 457 0
2021-09-22 21:30:19 GMT 41.790733 -76.257828 39,975 249 457 0
2021-09-22 21:30:12 GMT 41.797348 -76.235443 39,975 249 457 -64
2021-09-22 21:30:08 GMT 41.802475 -76.218025 39,975 249 458 -64
2021-09-22 21:30:05 GMT 41.802475 -76.218025 39,975 249 457 -64
2021-09-22 21:30:03 GMT 41.803631 -76.214073 40,000 249 458 -64
2021-09-22 21:30:00 GMT 41.806503 -76.204353 39,975 249 458 -64
2021-09-22 21:29:57 GMT 41.809296 -76.194870 40,000 249 458 -64
2021-09-22 21:29:54 GMT 41.810429 -76.190887 39,975 249 458 -64
2021-09-22 21:29:53 GMT 41.811630 -76.186943 40,000 249 458 -64
2021-09-22 21:29:50 GMT 41.813599 -76.180077 40,000 249 458 -64
2021-09-22 21:29:47 GMT 41.816391 -76.170586 39,975 249 459 -64
2021-09-22 21:29:44 GMT 41.818668 -76.162910 39,975 249 458 -64
2021-09-22 21:29:43 GMT 41.819321 -76.160538 40,000 249 458 -64
2021-09-22 21:29:39 GMT 41.821880 -76.151794 40,000 249 458 0
2021-09-22 21:29:35 GMT 41.825275 -76.140236 40,000 249 458 -64
2021-09-22 21:29:30 GMT 41.829391 -76.126205 40,000 249 458 0
2021-09-22 21:29:27 GMT 41.831001 -76.120689 39,975 249 458 0
2021-09-22 21:29:24 GMT 41.834122 -76.110085 40,000 249 458 0
2021-09-22 21:29:18 GMT 41.838310 -76.095840 39,975 249 459 -64
2021-09-22 21:29:15 GMT 41.841431 -76.085243 39,975 249 459 -64
2021-09-22 21:29:09 GMT 41.845230 -76.072334 40,000 249 459 -64
2021-09-22 21:29:06 GMT 41.847519 -76.064339 39,975 249 459 -64
2021-09-22 21:29:03 GMT 41.849854 -76.056412 40,000 249 459 -64
2021-09-22 21:28:59 GMT 41.853302 -76.044487 40,000 249 460 0
2021-09-22 21:28:56 GMT 41.855629 -76.036568 39,975 249 460 -64
2021-09-22 21:28:52 GMT 41.859493 -76.023285 39,975 249 460 0
2021-09-22 21:28:48 GMT 41.862614 -76.012680 39,975 249 460 0
2021-09-22 21:28:43 GMT 41.865685 -76.002075 39,975 249 460 -64
2021-09-22 21:28:38 GMT 41.869492 -75.989059 39,975 249 460 -64
2021-09-22 21:28:35 GMT 41.871876 -75.980804 39,975 249 460 -64
2021-09-22 21:28:31 GMT 41.874668 -75.971291 40,000 249 460 -64
2021-09-22 21:28:28 GMT 41.876770 -75.964088 40,000 249 460 -64
2021-09-22 21:28:25 GMT 41.879463 -75.954811 40,000 249 459 0
2021-09-22 21:28:22 GMT 41.881790 -75.946823 40,000 249 460 -64
2021-09-22 21:28:16 GMT 41.887192 -75.928299 40,000 249 460 -64
2021-09-22 21:28:11 GMT 41.890125 -75.918213 39,975 249 460 0
2021-09-22 21:28:07 GMT 41.895447 -75.899925 39,975 249 460 -64
2021-09-22 21:28:04 GMT 41.895447 -75.899925 40,000 249 460 -64
2021-09-22 21:28:01 GMT 41.898239 -75.890373 40,000 249 460 -64
2021-09-22 21:27:58 GMT 41.901031 -75.880821 40,000 249 460 -64
2021-09-22 21:27:55 GMT 41.902863 -75.874451 40,000 249 460 -64
2021-09-22 21:27:51 GMT 41.906044 -75.863533 40,000 249 460 -64
2021-09-22 21:27:47 GMT 41.908978 -75.853439 40,000 249 459 -64
2021-09-22 21:27:44 GMT 41.911724 -75.843864 39,975 249 459 0
2021-09-22 21:27:40 GMT 41.913864 -75.836449 40,000 249 459 -64
2021-09-22 21:27:36 GMT 41.918056 -75.822083 40,000 249 459 -64
2021-09-22 21:27:32 GMT 41.920525 -75.813583 40,000 249 460 0
2021-09-22 21:27:29 GMT 41.922867 -75.805351 40,000 249 459 0
2021-09-22 21:27:27 GMT 41.928204 -75.787079 39,975 249 459 0
2021-09-22 21:27:23 GMT 41.928204 -75.787079 40,000 249 459 0
2021-09-22 21:27:16 GMT 41.933350 -75.769272 40,000 249 459 0
2021-09-22 21:27:12 GMT 41.939621 -75.747482 40,000 249 459 0
2021-09-22 21:27:08 GMT 41.939621 -75.747482 40,000 249 460 0
2021-09-22 21:27:05 GMT 41.941956 -75.739494 40,000 249 460 0
2021-09-22 21:27:01 GMT 41.944885 -75.729385 39,975 249 460 0
2021-09-22 21:26:57 GMT 41.949387 -75.713623 39,975 249 461 0
2021-09-22 21:26:54 GMT 41.949387 -75.713623 39,975 249 460 -64
2021-09-22 21:26:51 GMT 41.952072 -75.704292 40,000 250 461 -64
2021-09-22 21:26:48 GMT 41.953995 -75.697655 40,000 250 461 -64
2021-09-22 21:26:45 GMT 41.956055 -75.690430 40,000 249 461 -64
2021-09-22 21:26:42 GMT 41.961411 -75.671768 39,975 249 461 0
2021-09-22 21:26:39 GMT 41.962967 -75.666466 39,975 249 461 0
2021-09-22 21:26:34 GMT 41.965214 -75.658691 39,975 249 461 -64
2021-09-22 21:26:31 GMT 41.967354 -75.651215 39,975 249 461 -64
2021-09-22 21:26:28 GMT 41.969357 -75.644318 39,975 250 461 -64
2021-09-22 21:26:22 GMT 41.975510 -75.622643 39,975 250 461 -64
2021-09-22 21:26:19 GMT 41.976665 -75.618645 39,975 250 461 -64
2021-09-22 21:26:18 GMT 41.977066 -75.617332 40,000 250 460 -64
2021-09-22 21:26:13 GMT 41.981186 -75.602913 40,000 250 460 -64
2021-09-22 21:26:09 GMT 41.984020 -75.593094 40,000 250 460 -64
2021-09-22 21:26:08 GMT 41.984764 -75.590408 40,000 250 460 -64
2021-09-22 21:26:04 GMT 41.988510 -75.577385 40,000 249 459 0
2021-09-22 21:26:01 GMT 41.990479 -75.570457 40,000 249 459 0
2021-09-22 21:25:57 GMT 41.993362 -75.560341 40,000 249 459 0
2021-09-22 21:25:53 GMT 41.996704 -75.548668 39,975 249 459 0
2021-09-22 21:25:49 GMT 41.999382 -75.539375 39,975 249 459 0
2021-09-22 21:25:46 GMT 42.004086 -75.522896 39,975 249 459 0
2021-09-22 21:25:43 GMT 42.004086 -75.522896 39,975 249 459 0
2021-09-22 21:25:39 GMT 42.007298 -75.511780 40,000 249 459 0
2021-09-22 21:25:36 GMT 42.008743 -75.506721 39,975 249 459 0
2021-09-22 21:25:33 GMT 42.012085 -75.494987 39,975 250 459 0
2021-09-22 21:25:30 GMT 42.014374 -75.487000 39,975 250 460 0
2021-09-22 21:25:26 GMT 42.017258 -75.476883 39,975 250 460 -64
2021-09-22 21:25:22 GMT 42.021194 -75.463028 39,975 250 460 -64
2021-09-22 21:25:18 GMT 42.022842 -75.457161 40,000 250 460 -64
2021-09-22 21:25:15 GMT 42.025909 -75.446487 40,000 250 460 -64
2021-09-22 21:25:11 GMT 42.027920 -75.439285 40,000 250 460 -64
2021-09-22 21:25:08 GMT 42.031132 -75.428108 40,000 250 460 -64
2021-09-22 21:25:05 GMT 42.032272 -75.424072 39,975 250 460 -64
2021-09-22 21:25:01 GMT 42.035934 -75.411278 40,000 252 461 0
2021-09-22 21:24:58 GMT 42.037949 -75.404350 40,000 249 460 -64
2021-09-22 21:24:55 GMT 42.039883 -75.397697 40,000 249 460 -64
2021-09-22 21:24:51 GMT 42.043671 -75.384689 40,000 250 460 -64
2021-09-22 21:24:48 GMT 42.045887 -75.376945 40,000 250 460 0
2021-09-22 21:24:45 GMT 42.047882 -75.369705 40,000 253 461 0
2021-09-22 21:24:41 GMT 42.051590 -75.355659 40,000 252 461 0
2021-09-22 21:24:37 GMT 42.053604 -75.347549 40,000 252 460 0
2021-09-22 21:24:35 GMT 42.054592 -75.343475 40,000 253 461 -64
2021-09-22 21:24:32 GMT 42.056316 -75.336380 40,000 253 461 0
2021-09-22 21:24:28 GMT 42.059830 -75.320770 40,000 255 461 0
2021-09-22 21:24:24 GMT 42.061531 -75.312813 39,975 255 461 0
2021-09-22 21:24:19 GMT 42.064182 -75.299522 40,000 256 462 0
2021-09-22 21:24:16 GMT 42.065918 -75.290306 40,000 256 462 0
2021-09-22 21:24:15 GMT 42.066696 -75.286179 39,975 257 462 0
2021-09-22 21:24:12 GMT 42.067860 -75.279472 39,975 258 462 0
2021-09-22 21:24:09 GMT 42.069256 -75.271042 39,975 259 462 -64
2021-09-22 21:24:06 GMT 42.070560 -75.262604 39,975 259 463 0
2021-09-22 21:24:02 GMT 42.072144 -75.251602 40,000 260 464 0
2021-09-22 21:23:59 GMT 42.073334 -75.243111 39,975 260 464 -64
2021-09-22 21:23:56 GMT 42.075073 -75.230629 40,000 260 464 -64
2021-09-22 21:23:52 GMT 42.076126 -75.223328 40,000 260 464 -64
2021-09-22 21:23:49 GMT 42.077728 -75.211700 39,975 260 464 -64
2021-09-22 21:23:46 GMT 42.078709 -75.204926 39,975 260 464 -64
2021-09-22 21:23:44 GMT 42.079285 -75.200668 40,000 260 463 -64
2021-09-22 21:23:41 GMT 42.080570 -75.191322 40,000 260 463 -64
2021-09-22 21:23:38 GMT 42.081779 -75.182831 40,000 260 463 -64
2021-09-22 21:23:35 GMT 42.083317 -75.171524 40,000 260 463 0
2021-09-22 21:23:32 GMT 42.084457 -75.163338 40,000 260 462 0
2021-09-22 21:23:28 GMT 42.085690 -75.154594 39,975 260 462 0
2021-09-22 21:23:24 GMT 42.087067 -75.144676 40,000 260 462 0
2021-09-22 21:23:21 GMT 42.088436 -75.134796 39,975 260 462 0
2021-09-22 21:23:18 GMT 42.090160 -75.122337 39,975 260 463 0
2021-09-22 21:23:15 GMT 42.090813 -75.117867 39,975 260 463 0
2021-09-22 21:23:14 GMT 42.091183 -75.115059 39,975 260 463 0
2021-09-22 21:23:10 GMT 42.094482 -75.091553 39,975 260 463 0
2021-09-22 21:23:07 GMT 42.094482 -75.091553 40,000 260 462 -64
2021-09-22 21:23:04 GMT 42.095215 -75.086494 39,975 260 462 0
2021-09-22 21:23:01 GMT 42.096588 -75.076324 39,975 260 462 0
2021-09-22 21:22:57 GMT 42.097916 -75.066711 39,975 260 462 -64
2021-09-22 21:22:54 GMT 42.099518 -75.055145 39,975 260 462 0
2021-09-22 21:22:49 GMT 42.101028 -75.044113 39,975 260 462 -64
2021-09-22 21:22:47 GMT 42.101807 -75.038429 39,975 260 462 -64
2021-09-22 21:22:43 GMT 42.103683 -75.024887 39,975 260 462 -64
2021-09-22 21:22:40 GMT 42.104691 -75.017517 39,975 260 463 0
2021-09-22 21:22:37 GMT 42.106918 -75.001427 40,000 260 462 -64
2021-09-22 21:22:31 GMT 42.108082 -74.992928 40,000 260 462 -64
2021-09-22 21:22:28 GMT 42.109039 -74.985870 40,000 260 462 -64
2021-09-22 21:22:25 GMT 42.110367 -74.976257 40,000 260 463 -64
2021-09-22 21:22:21 GMT 42.112316 -74.961823 40,000 260 463 -64
2021-09-22 21:22:17 GMT 42.113754 -74.951355 40,000 260 463 -64
2021-09-22 21:22:14 GMT 42.115715 -74.936913 40,000 260 463 0
2021-09-22 21:22:11 GMT 42.115715 -74.936913 40,000 260 463 0
2021-09-22 21:22:08 GMT 42.116879 -74.928421 40,000 260 463 0
2021-09-22 21:22:05 GMT 42.118462 -74.917114 39,975 260 463 0
2021-09-22 21:22:02 GMT 42.119534 -74.909126 40,000 260 463 0
2021-09-22 21:21:58 GMT 42.120987 -74.898666 39,975 260 463 0
2021-09-22 21:21:54 GMT 42.122559 -74.887032 40,000 260 463 -64
2021-09-22 21:21:51 GMT 42.123585 -74.879684 39,975 260 464 64
2021-09-22 21:21:48 GMT 42.124557 -74.872574 39,975 260 464 64
2021-09-22 21:21:46 GMT 42.125679 -74.864349 40,000 260 463 0
2021-09-22 21:21:43 GMT 42.127632 -74.850174 39,975 260 463 0
2021-09-22 21:21:40 GMT 42.127632 -74.850174 39,975 260 463 0
2021-09-22 21:21:37 GMT 42.129169 -74.838867 40,000 260 463 -64
2021-09-22 21:21:33 GMT 42.131058 -74.824944 40,000 260 463 0
2021-09-22 21:21:32 GMT 42.132523 -74.814209 40,000 260 463 -64
2021-09-22 21:21:28 GMT 42.132523 -74.814209 40,000 260 463 0
2021-09-22 21:21:26 GMT 42.133301 -74.808533 40,000 260 463 0
2021-09-22 21:21:23 GMT 42.135036 -74.795815 40,000 260 463 -64
2021-09-22 21:21:20 GMT 42.135548 -74.791855 39,975 260 463 -64
2021-09-22 21:21:17 GMT 42.136944 -74.781639 39,975 260 464 0
2021-09-22 21:21:13 GMT 42.138668 -74.769180 40,000 260 464 -64
2021-09-22 21:21:10 GMT 42.139736 -74.761192 40,000 260 464 -64
2021-09-22 21:21:05 GMT 42.141785 -74.745934 40,000 260 464 -64
2021-09-22 21:21:02 GMT 42.142578 -74.740250 40,000 260 464 -64
2021-09-22 21:20:59 GMT 42.143509 -74.733124 39,975 260 464 0
2021-09-22 21:20:55 GMT 42.145184 -74.720955 40,000 260 464 -64
2021-09-22 21:20:52 GMT 42.146255 -74.712975 40,000 260 464 -64
2021-09-22 21:20:50 GMT 42.146942 -74.707596 40,000 260 464 -64
2021-09-22 21:20:45 GMT 42.150101 -74.684311 40,000 260 464 0
2021-09-22 21:20:42 GMT 42.150677 -74.680077 40,000 260 464 0
2021-09-22 21:20:37 GMT 42.152119 -74.669281 39,975 260 464 0
2021-09-22 21:20:34 GMT 42.154358 -74.652534 39,975 260 464 0
2021-09-22 21:20:31 GMT 42.154358 -74.652534 39,975 260 464 0
2021-09-22 21:20:30 GMT 42.154495 -74.651352 39,975 260 464 0
2021-09-22 21:20:27 GMT 42.155846 -74.641434 39,975 260 464 -64
2021-09-22 21:20:24 GMT 42.157192 -74.631210 40,000 260 464 -64
2021-09-22 21:20:21 GMT 42.157940 -74.625526 40,000 260 464 -64
2021-09-22 21:20:18 GMT 42.159531 -74.613899 40,000 260 464 -64
2021-09-22 21:20:15 GMT 42.160454 -74.606750 40,000 260 464 -64
2021-09-22 21:20:11 GMT 42.161774 -74.596794 40,000 260 464 -64
2021-09-22 21:20:10 GMT 42.162323 -74.592857 40,000 260 464 -64
2021-09-22 21:20:07 GMT 42.163330 -74.585495 40,000 260 464 -64
2021-09-22 21:20:04 GMT 42.164886 -74.573570 40,000 260 464 0
2021-09-22 21:20:01 GMT 42.165756 -74.567329 40,000 260 463 -64
2021-09-22 21:19:58 GMT 42.166832 -74.559097 40,000 260 463 -64
2021-09-22 21:19:53 GMT 42.169235 -74.541237 39,975 260 463 64
2021-09-22 21:19:49 GMT 42.170277 -74.533546 39,975 260 463 0
2021-09-22 21:19:45 GMT 42.171982 -74.520828 39,975 260 463 64
2021-09-22 21:19:41 GMT 42.174042 -74.505470 39,975 260 463 0
2021-09-22 21:19:36 GMT 42.174931 -74.498993 39,975 260 464 64
2021-09-22 21:19:32 GMT 42.177120 -74.482513 39,975 260 464 -64
2021-09-22 21:19:29 GMT 42.177910 -74.476830 39,975 260 464 -64
2021-09-22 21:19:28 GMT 42.179260 -74.466614 39,975 260 464 0
2021-09-22 21:19:25 GMT 42.179260 -74.466614 39,975 260 464 -64
2021-09-22 21:19:22 GMT 42.180908 -74.454407 40,000 260 463 -64
2021-09-22 21:19:19 GMT 42.181961 -74.446167 40,000 260 463 -64
2021-09-22 21:19:16 GMT 42.182693 -74.440804 39,975 260 463 -64
2021-09-22 21:19:13 GMT 42.184204 -74.429436 40,000 260 463 0
2021-09-22 21:19:09 GMT 42.186493 -74.411896 40,000 260 463 -64
2021-09-22 21:19:06 GMT 42.186493 -74.411896 40,000 260 463 -64
2021-09-22 21:19:03 GMT 42.187546 -74.403969 39,975 260 463 -64
2021-09-22 21:19:00 GMT 42.188965 -74.393173 39,975 260 463 0
2021-09-22 21:18:56 GMT 42.190292 -74.382996 39,975 260 463 -64
2021-09-22 21:18:53 GMT 42.191086 -74.377060 39,975 260 463 -64
2021-09-22 21:18:50 GMT 42.192436 -74.366837 39,975 260 463 -64
2021-09-22 21:18:48 GMT 42.193459 -74.358917 39,975 260 463 -64
2021-09-22 21:18:44 GMT 42.194733 -74.349541 40,000 260 463 0
2021-09-22 21:18:41 GMT 42.196198 -74.338242 40,000 260 463 -64
2021-09-22 21:18:37 GMT 42.197388 -74.329124 40,000 260 464 -64
2021-09-22 21:18:34 GMT 42.198441 -74.321198 40,000 260 464 -64
2021-09-22 21:18:31 GMT 42.200722 -74.303856 40,000 260 464 -64
2021-09-22 21:18:28 GMT 42.202011 -74.293922 40,000 260 464 -64
2021-09-22 21:18:25 GMT 42.202011 -74.293922 40,000 260 464 -64
2021-09-22 21:18:21 GMT 42.203468 -74.282845 40,000 260 465 0
2021-09-22 21:18:17 GMT 42.205032 -74.271133 39,975 261 464 0
2021-09-22 21:18:14 GMT 42.206131 -74.262650 39,975 261 465 0
2021-09-22 21:18:10 GMT 42.207798 -74.249825 39,975 261 465 64
2021-09-22 21:18:07 GMT 42.208401 -74.245224 39,975 261 465 64
2021-09-22 21:18:04 GMT 42.209610 -74.235802 39,975 261 465 0
2021-09-22 21:18:01 GMT 42.210732 -74.226952 39,975 261 465 -64
2021-09-22 21:17:58 GMT 42.211800 -74.218971 39,975 261 465 -64
2021-09-22 21:17:57 GMT 42.212173 -74.216164 40,000 260 466 -64
2021-09-22 21:17:54 GMT 42.215195 -74.193047 40,000 261 465 -64
2021-09-22 21:17:49 GMT 42.215195 -74.193047 40,000 261 465 -64
2021-09-22 21:17:45 GMT 42.216568 -74.182182 40,000 261 464 -64
2021-09-22 21:17:41 GMT 42.218552 -74.167107 39,975 261 463 0
2021-09-22 21:17:35 GMT 42.220924 -74.148834 40,000 261 463 -64
2021-09-22 21:17:30 GMT 42.222198 -74.138924 39,975 261 463 0
2021-09-22 21:17:26 GMT 42.223717 -74.127251 40,000 261 463 0
2021-09-22 21:17:23 GMT 42.225113 -74.116455 39,975 261 462 64
2021-09-22 21:17:20 GMT 42.225815 -74.111084 39,975 261 462 0
2021-09-22 21:17:17 GMT 42.228149 -74.092918 40,000 261 462 -64
2021-09-22 21:17:14 GMT 42.228149 -74.092918 40,000 261 462 -64
2021-09-22 21:17:11 GMT 42.229111 -74.085495 40,000 261 462 -64
2021-09-22 21:17:08 GMT 42.230209 -74.077003 40,000 261 462 -64
2021-09-22 21:17:04 GMT 42.231766 -74.065079 40,000 261 462 -64
2021-09-22 21:17:00 GMT 42.233414 -74.052032 40,000 261 463 0
2021-09-22 21:16:57 GMT 42.234100 -74.046638 40,000 261 463 64
2021-09-22 21:16:54 GMT 42.235748 -74.033867 39,975 261 463 0
2021-09-22 21:16:51 GMT 42.236618 -74.027000 40,000 261 463 0
2021-09-22 21:16:47 GMT 42.239410 -74.005470 39,975 261 463 0
2021-09-22 21:16:43 GMT 42.239410 -74.005470 39,975 261 463 0
2021-09-22 21:16:39 GMT 42.241177 -73.992088 40,000 261 463 -64
2021-09-22 21:16:36 GMT 42.242386 -73.982681 40,000 261 463 0
2021-09-22 21:16:32 GMT 42.243301 -73.975250 39,975 261 464 0
2021-09-22 21:16:29 GMT 42.244858 -73.963333 39,975 261 464 0
2021-09-22 21:16:26 GMT 42.246002 -73.954216 39,975 261 464 0
2021-09-22 21:16:23 GMT 42.247925 -73.939362 39,975 261 465 64
2021-09-22 21:16:20 GMT 42.247925 -73.939362 39,975 261 465 0
2021-09-22 21:16:17 GMT 42.249229 -73.928787 40,000 261 465 -64
2021-09-22 21:16:14 GMT 42.250305 -73.920509 39,975 261 466 -64
2021-09-22 21:16:10 GMT 42.251511 -73.911095 39,975 261 466 0
2021-09-22 21:16:06 GMT 42.253143 -73.898224 39,975 261 466 -64
2021-09-22 21:16:05 GMT 42.253418 -73.895920 39,975 261 466 -64
2021-09-22 21:16:04 GMT 42.254883 -73.884491 39,975 261 464 -64
2021-09-22 21:16:01 GMT 42.254883 -73.884491 40,000 261 464 0
2021-09-22 21:15:58 GMT 42.256165 -73.874496 40,000 261 464 0
2021-09-22 21:15:55 GMT 42.257236 -73.865875 40,000 261 465 -64
2021-09-22 21:15:51 GMT 42.258400 -73.856743 40,000 261 465 -64
2021-09-22 21:15:48 GMT 42.259655 -73.847031 40,000 261 464 0
2021-09-22 21:15:45 GMT 42.260559 -73.839920 40,000 261 465 -64
2021-09-22 21:15:44 GMT 42.260971 -73.836487 40,000 261 465 -64
2021-09-22 21:15:41 GMT 42.263535 -73.816513 40,000 261 465 -64
2021-09-22 21:15:38 GMT 42.263535 -73.816513 40,000 261 464 0
2021-09-22 21:15:35 GMT 42.264267 -73.810837 40,000 261 464 -64
2021-09-22 21:15:32 GMT 42.265381 -73.801933 40,000 261 464 0
2021-09-22 21:15:27 GMT 42.267475 -73.785454 40,000 261 464 0
2021-09-22 21:15:24 GMT 42.268524 -73.777191 40,000 261 464 0
2021-09-22 21:15:21 GMT 42.270630 -73.760643 39,975 261 464 0
2021-09-22 21:15:18 GMT 42.270630 -73.760643 40,000 261 464 0
2021-09-22 21:15:14 GMT 42.271637 -73.752655 39,975 261 464 0
2021-09-22 21:15:13 GMT 42.272038 -73.749496 40,000 261 464 0
2021-09-22 21:15:10 GMT 42.273056 -73.741234 39,975 261 464 -64
2021-09-22 21:15:07 GMT 42.274338 -73.730995 39,975 261 464 -64
2021-09-22 21:15:04 GMT 42.275391 -73.722733 39,975 261 464 -64
2021-09-22 21:15:01 GMT 42.276508 -73.714172 39,975 261 464 -64
2021-09-22 21:14:58 GMT 42.277542 -73.705902 40,000 261 464 0
2021-09-22 21:14:54 GMT 42.280418 -73.682747 39,975 261 465 0
2021-09-22 21:14:51 GMT 42.280418 -73.682747 39,975 261 465 0
2021-09-22 21:14:47 GMT 42.281662 -73.672752 39,975 261 465 0
2021-09-22 21:14:43 GMT 42.282700 -73.664482 39,975 261 466 -64
2021-09-22 21:14:40 GMT 42.283909 -73.654709 39,975 261 466 -64
2021-09-22 21:14:37 GMT 42.284935 -73.646721 39,975 261 467 -128
2021-09-22 21:14:34 GMT 42.286331 -73.635223 39,975 261 467 -128
2021-09-22 21:14:32 GMT 42.286701 -73.632355 40,000 261 467 -128
2021-09-22 21:14:29 GMT 42.287586 -73.625450 40,000 261 467 -64
2021-09-22 21:14:26 GMT 42.290039 -73.605652 40,000 261 467 -64
2021-09-22 21:14:23 GMT 42.290039 -73.605652 40,000 261 467 0
2021-09-22 21:14:20 GMT 42.291229 -73.595917 40,000 261 467 0
2021-09-22 21:14:16 GMT 42.292740 -73.583862 40,000 261 467 0
2021-09-22 21:14:13 GMT 42.293545 -73.577225 40,000 261 467 0
2021-09-22 21:14:12 GMT 42.293976 -73.574066 39,975 261 467 0
2021-09-22 21:14:06 GMT 42.296082 -73.556839 39,975 261 467 0
2021-09-22 21:14:03 GMT 42.297409 -73.546539 40,000 261 467 -64
2021-09-22 21:14:00 GMT 42.298157 -73.540497 40,000 261 467 -64
2021-09-22 21:13:56 GMT 42.299923 -73.526131 39,975 261 467 -64
2021-09-22 21:13:53 GMT 42.301300 -73.514954 39,975 261 467 -64
2021-09-22 21:13:51 GMT 42.301506 -73.513550 40,000 261 467 0
2021-09-22 21:13:47 GMT 42.302719 -73.503464 39,975 261 467 0
2021-09-22 21:13:44 GMT 42.304138 -73.491982 40,000 261 467 0
2021-09-22 21:13:40 GMT 42.305416 -73.481926 40,000 261 467 0
2021-09-22 21:13:37 GMT 42.306625 -73.472153 40,000 261 467 0
2021-09-22 21:13:34 GMT 42.307297 -73.466698 39,975 261 467 0
2021-09-22 21:13:31 GMT 42.308945 -73.453529 39,975 261 467 0
2021-09-22 21:13:25 GMT 42.310959 -73.437149 39,975 261 467 0
2021-09-22 21:13:22 GMT 42.312119 -73.427383 40,000 261 467 -64
2021-09-22 21:13:18 GMT 42.313385 -73.417320 40,000 261 467 0
2021-09-22 21:13:15 GMT 42.314163 -73.411018 40,000 261 467 -64
2021-09-22 21:13:12 GMT 42.315353 -73.401283 40,000 261 468 -64
2021-09-22 21:13:08 GMT 42.316544 -73.391479 40,000 261 468 -64
2021-09-22 21:13:05 GMT 42.317753 -73.381454 40,000 261 468 -64
2021-09-22 21:13:02 GMT 42.319016 -73.371384 39,975 261 468 0
2021-09-22 21:12:58 GMT 42.320080 -73.362419 39,975 261 468 0
2021-09-22 21:12:55 GMT 42.321987 -73.346901 39,975 261 468 64
2021-09-22 21:12:53 GMT 42.321987 -73.346901 39,975 261 468 0
2021-09-22 21:12:49 GMT 42.323639 -73.333366 39,975 261 468 -64
2021-09-22 21:12:46 GMT 42.324455 -73.326714 39,975 261 468 0
2021-09-22 21:12:43 GMT 42.325699 -73.316635 40,000 261 468 -64
2021-09-22 21:12:40 GMT 42.326832 -73.307167 40,000 261 468 -64
2021-09-22 21:12:37 GMT 42.327808 -73.299057 40,000 261 468 -64
2021-09-22 21:12:34 GMT 42.328629 -73.292480 40,000 261 468 -64
2021-09-22 21:12:31 GMT 42.330048 -73.280930 40,000 261 468 -64
2021-09-22 21:12:28 GMT 42.331020 -73.273186 40,000 261 467 0
2021-09-22 21:12:24 GMT 42.332245 -73.263138 40,000 261 467 0
2021-09-22 21:12:21 GMT 42.333481 -73.252777 40,000 261 467 0
2021-09-22 21:12:18 GMT 42.334076 -73.248161 39,975 261 467 64
2021-09-22 21:12:15 GMT 42.335350 -73.237549 39,975 261 468 0
2021-09-22 21:12:12 GMT 42.336372 -73.229500 39,975 261 468 0
2021-09-22 21:12:09 GMT 42.337463 -73.220566 39,975 261 468 64
2021-09-22 21:12:06 GMT 42.338791 -73.209648 39,975 261 468 0
2021-09-22 21:12:03 GMT 42.339493 -73.203568 39,975 261 468 0
2021-09-22 21:12:00 GMT 42.341583 -73.186546 39,975 261 468 0
2021-09-22 21:11:57 GMT 42.341583 -73.186546 39,975 261 468 0
2021-09-22 21:11:54 GMT 42.342472 -73.179359 39,975 261 469 -64
2021-09-22 21:11:51 GMT 42.343727 -73.169006 39,975 261 469 -64
2021-09-22 21:11:48 GMT 42.344925 -73.158897 40,000 261 469 0
2021-09-22 21:11:45 GMT 42.346069 -73.149658 39,975 261 469 0
2021-09-22 21:11:42 GMT 42.347130 -73.140717 40,000 261 469 0
2021-09-22 21:11:39 GMT 42.348339 -73.130943 40,000 261 469 -64
2021-09-22 21:11:35 GMT 42.349548 -73.120819 39,975 261 469 -64
2021-09-22 21:11:32 GMT 42.350388 -73.113632 40,000 261 469 0
2021-09-22 21:11:28 GMT 42.352386 -73.096893 39,975 261 466 -64
2021-09-22 21:11:26 GMT 42.352386 -73.096893 39,975 261 468 -64
2021-09-22 21:11:23 GMT 42.353786 -73.085335 40,000 261 468 -64
2021-09-22 21:11:18 GMT 42.355507 -73.070961 40,000 261 467 -64
2021-09-22 21:11:14 GMT 42.356827 -73.059708 40,000 261 466 -64
2021-09-22 21:11:11 GMT 42.357975 -73.050201 40,000 261 467 -64
2021-09-22 21:11:08 GMT 42.359573 -73.036674 40,000 261 467 -64
2021-09-22 21:11:05 GMT 42.359573 -73.036674 39,975 261 467 0
2021-09-22 21:11:02 GMT 42.360443 -73.029182 39,975 261 467 0
2021-09-22 21:10:59 GMT 42.361908 -73.017075 39,975 261 466 0
2021-09-22 21:10:56 GMT 42.364075 -72.998978 39,975 261 466 -64
2021-09-22 21:10:53 GMT 42.364075 -72.998978 40,000 261 466 -64
2021-09-22 21:10:49 GMT 42.365284 -72.988632 40,000 261 466 -64
2021-09-22 21:10:47 GMT 42.365982 -72.982613 40,000 261 466 -64
2021-09-22 21:10:43 GMT 42.367447 -72.970505 40,000 261 466 0
2021-09-22 21:10:40 GMT 42.368355 -72.962761 39,975 262 466 -64
2021-09-22 21:10:37 GMT 42.369186 -72.955589 39,975 262 466 -64
2021-09-22 21:10:34 GMT 42.370285 -72.946411 40,000 261 465 0
2021-09-22 21:10:31 GMT 42.371429 -72.936607 39,975 261 465 0
2021-09-22 21:10:28 GMT 42.372498 -72.927757 40,000 261 465 -64
2021-09-22 21:10:25 GMT 42.373337 -72.920860 40,000 261 465 -64
2021-09-22 21:10:22 GMT 42.374588 -72.910202 40,000 261 465 0
2021-09-22 21:10:18 GMT 42.375755 -72.900162 40,000 261 466 -64
2021-09-22 21:10:16 GMT 42.376602 -72.892975 40,000 262 466 0
2021-09-22 21:10:13 GMT 42.377621 -72.884705 40,000 262 466 -64
2021-09-22 21:10:08 GMT 42.379154 -72.871483 40,000 262 466 64
2021-09-22 21:10:06 GMT 42.380039 -72.864014 39,975 262 466 64
2021-09-22 21:10:03 GMT 42.381203 -72.854240 39,975 262 466 0
2021-09-22 21:10:00 GMT 42.381668 -72.850212 40,000 262 466 -64
2021-09-22 21:09:57 GMT 42.383743 -72.832680 39,975 262 466 -64
2021-09-22 21:09:54 GMT 42.383743 -72.832680 39,975 262 466 -64
2021-09-22 21:09:51 GMT 42.386169 -72.811951 39,975 262 466 -64
2021-09-22 21:09:47 GMT 42.386169 -72.811951 39,975 262 466 -64
2021-09-22 21:09:44 GMT 42.387024 -72.804733 39,975 262 466 -64
2021-09-22 21:09:40 GMT 42.388824 -72.789482 40,000 262 466 0
2021-09-22 21:09:37 GMT 42.389557 -72.783173 40,000 262 466 0
2021-09-22 21:09:36 GMT 42.390095 -72.778870 40,000 262 466 0
2021-09-22 21:09:33 GMT 42.391071 -72.770241 40,000 262 466 -64
2021-09-22 21:09:30 GMT 42.391663 -72.765320 40,000 262 466 -64
2021-09-22 21:09:27 GMT 42.393028 -72.753571 39,975 262 466 0
2021-09-22 21:09:24 GMT 42.394844 -72.737984 40,000 262 466 -64
2021-09-22 21:09:21 GMT 42.394844 -72.737984 40,000 262 466 -64
2021-09-22 21:09:17 GMT 42.396381 -72.724770 40,000 262 466 -64
2021-09-22 21:09:15 GMT 42.397079 -72.719017 40,000 262 466 -64
2021-09-22 21:09:12 GMT 42.398148 -72.709816 40,000 262 466 -64
2021-09-22 21:09:09 GMT 42.399124 -72.701462 40,000 262 466 -64
2021-09-22 21:09:06 GMT 42.399731 -72.696022 40,000 262 465 0
2021-09-22 21:09:04 GMT 42.400772 -72.687103 39,975 262 465 -64
2021-09-22 21:09:01 GMT 42.401825 -72.677933 40,000 262 465 0
2021-09-22 21:08:56 GMT 42.403316 -72.665047 40,000 262 465 0
2021-09-22 21:08:53 GMT 42.404755 -72.652710 40,000 262 465 0
2021-09-22 21:08:50 GMT 42.405304 -72.648094 39,975 261 465 -64
2021-09-22 21:08:46 GMT 42.406620 -72.636940 40,000 261 465 0
2021-09-22 21:08:43 GMT 42.407600 -72.628319 39,975 262 465 -64
2021-09-22 21:08:39 GMT 42.408920 -72.617134 39,975 262 465 0
2021-09-22 21:08:36 GMT 42.410202 -72.606209 39,975 262 465 0
2021-09-22 21:08:33 GMT 42.412209 -72.588715 39,975 262 465 0
2021-09-22 21:08:30 GMT 42.412209 -72.588715 39,975 262 465 0
2021-09-22 21:08:27 GMT 42.412720 -72.584114 39,975 262 465 0
2021-09-22 21:08:23 GMT 42.414688 -72.567192 39,975 262 465 -64
2021-09-22 21:08:20 GMT 42.415512 -72.560036 39,975 262 465 0
2021-09-22 21:08:17 GMT 42.415970 -72.555710 39,975 262 465 0
2021-09-22 21:08:14 GMT 42.416885 -72.547653 39,975 262 465 0
2021-09-22 21:08:12 GMT 42.417839 -72.539337 39,975 262 465 -64
2021-09-22 21:08:09 GMT 42.419144 -72.527840 39,975 262 465 -64
2021-09-22 21:08:06 GMT 42.420120 -72.519279 40,000 262 465 -64
2021-09-22 21:08:03 GMT 42.421051 -72.510956 40,000 262 465 -64
2021-09-22 21:07:59 GMT 42.422077 -72.502037 40,000 262 465 0
2021-09-22 21:07:56 GMT 42.423241 -72.491692 40,000 262 464 0
2021-09-22 21:07:53 GMT 42.424404 -72.481407 40,000 262 464 -64
2021-09-22 21:07:50 GMT 42.426086 -72.466759 39,975 262 464 0
2021-09-22 21:07:47 GMT 42.426086 -72.466759 39,975 262 464 0
2021-09-22 21:07:44 GMT 42.427940 -72.450493 39,975 262 464 0
2021-09-22 21:07:41 GMT 42.427940 -72.450493 40,000 262 464 -64
2021-09-22 21:07:38 GMT 42.429245 -72.438995 39,975 262 464 -64
2021-09-22 21:07:35 GMT 42.430023 -72.432426 40,000 262 464 0
2021-09-22 21:07:33 GMT 42.431992 -72.415550 40,000 262 464 -64
2021-09-22 21:07:29 GMT 42.431992 -72.415550 40,000 262 464 -64
2021-09-22 21:07:25 GMT 42.433502 -72.402084 40,000 262 464 -64
2021-09-22 21:07:21 GMT 42.434784 -72.390900 39,975 262 463 0
2021-09-22 21:07:17 GMT 42.436089 -72.379463 40,000 262 463 0
2021-09-22 21:07:14 GMT 42.436974 -72.372055 40,000 262 463 -64
2021-09-22 21:07:12 GMT 42.437439 -72.367752 40,000 262 464 64
2021-09-22 21:07:09 GMT 42.438446 -72.359138 40,000 262 464 64
2021-09-22 21:07:06 GMT 42.439442 -72.350273 39,975 262 464 64
2021-09-22 21:07:03 GMT 42.440651 -72.339417 39,975 262 464 0
2021-09-22 21:07:02 GMT 42.440792 -72.338264 39,975 262 464 0
2021-09-22 21:06:59 GMT 42.441582 -72.331429 39,975 262 464 0
2021-09-22 21:06:56 GMT 42.442699 -72.321655 39,975 262 464 0
2021-09-22 21:06:53 GMT 42.445072 -72.300453 40,000 262 464 -64
2021-09-22 21:06:50 GMT 42.445072 -72.300453 40,000 262 464 -64
2021-09-22 21:06:46 GMT 42.446144 -72.291321 39,975 262 464 0
2021-09-22 21:06:42 GMT 42.447540 -72.278732 39,975 262 464 0
2021-09-22 21:06:39 GMT 42.448334 -72.271835 40,000 262 464 0
2021-09-22 21:06:36 GMT 42.449497 -72.261551 40,000 262 464 0
2021-09-22 21:06:33 GMT 42.450100 -72.255806 40,000 262 464 0
2021-09-22 21:06:30 GMT 42.450893 -72.248901 40,000 262 464 0
2021-09-22 21:06:27 GMT 42.451996 -72.238914 39,975 262 464 0
2021-09-22 21:06:24 GMT 42.452801 -72.231720 39,975 262 464 0
2021-09-22 21:06:21 GMT 42.454151 -72.219711 39,975 262 464 -64
2021-09-22 21:06:18 GMT 42.454990 -72.212303 39,975 262 464 -64
2021-09-22 21:06:15 GMT 42.456207 -72.201088 39,975 262 464 -64
2021-09-22 21:06:12 GMT 42.456757 -72.195908 40,000 262 464 -64
2021-09-22 21:06:09 GMT 42.457970 -72.185349 39,975 262 464 -64
2021-09-22 21:06:06 GMT 42.458633 -72.179298 40,000 262 464 -64
2021-09-22 21:06:03 GMT 42.459736 -72.169319 40,000 262 464 -64
2021-09-22 21:06:01 GMT 42.460464 -72.162697 40,000 262 464 -64
2021-09-22 21:05:58 GMT 42.461273 -72.155518 40,000 262 463 -64
2021-09-22 21:05:55 GMT 42.463806 -72.132919 40,000 262 463 -64
2021-09-22 21:05:51 GMT 42.463806 -72.132919 40,000 262 463 -64
2021-09-22 21:05:48 GMT 42.464767 -72.124367 40,000 262 463 0
2021-09-22 21:05:44 GMT 42.466534 -72.108635 40,000 262 464 0
2021-09-22 21:05:41 GMT 42.466534 -72.108635 40,000 262 464 64
2021-09-22 21:05:38 GMT 42.467834 -72.096840 39,975 262 464 0
2021-09-22 21:05:35 GMT 42.468815 -72.088005 39,975 262 464 -64
2021-09-22 21:05:32 GMT 42.470490 -72.072807 39,975 262 464 -64
2021-09-22 21:05:30 GMT 42.470490 -72.072807 39,975 262 464 -64
2021-09-22 21:05:27 GMT 42.471096 -72.067375 40,000 262 464 -64
2021-09-22 21:05:25 GMT 42.472000 -72.059074 40,000 262 464 -64
2021-09-22 21:05:22 GMT 42.472961 -72.050461 40,000 262 464 -64
2021-09-22 21:05:19 GMT 42.474030 -72.040993 40,000 262 464 -64
2021-09-22 21:05:16 GMT 42.474819 -72.033585 40,000 262 464 0
2021-09-22 21:05:12 GMT 42.475937 -72.023560 40,000 262 464 0
2021-09-22 21:05:08 GMT 42.477173 -72.012634 40,000 262 464 -64
2021-09-22 21:05:05 GMT 42.478081 -72.004333 39,975 262 464 0
2021-09-22 21:05:02 GMT 42.479195 -71.994049 40,000 262 464 -64
2021-09-22 21:04:59 GMT 42.481056 -71.977379 39,975 262 464 0
2021-09-22 21:04:56 GMT 42.481056 -71.977379 40,000 262 464 -64
2021-09-22 21:04:53 GMT 42.482178 -71.967094 40,000 262 464 -64
2021-09-22 21:04:50 GMT 42.482986 -71.959885 40,000 262 465 0
2021-09-22 21:04:47 GMT 42.483852 -71.952148 39,975 262 464 -64
2021-09-22 21:04:44 GMT 42.484589 -71.944969 40,000 262 464 0
2021-09-22 21:04:41 GMT 42.486008 -71.932297 39,975 262 465 64
2021-09-22 21:04:36 GMT 42.487762 -71.915932 39,975 262 465 -64
2021-09-22 21:04:33 GMT 42.488461 -71.909607 39,975 262 465 0
2021-09-22 21:04:30 GMT 42.489258 -71.902397 39,975 262 465 0
2021-09-22 21:04:26 GMT 42.490494 -71.890846 39,975 262 465 -64
2021-09-22 21:04:24 GMT 42.491135 -71.885101 39,975 262 465 -64
2021-09-22 21:04:20 GMT 42.492603 -71.871597 39,975 262 465 -64
2021-09-22 21:04:17 GMT 42.493488 -71.863487 40,000 262 465 -64
2021-09-22 21:04:14 GMT 42.494385 -71.855141 40,000 262 465 -64
2021-09-22 21:04:11 GMT 42.495300 -71.846527 40,000 262 465 -64
2021-09-22 21:04:08 GMT 42.496262 -71.837852 40,000 262 465 0
2021-09-22 21:04:05 GMT 42.496841 -71.832382 40,000 262 465 -64
2021-09-22 21:04:02 GMT 42.498001 -71.821747 40,000 262 466 -64
2021-09-22 21:03:59 GMT 42.499008 -71.812508 40,000 262 466 0
2021-09-22 21:03:56 GMT 42.499725 -71.805878 40,000 262 466 -64
2021-09-22 21:03:53 GMT 42.500565 -71.798088 40,000 262 466 0
2021-09-22 21:03:50 GMT 42.501682 -71.787987 40,000 262 466 -64
2021-09-22 21:03:47 GMT 42.502716 -71.778427 40,000 262 466 0
2021-09-22 21:03:44 GMT 42.503769 -71.768623 39,975 262 467 -64
2021-09-22 21:03:41 GMT 42.504616 -71.760841 39,975 262 467 -64
2021-09-22 21:03:38 GMT 42.505508 -71.752457 39,975 262 467 0
2021-09-22 21:03:35 GMT 42.506378 -71.744347 40,000 262 467 0
2021-09-22 21:03:32 GMT 42.507454 -71.734207 39,975 262 467 0
2021-09-22 21:03:29 GMT 42.508526 -71.724373 40,000 262 467 0
2021-09-22 21:03:26 GMT 42.509491 -71.715439 40,000 262 468 0
2021-09-22 21:03:23 GMT 42.510387 -71.707001 39,975 262 468 0
2021-09-22 21:03:20 GMT 42.510956 -71.701523 39,975 262 468 64
2021-09-22 21:03:18 GMT 42.511917 -71.692780 39,975 262 468 0
2021-09-22 21:03:15 GMT 42.512573 -71.686752 39,975 262 468 -64
2021-09-22 21:03:12 GMT 42.513794 -71.675430 39,975 262 468 -64
2021-09-22 21:03:09 GMT 42.514389 -71.669624 39,975 262 468 -64
2021-09-22 21:03:06 GMT 42.515598 -71.658325 39,975 262 468 -64
2021-09-22 21:03:02 GMT 42.516586 -71.649338 39,975 262 468 -64
2021-09-22 21:02:59 GMT 42.517776 -71.638290 40,000 262 467 -64
2021-09-22 21:02:56 GMT 42.518555 -71.630798 40,000 262 467 -64
2021-09-22 21:02:53 GMT 42.520721 -71.610802 40,000 262 467 -64
2021-09-22 21:02:50 GMT 42.520721 -71.610802 40,000 262 467 -64
2021-09-22 21:02:47 GMT 42.521484 -71.603584 40,000 262 467 -64
2021-09-22 21:02:43 GMT 42.522491 -71.594070 40,000 262 467 -64
2021-09-22 21:02:41 GMT 42.523315 -71.586227 40,000 262 467 0
2021-09-22 21:02:38 GMT 42.524120 -71.578995 40,000 262 467 0
2021-09-22 21:02:35 GMT 42.525101 -71.569435 39,975 262 467 0
2021-09-22 21:02:32 GMT 42.526108 -71.560196 40,000 262 467 0
2021-09-22 21:02:29 GMT 42.526840 -71.553207 39,975 262 467 0
2021-09-22 21:02:26 GMT 42.528030 -71.542221 39,975 262 468 -64
2021-09-22 21:02:23 GMT 42.528961 -71.533257 40,000 262 468 0
2021-09-22 21:02:20 GMT 42.530548 -71.518501 39,975 262 468 0
2021-09-22 21:02:17 GMT 42.530548 -71.518501 39,975 262 468 64
2021-09-22 21:02:14 GMT 42.531429 -71.510071 39,975 262 468 0
2021-09-22 21:02:11 GMT 42.533615 -71.489471 40,000 262 468 0
2021-09-22 21:02:08 GMT 42.533615 -71.489471 39,975 262 468 0
2021-09-22 21:02:05 GMT 42.534176 -71.484016 39,975 262 468 0
2021-09-22 21:02:02 GMT 42.535107 -71.475266 39,975 262 468 -64
2021-09-22 21:01:59 GMT 42.536041 -71.466316 39,975 262 468 -64
2021-09-22 21:01:57 GMT 42.536690 -71.460190 39,975 262 468 0
2021-09-22 21:01:54 GMT 42.537899 -71.448624 39,975 262 468 0
2021-09-22 21:01:51 GMT 42.538738 -71.440514 39,975 263 467 -64
2021-09-22 21:01:47 GMT 42.539902 -71.429527 39,975 263 467 -64
2021-09-22 21:01:44 GMT 42.540550 -71.423141 40,000 262 467 -64
2021-09-22 21:01:40 GMT 42.541809 -71.411255 40,000 263 467 -64
2021-09-22 21:01:37 GMT 42.543091 -71.399086 40,000 263 467 -64
2021-09-22 21:01:34 GMT 42.543686 -71.393341 39,975 263 467 -64
2021-09-22 21:01:31 GMT 42.544884 -71.382072 39,975 263 467 -64
2021-09-22 21:01:28 GMT 42.545792 -71.373055 40,000 263 467 -64
2021-09-22 21:01:25 GMT 42.546387 -71.367310 40,000 263 467 -64
2021-09-22 21:01:22 GMT 42.547073 -71.360947 40,000 263 467 -64
2021-09-22 21:01:19 GMT 42.548126 -71.350517 40,000 263 467 0
2021-09-22 21:01:15 GMT 42.549538 -71.336914 40,000 263 467 -64
2021-09-22 21:01:12 GMT 42.550423 -71.328224 40,000 263 467 -64
2021-09-22 21:01:08 GMT 42.551376 -71.319244 39,975 263 468 0
2021-09-22 21:01:05 GMT 42.552284 -71.310272 40,000 263 468 64
2021-09-22 21:01:02 GMT 42.553162 -71.301895 40,000 263 468 64
2021-09-22 21:00:59 GMT 42.555634 -71.277763 40,000 263 469 -64
2021-09-22 21:00:55 GMT 42.555634 -71.277763 39,975 263 469 -64
2021-09-22 21:00:52 GMT 42.557079 -71.263840 39,975 263 469 0
2021-09-22 21:00:49 GMT 42.557079 -71.263840 39,975 263 469 -64
2021-09-22 21:00:46 GMT 42.558197 -71.253082 40,000 263 470 -64
2021-09-22 21:00:43 GMT 42.559265 -71.242889 40,000 263 470 -64
2021-09-22 21:00:40 GMT 42.559753 -71.237907 40,000 263 470 64
2021-09-22 21:00:37 GMT 42.560623 -71.229736 39,975 263 470 64
2021-09-22 21:00:34 GMT 42.561920 -71.217209 39,975 263 471 64
2021-09-22 21:00:31 GMT 42.562592 -71.210510 39,975 263 471 0
2021-09-22 21:00:28 GMT 42.563553 -71.201141 39,975 263 471 0
2021-09-22 21:00:25 GMT 42.564434 -71.192680 39,975 263 471 0
2021-09-22 21:00:22 GMT 42.565224 -71.185081 39,975 263 471 0
2021-09-22 21:00:19 GMT 42.566387 -71.173965 39,975 263 471 64
2021-09-22 21:00:16 GMT 42.567352 -71.164375 40,000 263 471 -64
2021-09-22 21:00:13 GMT 42.568176 -71.156136 40,000 263 471 -64
2021-09-22 21:00:10 GMT 42.569042 -71.147713 40,000 263 471 -64
2021-09-22 21:00:07 GMT 42.569740 -71.140694 39,975 263 470 -64
2021-09-22 21:00:03 GMT 42.570923 -71.129295 39,975 263 470 -64
2021-09-22 21:00:00 GMT 42.571747 -71.121178 39,975 263 470 0
2021-09-22 20:59:57 GMT 42.572845 -71.110695 40,000 263 470 -64
2021-09-22 20:59:54 GMT 42.573605 -71.102814 39,975 263 470 -64
2021-09-22 20:59:51 GMT 42.574444 -71.094635 39,975 263 470 -64
2021-09-22 20:59:48 GMT 42.576397 -71.075409 39,975 263 470 -64
2021-09-22 20:59:45 GMT 42.576397 -71.075409 39,975 263 470 -64
2021-09-22 20:59:42 GMT 42.578072 -71.059059 40,000 263 470 -64
2021-09-22 20:59:39 GMT 42.578072 -71.059059 39,975 263 469 0
2021-09-22 20:59:35 GMT 42.580124 -71.038681 40,000 263 469 -64
2021-09-22 20:59:32 GMT 42.580124 -71.038681 40,000 263 469 0
2021-09-22 20:59:29 GMT 42.581177 -71.028549 40,000 263 469 0
2021-09-22 20:59:26 GMT 42.582542 -71.014862 40,000 263 470 0
2021-09-22 20:59:23 GMT 42.582542 -71.014862 39,975 263 469 -64
2021-09-22 20:59:20 GMT 42.583797 -71.002663 40,000 263 469 -64
2021-09-22 20:59:17 GMT 42.584728 -70.993332 39,975 263 469 0
2021-09-22 20:59:14 GMT 42.585522 -70.985222 40,000 263 469 0
2021-09-22 20:59:11 GMT 42.586395 -70.976738 39,975 263 469 64
2021-09-22 20:59:08 GMT 42.587196 -70.968933 39,975 263 470 64
2021-09-22 20:59:05 GMT 42.588081 -70.960182 40,000 263 470 0
2021-09-22 20:59:01 GMT 42.589371 -70.947647 39,975 263 470 64
2021-09-22 20:58:58 GMT 42.590221 -70.939171 39,975 263 471 0
2021-09-22 20:58:55 GMT 42.591900 -70.922241 39,975 263 471 0
2021-09-22 20:58:52 GMT 42.591900 -70.922241 39,975 263 471 -64
2021-09-22 20:58:49 GMT 42.593063 -70.910553 40,000 263 471 -64
2021-09-22 20:58:46 GMT 42.593807 -70.902954 39,975 263 471 0
2021-09-22 20:58:43 GMT 42.594460 -70.896500 39,975 263 471 -64
2021-09-22 20:58:40 GMT 42.595322 -70.888031 39,975 263 471 -64
2021-09-22 20:58:37 GMT 42.596134 -70.879570 39,975 263 471 0
2021-09-22 20:58:34 GMT 42.597153 -70.869370 39,975 263 470 -64
2021-09-22 20:58:31 GMT 42.598370 -70.857407 40,000 263 470 -64
2021-09-22 20:58:28 GMT 42.599068 -70.850380 40,000 263 470 -64
2021-09-22 20:58:24 GMT 42.600082 -70.840157 39,975 263 470 0
2021-09-22 20:58:21 GMT 42.600979 -70.831154 40,000 263 469 -64
2021-09-22 20:58:18 GMT 42.601913 -70.821556 40,000 263 469 -64
2021-09-22 20:58:14 GMT 42.603119 -70.809631 39,975 263 469 -64
2021-09-22 20:58:10 GMT 42.604019 -70.800583 40,000 263 468 -64
2021-09-22 20:58:07 GMT 42.605911 -70.782295 40,000 263 468 -64
2021-09-22 20:58:04 GMT 42.605911 -70.782295 40,000 263 468 -64
2021-09-22 20:58:01 GMT 42.606903 -70.772179 40,000 263 468 -64
2021-09-22 20:57:58 GMT 42.607773 -70.763771 39,975 263 467 -64
2021-09-22 20:57:55 GMT 42.608566 -70.755661 40,000 263 467 0
2021-09-22 20:57:53 GMT 42.609169 -70.749847 40,000 263 467 -64
2021-09-22 20:57:49 GMT 42.610332 -70.738220 40,000 263 467 -64
2021-09-22 20:57:46 GMT 42.611126 -70.730110 39,975 263 467 0
2021-09-22 20:57:42 GMT 42.612534 -70.715309 40,000 263 468 -64
2021-09-22 20:57:39 GMT 42.613129 -70.709503 39,975 263 468 0
2021-09-22 20:57:36 GMT 42.613918 -70.701111 40,000 263 468 0
2021-09-22 20:57:33 GMT 42.614639 -70.693840 39,975 263 468 0
2021-09-22 20:57:30 GMT 42.615784 -70.682228 40,000 263 468 -64
2021-09-22 20:57:27 GMT 42.616619 -70.673836 40,000 263 468 -64
2021-09-22 20:57:24 GMT 42.618248 -70.657547 40,000 263 468 -64
2021-09-22 20:57:21 GMT 42.619087 -70.648857 40,000 263 468 0
2021-09-22 20:57:18 GMT 42.620041 -70.639282 40,000 263 468 -64
2021-09-22 20:57:15 GMT 42.620041 -70.639282 40,000 263 468 -64
2021-09-22 20:57:11 GMT 42.621140 -70.628235 40,000 263 469 -64
2021-09-22 20:57:07 GMT 42.622284 -70.616623 40,000 263 469 0
2021-09-22 20:57:04 GMT 42.622971 -70.609627 40,000 263 468 0
2021-09-22 20:57:00 GMT 42.624481 -70.593903 39,975 263 469 64
2021-09-22 20:56:57 GMT 42.625324 -70.585434 40,000 263 469 64
2021-09-22 20:56:54 GMT 42.626175 -70.576424 39,975 263 469 0
2021-09-22 20:56:50 GMT 42.626999 -70.568245 39,975 263 470 0
2021-09-22 20:56:47 GMT 42.627914 -70.558884 39,975 263 470 0
2021-09-22 20:56:44 GMT 42.628738 -70.550140 39,975 263 470 -64
2021-09-22 20:56:41 GMT 42.629791 -70.539658 39,975 263 470 -64
2021-09-22 20:56:38 GMT 42.630539 -70.531715 40,000 263 470 -64
2021-09-22 20:56:35 GMT 42.631439 -70.522675 40,000 263 470 -64
2021-09-22 20:56:32 GMT 42.632259 -70.514214 40,000 263 470 -64
2021-09-22 20:56:29 GMT 42.632820 -70.508400 40,000 263 469 -64
2021-09-22 20:56:26 GMT 42.633701 -70.499649 40,000 263 469 -64
2021-09-22 20:56:23 GMT 42.634735 -70.488846 40,000 263 469 0
2021-09-22 20:56:20 GMT 42.635788 -70.477730 40,000 263 469 -64
2021-09-22 20:56:16 GMT 42.636822 -70.467522 40,000 263 469 0
2021-09-22 20:56:13 GMT 42.637527 -70.460251 40,000 263 469 0
2021-09-22 20:56:10 GMT 42.639359 -70.440964 40,000 263 469 0
2021-09-22 20:56:07 GMT 42.640366 -70.430481 40,000 263 469 0
2021-09-22 20:56:04 GMT 42.640366 -70.430481 40,000 263 469 0
2021-09-22 20:56:01 GMT 42.640915 -70.424675 40,000 263 469 0
2021-09-22 20:55:58 GMT 42.641758 -70.416168 39,975 263 470 0
2021-09-22 20:55:55 GMT 42.642654 -70.406509 39,975 263 470 -64
2021-09-22 20:55:52 GMT 42.643341 -70.399239 39,975 263 470 0
2021-09-22 20:55:49 GMT 42.644485 -70.387222 40,000 263 470 -64
2021-09-22 20:55:45 GMT 42.645435 -70.377014 40,000 263 471 -64
2021-09-22 20:55:41 GMT 42.647343 -70.357086 39,975 263 471 -64
2021-09-22 20:55:38 GMT 42.647343 -70.357086 39,975 263 471 -64
2021-09-22 20:55:35 GMT 42.648422 -70.345650 40,000 263 471 -64
2021-09-22 20:55:32 GMT 42.649113 -70.338943 40,000 263 471 -64
2021-09-22 20:55:28 GMT 42.651020 -70.319016 40,000 263 471 0
2021-09-22 20:55:25 GMT 42.651020 -70.319016 40,000 263 471 -64
2021-09-22 20:55:21 GMT 42.651993 -70.308754 40,000 263 471 -64
2021-09-22 20:55:17 GMT 42.653046 -70.297585 39,975 263 471 0
2021-09-22 20:55:13 GMT 42.654236 -70.284660 40,000 263 472 64
2021-09-22 20:55:10 GMT 42.654930 -70.277367 40,000 263 472 64
2021-09-22 20:55:07 GMT 42.656048 -70.265617 39,975 263 473 64
2021-09-22 20:55:04 GMT 42.657074 -70.254700 40,000 263 473 0
2021-09-22 20:54:59 GMT 42.658192 -70.243263 39,975 263 474 -64
2021-09-22 20:54:56 GMT 42.659027 -70.234444 39,975 263 473 -64
2021-09-22 20:54:53 GMT 42.660919 -70.214058 40,000 263 474 -64
2021-09-22 20:54:50 GMT 42.660919 -70.214058 40,000 263 474 -64
2021-09-22 20:54:47 GMT 42.662426 -70.198486 39,975 263 474 -64
2021-09-22 20:54:44 GMT 42.662426 -70.198486 40,000 263 474 0
2021-09-22 20:54:40 GMT 42.663437 -70.187531 40,000 263 474 -64
2021-09-22 20:54:37 GMT 42.665127 -70.169548 40,000 263 474 -64
2021-09-22 20:54:34 GMT 42.665127 -70.169548 40,000 263 474 0
2021-09-22 20:54:30 GMT 42.666275 -70.157440 40,000 263 474 -64
2021-09-22 20:54:26 GMT 42.667454 -70.144768 40,000 263 474 -64
2021-09-22 20:54:21 GMT 42.668896 -70.129440 40,000 263 474 0
2021-09-22 20:54:18 GMT 42.669456 -70.123497 40,000 263 474 -64
2021-09-22 20:54:13 GMT 42.670853 -70.108742 39,975 263 475 -64
2021-09-22 20:54:09 GMT 42.672409 -70.091904 40,000 263 475 -64
2021-09-22 20:54:04 GMT 42.673508 -70.080101 40,000 263 475 -64
2021-09-22 20:54:01 GMT 42.674057 -70.074173 39,975 263 475 0
2021-09-22 20:53:58 GMT 42.675110 -70.062935 40,000 263 475 0
2021-09-22 20:53:55 GMT 42.676163 -70.051140 40,000 263 475 0
2021-09-22 20:53:52 GMT 42.676941 -70.042839 40,000 263 475 0
2021-09-22 20:53:47 GMT 42.678020 -70.031326 40,000 263 475 0
2021-09-22 20:53:43 GMT 42.679276 -70.017433 40,000 263 475 0
2021-09-22 20:53:40 GMT 42.679871 -70.010872 39,975 263 475 0
2021-09-22 20:53:37 GMT 42.680676 -70.002327 40,000 263 476 0
2021-09-22 20:53:32 GMT 42.682213 -69.985718 40,000 263 476 0
2021-09-22 20:53:28 GMT 42.683487 -69.971802 40,000 263 476 -64
2021-09-22 20:53:24 GMT 42.684540 -69.960564 39,975 263 476 -64
2021-09-22 20:53:21 GMT 42.685284 -69.952507 39,975 263 476 -64
2021-09-22 20:53:16 GMT 42.686401 -69.940117 40,000 263 476 -64
2021-09-22 20:53:12 GMT 42.687881 -69.924355 39,975 263 476 -64
2021-09-22 20:53:09 GMT 42.688248 -69.920235 40,000 263 476 0
2021-09-22 20:53:06 GMT 42.689381 -69.908112 40,000 263 476 0
2021-09-22 20:53:03 GMT 42.690125 -69.899811 40,000 263 476 -64
2021-09-22 20:53:00 GMT 42.690914 -69.891502 40,000 263 476 -64
2021-09-22 20:52:56 GMT 42.692081 -69.878479 40,000 263 475 -64
2021-09-22 20:52:53 GMT 42.692963 -69.869026 40,000 263 475 -64
2021-09-22 20:52:50 GMT 42.693661 -69.861298 40,000 263 475 0
2021-09-22 20:52:47 GMT 42.694733 -69.849480 39,975 263 475 0
2021-09-22 20:52:44 GMT 42.695251 -69.843834 40,000 263 475 -64
2021-09-22 20:52:41 GMT 42.696224 -69.833511 39,975 263 475 0
2021-09-22 20:52:38 GMT 42.696922 -69.825783 39,975 263 475 0
2021-09-22 20:52:36 GMT 42.697758 -69.816330 39,975 263 475 0
2021-09-22 20:52:32 GMT 42.698364 -69.809814 39,975 263 475 -64
2021-09-22 20:52:29 GMT 42.699326 -69.798889 40,000 264 476 -64
2021-09-22 20:52:26 GMT 42.699993 -69.791481 40,000 264 476 0
2021-09-22 20:52:22 GMT 42.701294 -69.776917 39,975 264 476 0
2021-09-22 20:52:19 GMT 42.701752 -69.772232 39,975 264 476 -64
2021-09-22 20:52:15 GMT 42.702831 -69.760056 39,975 264 476 -64
2021-09-22 20:52:11 GMT 42.703995 -69.747330 39,975 264 476 0
2021-09-22 20:52:08 GMT 42.704727 -69.739029 39,975 264 476 0
2021-09-22 20:52:05 GMT 42.705872 -69.725983 39,975 264 476 -64
2021-09-22 20:52:01 GMT 42.706696 -69.716812 39,975 264 476 -64
2021-09-22 20:51:58 GMT 42.707382 -69.709373 39,975 264 476 -64
2021-09-22 20:51:55 GMT 42.708324 -69.698990 40,000 264 476 -64
2021-09-22 20:51:52 GMT 42.709442 -69.686279 40,000 264 476 -64
2021-09-22 20:51:48 GMT 42.710979 -69.668777 40,000 264 476 0
2021-09-22 20:51:45 GMT 42.710979 -69.668777 40,000 264 476 -64
2021-09-22 20:51:39 GMT 42.712654 -69.650444 39,975 264 476 -64
2021-09-22 20:51:36 GMT 42.713120 -69.645081 40,000 264 476 -64
2021-09-22 20:51:34 GMT 42.713913 -69.636200 40,000 264 476 -64
2021-09-22 20:51:31 GMT 42.714661 -69.627602 40,000 264 476 -64
2021-09-22 20:51:28 GMT 42.715729 -69.616020 40,000 264 476 -64
2021-09-22 20:51:23 GMT 42.716949 -69.602074 40,000 264 477 -64
2021-09-22 20:51:20 GMT 42.717499 -69.595833 40,000 264 477 0
2021-09-22 20:51:17 GMT 42.718323 -69.586655 40,000 264 477 0
2021-09-22 20:51:14 GMT 42.719101 -69.577728 40,000 264 477 0
2021-09-22 20:51:11 GMT 42.719879 -69.569427 40,000 264 478 0
2021-09-22 20:51:08 GMT 42.721436 -69.551575 40,000 264 478 0
2021-09-22 20:51:02 GMT 42.722488 -69.539650 40,000 264 478 -64
2021-09-22 20:50:59 GMT 42.723312 -69.530098 39,975 264 479 0
2021-09-22 20:50:56 GMT 42.723770 -69.524727 40,000 264 479 0
2021-09-22 20:50:54 GMT 42.724457 -69.516991 39,975 264 479 0
2021-09-22 20:50:51 GMT 42.725098 -69.509811 39,975 264 479 0
2021-09-22 20:50:47 GMT 42.726154 -69.497597 39,975 264 479 0
2021-09-22 20:50:44 GMT 42.726761 -69.491013 39,975 264 480 0
2021-09-22 20:50:42 GMT 42.727505 -69.482010 39,975 264 480 0
2021-09-22 20:50:39 GMT 42.728390 -69.472496 39,975 264 480 0
2021-09-22 20:50:36 GMT 42.729366 -69.461121 39,975 264 480 0
2021-09-22 20:50:33 GMT 42.729881 -69.455116 39,975 264 480 0
2021-09-22 20:50:29 GMT 42.731182 -69.440170 40,000 264 480 0
2021-09-22 20:50:25 GMT 42.732010 -69.430908 39,975 264 480 0
2021-09-22 20:50:22 GMT 42.733017 -69.419487 40,000 264 480 -64
2021-09-22 20:50:18 GMT 42.733841 -69.409935 40,000 264 480 -64
2021-09-22 20:50:16 GMT 42.735214 -69.394394 40,000 264 480 0
2021-09-22 20:50:13 GMT 42.735214 -69.394394 39,975 264 480 0
2021-09-22 20:50:10 GMT 42.735901 -69.386589 39,975 264 480 0
2021-09-22 20:50:06 GMT 42.737049 -69.373108 39,975 264 480 0
2021-09-22 20:50:03 GMT 42.737961 -69.362617 40,000 264 480 -64
2021-09-22 20:50:00 GMT 42.738445 -69.356941 40,000 264 480 -64
2021-09-22 20:49:58 GMT 42.739002 -69.350945 40,000 264 480 -64
2021-09-22 20:49:55 GMT 42.739796 -69.341995 40,000 264 480 0
2021-09-22 20:49:50 GMT 42.741146 -69.326416 39,975 264 480 -64
2021-09-22 20:49:48 GMT 42.741623 -69.320732 39,975 264 480 0
2021-09-22 20:49:44 GMT 42.742634 -69.309036 39,975 264 480 0
2021-09-22 20:49:39 GMT 42.744141 -69.291962 40,000 264 480 0
2021-09-22 20:49:35 GMT 42.745148 -69.280037 40,000 264 480 0
2021-09-22 20:49:32 GMT 42.746033 -69.270142 39,975 264 480 -64
2021-09-22 20:49:26 GMT 42.747253 -69.256065 40,000 264 480 -64
2021-09-22 20:49:24 GMT 42.747803 -69.249191 40,000 264 480 -64
2021-09-22 20:49:21 GMT 42.748642 -69.239609 40,000 264 480 -64
2021-09-22 20:49:18 GMT 42.749432 -69.230667 40,000 264 480 -64
2021-09-22 20:49:15 GMT 42.750412 -69.218987 39,975 263 480 0
2021-09-22 20:49:11 GMT 42.751465 -69.207001 40,000 264 480 0
2021-09-22 20:49:07 GMT 42.752243 -69.198074 40,000 264 480 0
2021-09-22 20:49:04 GMT 42.753250 -69.186401 39,975 264 480 0
2021-09-22 20:49:01 GMT 42.753937 -69.178352 40,000 264 480 0
2021-09-22 20:48:57 GMT 42.754738 -69.169029 39,975 264 480 0
2021-09-22 20:48:53 GMT 42.755856 -69.155930 39,975 263 480 0
2021-09-22 20:48:50 GMT 42.756599 -69.146927 39,975 264 480 0
2021-09-22 20:48:47 GMT 42.757252 -69.139137 40,000 264 479 -64
2021-09-22 20:48:42 GMT 42.758423 -69.124481 39,975 264 479 -64
2021-09-22 20:48:38 GMT 42.759628 -69.110390 40,000 263 480 0
2021-09-22 20:48:33 GMT 42.761024 -69.094872 40,000 263 480 0
2021-09-22 20:48:29 GMT 42.761993 -69.085587 39,975 262 480 -64
2021-09-22 20:48:25 GMT 42.763023 -69.075775 40,000 262 480 -64
2021-09-22 20:48:22 GMT 42.764469 -69.063255 40,000 261 480 0
2021-09-22 20:48:18 GMT 42.766331 -69.048370 40,000 260 480 -64
2021-09-22 20:48:15 GMT 42.766796 -69.044853 39,975 260 480 -64
2021-09-22 20:48:12 GMT 42.768471 -69.032333 40,000 260 480 -64
2021-09-22 20:48:09 GMT 42.769730 -69.023788 40,000 259 481 -64
2021-09-22 20:48:06 GMT 42.771057 -69.014931 39,975 259 481 0
2021-09-22 20:48:02 GMT 42.773209 -69.001320 39,975 258 481 0
2021-09-22 20:47:58 GMT 42.774490 -68.993645 40,000 258 481 0
2021-09-22 20:47:53 GMT 42.777409 -68.976898 39,975 256 482 -64
2021-09-22 20:47:49 GMT 42.779892 -68.963676 39,975 256 482 0
2021-09-22 20:47:44 GMT 42.782501 -68.950256 39,975 255 482 0
2021-09-22 20:47:41 GMT 42.784149 -68.942078 39,975 255 482 0
2021-09-22 20:47:36 GMT 42.787033 -68.927414 40,000 255 482 0
2021-09-22 20:47:31 GMT 42.790283 -68.911057 39,975 255 482 0
2021-09-22 20:47:27 GMT 42.792160 -68.901695 40,000 255 482 0
2021-09-22 20:47:24 GMT 42.793564 -68.894371 39,975 255 482 -64
2021-09-22 20:47:18 GMT 42.797699 -68.873543 39,975 256 483 -64
2021-09-22 20:47:15 GMT 42.798843 -68.867737 40,000 256 483 -64
2021-09-22 20:47:10 GMT 42.802094 -68.851318 40,000 256 483 -64
2021-09-22 20:47:05 GMT 42.804550 -68.838669 40,000 256 483 0
2021-09-22 20:47:03 GMT 42.806213 -68.830223 40,000 256 483 -64
2021-09-22 20:47:00 GMT 42.808182 -68.820229 40,000 256 483 -64
2021-09-22 20:46:57 GMT 42.809555 -68.813187 40,000 256 483 0
2021-09-22 20:46:53 GMT 42.812511 -68.798218 40,000 256 484 0
2021-09-22 20:46:49 GMT 42.814178 -68.789742 40,000 256 484 -64
2021-09-22 20:46:45 GMT 42.816559 -68.777687 39,975 256 484 64
2021-09-22 20:46:38 GMT 42.820404 -68.757996 39,975 256 484 -64
2021-09-22 20:46:35 GMT 42.822372 -68.747971 40,000 256 484 -64
2021-09-22 20:46:29 GMT 42.826012 -68.729485 40,000 256 484 -64
2021-09-22 20:46:25 GMT 42.828106 -68.718895 40,000 256 485 -64
2021-09-22 20:46:22 GMT 42.830154 -68.708298 40,000 256 485 0
2021-09-22 20:46:16 GMT 42.833679 -68.690292 40,000 256 485 -64
2021-09-22 20:46:13 GMT 42.834621 -68.685280 40,000 256 485 -64
2021-09-22 20:46:08 GMT 42.837975 -68.668213 39,975 256 486 0
2021-09-22 20:46:04 GMT 42.840256 -68.656441 40,000 256 486 0
2021-09-22 20:45:56 GMT 42.844208 -68.636063 40,000 256 486 -64
2021-09-22 20:45:52 GMT 42.846447 -68.624527 39,975 256 486 -64
2021-09-22 20:45:50 GMT 42.848145 -68.615944 39,975 256 486 -64
2021-09-22 20:45:43 GMT 42.851986 -68.596146 39,975 256 487 0
2021-09-22 20:45:37 GMT 42.855743 -68.576920 40,000 256 487 -64
2021-09-22 20:45:33 GMT 42.857941 -68.565674 40,000 256 487 0
2021-09-22 20:45:30 GMT 42.860229 -68.553856 39,975 256 487 -64
2021-09-22 20:45:26 GMT 42.861996 -68.544685 40,000 256 487 -64
2021-09-22 20:45:19 GMT 42.866043 -68.523712 39,975 256 487 0
2021-09-22 20:45:16 GMT 42.867783 -68.514832 39,975 256 487 0
2021-09-22 20:45:13 GMT 42.869537 -68.505638 40,000 256 487 -64
2021-09-22 20:45:05 GMT 42.873962 -68.482826 39,975 256 487 0
2021-09-22 20:45:00 GMT 42.876568 -68.469475 39,975 256 487 0
2021-09-22 20:44:54 GMT 42.880013 -68.451759 39,975 256 487 0
2021-09-22 20:44:50 GMT 42.882248 -68.440163 39,975 256 487 -64
2021-09-22 20:44:44 GMT 42.886597 -68.417679 39,975 256 487 -64
2021-09-22 20:44:38 GMT 42.889664 -68.401711 40,000 256 486 -64
2021-09-22 20:44:34 GMT 42.891586 -68.391617 40,000 256 486 -64
2021-09-22 20:44:23 GMT 42.897934 -68.358765 40,000 256 486 0
2021-09-22 20:44:13 GMT 42.903519 -68.329727 39,975 256 486 -64
2021-09-22 20:44:05 GMT 42.908035 -68.305992 39,975 256 486 0
2021-09-22 20:44:02 GMT 42.909527 -68.298271 39,975 256 487 0
2021-09-22 20:43:53 GMT 42.915390 -68.267761 39,975 256 487 -64
2021-09-22 20:43:42 GMT 42.921211 -68.237198 39,975 256 487 0
2021-09-22 20:43:31 GMT 42.927750 -68.203064 39,975 256 486 -64
2021-09-22 20:43:20 GMT 42.934013 -68.170235 39,975 256 486 -64
2021-09-22 20:43:09 GMT 42.941135 -68.132889 39,975 256 485 -64
2021-09-22 20:42:56 GMT 42.947559 -68.099144 40,000 256 485 -64
2021-09-22 20:42:45 GMT 42.954117 -68.064522 40,000 256 486 -64
2021-09-22 20:42:34 GMT 42.960079 -68.032837 40,000 256 485 0
2021-09-22 20:42:30 GMT 42.962036 -68.022491 40,000 256 485 0
2021-09-22 20:42:22 GMT 42.966133 -68.000862 40,000 256 485 0
2021-09-22 20:42:14 GMT 42.970871 -67.975731 39,975 256 486 0
2021-09-22 20:42:11 GMT 42.971970 -67.969795 39,975 256 486 0
2021-09-22 20:42:04 GMT 42.976513 -67.945793 39,975 256 486 -64
2021-09-22 20:42:00 GMT 42.978516 -67.935135 39,975 256 485 -64
2021-09-22 20:41:52 GMT 42.983597 -67.908157 39,975 256 485 -64
2021-09-22 20:41:44 GMT 42.987499 -67.887138 40,000 256 484 -64
2021-09-22 20:41:38 GMT 42.990574 -67.870590 39,975 256 485 -64
2021-09-22 20:41:31 GMT 42.994766 -67.848434 40,000 256 484 -64
2021-09-22 20:41:27 GMT 42.996414 -67.839493 39,975 256 484 -64
2021-09-22 20:41:19 GMT 43.001186 -67.813766 40,000 256 485 -64
2021-09-22 20:41:13 GMT 43.004494 -67.795975 40,000 256 485 0
2021-09-22 20:41:02 GMT 43.010265 -67.765114 39,975 256 487 -64
2021-09-22 20:40:59 GMT 43.012360 -67.753799 40,000 256 487 0
2021-09-22 20:40:53 GMT 43.016190 -67.733269 39,975 256 487 -64
2021-09-22 20:40:50 GMT 43.017666 -67.725220 39,975 256 487 0
2021-09-22 20:40:39 GMT 43.023376 -67.694557 39,975 256 487 0
2021-09-22 20:40:28 GMT 43.029053 -67.664154 39,975 256 487 -64
2021-09-22 20:40:18 GMT 43.034985 -67.632225 40,000 256 487 -64
2021-09-22 20:40:08 GMT 43.040543 -67.602135 40,000 256 487 0
2021-09-22 20:39:57 GMT 43.046173 -67.571793 40,000 256 486 -64
2021-09-22 20:39:47 GMT 43.051987 -67.540237 40,000 256 486 -64
2021-09-22 20:39:37 GMT 43.057571 -67.509903 40,000 256 486 -64
2021-09-22 20:39:26 GMT 43.063519 -67.477440 39,975 256 486 -64
2021-09-22 20:39:17 GMT 43.069107 -67.447159 39,975 256 486 0
2021-09-22 20:39:06 GMT 43.074600 -67.417091 39,975 256 485 0
2021-09-22 20:38:55 GMT 43.080418 -67.385300 40,000 256 486 -64
2021-09-22 20:38:45 GMT 43.085907 -67.355263 39,975 257 486 -64
2021-09-22 20:38:35 GMT 43.091217 -67.326073 40,000 257 486 -64
2021-09-22 20:38:24 GMT 43.097305 -67.292732 40,000 257 487 0
2021-09-22 20:38:15 GMT 43.102478 -67.264046 40,000 257 488 -64
2021-09-22 20:38:04 GMT 43.108017 -67.233582 40,000 257 488 0
2021-09-22 20:37:55 GMT 43.112679 -67.208145 39,975 257 489 -64
2021-09-22 20:37:52 GMT 43.114380 -67.198898 40,000 257 489 -64
2021-09-22 20:37:42 GMT 43.119827 -67.168877 39,975 257 489 0
2021-09-22 20:37:33 GMT 43.125000 -67.140068 40,000 257 489 0
2021-09-22 20:37:22 GMT 43.130554 -67.109200 40,000 257 489 0
2021-09-22 20:37:12 GMT 43.135956 -67.078529 40,000 257 489 0
2021-09-22 20:36:26 GMT 43.164539 -66.942245 40,000 252 490 0
2021-09-22 20:36:19 GMT 43.170547 -66.917915 40,000 252 490 0
2021-09-22 20:32:33 GMT 43.331333 -66.263710 39,975 252 483 -64
2021-09-22 20:32:09 GMT 43.348515 -66.192825 40,000 252 483 -64
2021-09-22 20:32:03 GMT 43.352783 -66.175064 40,000 252 484 0
2021-09-22 20:31:41 GMT 43.367599 -66.113632 39,975 252 484 0
2021-09-22 20:31:31 GMT 43.374630 -66.084465 39,975 252 485 -64
2021-09-22 20:31:23 GMT 43.381302 -66.056702 39,975 252 485 -64
2021-09-22 20:31:20 GMT 43.382774 -66.050591 39,975 252 485 -64
2021-09-22 20:31:08 GMT 43.391006 -66.016396 39,975 252 485 0
2021-09-22 20:31:00 GMT 43.396454 -65.993599 39,975 252 485 0
2021-09-22 20:30:52 GMT 43.402725 -65.967278 39,975 252 486 -64
2021-09-22 20:30:40 GMT 43.410473 -65.934776 39,975 252 486 0
2021-09-22 20:30:37 GMT 43.412430 -65.926537 39,975 252 486 0
2021-09-22 20:30:28 GMT 43.419411 -65.897240 40,000 252 486 0
2021-09-22 20:30:21 GMT 43.424469 -65.875809 39,975 252 487 -64
2021-09-22 20:30:15 GMT 43.427883 -65.861465 40,000 252 487 -64
2021-09-22 20:30:08 GMT 43.432846 -65.840614 39,975 252 487 -64
2021-09-22 20:29:59 GMT 43.439713 -65.811874 39,975 252 487 -64
2021-09-22 20:29:50 GMT 43.446121 -65.784859 40,000 252 487 0
2021-09-22 20:29:46 GMT 43.448135 -65.776321 39,975 253 486 -64
2021-09-22 20:29:43 GMT 43.450928 -65.764549 39,975 252 487 0
2021-09-22 20:29:38 GMT 43.453629 -65.753113 39,975 252 487 0
2021-09-22 20:29:33 GMT 43.457840 -65.735542 40,000 253 486 0
2021-09-22 20:29:27 GMT 43.462143 -65.717339 40,000 253 486 -64
2021-09-22 20:29:23 GMT 43.464848 -65.705826 40,000 253 486 -64
2021-09-22 20:29:17 GMT 43.469330 -65.686745 39,975 253 486 0
2021-09-22 20:29:10 GMT 43.473694 -65.668228 40,000 253 486 -64
2021-09-22 20:29:06 GMT 43.475830 -65.659149 40,000 253 486 0
2021-09-22 20:29:03 GMT 43.478897 -65.646187 39,975 253 486 0
2021-09-22 20:28:58 GMT 43.484711 -65.621529 39,975 253 486 0
2021-09-22 20:28:51 GMT 43.486267 -65.615013 40,000 253 486 0
2021-09-22 20:28:46 GMT 43.489700 -65.600327 40,000 253 487 -64
2021-09-22 20:28:41 GMT 43.493134 -65.585571 39,975 253 487 -64
2021-09-22 20:28:37 GMT 43.496475 -65.571449 40,000 253 487 -64
2021-09-22 20:28:34 GMT 43.497849 -65.565575 39,975 253 487 -64
2021-09-22 20:28:27 GMT 43.503525 -65.541435 39,975 253 487 0
2021-09-22 20:28:18 GMT 43.509396 -65.516441 39,975 253 486 0
2021-09-22 20:28:16 GMT 43.510654 -65.511086 39,975 253 487 0
2021-09-22 20:28:12 GMT 43.513260 -65.499901 40,000 253 486 -64
2021-09-22 20:28:05 GMT 43.517963 -65.479958 39,975 253 486 0
2021-09-22 20:28:02 GMT 43.520432 -65.469360 39,975 253 486 -64
2021-09-22 20:27:56 GMT 43.524994 -65.449936 39,975 253 486 0
2021-09-22 20:27:51 GMT 43.527512 -65.439041 39,975 253 486 -64
2021-09-22 20:27:45 GMT 43.531975 -65.419922 40,000 253 486 -64
2021-09-22 20:27:42 GMT 43.534241 -65.410233 40,000 253 486 -64
2021-09-22 20:27:35 GMT 43.539143 -65.389381 39,975 253 485 0
2021-09-22 20:27:31 GMT 43.541843 -65.377609 40,000 253 485 -64
2021-09-22 20:27:25 GMT 43.546127 -65.359428 39,975 253 485 0
2021-09-22 20:27:22 GMT 43.548065 -65.350899 40,000 253 485 0
2021-09-22 20:27:14 GMT 43.553482 -65.327713 39,975 253 486 0
2021-09-22 20:27:10 GMT 43.555950 -65.317123 40,000 253 486 -64
2021-09-22 20:27:04 GMT 43.560326 -65.298286 39,975 253 486 0
2021-09-22 20:27:01 GMT 43.562027 -65.290916 40,000 253 485 0
2021-09-22 20:26:52 GMT 43.568611 -65.262383 39,975 253 485 -64
2021-09-22 20:26:41 GMT 43.575546 -65.232368 40,000 253 485 0
2021-09-22 20:26:31 GMT 43.582344 -65.202942 40,000 253 485 -64
2021-09-22 20:26:21 GMT 43.589722 -65.170898 40,000 253 485 0
2021-09-22 20:26:12 GMT 43.595718 -65.145027 40,000 253 485 0
2021-09-22 20:26:01 GMT 43.602905 -65.113792 40,000 253 485 0
2021-09-22 20:25:52 GMT 43.609486 -65.085228 40,000 253 485 0
2021-09-22 20:25:41 GMT 43.616512 -65.054626 40,000 253 485 -64
2021-09-22 20:25:31 GMT 43.623032 -65.026314 40,000 253 485 0
2021-09-22 20:25:27 GMT 43.625732 -65.014542 39,975 253 485 -64
2021-09-22 20:25:21 GMT 43.630783 -64.992432 40,000 253 485 0
2021-09-22 20:25:10 GMT 43.637558 -64.962990 39,975 253 485 0
2021-09-22 20:25:01 GMT 43.643600 -64.936417 40,000 253 485 0
2021-09-22 20:24:50 GMT 43.651657 -64.901031 40,000 253 486 -64
2021-09-22 20:24:40 GMT 43.657150 -64.876823 40,000 253 486 0
2021-09-22 20:24:38 GMT 43.658829 -64.869431 40,000 253 486 0
2021-09-22 20:24:31 GMT 43.663952 -64.847000 40,000 253 486 0
2021-09-22 20:24:28 GMT 43.665207 -64.841438 39,975 253 486 0
2021-09-22 20:24:21 GMT 43.670471 -64.818375 39,975 253 486 0
2021-09-22 20:24:10 GMT 43.677776 -64.786179 40,000 253 486 -64
2021-09-22 20:24:00 GMT 43.684059 -64.758453 40,000 253 486 -64
2021-09-22 20:23:51 GMT 43.690704 -64.729210 40,000 253 485 -64
2021-09-22 20:23:40 GMT 43.697701 -64.698158 39,975 253 485 0
2021-09-22 20:23:31 GMT 43.704163 -64.669487 39,975 253 485 0
2021-09-22 20:23:20 GMT 43.711624 -64.636398 40,000 253 485 0
2021-09-22 20:23:11 GMT 43.717903 -64.608307 40,000 253 485 0
2021-09-22 20:23:00 GMT 43.724762 -64.577766 39,975 253 485 0
2021-09-22 20:22:51 GMT 43.730621 -64.551765 40,000 253 485 -64
2021-09-22 20:22:41 GMT 43.737316 -64.521858 40,000 253 485 -64
2021-09-22 20:22:30 GMT 43.744125 -64.491341 40,000 253 485 0
2021-09-22 20:22:20 GMT 43.750912 -64.460907 40,000 253 485 -64
2021-09-22 20:22:10 GMT 43.757675 -64.430405 39,975 253 485 0
2021-09-22 20:21:59 GMT 43.764313 -64.400833 40,000 253 485 -64
2021-09-22 20:21:50 GMT 43.770554 -64.372688 40,000 253 485 -64
2021-09-22 20:21:40 GMT 43.777630 -64.340714 40,000 253 485 -64
2021-09-22 20:21:30 GMT 43.783962 -64.312263 40,000 254 486 -64
2021-09-22 20:21:19 GMT 43.790943 -64.280807 40,000 254 486 0
2021-09-22 20:21:10 GMT 43.797455 -64.251434 40,000 254 487 0
2021-09-22 20:20:59 GMT 43.804138 -64.221092 40,000 254 487 0
2021-09-22 20:20:50 GMT 43.810406 -64.192787 40,000 254 488 0
2021-09-22 20:20:40 GMT 43.817276 -64.161499 40,000 254 488 -64
2021-09-22 20:20:30 GMT 43.823593 -64.132881 39,975 254 488 0
2021-09-22 20:20:19 GMT 43.830467 -64.101562 40,000 254 489 -64
2021-09-22 20:20:08 GMT 43.837234 -64.070801 40,000 254 489 -64
2021-09-22 20:20:03 GMT 43.841263 -64.052277 40,000 254 488 -64
2021-09-22 20:19:59 GMT 43.843643 -64.041542 40,000 254 488 0
2021-09-22 20:19:54 GMT 43.847305 -64.024742 40,000 254 488 -64
2021-09-22 20:19:48 GMT 43.850555 -64.009796 40,000 254 488 0
2021-09-22 20:19:43 GMT 43.854355 -63.992489 40,000 254 488 0
2021-09-22 20:19:38 GMT 43.857143 -63.979603 40,000 254 488 0
2021-09-22 20:19:33 GMT 43.860775 -63.962860 40,000 254 488 -64
2021-09-22 20:19:29 GMT 43.863007 -63.952724 40,000 254 488 -64
2021-09-22 20:19:23 GMT 43.867493 -63.932060 40,000 254 488 -64
2021-09-22 20:19:19 GMT 43.870037 -63.920353 40,000 254 489 0
2021-09-22 20:19:12 GMT 43.874508 -63.900017 40,000 254 490 0
2021-09-22 20:19:09 GMT 43.876087 -63.892822 40,000 254 489 0
2021-09-22 20:19:01 GMT 43.881363 -63.868572 39,975 254 489 0
2021-09-22 20:18:58 GMT 43.882980 -63.861107 39,975 254 489 0
2021-09-22 20:18:49 GMT 43.889557 -63.830757 39,975 254 490 0
2021-09-22 20:18:39 GMT 43.895966 -63.801376 40,000 254 490 -64
2021-09-22 20:18:29 GMT 43.902622 -63.770405 40,000 254 490 0
2021-09-22 20:18:19 GMT 43.909058 -63.740696 40,000 254 490 -64
2021-09-22 20:18:09 GMT 43.915512 -63.710609 39,975 254 490 -64
2021-09-22 20:17:58 GMT 43.922287 -63.679379 40,000 254 490 -64
2021-09-22 20:17:48 GMT 43.928692 -63.649555 40,000 254 490 0
2021-09-22 20:17:39 GMT 43.934784 -63.620995 40,000 254 491 -64
2021-09-22 20:17:29 GMT 43.941376 -63.590271 39,975 254 491 0
2021-09-22 20:17:19 GMT 43.952682 -63.537319 40,000 254 491 -64
2021-09-22 20:17:07 GMT 43.955322 -63.524975 40,000 254 491 -64
2021-09-22 20:16:58 GMT 43.961002 -63.498493 40,000 254 490 0
2021-09-22 20:16:47 GMT 43.968170 -63.464748 39,975 254 490 0
2021-09-22 20:16:37 GMT 43.974014 -63.437359 40,000 254 490 0
2021-09-22 20:16:27 GMT 43.980740 -63.405762 40,000 254 489 0
2021-09-22 20:16:18 GMT 43.986557 -63.378403 39,975 254 489 0
2021-09-22 20:16:13 GMT 43.989761 -63.363327 39,975 254 490 -64
2021-09-22 20:16:06 GMT 43.995171 -63.337685 39,975 254 490 0
2021-09-22 20:15:58 GMT 43.999603 -63.316891 40,000 254 490 -64
2021-09-22 20:15:48 GMT 44.005878 -63.287071 40,000 254 491 0
2021-09-22 20:15:44 GMT 44.007980 -63.277100 40,000 254 491 0
2021-09-22 20:15:38 GMT 44.012627 -63.255028 39,975 254 491 -64
2021-09-22 20:15:24 GMT 44.020912 -63.215725 40,000 254 492 -64
2021-09-22 20:15:18 GMT 44.025242 -63.195126 39,975 254 492 0
2021-09-22 20:15:07 GMT 44.031921 -63.163338 40,000 254 492 0
2021-09-22 20:14:58 GMT 44.037998 -63.134502 39,975 254 492 0
2021-09-22 20:14:48 GMT 44.044144 -63.105087 40,000 254 493 0
2021-09-22 20:14:38 GMT 44.050800 -63.073166 40,000 254 494 -64
2021-09-22 20:14:28 GMT 44.057411 -63.041576 39,975 254 494 -64
2021-09-22 20:14:18 GMT 44.063648 -63.011692 40,000 254 494 -64
2021-09-22 20:14:07 GMT 44.069748 -62.982460 39,975 254 494 -64
2021-09-22 20:13:57 GMT 44.076309 -62.950745 39,975 254 495 -64
2021-09-22 20:13:47 GMT 44.082687 -62.919979 40,000 254 495 -64
2021-09-22 20:13:37 GMT 44.088974 -62.889732 40,000 254 495 -64
2021-09-22 20:13:29 GMT 44.094048 -62.865337 40,000 254 495 0
2021-09-22 20:13:26 GMT 44.095505 -62.858276 40,000 254 495 0
2021-09-22 20:13:17 GMT 44.101685 -62.828384 40,000 254 495 0
2021-09-22 20:13:07 GMT 44.108013 -62.797523 40,000 255 495 0
2021-09-22 20:12:56 GMT 44.114807 -62.764500 40,000 255 496 0
2021-09-22 20:12:47 GMT 44.120773 -62.735447 40,000 255 496 -64
2021-09-22 20:12:37 GMT 44.126774 -62.706364 40,000 255 496 -64
2021-09-22 20:12:26 GMT 44.133572 -62.673275 39,975 255 496 -64
2021-09-22 20:12:17 GMT 44.139633 -62.643597 39,975 255 496 0
2021-09-22 20:12:07 GMT 44.146545 -62.609936 39,975 255 495 0
2021-09-22 20:11:57 GMT 44.153679 -62.574657 40,000 255 495 0
2021-09-22 20:11:47 GMT 44.158291 -62.552032 39,975 255 495 0
2021-09-22 20:11:33 GMT 44.167328 -62.507671 40,000 255 495 0
2021-09-22 20:11:24 GMT 44.172318 -62.483143 39,975 255 495 0
2021-09-22 20:11:13 GMT 44.179562 -62.447334 40,000 255 495 -64
2021-09-22 20:11:06 GMT 44.183334 -62.428959 40,000 255 495 -64
2021-09-22 20:11:02 GMT 44.185959 -62.415756 40,000 255 495 0
2021-09-22 20:10:56 GMT 44.189713 -62.397362 40,000 255 495 -64
2021-09-22 20:10:54 GMT 44.191315 -62.389442 40,000 255 495 0
2021-09-22 20:10:44 GMT 44.198456 -62.353886 40,000 255 495 -64
2021-09-22 20:10:37 GMT 44.201385 -62.339172 40,000 255 495 0
2021-09-22 20:10:26 GMT 44.207932 -62.306671 39,975 255 495 0
2021-09-22 20:10:22 GMT 44.211365 -62.289539 39,975 255 495 -64
2021-09-22 20:10:17 GMT 44.213837 -62.277245 40,000 255 495 -64
2021-09-22 20:10:13 GMT 44.217735 -62.257980 40,000 255 495 -64
2021-09-22 20:10:07 GMT 44.220016 -62.246574 40,000 255 495 -64
2021-09-22 20:09:57 GMT 44.226208 -62.215645 39,975 255 495 0
2021-09-22 20:09:47 GMT 44.232632 -62.183689 40,000 255 495 -64
2021-09-22 20:09:39 GMT 44.237595 -62.158878 39,975 255 495 0
2021-09-22 20:09:36 GMT 44.239243 -62.150597 40,000 255 495 -64
2021-09-22 20:09:29 GMT 44.243225 -62.130627 40,000 255 494 -64
2021-09-22 20:09:23 GMT 44.247116 -62.111012 40,000 255 494 -64
2021-09-22 20:09:20 GMT 44.249161 -62.100891 40,000 255 494 0
2021-09-22 20:09:17 GMT 44.250835 -62.092316 40,000 255 494 -64
2021-09-22 20:09:10 GMT 44.255081 -62.071117 40,000 255 494 0
2021-09-22 20:09:07 GMT 44.257072 -62.060963 39,975 255 495 0
2021-09-22 20:08:59 GMT 44.261398 -62.039143 39,975 255 495 0
2021-09-22 20:08:50 GMT 44.267715 -62.007229 40,000 255 495 0
2021-09-22 20:08:38 GMT 44.274536 -61.972767 40,000 255 495 0
2021-09-22 20:08:36 GMT 44.275925 -61.965706 39,975 255 495 -64
2021-09-22 20:08:27 GMT 44.281494 -61.937714 39,975 255 496 -64
2021-09-22 20:08:19 GMT 44.286575 -61.911816 40,000 255 496 0
2021-09-22 20:08:16 GMT 44.287903 -61.905083 39,975 255 496 -64
2021-09-22 20:08:06 GMT 44.293709 -61.875805 39,975 255 496 0
2021-09-22 20:07:56 GMT 44.299763 -61.844990 39,975 255 496 -64
2021-09-22 20:07:46 GMT 44.305954 -61.813568 39,975 255 495 0
2021-09-22 20:07:35 GMT 44.312531 -61.780048 40,000 255 495 0
2021-09-22 20:07:26 GMT 44.318104 -61.751404 40,000 255 495 -64
2021-09-22 20:07:15 GMT 44.324295 -61.719753 40,000 255 495 -64
2021-09-22 20:07:06 GMT 44.330292 -61.688953 39,975 255 495 0
2021-09-22 20:06:55 GMT 44.337051 -61.654137 40,000 255 495 0
2021-09-22 20:06:46 GMT 44.342216 -61.627674 40,000 255 496 -64
2021-09-22 20:06:34 GMT 44.348969 -61.592819 40,000 255 496 0
2021-09-22 20:06:26 GMT 44.354095 -61.566338 40,000 255 496 0
2021-09-22 20:06:24 GMT 44.355858 -61.557335 39,975 255 496 0
2021-09-22 20:06:16 GMT 44.361954 -61.525848 39,975 255 496 0
2021-09-22 20:06:04 GMT 44.367599 -61.496494 40,000 255 497 0
2021-09-22 20:05:52 GMT 44.374477 -61.461002 39,975 255 497 -64
2021-09-22 20:05:45 GMT 44.378620 -61.439365 40,000 255 497 0
2021-09-22 20:05:40 GMT 44.381424 -61.424824 39,975 255 497 0
2021-09-22 20:05:33 GMT 44.386116 -61.400444 40,000 256 496 0
2021-09-22 20:05:22 GMT 44.392593 -61.366753 39,975 256 496 0
2021-09-22 20:05:11 GMT 44.398453 -61.336067 39,975 256 496 0
2021-09-22 20:05:02 GMT 44.404503 -61.304516 39,975 256 497 -64
2021-09-22 20:04:50 GMT 44.410812 -61.271339 40,000 256 497 -64
2021-09-22 20:04:41 GMT 44.416698 -61.240608 40,000 256 497 -64
2021-09-22 20:04:30 GMT 44.423031 -61.207111 39,975 256 498 -64
2021-09-22 20:04:19 GMT 44.429489 -61.173183 40,000 256 498 0
2021-09-22 20:04:10 GMT 44.434891 -61.144539 40,000 256 499 0
2021-09-22 20:03:59 GMT 44.441254 -61.110928 40,000 256 499 0
2021-09-22 20:03:49 GMT 44.446728 -61.081909 40,000 256 499 0
2021-09-22 20:03:39 GMT 44.453571 -61.045734 40,000 256 500 64
2021-09-22 20:03:27 GMT 44.459656 -61.013554 39,975 256 500 0
2021-09-22 20:03:17 GMT 44.465744 -60.981117 40,000 256 500 -64
2021-09-22 20:03:09 GMT 44.470413 -60.956139 40,000 256 500 -64
2021-09-22 20:03:07 GMT 44.471924 -60.948029 40,000 256 500 -64
2021-09-22 20:02:57 GMT 44.477783 -60.916771 40,000 256 500 0
2021-09-22 20:02:46 GMT 44.484062 -60.883350 39,975 256 501 64
2021-09-22 20:02:35 GMT 44.490784 -60.847321 39,975 256 501 0
2021-09-22 20:02:24 GMT 44.501999 -60.787155 40,000 256 502 -64
2021-09-22 20:02:16 GMT 44.501999 -60.787155 40,000 256 502 -64
2021-09-22 20:01:49 GMT 44.517300 -60.704689 39,975 256 500 0
2021-09-22 20:01:45 GMT 44.520035 -60.689980 40,000 256 500 -64
2021-09-22 20:01:32 GMT 44.526581 -60.654274 39,975 256 500 -64
2021-09-22 20:01:22 GMT 44.532661 -60.621422 39,975 256 499 -64
2021-09-22 20:01:13 GMT 44.538620 -60.588928 40,000 256 499 -64
2021-09-22 20:01:02 GMT 44.544067 -60.559521 40,000 256 499 -64
2021-09-22 20:00:53 GMT 44.549652 -60.528839 39,975 256 500 0
2021-09-22 20:00:42 GMT 44.556541 -60.491192 40,000 256 500 0
2021-09-22 20:00:31 GMT 44.562698 -60.457634 39,975 256 500 0
2021-09-22 20:00:21 GMT 44.568832 -60.424068 40,000 256 500 0
2021-09-22 20:00:10 GMT 44.574829 -60.391125 40,000 256 500 0
2021-09-22 20:00:01 GMT 44.579773 -60.363846 40,000 256 500 -64
2021-09-22 19:59:49 GMT 44.586060 -60.329411 39,975 256 499 0
2021-09-22 19:59:27 GMT 44.599045 -60.257721 40,000 256 499 -64
2021-09-22 19:59:18 GMT 44.603439 -60.233330 40,000 256 498 0
2021-09-22 19:59:07 GMT 44.610031 -60.196770 39,975 256 498 0
2021-09-22 19:58:59 GMT 44.614967 -60.169239 40,000 256 497 -64
2021-09-22 19:58:47 GMT 44.620972 -60.135891 40,000 256 496 -64
2021-09-22 19:58:38 GMT 44.626743 -60.103722 40,000 256 496 -64
2021-09-22 19:58:27 GMT 44.632233 -60.072849 40,000 257 496 0
2021-09-22 19:58:17 GMT 44.638008 -60.040752 39,975 257 496 0
2021-09-22 19:58:07 GMT 44.643784 -60.008327 39,975 256 495 0
2021-09-22 19:57:56 GMT 44.649693 -59.975304 40,000 256 495 -64
2021-09-22 19:57:45 GMT 44.655396 -59.943172 40,000 256 495 -64
2021-09-22 19:57:36 GMT 44.661240 -59.910458 40,000 257 495 -64
2021-09-22 19:57:24 GMT 44.667114 -59.877125 39,975 257 495 -64
2021-09-22 19:57:11 GMT 44.674210 -59.836708 39,975 257 495 0
2021-09-22 19:57:04 GMT 44.678009 -59.814865 40,000 257 495 -64
2021-09-22 19:56:54 GMT 44.683865 -59.781570 40,000 257 495 0
2021-09-22 19:56:43 GMT 44.689407 -59.749996 40,000 257 496 0
2021-09-22 19:56:33 GMT 44.695362 -59.715919 39,975 257 498 -64
2021-09-22 19:56:23 GMT 44.701229 -59.682693 40,000 257 499 0
2021-09-22 19:56:12 GMT 44.706768 -59.651272 39,975 257 499 64
2021-09-22 19:56:01 GMT 44.712681 -59.617378 39,975 257 498 0
2021-09-22 19:55:51 GMT 44.718685 -59.582878 40,000 257 498 0
2021-09-22 19:55:40 GMT 44.724133 -59.551460 40,000 257 498 -64
2021-09-22 19:55:30 GMT 44.729736 -59.519154 39,975 257 497 0
2021-09-22 19:55:21 GMT 44.735367 -59.486519 39,975 257 497 -64
2021-09-22 19:55:09 GMT 44.740845 -59.454861 40,000 257 498 -64
2021-09-22 19:55:00 GMT 44.746216 -59.423805 40,000 257 498 -64
2021-09-22 19:54:48 GMT 44.752716 -59.386204 40,000 257 496 -64
2021-09-22 19:54:37 GMT 44.758438 -59.352985 40,000 257 496 0
2021-09-22 19:54:29 GMT 44.763062 -59.326042 39,975 257 496 0
2021-09-22 19:54:18 GMT 44.768692 -59.293407 39,975 257 497 0
2021-09-22 19:54:07 GMT 44.774082 -59.261726 39,975 257 497 0
2021-09-22 19:53:56 GMT 44.780136 -59.226250 39,975 257 497 -64
2021-09-22 19:53:46 GMT 44.785400 -59.195515 40,000 257 497 0
2021-09-22 19:53:36 GMT 44.791634 -59.158764 40,000 257 497 -64
2021-09-22 19:53:26 GMT 44.796192 -59.131832 40,000 257 497 0
2021-09-22 19:52:54 GMT 44.813187 -59.031284 39,975 257 497 -64
2021-09-22 19:52:44 GMT 44.818451 -59.000179 40,000 257 497 0
2021-09-22 19:51:35 GMT 44.855255 -58.779797 39,975 257 497 0
2021-09-22 19:51:30 GMT 44.857319 -58.767475 40,000 257 497 0
2021-09-22 19:51:19 GMT 44.863369 -58.730900 40,000 257 497 0
2021-09-22 19:51:10 GMT 44.867706 -58.704723 40,000 257 498 0
2021-09-22 19:51:00 GMT 44.873154 -58.671898 39,975 257 498 -64
2021-09-22 19:50:49 GMT 44.879288 -58.634556 40,000 257 498 -64
2021-09-22 19:50:39 GMT 44.884415 -58.603626 40,000 257 499 -64
2021-09-22 19:50:19 GMT 44.883331 -58.500000 40,000 259 500
2021-09-22 19:49:19 GMT 44.900002 -58.333332 40,000 257 500
2021-09-22 19:48:19 GMT 44.950001 -58.133331 40,000 257 500
2021-09-22 19:47:07 GMT 44.966667 -57.883331 40,000 256 500
2021-09-22 19:46:07 GMT 45.000000 -57.700001 40,000 256 500
2021-09-22 19:45:08 GMT 45.049999 -57.500000 40,000 260 500
2021-09-22 19:44:07 GMT 45.066666 -57.316666 40,000 258 500
2021-09-22 19:43:07 GMT 45.099998 -57.116669 40,000 260 500
2021-09-22 19:42:07 GMT 45.116669 -56.933334 40,000 256 500
2021-09-22 19:41:07 GMT 45.150002 -56.750000 40,000 259 500
2021-09-22 19:40:07 GMT 45.166668 -56.549999 40,000 256 500
2021-09-22 19:39:07 GMT 45.216667 -56.349998 40,000 260 500
2021-09-22 19:38:07 GMT 45.233334 -56.150002 40,000 258 500
2021-09-22 19:37:07 GMT 45.266666 -55.966667 40,000 258 500
2021-09-22 19:36:07 GMT 45.283333 -55.783333 40,000 259 500
2021-09-22 19:35:07 GMT 45.316666 -55.566666 40,000 258 500
2021-09-22 19:34:07 GMT 45.349998 -55.400002 40,000 261 500
2021-09-22 19:33:07 GMT 45.366669 -55.183334 40,000 260 500
2021-09-22 19:32:07 GMT 45.400002 -54.983334 40,000 258 500
2021-09-22 19:31:07 GMT 45.416668 -54.799999 40,000 258 500
2021-09-22 19:30:07 GMT 45.433334 -54.599998 40,000 258 500
We lost coverage of the aircraft here for a total of 7 minutes
2021-09-22 19:22:42 GMT 45.635468 -53.187962 40,000 261 505 -64
2021-09-22 19:22:32 GMT 45.638790 -53.158722 40,000 261 505 -64
2021-09-22 19:19:39 GMT 45.701385 -52.591621 40,000 262 500 -64
2021-09-22 19:18:27 GMT 45.726334 -52.358494 40,000 262 497 -64
2021-09-22 19:16:46 GMT 45.760895 -52.026829 39,975 262 498 -64
2021-09-22 19:16:36 GMT 45.764622 -51.990738 40,000 262 498 0
2021-09-22 19:16:29 GMT 45.766617 -51.971497 40,000 262 498 -64
2021-09-22 19:16:18 GMT 45.769974 -51.938690 39,975 262 497 -64
2021-09-22 19:16:08 GMT 45.773529 -51.903900 40,000 262 497 -64
2021-09-22 19:15:56 GMT 45.777050 -51.869133 40,000 262 497 0
2021-09-22 19:15:47 GMT 45.780495 -51.835419 40,000 262 496 -64
2021-09-22 19:15:26 GMT 45.787537 -51.766304 39,975 262 496 0
2021-09-22 19:14:59 GMT 45.796043 -51.681541 40,000 262 496 0
2021-09-22 19:14:54 GMT 45.797859 -51.663345 40,000 262 496 0
2021-09-22 19:14:41 GMT 45.801769 -51.624344 39,975 262 496 0
2021-09-22 19:14:33 GMT 45.804844 -51.593170 39,975 263 496 0
2021-09-22 19:14:19 GMT 45.783333 -51.500000 40,000 261 490
2021-09-22 19:13:18 GMT 45.799999 -51.283333 40,000 261 490
2021-09-22 19:12:18 GMT 45.816666 -51.099998 40,000 259 490
2021-09-22 19:11:19 GMT 45.849998 -50.900002 40,000 263 490
We lost coverage of the aircraft here for a total of 7 minutes
2021-09-22 19:04:20 GMT 46.093884 -49.625038 38,975 251 510 -64
2021-09-22 19:03:56 GMT 46.113392 -49.546555 38,975 251 509 -64
2021-09-22 19:03:53 GMT 46.115341 -49.538628 39,000 251 508 0
2021-09-22 19:03:43 GMT 46.124096 -49.503296 38,975 251 508 -64
2021-09-22 19:03:31 GMT 46.132645 -49.468555 39,000 251 507 0
2021-09-22 19:03:17 GMT 46.144226 -49.421528 39,000 251 506 0
2021-09-22 19:03:08 GMT 46.150585 -49.395836 39,000 251 506 0
2021-09-22 19:03:00 GMT 46.157089 -49.369476 38,975 251 506 0
2021-09-22 19:02:50 GMT 46.165390 -49.335411 38,975 251 506 -64
2021-09-22 19:02:39 GMT 46.173534 -49.302383 38,975 251 506 0
2021-09-22 19:02:29 GMT 46.181534 -49.269596 39,000 251 507 -64
2021-09-22 19:02:18 GMT 46.189774 -49.235764 39,000 251 508 0
2021-09-22 19:02:07 GMT 46.199371 -49.196503 38,975 251 508 0
2021-09-22 19:01:56 GMT 46.206436 -49.167435 38,975 251 509 -64
2021-09-22 19:01:16 GMT 46.238251 -49.036201 38,975 251 509 -64
2021-09-22 19:01:13 GMT 46.240337 -49.027519 38,975 251 509 0
2021-09-22 19:01:05 GMT 46.247360 -48.998421 38,975 251 509 -64
2021-09-22 19:00:43 GMT 46.263748 -48.930561 38,975 251 508 0
We lost coverage of the aircraft here for a total of 185 minutes
2021-09-22 15:55:20 GMT 49.879990 -12.644179 37,975 276 471 0
2021-09-22 15:55:14 GMT 49.878582 -12.621064 38,000 276 470 -64
2021-09-22 15:55:04 GMT 49.876511 -12.587296 37,975 276 469 0
2021-09-22 15:54:54 GMT 49.874405 -12.553325 38,000 276 468 -64
2021-09-22 15:54:43 GMT 49.872250 -12.518401 37,975 276 466 -64
2021-09-22 15:54:33 GMT 49.870201 -12.485294 38,000 276 466 0
2021-09-22 15:54:23 GMT 49.868107 -12.452186 37,975 276 466 0
2021-09-22 15:53:50 GMT 49.861263 -12.344030 37,975 276 467 0
2021-09-22 15:53:47 GMT 49.860661 -12.334751 37,975 276 467 0
2021-09-22 15:53:38 GMT 49.858749 -12.304543 37,975 276 467 -64
2021-09-22 15:53:28 GMT 49.856644 -12.271367 38,000 276 467 -64
2021-09-22 15:52:43 GMT 49.846664 -12.119727 37,975 276 470 0
2021-09-22 15:52:38 GMT 49.845657 -12.104332 37,975 276 470 -64
2021-09-22 15:52:28 GMT 49.843506 -12.071589 37,975 276 470 0
2021-09-22 15:52:22 GMT 49.841900 -12.047845 38,000 276 471 0
2021-09-22 15:52:11 GMT 49.839664 -12.014441 38,000 276 471 0
2021-09-22 15:52:07 GMT 49.838745 -12.000034 38,000 276 471 -64
2021-09-22 15:52:01 GMT 49.837383 -11.979552 37,975 276 472 -64
2021-09-22 15:51:50 GMT 49.835011 -11.944663 38,000 276 472 -64
2021-09-22 15:51:40 GMT 49.832794 -11.911493 38,000 276 472 0
2021-09-22 15:51:37 GMT 49.832077 -11.901088 37,975 277 472 -64
2021-09-22 15:51:31 GMT 49.830540 -11.878893 38,000 277 472 0
2021-09-22 15:51:20 GMT 49.828163 -11.844004 38,000 277 473 -64
2021-09-22 15:51:10 GMT 49.825790 -11.809435 38,000 277 473 0
2021-09-22 15:51:01 GMT 49.823605 -11.777418 37,975 277 473 -64
2021-09-22 15:50:50 GMT 49.821182 -11.742455 37,975 277 474 -64
2021-09-22 15:50:39 GMT 49.818741 -11.707089 37,975 277 474 0
2021-09-22 15:50:30 GMT 49.816360 -11.672685 38,000 277 474 -64
2021-09-22 15:50:20 GMT 49.814152 -11.640683 37,975 277 474 -64
2021-09-22 15:50:10 GMT 49.811691 -11.605249 38,000 277 474 -64
2021-09-22 15:49:33 GMT 49.803074 -11.483608 38,000 277 474 -64
2021-09-22 15:48:25 GMT 49.786221 -11.252375 38,000 277 476 0
2021-09-22 15:48:16 GMT 49.783951 -11.221667 38,000 277 476 0
2021-09-22 15:47:48 GMT 49.776993 -11.127705 37,975 277 478 -64
2021-09-22 15:47:14 GMT 49.768341 -11.011915 37,975 277 477 0
2021-09-22 15:47:05 GMT 49.766109 -10.982542 37,975 277 476 0
2021-09-22 15:46:55 GMT 49.763443 -10.947804 37,975 277 476 0
2021-09-22 15:46:44 GMT 49.760803 -10.913061 38,000 277 476 -64
2021-09-22 15:46:34 GMT 49.758224 -10.879717 38,000 277 475 -64
2021-09-22 15:46:23 GMT 49.755405 -10.843060 38,000 277 475 -64
2021-09-22 15:46:11 GMT 49.752090 -10.800356 37,975 277 475 -64
2021-09-22 15:46:04 GMT 49.750378 -10.778479 37,975 277 475 0
2021-09-22 15:45:54 GMT 49.747742 -10.744484 38,000 277 476 0
2021-09-22 15:45:44 GMT 49.745022 -10.709740 37,975 277 476 -64
2021-09-22 15:45:34 GMT 49.742432 -10.676326 38,000 277 477 -64
2021-09-22 15:45:24 GMT 49.739807 -10.642931 38,000 277 476 -64
2021-09-22 15:45:14 GMT 49.737110 -10.608562 38,000 278 475 0
2021-09-22 15:45:04 GMT 49.734375 -10.574630 37,975 278 475 -64
2021-09-22 15:44:54 GMT 49.731663 -10.540714 38,000 278 475 -64
2021-09-22 15:44:43 GMT 49.728928 -10.506110 37,975 278 475 0
2021-09-22 15:44:35 GMT 49.726448 -10.475538 37,975 278 475 0
2021-09-22 15:44:25 GMT 49.723297 -10.436217 38,000 278 475 -64
2021-09-22 15:44:15 GMT 49.721054 -10.408028 37,975 278 474 0
2021-09-22 15:44:13 GMT 49.720722 -10.404350 38,000 278 474 0
2021-09-22 15:44:05 GMT 49.718399 -10.375141 37,975 278 474 -64
2021-09-22 15:43:55 GMT 49.715607 -10.340881 38,000 278 475 -64
2021-09-22 15:43:53 GMT 49.715240 -10.336834 38,000 278 475 0
2021-09-22 15:43:44 GMT 49.712677 -10.305320 37,975 278 474 0
2021-09-22 15:43:42 GMT 49.712204 -10.299608 37,975 278 474 -64
2021-09-22 15:43:33 GMT 49.709702 -10.269037 38,000 278 474 0
2021-09-22 15:43:23 GMT 49.706909 -10.235499 38,000 278 474 0
2021-09-22 15:43:13 GMT 49.704117 -10.201312 37,975 278 474 0
2021-09-22 15:43:04 GMT 49.701683 -10.172152 38,000 278 474 0
2021-09-22 15:43:02 GMT 49.701309 -10.167476 38,000 278 474 0
2021-09-22 15:42:57 GMT 49.699635 -10.147284 37,975 278 475 0
2021-09-22 15:42:54 GMT 49.698990 -10.139586 37,975 278 475 0
2021-09-22 15:42:52 GMT 49.698517 -10.133848 37,975 278 475 0
2021-09-22 15:42:48 GMT 49.697159 -10.118119 37,975 278 475 0
2021-09-22 15:42:44 GMT 49.695465 -10.097953 38,000 278 475 -64
2021-09-22 15:42:34 GMT 49.693268 -10.071716 38,000 278 475 -64
2021-09-22 15:42:32 GMT 49.692810 -10.066368 38,000 278 476 -64
2021-09-22 15:42:21 GMT 49.689651 -10.028711 38,000 278 477 -64
2021-09-22 15:42:19 GMT 49.688873 -10.019965 38,000 278 477 -64
2021-09-22 15:42:13 GMT 49.687252 -10.000751 38,000 278 477 -64
2021-09-22 15:42:03 GMT 49.684387 -9.966768 38,000 278 477 0
2021-09-22 15:41:54 GMT 49.681824 -9.936411 38,000 278 477 0
2021-09-22 15:41:52 GMT 49.681229 -9.929689 37,975 278 477 0
2021-09-22 15:41:43 GMT 49.677795 -9.889285 37,975 278 477 0
2021-09-22 15:41:40 GMT 49.677795 -9.889285 37,975 278 477 0
2021-09-22 15:41:34 GMT 49.675941 -9.868098 37,975 278 477 0
2021-09-22 15:41:31 GMT 49.675194 -9.859339 38,000 278 477 0
2021-09-22 15:41:24 GMT 49.673080 -9.834137 37,975 278 477 -64
2021-09-22 15:41:22 GMT 49.672726 -9.830388 38,000 278 477 -64
2021-09-22 15:41:19 GMT 49.671799 -9.819320 38,000 278 477 -64
2021-09-22 15:41:14 GMT 49.670151 -9.800455 38,000 278 477 0
2021-09-22 15:41:11 GMT 49.669422 -9.792085 38,000 278 477 0
2021-09-22 15:41:04 GMT 49.667282 -9.767217 38,000 278 477 0
2021-09-22 15:41:02 GMT 49.664394 -9.733590 37,975 278 477 0
2021-09-22 15:40:54 GMT 49.664394 -9.733590 38,000 278 477 0
2021-09-22 15:40:50 GMT 49.663368 -9.722158 38,000 278 477 -64
2021-09-22 15:40:44 GMT 49.661362 -9.698904 38,000 278 476 -64
2021-09-22 15:40:40 GMT 49.660492 -9.688857 38,000 278 476 0
2021-09-22 15:40:34 GMT 49.658436 -9.665668 37,975 278 476 0
2021-09-22 15:40:31 GMT 49.657879 -9.658987 38,000 278 476 -64
2021-09-22 15:40:24 GMT 49.655502 -9.632115 38,000 278 476 0
2021-09-22 15:40:21 GMT 49.654804 -9.624098 38,000 278 476 0
2021-09-22 15:40:13 GMT 49.652527 -9.598292 37,975 278 475 0
2021-09-22 15:40:11 GMT 49.651871 -9.590545 38,000 278 475 -64
2021-09-22 15:40:01 GMT 49.648987 -9.557660 37,975 278 476 -64
2021-09-22 15:39:53 GMT 49.646576 -9.530567 37,975 278 476 0
2021-09-22 15:39:50 GMT 49.645660 -9.520448 37,975 278 476 0
2021-09-22 15:39:43 GMT 49.643555 -9.497030 37,975 278 476 -64
2021-09-22 15:39:41 GMT 49.642841 -9.488624 37,975 278 476 0
2021-09-22 15:39:33 GMT 49.640579 -9.463493 37,975 278 476 0
2021-09-22 15:39:30 GMT 49.639709 -9.453446 37,975 278 476 -64
2021-09-22 15:39:21 GMT 49.636826 -9.421210 37,975 278 476 0
2021-09-22 15:39:13 GMT 49.633713 -9.387022 37,975 278 476 0
2021-09-22 15:39:10 GMT 49.633713 -9.387022 38,000 278 476 -64
2021-09-22 15:39:03 GMT 49.631470 -9.362231 38,000 278 476 0
2021-09-22 15:38:59 GMT 49.630371 -9.350160 37,975 278 476 0
2021-09-22 15:38:53 GMT 49.628403 -9.328694 38,000 278 477 -64
2021-09-22 15:38:50 GMT 49.627384 -9.317594 38,000 278 477 -64
2021-09-22 15:38:43 GMT 49.625290 -9.294731 38,000 279 477 0
2021-09-22 15:38:39 GMT 49.624313 -9.283967 38,000 279 477 0
2021-09-22 15:38:33 GMT 49.622219 -9.261103 38,000 279 478 0
2021-09-22 15:38:28 GMT 49.620895 -9.246585 37,975 279 478 0
2021-09-22 15:38:23 GMT 49.619144 -9.227328 37,975 279 479 -64
2021-09-22 15:38:20 GMT 49.618240 -9.217529 37,975 279 480 0
2021-09-22 15:38:12 GMT 49.615860 -9.191148 37,975 278 481 -64
2021-09-22 15:38:10 GMT 49.615082 -9.183052 37,975 278 481 -64
2021-09-22 15:38:03 GMT 49.612766 -9.157624 38,000 279 481 -64
2021-09-22 15:37:59 GMT 49.611603 -9.145376 37,975 279 482 -64
2021-09-22 15:37:53 GMT 49.609634 -9.124001 38,000 279 482 0
2021-09-22 15:37:50 GMT 49.608765 -9.114460 38,000 279 483 0
2021-09-22 15:37:42 GMT 49.606392 -9.088960 38,000 279 483 0
2021-09-22 15:37:40 GMT 49.605598 -9.080794 37,975 279 483 64
2021-09-22 15:37:32 GMT 49.603176 -9.054887 38,000 279 484 0
2021-09-22 15:37:29 GMT 49.602310 -9.045651 37,975 279 485 -64
2021-09-22 15:37:23 GMT 49.600060 -9.021408 38,000 279 485 -64
2021-09-22 15:37:18 GMT 49.598648 -9.006042 37,975 279 486 0
2021-09-22 15:37:11 GMT 49.596725 -8.985515 38,000 279 486 0
2021-09-22 15:37:09 GMT 49.595764 -8.975252 38,000 279 487 -64
2021-09-22 15:37:02 GMT 49.593540 -8.951556 37,975 279 488 -64
2021-09-22 15:36:59 GMT 49.592606 -8.941642 37,975 279 488 0
2021-09-22 15:36:52 GMT 49.589310 -8.906660 38,000 279 488 0
2021-09-22 15:36:49 GMT 49.589310 -8.906660 37,975 279 488 0
2021-09-22 15:36:42 GMT 49.587070 -8.882966 38,000 279 488 64
2021-09-22 15:36:38 GMT 49.585953 -8.870569 37,975 279 488 64
2021-09-22 15:36:32 GMT 49.583858 -8.848597 37,975 279 488 -64
2021-09-22 15:36:28 GMT 49.582718 -8.836622 37,975 279 488 -64
2021-09-22 15:36:22 GMT 49.580692 -8.814969 37,975 279 488 -64
2021-09-22 15:36:18 GMT 49.579437 -8.801905 37,975 279 488 -64
2021-09-22 15:36:12 GMT 49.577408 -8.780317 38,000 279 488 -64
2021-09-22 15:36:09 GMT 49.576218 -8.767957 37,975 279 488 -64
2021-09-22 15:36:03 GMT 49.574295 -8.748081 37,975 279 488 -64
2021-09-22 15:35:58 GMT 49.572872 -8.733389 38,000 279 487 0
2021-09-22 15:35:52 GMT 49.570679 -8.710424 38,000 279 487 0
2021-09-22 15:35:48 GMT 49.569427 -8.697757 37,975 279 487 -64
2021-09-22 15:35:41 GMT 49.567154 -8.674140 37,975 279 488 0
2021-09-22 15:35:38 GMT 49.566055 -8.662503 37,975 279 488 0
2021-09-22 15:35:32 GMT 49.564075 -8.642306 38,000 279 488 0
2021-09-22 15:35:28 GMT 49.562805 -8.628893 37,975 279 488 0
2021-09-22 15:35:21 GMT 49.560562 -8.605620 37,975 279 488 -64
2021-09-22 15:35:15 GMT 49.558163 -8.581287 37,975 279 487 0
2021-09-22 15:35:12 GMT 49.557369 -8.573048 38,000 279 488 0
2021-09-22 15:35:08 GMT 49.556213 -8.561096 38,000 279 487 0
2021-09-22 15:35:01 GMT 49.553833 -8.537100 37,975 279 488 -64
2021-09-22 15:34:58 GMT 49.552715 -8.525836 37,975 279 488 64
2021-09-22 15:34:51 GMT 49.550354 -8.501466 38,000 279 488 0
2021-09-22 15:34:47 GMT 49.549038 -8.488126 38,000 279 488 0
2021-09-22 15:34:41 GMT 49.547424 -8.472049 37,975 279 488 -64
2021-09-22 15:34:38 GMT 49.546013 -8.457246 38,000 279 488 -64
2021-09-22 15:34:32 GMT 49.544128 -8.438440 38,000 279 489 0
2021-09-22 15:34:30 GMT 49.543312 -8.429854 38,000 279 489 0
2021-09-22 15:34:27 GMT 49.542526 -8.421960 38,000 279 489 -64
2021-09-22 15:34:22 GMT 49.540512 -8.401361 38,000 279 489 0
2021-09-22 15:34:17 GMT 49.539169 -8.387987 37,975 279 489 0
2021-09-22 15:34:11 GMT 49.536980 -8.366015 38,000 279 489 0
2021-09-22 15:34:07 GMT 49.533600 -8.332046 37,975 279 490 0
2021-09-22 15:34:01 GMT 49.533600 -8.332046 38,000 279 489 -64
2021-09-22 15:33:52 GMT 49.530277 -8.298686 38,000 279 490 -64
2021-09-22 15:33:47 GMT 49.528694 -8.282875 38,000 279 490 0
2021-09-22 15:33:42 GMT 49.526825 -8.263959 38,000 279 490 0
2021-09-22 15:33:35 GMT 49.524673 -8.242637 38,000 279 490 0
2021-09-22 15:33:32 GMT 49.523346 -8.229555 37,975 279 490 0
2021-09-22 15:33:21 GMT 49.519913 -8.195150 37,975 279 491 0
2021-09-22 15:33:15 GMT 49.517570 -8.172121 37,975 279 491 0
2021-09-22 15:33:11 GMT 49.516403 -8.160392 37,975 279 491 0
2021-09-22 15:33:07 GMT 49.514820 -8.144507 37,975 279 490 0
2021-09-22 15:33:01 GMT 49.512913 -8.125949 37,975 280 491 0
2021-09-22 15:32:51 GMT 49.509247 -8.091214 37,975 280 491 -64
2021-09-22 15:32:46 GMT 49.507515 -8.073689 38,000 278 490 0
2021-09-22 15:32:41 GMT 49.505093 -8.046743 38,000 278 490 0
2021-09-22 15:32:36 GMT 49.504581 -8.040582 37,975 277 490 0
2021-09-22 15:32:31 GMT 49.503231 -8.022543 37,975 277 490 0
2021-09-22 15:32:26 GMT 49.502113 -8.005322 38,000 276 489 0
2021-09-22 15:32:21 GMT 49.501087 -7.986615 37,975 275 490 -64
2021-09-22 15:32:15 GMT 49.500206 -7.967909 37,975 273 489 -64
2021-09-22 15:32:11 GMT 49.499645 -7.952617 37,975 273 489 -64
2021-09-22 15:32:05 GMT 49.499134 -7.933242 38,000 272 489 0
2021-09-22 15:32:01 GMT 49.498901 -7.917951 38,000 272 489 -64
2021-09-22 15:31:55 GMT 49.498623 -7.898576 38,000 272 488 0
2021-09-22 15:31:51 GMT 49.498390 -7.883284 38,000 272 489 0
2021-09-22 15:31:46 GMT 49.498169 -7.865633 38,000 272 488 0
2021-09-22 15:31:41 GMT 49.497875 -7.847282 37,975 272 488 0
2021-09-22 15:31:35 GMT 49.497643 -7.829986 38,000 272 488 0
2021-09-22 15:31:31 GMT 49.497364 -7.812690 37,975 272 488 -64
2021-09-22 15:31:25 GMT 49.497070 -7.794366 38,000 272 488 0
2021-09-22 15:31:21 GMT 49.496853 -7.778840 38,000 272 488 -64
2021-09-22 15:31:11 GMT 49.496292 -7.744566 37,975 272 488 0
2021-09-22 15:31:01 GMT 49.495743 -7.708572 37,975 272 488 64
2021-09-22 15:30:54 GMT 49.495422 -7.688478 37,975 272 488 0
2021-09-22 15:30:50 GMT 49.495178 -7.673579 37,975 272 489 -64
2021-09-22 15:30:45 GMT 49.494900 -7.656951 38,000 272 489 0
2021-09-22 15:30:40 GMT 49.494572 -7.638245 38,000 272 489 -64
2021-09-22 15:30:35 GMT 49.494003 -7.602539 37,975 272 489 0
2021-09-22 15:30:30 GMT 49.494003 -7.602539 37,975 272 489 -64
2021-09-22 15:30:25 GMT 49.493729 -7.585915 37,975 272 489 0
2021-09-22 15:30:20 GMT 49.493454 -7.567918 37,975 272 489 0
2021-09-22 15:30:11 GMT 49.492943 -7.537735 38,000 272 489 -64
2021-09-22 15:30:09 GMT 49.492813 -7.532573 38,000 272 489 -64
2021-09-22 15:30:00 GMT 49.492264 -7.499325 37,975 272 489 -64
2021-09-22 15:29:54 GMT 49.491920 -7.480279 38,000 272 488 -64
2021-09-22 15:29:50 GMT 49.491623 -7.463331 37,975 272 488 0
2021-09-22 15:29:45 GMT 49.491268 -7.446355 37,975 272 488 0
2021-09-22 15:29:40 GMT 49.490982 -7.429432 37,975 272 488 0
2021-09-22 15:29:34 GMT 49.490616 -7.411095 37,975 272 488 0
2021-09-22 15:29:31 GMT 49.490250 -7.390691 37,975 272 487 -64
2021-09-22 15:29:25 GMT 49.489975 -7.376886 37,975 272 487 0
2021-09-22 15:29:21 GMT 49.489731 -7.364106 38,000 272 487 -64
2021-09-22 15:29:13 GMT 49.489220 -7.338570 38,000 272 487 -64
2021-09-22 15:29:10 GMT 49.488937 -7.324763 38,000 272 487 -64
2021-09-22 15:29:00 GMT 49.488281 -7.290585 38,000 272 486 -64
2021-09-22 15:28:56 GMT 49.488052 -7.278153 37,975 272 486 0
2021-09-22 15:28:53 GMT 49.487869 -7.268198 37,975 272 486 0
2021-09-22 15:28:50 GMT 49.487595 -7.254735 38,000 272 486 0
2021-09-22 15:28:44 GMT 49.487274 -7.237533 38,000 272 485 -64
2021-09-22 15:28:40 GMT 49.486938 -7.220690 38,000 272 485 0
2021-09-22 15:28:34 GMT 49.486610 -7.203468 37,975 272 485 0
2021-09-22 15:28:30 GMT 49.486286 -7.186989 37,975 272 485 0
2021-09-22 15:28:24 GMT 49.485867 -7.167763 37,975 272 485 0
2021-09-22 15:28:20 GMT 49.485535 -7.152244 38,000 272 485 -64
2021-09-22 15:28:14 GMT 49.485123 -7.132368 37,975 272 485 -64
2021-09-22 15:28:10 GMT 49.484844 -7.117582 37,975 272 485 -64
2021-09-22 15:28:06 GMT 49.484528 -7.103456 38,000 272 485 0
2021-09-22 15:27:59 GMT 49.484097 -7.082470 37,975 272 485 -64
2021-09-22 15:27:53 GMT 49.483681 -7.062576 38,000 272 485 -64
2021-09-22 15:27:49 GMT 49.483337 -7.047079 38,000 272 485 -64
2021-09-22 15:27:44 GMT 49.482933 -7.028132 38,000 272 485 0
2021-09-22 15:27:39 GMT 49.482655 -7.014399 37,975 272 485 0
2021-09-22 15:27:33 GMT 49.482189 -6.993763 37,975 272 485 0
2021-09-22 15:27:30 GMT 49.482002 -6.983445 37,975 272 485 0
2021-09-22 15:27:28 GMT 49.481827 -6.976246 38,000 272 485 0
2021-09-22 15:27:23 GMT 49.481461 -6.959044 38,000 273 485 0
2021-09-22 15:27:19 GMT 49.481117 -6.944250 38,000 273 485 0
2021-09-22 15:27:13 GMT 49.480652 -6.922871 38,000 273 486 0
2021-09-22 15:27:09 GMT 49.480362 -6.910184 37,975 273 486 0
2021-09-22 15:27:03 GMT 49.479858 -6.889512 37,975 273 486 -64
2021-09-22 15:26:59 GMT 49.479584 -6.876031 38,000 273 486 0
2021-09-22 15:26:53 GMT 49.479069 -6.856063 37,975 273 486 0
2021-09-22 15:26:49 GMT 49.478745 -6.841587 37,975 272 487 0
2021-09-22 15:26:43 GMT 49.478256 -6.820558 37,975 272 487 -64
2021-09-22 15:26:39 GMT 49.477432 -6.785359 38,000 272 487 0
2021-09-22 15:26:33 GMT 49.477432 -6.785359 38,000 273 487 -64
2021-09-22 15:26:29 GMT 49.477116 -6.771215 38,000 273 487 0
2021-09-22 15:26:22 GMT 49.476555 -6.749169 37,975 273 487 0
2021-09-22 15:26:19 GMT 49.476288 -6.737799 37,975 273 487 0
2021-09-22 15:26:15 GMT 49.475922 -6.724645 37,975 273 487 0
2021-09-22 15:26:12 GMT 49.475693 -6.714309 38,000 273 487 -64
2021-09-22 15:26:08 GMT 49.475281 -6.697757 38,000 273 487 -64
2021-09-22 15:26:02 GMT 49.474789 -6.678722 38,000 273 487 0
2021-09-22 15:25:59 GMT 49.474506 -6.667736 37,975 273 487 0
2021-09-22 15:25:52 GMT 49.473995 -6.646283 38,000 273 487 -64
2021-09-22 15:25:49 GMT 49.473625 -6.632476 38,000 273 487 0
2021-09-22 15:25:42 GMT 49.473083 -6.610734 38,000 273 487 -64
2021-09-22 15:25:39 GMT 49.472786 -6.597958 37,975 273 488 -64
2021-09-22 15:25:33 GMT 49.472260 -6.578281 37,975 273 488 -64
2021-09-22 15:25:30 GMT 49.471947 -6.566187 38,000 273 488 -64
2021-09-22 15:25:28 GMT 49.471809 -6.561288 38,000 273 488 0
2021-09-22 15:25:22 GMT 49.471294 -6.541245 37,975 273 488 0
2021-09-22 15:25:19 GMT 49.470337 -6.505641 38,000 273 488 -64
2021-09-22 15:25:12 GMT 49.470337 -6.505641 38,000 273 488 -64
2021-09-22 15:25:08 GMT 49.469994 -6.492178 37,975 273 488 0
2021-09-22 15:25:03 GMT 49.469433 -6.471467 37,975 273 488 0
2021-09-22 15:24:59 GMT 49.469109 -6.459738 38,000 273 488 -64
2021-09-22 15:24:52 GMT 49.468552 -6.437265 37,975 273 488 0
2021-09-22 15:24:49 GMT 49.468277 -6.425484 37,975 273 488 -64
2021-09-22 15:24:42 GMT 49.467590 -6.401994 37,975 273 488 0
2021-09-22 15:24:39 GMT 49.467247 -6.389886 38,000 273 488 -64
2021-09-22 15:24:32 GMT 49.466640 -6.367765 38,000 273 488 0
2021-09-22 15:24:29 GMT 49.466354 -6.357759 38,000 273 488 -64
2021-09-22 15:24:22 GMT 49.465622 -6.332173 38,000 273 490 0
2021-09-22 15:24:18 GMT 49.465302 -6.320391 37,975 273 489 0
2021-09-22 15:24:12 GMT 49.464752 -6.299647 37,975 273 489 64
2021-09-22 15:24:09 GMT 49.464455 -6.288188 37,975 273 489 64
2021-09-22 15:24:07 GMT 49.463699 -6.262207 38,000 273 489 -64
2021-09-22 15:24:02 GMT 49.463699 -6.262207 37,975 273 489 -64
2021-09-22 15:23:58 GMT 49.463383 -6.250775 38,000 273 489 0
2021-09-22 15:23:54 GMT 49.462967 -6.236548 37,975 273 489 -64
2021-09-22 15:23:52 GMT 49.462738 -6.228959 38,000 273 490 -64
2021-09-22 15:23:49 GMT 49.462418 -6.218551 37,975 273 490 -64
2021-09-22 15:23:47 GMT 49.462219 -6.211284 38,000 273 490 0
2021-09-22 15:23:43 GMT 49.461823 -6.198385 37,975 273 490 -64
2021-09-22 15:23:40 GMT 49.461548 -6.188700 37,975 273 490 -64
2021-09-22 15:23:37 GMT 49.461136 -6.174822 37,975 273 490 0
2021-09-22 15:23:32 GMT 49.460403 -6.149449 38,000 273 490 0
2021-09-22 15:23:29 GMT 49.460403 -6.149449 38,000 273 490 0
2021-09-22 15:23:21 GMT 49.459579 -6.121336 37,975 273 490 -64
2021-09-22 15:23:18 GMT 49.459332 -6.111293 38,000 273 490 0
2021-09-22 15:23:11 GMT 49.458435 -6.081800 37,975 273 490 0
2021-09-22 15:23:08 GMT 49.458260 -6.076627 37,975 273 490 0
2021-09-22 15:23:02 GMT 49.457657 -6.055418 38,000 273 490 -64
2021-09-22 15:22:58 GMT 49.457191 -6.041219 37,975 273 490 0
2021-09-22 15:22:51 GMT 49.456146 -6.006847 37,975 273 490 -64
2021-09-22 15:22:48 GMT 49.456146 -6.006847 38,000 273 490 -64
2021-09-22 15:22:41 GMT 49.455368 -5.981911 38,000 273 490 -64
2021-09-22 15:22:38 GMT 49.455048 -5.970780 38,000 273 490 0
2021-09-22 15:22:31 GMT 49.454445 -5.950284 38,000 273 490 -64
2021-09-22 15:22:28 GMT 49.454041 -5.936737 38,000 273 490 -64
2021-09-22 15:22:21 GMT 49.453262 -5.912451 38,000 273 490 0
2021-09-22 15:22:18 GMT 49.452953 -5.901737 38,000 273 489 -64
2021-09-22 15:22:12 GMT 49.452305 -5.881620 38,000 273 489 64
2021-09-22 15:22:08 GMT 49.451885 -5.867738 37,975 273 489 0
2021-09-22 15:22:02 GMT 49.451202 -5.846606 38,000 273 489 0
2021-09-22 15:21:58 GMT 49.450699 -5.832078 37,975 273 489 0
2021-09-22 15:21:52 GMT 49.450069 -5.811693 37,975 273 489 0
2021-09-22 15:21:48 GMT 49.449604 -5.797812 38,000 273 489 0
2021-09-22 15:21:41 GMT 49.448868 -5.775990 38,000 273 489 64
2021-09-22 15:21:38 GMT 49.448456 -5.762835 38,000 273 489 0
2021-09-22 15:21:32 GMT 49.447769 -5.741368 38,000 273 489 0
2021-09-22 15:21:28 GMT 49.447266 -5.727491 37,975 273 489 64
2021-09-22 15:21:21 GMT 49.446575 -5.706358 37,975 274 489 0
2021-09-22 15:21:18 GMT 49.446110 -5.693219 38,000 274 489 0
2021-09-22 15:21:11 GMT 49.444901 -5.657142 38,000 273 490 0
2021-09-22 15:21:07 GMT 49.444901 -5.657142 37,975 273 490 0
2021-09-22 15:21:01 GMT 49.444244 -5.636709 38,000 273 490 0
2021-09-22 15:20:58 GMT 49.443787 -5.623482 37,975 273 491 -64
2021-09-22 15:20:50 GMT 49.442898 -5.597460 37,975 274 491 -64
2021-09-22 15:20:47 GMT 49.442528 -5.586325 37,975 274 491 -64
2021-09-22 15:20:41 GMT 49.441864 -5.567177 37,975 274 491 -64
2021-09-22 15:20:37 GMT 49.441315 -5.551204 38,000 274 491 -64
2021-09-22 15:20:31 GMT 49.440674 -5.532411 37,975 274 491 -64
2021-09-22 15:20:28 GMT 49.440216 -5.519907 38,000 274 491 -64
2021-09-22 15:20:26 GMT 49.440033 -5.514269 38,000 274 491 0
2021-09-22 15:20:21 GMT 49.439438 -5.497573 37,975 274 491 -64
2021-09-22 15:20:18 GMT 49.438797 -5.478853 37,975 274 491 -64
2021-09-22 15:20:11 GMT 49.438202 -5.462084 38,000 274 491 64
2021-09-22 15:20:08 GMT 49.437778 -5.449961 38,000 274 491 0
2021-09-22 15:20:06 GMT 49.437546 -5.442983 38,000 274 491 0
2021-09-22 15:20:01 GMT 49.436939 -5.426355 37,975 274 491 64
2021-09-22 15:19:57 GMT 49.436291 -5.407575 38,000 274 491 64
2021-09-22 15:19:51 GMT 49.435730 -5.391902 37,975 274 490 64
2021-09-22 15:19:48 GMT 49.435318 -5.380843 38,000 274 491 0
2021-09-22 15:19:46 GMT 49.434566 -5.360363 37,975 274 491 0
2021-09-22 15:19:42 GMT 49.434566 -5.360363 38,000 274 491 0
2021-09-22 15:19:39 GMT 49.434147 -5.349228 38,000 274 491 -64
2021-09-22 15:19:37 GMT 49.433945 -5.343981 37,975 274 491 0
2021-09-22 15:19:35 GMT 49.433777 -5.338762 37,975 274 491 0
2021-09-22 15:19:31 GMT 49.433170 -5.322134 38,000 274 491 0
2021-09-22 15:19:27 GMT 49.432564 -5.306174 38,000 274 491 0
2021-09-22 15:19:24 GMT 49.432114 -5.293965 38,000 274 491 0
2021-09-22 15:19:21 GMT 49.431866 -5.287393 38,000 274 491 -64
2021-09-22 15:19:17 GMT 49.431355 -5.274180 38,000 274 491 0
2021-09-22 15:19:15 GMT 49.431213 -5.269281 37,975 274 491 0
2021-09-22 15:19:10 GMT 49.430565 -5.251910 37,975 274 491 0
2021-09-22 15:19:07 GMT 49.429817 -5.232461 38,000 274 491 0
2021-09-22 15:19:05 GMT 49.429817 -5.232461 37,975 274 491 0
2021-09-22 15:19:02 GMT 49.429443 -5.221327 38,000 274 491 -64
2021-09-22 15:19:00 GMT 49.429276 -5.217494 38,000 274 491 -64
2021-09-22 15:18:56 GMT 49.428726 -5.202894 38,000 274 491 -64
2021-09-22 15:18:54 GMT 49.428421 -5.194900 37,975 274 491 -64
2021-09-22 15:18:51 GMT 49.428001 -5.183097 37,975 274 491 -64
2021-09-22 15:18:47 GMT 49.427444 -5.167766 37,975 274 491 -64
2021-09-22 15:18:44 GMT 49.427162 -5.160828 38,000 274 491 -64
2021-09-22 15:18:40 GMT 49.426701 -5.147601 37,975 274 490 0
2021-09-22 15:18:37 GMT 49.425980 -5.128502 37,975 274 490 0
2021-09-22 15:18:32 GMT 49.425430 -5.115333 37,975 274 490 0
2021-09-22 15:18:28 GMT 49.424423 -5.089628 38,000 274 490 0
2021-09-22 15:18:25 GMT 49.424423 -5.089628 37,975 274 490 0
2021-09-22 15:18:21 GMT 49.423965 -5.078571 38,000 274 490 -64
2021-09-22 15:18:16 GMT 49.423393 -5.062963 38,000 274 490 -64
2021-09-22 15:18:13 GMT 49.423019 -5.053928 37,975 274 490 -64
2021-09-22 15:18:10 GMT 49.422508 -5.041424 37,975 274 490 -64
2021-09-22 15:18:07 GMT 49.422134 -5.031316 38,000 274 490 -64
2021-09-22 15:18:05 GMT 49.421810 -5.022631 37,975 274 490 -64
2021-09-22 15:18:02 GMT 49.421448 -5.013991 38,000 274 491 0
2021-09-22 15:18:00 GMT 49.421253 -5.008754 38,000 274 491 -64
2021-09-22 15:17:56 GMT 49.420414 -4.987215 38,000 274 491 0
2021-09-22 15:17:54 GMT 49.420414 -4.987215 38,000 274 491 0
2021-09-22 15:17:50 GMT 49.419891 -4.973708 38,000 274 491 0
2021-09-22 15:17:47 GMT 49.419434 -4.961877 37,975 274 491 0
2021-09-22 15:17:45 GMT 49.419022 -4.952158 38,000 274 491 0
2021-09-22 15:17:42 GMT 49.418747 -4.945256 38,000 274 491 0
2021-09-22 15:17:40 GMT 49.418461 -4.937921 37,975 274 491 0
2021-09-22 15:17:37 GMT 49.418041 -4.926862 37,975 274 491 -64
2021-09-22 15:17:35 GMT 49.417831 -4.921593 38,000 274 491 0
2021-09-22 15:17:32 GMT 49.417343 -4.909443 37,975 274 491 0
2021-09-22 15:17:30 GMT 49.417110 -4.903878 38,000 274 491 0
2021-09-22 15:17:27 GMT 49.416550 -4.890723 38,000 274 491 0
2021-09-22 15:17:25 GMT 49.415897 -4.874677 38,000 274 491 -64
2021-09-22 15:17:22 GMT 49.415897 -4.874677 38,000 274 491 -64
2021-09-22 15:17:20 GMT 49.415634 -4.868070 38,000 274 491 -64
2021-09-22 15:17:17 GMT 49.414993 -4.851379 37,975 274 491 0
2021-09-22 15:17:13 GMT 49.414642 -4.842730 37,975 274 491 0
2021-09-22 15:17:10 GMT 49.414223 -4.832972 37,975 274 491 0
2021-09-22 15:17:07 GMT 49.413757 -4.821119 37,975 274 491 -64
2021-09-22 15:17:05 GMT 49.413570 -4.816999 38,000 274 492 -64
2021-09-22 15:17:03 GMT 49.413200 -4.807892 38,000 274 492 -64
2021-09-22 15:17:00 GMT 49.412842 -4.799194 38,000 274 492 -64
2021-09-22 15:16:57 GMT 49.412384 -4.788067 38,000 274 492 0
2021-09-22 15:16:53 GMT 49.411339 -4.762718 38,000 274 492 0
2021-09-22 15:16:50 GMT 49.411339 -4.762718 38,000 274 492 0
2021-09-22 15:16:46 GMT 49.410782 -4.749122 38,000 274 492 0
2021-09-22 15:16:44 GMT 49.410404 -4.740384 38,000 274 493 0
2021-09-22 15:16:40 GMT 49.409912 -4.728206 37,975 274 493 0
2021-09-22 15:16:37 GMT 49.409428 -4.717399 38,000 274 493 0
2021-09-22 15:16:35 GMT 49.409195 -4.711183 38,000 274 493 0
2021-09-22 15:16:33 GMT 49.408916 -4.704895 37,975 274 493 0
2021-09-22 15:16:30 GMT 49.408493 -4.695458 38,000 274 494 -64
2021-09-22 15:16:27 GMT 49.407669 -4.675950 37,975 274 494 0
2021-09-22 15:16:25 GMT 49.407669 -4.675950 38,000 274 494 -64
2021-09-22 15:16:23 GMT 49.407349 -4.668274 38,000 274 494 64
2021-09-22 15:16:20 GMT 49.406914 -4.658131 38,000 274 494 0
2021-09-22 15:16:16 GMT 49.406342 -4.643836 38,000 274 495 -64
2021-09-22 15:16:13 GMT 49.406029 -4.636520 38,000 274 495 -64
2021-09-22 15:16:11 GMT 49.405655 -4.627779 38,000 274 495 -64
2021-09-22 15:16:08 GMT 49.405285 -4.619028 38,000 274 495 -64
2021-09-22 15:16:05 GMT 49.404739 -4.606088 38,000 274 495 0
2021-09-22 15:16:01 GMT 49.403889 -4.586864 38,000 274 496 -64
2021-09-22 15:15:56 GMT 49.403378 -4.574288 37,975 274 496 -64
2021-09-22 15:15:54 GMT 49.402679 -4.557847 38,000 274 496 -64
2021-09-22 15:15:51 GMT 49.402679 -4.557847 37,975 274 496 0
2021-09-22 15:15:49 GMT 49.402397 -4.551159 38,000 274 496 -64
2021-09-22 15:15:46 GMT 49.401855 -4.538903 37,950 274 496 0
2021-09-22 15:15:43 GMT 49.401375 -4.528752 38,000 274 496 0
2021-09-22 15:15:40 GMT 49.400940 -4.518550 38,000 274 497 0
2021-09-22 15:15:37 GMT 49.400444 -4.506997 38,000 274 497 -64
2021-09-22 15:15:35 GMT 49.400303 -4.503527 38,000 274 497 0
2021-09-22 15:15:32 GMT 49.399841 -4.492634 37,975 274 497 0
2021-09-22 15:15:30 GMT 49.399521 -4.485591 37,975 274 497 0
2021-09-22 15:15:27 GMT 49.398926 -4.472281 38,000 274 498 0
2021-09-22 15:15:25 GMT 49.398285 -4.458196 37,975 274 498 0
2021-09-22 15:15:23 GMT 49.398285 -4.458196 38,000 274 498 -64
2021-09-22 15:15:20 GMT 49.397873 -4.449040 38,000 274 498 -64
2021-09-22 15:15:17 GMT 49.397415 -4.438547 38,000 274 498 0
2021-09-22 15:15:14 GMT 49.396957 -4.427983 37,975 274 498 0
2021-09-22 15:15:11 GMT 49.396454 -4.416715 37,975 274 498 0
2021-09-22 15:15:05 GMT 49.395554 -4.396627 37,975 274 498 -64
2021-09-22 15:15:01 GMT 49.394806 -4.379390 37,975 274 498 -64
2021-09-22 15:14:57 GMT 49.394302 -4.367488 37,975 274 498 -64
2021-09-22 15:14:54 GMT 49.393787 -4.356585 38,000 274 498 0
2021-09-22 15:14:51 GMT 49.392609 -4.330233 37,975 274 498 -64
2021-09-22 15:14:47 GMT 49.392609 -4.330233 37,975 274 498 0
2021-09-22 15:14:44 GMT 49.392242 -4.321782 38,000 274 498 -64
2021-09-22 15:14:40 GMT 49.391647 -4.309106 38,000 274 498 0
2021-09-22 15:14:35 GMT 49.390762 -4.289800 38,000 275 498 -64
2021-09-22 15:14:33 GMT 49.390530 -4.284162 37,975 275 498 0
2021-09-22 15:14:30 GMT 49.390045 -4.273963 38,000 275 498 0
2021-09-22 15:14:28 GMT 49.389179 -4.255323 37,975 275 498 0
2021-09-22 15:14:25 GMT 49.388664 -4.244120 38,000 275 498 0
2021-09-22 15:14:22 GMT 49.388664 -4.244120 37,975 275 498 0
2021-09-22 15:14:19 GMT 49.388248 -4.234940 37,975 275 498 0
2021-09-22 15:14:15 GMT 49.387547 -4.219473 37,975 275 498 0
2021-09-22 15:14:13 GMT 49.387253 -4.213539 37,975 275 498 0
2021-09-22 15:14:09 GMT 49.386658 -4.200158 37,975 275 498 0
2021-09-22 15:14:05 GMT 49.385971 -4.185368 37,975 275 498 0
2021-09-22 15:14:03 GMT 49.385593 -4.177334 37,975 275 498 0
2021-09-22 15:13:59 GMT 49.384872 -4.162199 38,000 275 498 -64
2021-09-22 15:13:56 GMT 49.384476 -4.153410 37,975 275 498 0
2021-09-22 15:13:54 GMT 49.384106 -4.145676 37,975 275 498 0
2021-09-22 15:13:51 GMT 49.383732 -4.137943 38,000 275 498 0
2021-09-22 15:13:48 GMT 49.383125 -4.125294 37,975 275 498 0
2021-09-22 15:13:45 GMT 49.382263 -4.106704 37,975 275 498 0
2021-09-22 15:13:40 GMT 49.381729 -4.095804 38,000 275 498 0
2021-09-22 15:13:37 GMT 49.381355 -4.087348 38,000 275 498 -64
2021-09-22 15:13:35 GMT 49.380657 -4.072603 37,975 275 498 -64
2021-09-22 15:13:30 GMT 49.379681 -4.052148 37,975 275 498 -64
2021-09-22 15:13:24 GMT 49.379196 -4.041983 38,000 275 498 -64
2021-09-22 15:13:21 GMT 49.378693 -4.031419 38,000 275 498 -64
2021-09-22 15:13:18 GMT 49.378239 -4.021936 38,000 275 498 0
2021-09-22 15:13:15 GMT 49.376888 -3.993819 38,000 275 498 0
2021-09-22 15:13:12 GMT 49.376888 -3.993819 37,975 275 498 0
2021-09-22 15:13:09 GMT 49.376587 -3.987826 38,000 275 498 -64
2021-09-22 15:13:07 GMT 49.376221 -3.980079 37,975 275 498 -64
2021-09-22 15:13:05 GMT 49.375816 -3.971991 37,975 275 498 -64
2021-09-22 15:13:02 GMT 49.375584 -3.967076 37,975 275 498 64
2021-09-22 15:13:00 GMT 49.375118 -3.957246 38,000 275 498 -64
2021-09-22 15:12:58 GMT 49.374699 -3.948790 38,000 275 498 -64
2021-09-22 15:12:54 GMT 49.374161 -3.937190 37,975 275 498 64
2021-09-22 15:12:52 GMT 49.373611 -3.925922 38,000 275 498 0
2021-09-22 15:12:49 GMT 49.373154 -3.916767 38,000 275 498 0
2021-09-22 15:12:46 GMT 49.372742 -3.908316 38,000 275 498 0
2021-09-22 15:12:43 GMT 49.372234 -3.897472 38,000 275 498 -64
2021-09-22 15:12:41 GMT 49.371117 -3.874921 38,000 275 498 -64
2021-09-22 15:12:38 GMT 49.371117 -3.874921 37,975 275 498 -64
2021-09-22 15:12:33 GMT 49.370544 -3.864018 37,975 275 498 0
2021-09-22 15:12:31 GMT 49.369671 -3.846082 37,975 275 498 0
2021-09-22 15:12:29 GMT 49.369671 -3.846082 38,000 275 499 0
2021-09-22 15:12:25 GMT 49.369125 -3.834510 38,000 275 499 0
2021-09-22 15:12:22 GMT 49.368530 -3.822538 38,000 275 499 0
2021-09-22 15:12:19 GMT 49.368092 -3.813701 38,000 275 499 0
2021-09-22 15:12:17 GMT 49.367764 -3.807413 37,975 275 499 0
2021-09-22 15:12:13 GMT 49.366974 -3.791873 37,975 275 499 0
2021-09-22 15:12:11 GMT 49.366508 -3.782766 38,000 275 500 -64
2021-09-22 15:12:08 GMT 49.365875 -3.770423 38,000 275 500 -64
2021-09-22 15:12:03 GMT 49.365143 -3.755564 37,975 275 500 -64
2021-09-22 15:12:01 GMT 49.364784 -3.748145 38,000 275 500 -64
2021-09-22 15:11:59 GMT 49.364456 -3.741479 37,975 275 500 -64
2021-09-22 15:11:57 GMT 49.364136 -3.735070 38,000 275 500 -64
2021-09-22 15:11:54 GMT 49.363495 -3.723098 38,000 275 501 0
2021-09-22 15:11:52 GMT 49.363312 -3.719576 38,000 275 501 0
2021-09-22 15:11:50 GMT 49.362877 -3.710705 37,975 275 501 0
2021-09-22 15:11:47 GMT 49.362411 -3.701525 37,975 275 501 -64
2021-09-22 15:11:44 GMT 49.361755 -3.688448 38,000 275 501 0
2021-09-22 15:11:42 GMT 49.361431 -3.681721 38,000 275 501 -64
2021-09-22 15:11:39 GMT 49.360886 -3.671476 38,000 275 502 0
2021-09-22 15:11:37 GMT 49.359879 -3.651686 38,000 275 502 0
2021-09-22 15:11:33 GMT 49.359100 -3.635418 38,000 275 502 -64
2021-09-22 15:11:29 GMT 49.359100 -3.635418 38,000 275 502 0
2021-09-22 15:11:27 GMT 49.358734 -3.628669 38,000 275 502 0
2021-09-22 15:11:24 GMT 49.358128 -3.616598 38,000 275 502 0
2021-09-22 15:11:22 GMT 49.357708 -3.608864 37,975 275 502 -64
2021-09-22 15:11:18 GMT 49.356995 -3.594994 38,000 275 502 -64
2021-09-22 15:11:16 GMT 49.356079 -3.577317 37,975 275 502 -64
2021-09-22 15:11:13 GMT 49.356079 -3.577317 38,000 275 502 -64
2021-09-22 15:11:08 GMT 49.355289 -3.562100 37,975 275 502 0
2021-09-22 15:11:06 GMT 49.354263 -3.542946 37,975 275 502 -64
2021-09-22 15:11:03 GMT 49.354263 -3.542946 38,000 275 502 -64
2021-09-22 15:10:59 GMT 49.353516 -3.528442 38,000 275 502 -64
2021-09-22 15:10:54 GMT 49.352589 -3.511071 37,975 275 502 0
2021-09-22 15:10:51 GMT 49.352051 -3.500836 38,000 275 502 0
2021-09-22 15:10:48 GMT 49.351562 -3.491918 38,000 275 503 -64
2021-09-22 15:10:46 GMT 49.351089 -3.483089 38,000 275 503 -64
2021-09-22 15:10:43 GMT 49.350121 -3.464958 37,975 275 503 -64
2021-09-22 15:10:41 GMT 49.349701 -3.456429 38,000 275 505 0
2021-09-22 15:10:38 GMT 49.349213 -3.447594 38,000 275 504 0
2021-09-22 15:10:36 GMT 49.349213 -3.447594 38,000 275 504 0
2021-09-22 15:10:33 GMT 49.348679 -3.437275 38,000 275 504 0
2021-09-22 15:10:31 GMT 49.348118 -3.426578 38,000 275 505 0
2021-09-22 15:10:28 GMT 49.347794 -3.420940 37,975 275 505 -64
2021-09-22 15:10:26 GMT 49.347427 -3.414142 37,975 275 505 -64
2021-09-22 15:10:23 GMT 49.346695 -3.400621 37,975 275 505 0
2021-09-22 15:10:21 GMT 49.346420 -3.394916 38,000 275 505 -64
2021-09-22 15:10:18 GMT 49.345882 -3.384584 38,000 275 506 64
2021-09-22 15:10:16 GMT 49.345276 -3.373507 37,975 275 506 64
2021-09-22 15:10:12 GMT 49.344814 -3.364635 38,000 275 506 64
2021-09-22 15:10:09 GMT 49.344131 -3.351393 38,000 275 506 0
2021-09-22 15:10:06 GMT 49.343628 -3.342168 38,000 275 506 0
2021-09-22 15:10:03 GMT 49.342896 -3.328576 38,000 275 506 0
2021-09-22 15:10:01 GMT 49.342392 -3.319280 37,975 275 506 0
2021-09-22 15:09:58 GMT 49.342026 -3.312167 37,975 275 506 0
2021-09-22 15:09:56 GMT 49.341602 -3.303994 37,975 275 506 0
2021-09-22 15:09:53 GMT 49.341019 -3.292870 37,975 275 505 -64
2021-09-22 15:09:51 GMT 49.340057 -3.275053 37,975 275 505 -64
2021-09-22 15:09:48 GMT 49.340057 -3.275053 37,975 275 505 -64
2021-09-22 15:09:46 GMT 49.339691 -3.268288 38,000 275 505 -64
2021-09-22 15:09:43 GMT 49.339050 -3.257235 38,000 275 505 -64
2021-09-22 15:09:39 GMT 49.338390 -3.244798 38,000 275 505 -64
2021-09-22 15:09:36 GMT 49.337597 -3.230559 37,975 275 505 -64
2021-09-22 15:09:32 GMT 49.337040 -3.220584 38,000 275 505 0
2021-09-22 15:09:30 GMT 49.336670 -3.213783 37,975 275 505 0
2021-09-22 15:09:27 GMT 49.335503 -3.192829 38,000 275 505 -64
2021-09-22 15:09:25 GMT 49.335503 -3.192829 38,000 275 505 -64
2021-09-22 15:09:22 GMT 49.334991 -3.183578 38,000 275 505 -64
2021-09-22 15:09:20 GMT 49.334713 -3.178590 37,975 275 505 0
2021-09-22 15:09:17 GMT 49.333786 -3.161809 38,000 275 505 -64
2021-09-22 15:09:13 GMT 49.333374 -3.154696 38,000 275 505 64
2021-09-22 15:09:10 GMT 49.332710 -3.142234 38,000 275 505 -64
2021-09-22 15:09:07 GMT 49.332047 -3.130540 38,000 275 505 -64
2021-09-22 15:09:03 GMT 49.331268 -3.116648 38,000 275 505 0
2021-09-22 15:09:00 GMT 49.330662 -3.105951 38,000 275 506 64
2021-09-22 15:08:55 GMT 49.329685 -3.088098 37,975 275 506 0
2021-09-22 15:08:52 GMT 49.329071 -3.077087 38,000 275 506 0
2021-09-22 15:08:50 GMT 49.328156 -3.061383 37,975 275 507 64
2021-09-22 15:08:47 GMT 49.328156 -3.061383 37,975 275 507 64
2021-09-22 15:08:43 GMT 49.327286 -3.045607 37,975 276 507 0
2021-09-22 15:08:41 GMT 49.326920 -3.039903 38,000 276 507 -128
2021-09-22 15:08:38 GMT 49.326241 -3.028107 38,000 276 508 0
2021-09-22 15:08:35 GMT 49.325455 -3.014127 38,000 275 508 -64
2021-09-22 15:08:32 GMT 49.325043 -3.006944 38,025 275 509 -64
2021-09-22 15:08:30 GMT 49.324631 -2.999831 38,000 275 509 0
2021-09-22 15:08:27 GMT 49.323898 -2.986873 37,975 276 511 0
2021-09-22 15:08:22 GMT 49.322800 -2.967506 38,000 275 510 -64
2021-09-22 15:08:20 GMT 49.322525 -2.962506 38,000 275 510 -64
2021-09-22 15:08:18 GMT 49.322113 -2.955322 38,000 275 510 -64
2021-09-22 15:08:15 GMT 49.321609 -2.946660 38,000 276 510 -64
2021-09-22 15:08:12 GMT 49.320740 -2.931519 37,975 276 510 0
2021-09-22 15:08:09 GMT 49.320282 -2.923631 38,000 276 510 -64
2021-09-22 15:08:06 GMT 49.319778 -2.914264 38,000 276 510 0
2021-09-22 15:08:04 GMT 49.319229 -2.904968 38,000 276 510 0
2021-09-22 15:08:01 GMT 49.318699 -2.895982 38,000 276 510 0
2021-09-22 15:07:59 GMT 49.318268 -2.888418 37,975 276 510 0
2021-09-22 15:07:57 GMT 49.317673 -2.877984 38,000 276 510 0
2021-09-22 15:07:54 GMT 49.317078 -2.867502 38,000 276 510 0
2021-09-22 15:07:51 GMT 49.316620 -2.859614 37,975 276 510 0
2021-09-22 15:07:48 GMT 49.315952 -2.848422 38,000 276 510 -64
2021-09-22 15:07:46 GMT 49.315521 -2.840881 37,975 276 510 0
2021-09-22 15:07:44 GMT 49.314926 -2.830497 38,000 276 510 0
2021-09-22 15:07:40 GMT 49.314369 -2.821101 38,000 276 511 -64
2021-09-22 15:07:37 GMT 49.313671 -2.808886 38,000 276 511 -64
2021-09-22 15:07:34 GMT 49.312820 -2.794894 38,000 276 511 0
2021-09-22 15:07:31 GMT 49.311859 -2.778344 37,975 276 511 0
2021-09-22 15:07:28 GMT 49.311859 -2.778344 38,000 276 511 0
2021-09-22 15:07:25 GMT 49.310272 -2.751352 37,975 276 511 0
2021-09-22 15:07:21 GMT 49.310272 -2.751352 37,975 276 511 0
2021-09-22 15:07:19 GMT 49.309753 -2.742427 37,975 276 511 0
2021-09-22 15:07:16 GMT 49.309113 -2.731652 38,000 276 511 0
2021-09-22 15:07:12 GMT 49.308315 -2.718321 38,000 276 511 0
2021-09-22 15:07:10 GMT 49.307785 -2.709327 37,975 276 511 0
2021-09-22 15:07:06 GMT 49.307007 -2.696439 38,000 276 511 0
2021-09-22 15:07:04 GMT 49.306549 -2.688832 38,000 276 511 0
2021-09-22 15:07:02 GMT 49.306137 -2.682002 37,975 276 511 0
2021-09-22 15:07:00 GMT 49.305313 -2.668340 37,975 276 511 0
2021-09-22 15:06:58 GMT 49.305313 -2.668340 38,000 276 511 0
2021-09-22 15:06:55 GMT 49.304592 -2.656523 38,000 276 511 0
2021-09-22 15:06:51 GMT 49.303242 -2.633466 38,000 276 511 0
2021-09-22 15:06:46 GMT 49.302635 -2.623420 38,000 276 511 0
2021-09-22 15:06:43 GMT 49.302017 -2.612985 38,000 276 511 -64
2021-09-22 15:06:41 GMT 49.301613 -2.606940 38,000 276 511 0
2021-09-22 15:06:38 GMT 49.301193 -2.599393 38,000 276 511 0
2021-09-22 15:06:36 GMT 49.300591 -2.589665 38,000 276 511 -64
2021-09-22 15:06:33 GMT 49.299984 -2.579546 38,000 276 511 -64
2021-09-22 15:06:31 GMT 49.299408 -2.569885 37,975 276 512 -64
2021-09-22 15:06:28 GMT 49.298264 -2.551152 37,975 276 512 0
2021-09-22 15:06:25 GMT 49.297379 -2.536396 37,975 276 512 -64
2021-09-22 15:06:22 GMT 49.297379 -2.536396 37,975 276 512 0
2021-09-22 15:06:20 GMT 49.297028 -2.531011 38,000 276 512 -64
2021-09-22 15:06:17 GMT 49.296398 -2.520567 38,000 276 512 -64
2021-09-22 15:06:14 GMT 49.295746 -2.510094 38,000 276 512 0
2021-09-22 15:06:11 GMT 49.294212 -2.484573 38,000 276 512 0
2021-09-22 15:06:07 GMT 49.294212 -2.484573 37,975 276 512 0
2021-09-22 15:06:05 GMT 49.293777 -2.477699 38,000 276 512 0
2021-09-22 15:06:02 GMT 49.293228 -2.469107 38,000 276 512 0
2021-09-22 15:06:00 GMT 49.292675 -2.460070 38,000 276 512 -64
2021-09-22 15:05:58 GMT 49.291534 -2.441007 38,000 276 512 0
2021-09-22 15:05:55 GMT 49.291077 -2.433824 37,975 276 512 0
2021-09-22 15:05:53 GMT 49.291077 -2.433824 37,975 276 512 0
2021-09-22 15:05:50 GMT 49.290485 -2.424075 38,000 276 512 0
2021-09-22 15:05:47 GMT 49.289883 -2.414752 37,975 276 512 -64
2021-09-22 15:05:45 GMT 49.289200 -2.403611 37,975 276 512 0
2021-09-22 15:05:40 GMT 49.287964 -2.383399 38,000 276 512 -64
2021-09-22 15:05:37 GMT 49.287003 -2.368328 37,975 276 512 -64
2021-09-22 15:05:35 GMT 49.287003 -2.368328 37,975 276 512 0
2021-09-22 15:05:33 GMT 49.286575 -2.361482 37,975 276 512 0
2021-09-22 15:05:30 GMT 49.286018 -2.352086 37,975 276 512 0
2021-09-22 15:05:26 GMT 49.284943 -2.335229 38,000 276 512 0
2021-09-22 15:05:24 GMT 49.283783 -2.316814 37,975 276 512 0
2021-09-22 15:05:21 GMT 49.283783 -2.316814 37,975 276 512 0
2021-09-22 15:05:19 GMT 49.283039 -2.305322 37,975 276 512 0
2021-09-22 15:05:17 GMT 49.283039 -2.305322 37,975 276 512 0
2021-09-22 15:05:14 GMT 49.282333 -2.293466 38,000 276 512 -64
2021-09-22 15:05:11 GMT 49.281555 -2.281212 38,000 276 512 0
2021-09-22 15:05:07 GMT 49.280712 -2.267882 37,975 276 512 -64
2021-09-22 15:05:04 GMT 49.280106 -2.258485 37,975 276 513 -64
2021-09-22 15:05:02 GMT 49.279549 -2.249884 37,975 276 513 -64
2021-09-22 15:04:59 GMT 49.278900 -2.239380 38,000 276 513 -64
2021-09-22 15:04:56 GMT 49.277824 -2.222491 38,000 276 513 -64
2021-09-22 15:04:54 GMT 49.277824 -2.222491 38,000 276 513 -64
2021-09-22 15:04:50 GMT 49.276520 -2.201914 38,000 276 513 -64
2021-09-22 15:04:46 GMT 49.275970 -2.193251 38,000 276 513 -64
2021-09-22 15:04:43 GMT 49.275311 -2.182810 37,975 276 513 -64
2021-09-22 15:04:40 GMT 49.274506 -2.170152 38,000 276 513 -64
2021-09-22 15:04:37 GMT 49.273865 -2.160785 37,975 276 513 -64
2021-09-22 15:04:34 GMT 49.273216 -2.150285 37,975 276 513 -64
2021-09-22 15:04:32 GMT 49.272655 -2.141611 37,975 276 513 0
2021-09-22 15:04:30 GMT 49.272240 -2.135178 38,000 276 513 0
2021-09-22 15:04:27 GMT 49.271530 -2.123953 38,000 276 513 0
2021-09-22 15:04:23 GMT 49.270702 -2.111327 38,000 276 513 -64
2021-09-22 15:04:20 GMT 49.269676 -2.095425 38,000 276 513 -64
2021-09-22 15:04:17 GMT 49.269150 -2.087121 38,000 276 513 -64
2021-09-22 15:04:14 GMT 49.268463 -2.077050 38,000 276 513 -64
2021-09-22 15:04:12 GMT 49.268002 -2.069477 38,000 276 513 -64
2021-09-22 15:04:09 GMT 49.266357 -2.044584 38,000 276 512 0
2021-09-22 15:04:05 GMT 49.265862 -2.037024 38,000 276 512 0
2021-09-22 15:04:00 GMT 49.265167 -2.026625 38,000 276 512 0
2021-09-22 15:03:58 GMT 49.264744 -2.019750 37,975 276 512 0
2021-09-22 15:03:55 GMT 49.263977 -2.008597 38,000 276 512 0
2021-09-22 15:03:53 GMT 49.263672 -2.003921 38,000 276 512 0
2021-09-22 15:03:50 GMT 49.262924 -1.992751 38,000 276 512 0
2021-09-22 15:03:47 GMT 49.262043 -1.979491 38,000 276 511 0
2021-09-22 15:03:45 GMT 49.261578 -1.972263 38,000 276 511 0
2021-09-22 15:03:42 GMT 49.260864 -1.961834 38,000 276 511 0
2021-09-22 15:03:39 GMT 49.259995 -1.948555 37,975 276 511 0
2021-09-22 15:03:35 GMT 49.259064 -1.934895 37,975 276 511 0
2021-09-22 15:03:32 GMT 49.258457 -1.925571 37,975 276 511 0
2021-09-22 15:03:29 GMT 49.257759 -1.915524 37,975 276 511 0
2021-09-22 15:03:26 GMT 49.256790 -1.900776 37,975 276 511 0
2021-09-22 15:03:23 GMT 49.256271 -1.893262 37,975 276 511 0
2021-09-22 15:03:20 GMT 49.254780 -1.870928 37,975 276 512 -64
2021-09-22 15:03:17 GMT 49.254780 -1.870928 37,975 276 512 0
2021-09-22 15:03:13 GMT 49.254089 -1.860492 37,975 276 512 0
2021-09-22 15:03:11 GMT 49.253571 -1.853003 37,975 277 503 320
2021-09-22 15:03:09 GMT 49.252899 -1.842534 38,000 276 511 -64
2021-09-22 15:03:07 GMT 49.252396 -1.835351 38,000 276 511 -64
2021-09-22 15:03:04 GMT 49.251846 -1.826759 37,975 276 511 0
2021-09-22 15:03:02 GMT 49.251297 -1.818801 38,000 276 511 -64
2021-09-22 15:02:59 GMT 49.250500 -1.806962 37,975 276 511 -64
2021-09-22 15:02:57 GMT 49.250015 -1.799434 38,000 276 510 -64
2021-09-22 15:02:54 GMT 49.249382 -1.790482 37,975 276 510 -64
2021-09-22 15:02:51 GMT 49.248684 -1.779713 38,000 276 508 -64
2021-09-22 15:02:47 GMT 49.247520 -1.762583 38,000 276 508 -64
2021-09-22 15:02:44 GMT 49.246948 -1.754362 38,000 276 508 -64
2021-09-22 15:02:41 GMT 49.246399 -1.745770 38,000 276 507 0
2021-09-22 15:02:38 GMT 49.245529 -1.732952 38,000 276 507 64
2021-09-22 15:02:36 GMT 49.244934 -1.724431 37,975 277 506 64
2021-09-22 15:02:32 GMT 49.244076 -1.711988 37,975 277 504 192
2021-09-22 15:02:30 GMT 49.243515 -1.703459 37,975 277 504 192
2021-09-22 15:02:27 GMT 49.242599 -1.690345 37,975 277 503 512
2021-09-22 15:02:24 GMT 49.242142 -1.683303 37,975 277 503 512
2021-09-22 15:02:22 GMT 49.241653 -1.676571 37,875 277 503 576
2021-09-22 15:02:19 GMT 49.240910 -1.665947 37,850 277 503 320
2021-09-22 15:02:17 GMT 49.240402 -1.658513 37,850 277 503 512
2021-09-22 15:02:14 GMT 49.239326 -1.642601 37,850 277 503 448
2021-09-22 15:02:12 GMT 49.239326 -1.642601 37,850 277 503 320
2021-09-22 15:02:09 GMT 49.238117 -1.624965 37,750 277 503 448
2021-09-22 15:02:05 GMT 49.237511 -1.616508 37,800 277 502 576
2021-09-22 15:02:02 GMT 49.236511 -1.602032 37,750 277 502 640
2021-09-22 15:01:59 GMT 49.236019 -1.594608 37,675 277 502 704
2021-09-22 15:01:56 GMT 49.234543 -1.573087 37,675 277 502 704
2021-09-22 15:01:53 GMT 49.234543 -1.573087 37,675 277 502 768
2021-09-22 15:01:50 GMT 49.233948 -1.564636 37,625 277 502 704
2021-09-22 15:01:47 GMT 49.232391 -1.542423 37,575 277 502 704
2021-09-22 15:01:44 GMT 49.232391 -1.542423 37,500 277 502 704
2021-09-22 15:01:41 GMT 49.231693 -1.531798 37,550 277 502 704
2021-09-22 15:01:38 GMT 49.230972 -1.521606 37,525 277 502 704
2021-09-22 15:01:36 GMT 49.230434 -1.513439 37,475 277 502 704
2021-09-22 15:01:34 GMT 49.229877 -1.505705 37,450 277 502 704
2021-09-22 15:01:31 GMT 49.229050 -1.494070 37,400 277 502 704
2021-09-22 15:01:28 GMT 49.228527 -1.485973 37,400 277 502 768
2021-09-22 15:01:26 GMT 49.228043 -1.479281 37,325 277 502 768
2021-09-22 15:01:23 GMT 49.227264 -1.467942 37,300 277 502 768
2021-09-22 15:01:20 GMT 49.226479 -1.457062 37,300 277 502 832
2021-09-22 15:01:18 GMT 49.225967 -1.449978 37,275 277 502 832
2021-09-22 15:01:14 GMT 49.224838 -1.434138 37,200 277 503 832
2021-09-22 15:01:12 GMT 49.224289 -1.426392 37,150 277 503 896
2021-09-22 15:01:08 GMT 49.223404 -1.413984 37,150 277 504 896
2021-09-22 15:01:04 GMT 49.222321 -1.398855 37,025 277 504 960
2021-09-22 15:01:02 GMT 49.221821 -1.392156 37,000 277 504 960
2021-09-22 15:01:00 GMT 49.221497 -1.387168 37,000 277 504 960
2021-09-22 15:00:58 GMT 49.220993 -1.380474 36,975 277 504 960
2021-09-22 15:00:56 GMT 49.220242 -1.369533 36,925 277 504 960
2021-09-22 15:00:53 GMT 49.219727 -1.362449 36,900 277 504 1024
2021-09-22 15:00:51 GMT 49.219254 -1.355755 36,850 277 505 1024
2021-09-22 15:00:49 GMT 49.218567 -1.346529 36,825 277 505 1024
2021-09-22 15:00:47 GMT 49.218189 -1.341272 36,525 277 506 1088
2021-09-22 15:00:44 GMT 49.217560 -1.332444 36,525 277 505 1088
2021-09-22 15:00:42 GMT 49.216827 -1.321810 36,700 277 505 1088
2021-09-22 15:00:39 GMT 49.216187 -1.313289 36,650 277 505 1088
2021-09-22 15:00:37 GMT 49.214905 -1.295612 36,525 277 505 1088
2021-09-22 15:00:34 GMT 49.214905 -1.295612 36,525 277 505 1088
2021-09-22 15:00:32 GMT 49.214375 -1.288147 36,525 277 505 1088
2021-09-22 15:00:29 GMT 49.213768 -1.279618 36,500 277 505 1088
2021-09-22 15:00:27 GMT 49.213303 -1.273258 36,450 277 506 1088
2021-09-22 15:00:24 GMT 49.212372 -1.260537 36,400 277 506 1088
2021-09-22 15:00:21 GMT 49.210739 -1.237441 36,200 277 507 1024
2021-09-22 15:00:18 GMT 49.210739 -1.237441 36,200 277 507 1024
2021-09-22 15:00:15 GMT 49.209999 -1.227144 36,225 277 507 1024
2021-09-22 15:00:13 GMT 49.209438 -1.220061 36,150 277 507 1024
2021-09-22 15:00:10 GMT 49.208725 -1.209764 36,150 277 507 1024
2021-09-22 15:00:08 GMT 49.208221 -1.202651 36,100 277 507 1024
2021-09-22 15:00:06 GMT 49.207577 -1.193751 36,050 277 507 1024
2021-09-22 15:00:03 GMT 49.206554 -1.180307 35,950 277 507 1088
2021-09-22 14:59:59 GMT 49.205750 -1.169269 35,950 277 507 1088
2021-09-22 14:59:57 GMT 49.204693 -1.154721 35,875 277 508 1088
2021-09-22 14:59:55 GMT 49.204693 -1.154721 35,875 277 507 1152
2021-09-22 14:59:52 GMT 49.203506 -1.138000 35,800 277 507 1088
2021-09-22 14:59:50 GMT 49.203506 -1.138000 35,800 277 508 1088
2021-09-22 14:59:45 GMT 49.202179 -1.120183 35,700 277 508 1088
2021-09-22 14:59:42 GMT 49.201294 -1.107740 35,625 277 508 1088
2021-09-22 14:59:40 GMT 49.200920 -1.102753 35,575 277 508 1088
2021-09-22 14:59:37 GMT 49.200130 -1.092128 35,575 277 508 1088
2021-09-22 14:59:34 GMT 49.199432 -1.082505 35,525 277 508 1024
2021-09-22 14:59:32 GMT 49.198734 -1.072902 35,475 277 508 1024
2021-09-22 14:59:30 GMT 49.198269 -1.066541 35,450 277 508 1088
2021-09-22 14:59:28 GMT 49.197968 -1.062575 35,400 277 508 1088
2021-09-22 14:59:26 GMT 49.197235 -1.052645 35,325 277 508 1088
2021-09-22 14:59:23 GMT 49.195541 -1.029898 35,275 277 508 1088
2021-09-22 14:59:20 GMT 49.195175 -1.024898 35,200 277 508 1088
2021-09-22 14:59:18 GMT 49.195175 -1.024898 35,250 277 508 1088
2021-09-22 14:59:16 GMT 49.193710 -1.005672 35,150 277 508 1152
2021-09-22 14:59:13 GMT 49.193710 -1.005672 35,125 277 508 1152
2021-09-22 14:59:11 GMT 49.193333 -1.000334 35,100 277 508 1152
2021-09-22 14:59:08 GMT 49.191608 -0.977566 35,000 277 508 1152
2021-09-22 14:59:05 GMT 49.191608 -0.977566 35,000 277 508 1152
2021-09-22 14:59:02 GMT 49.190872 -0.967290 34,950 277 508 1152
2021-09-22 14:59:00 GMT 49.190495 -0.962677 34,900 277 508 1152
2021-09-22 14:58:58 GMT 49.189747 -0.952703 34,875 277 508 1152
2021-09-22 14:58:55 GMT 49.188957 -0.942005 34,825 277 508 1152
2021-09-22 14:58:52 GMT 49.188309 -0.933134 34,650 277 508 1152
2021-09-22 14:58:50 GMT 49.186935 -0.915386 34,675 277 508 1088
2021-09-22 14:58:47 GMT 49.186935 -0.915386 34,675 277 508 1152
2021-09-22 14:58:44 GMT 49.186020 -0.903273 34,600 277 508 1216
2021-09-22 14:58:42 GMT 49.184921 -0.888343 34,525 277 509 1408
2021-09-22 14:58:40 GMT 49.184921 -0.888343 34,400 277 508 1408
2021-09-22 14:58:37 GMT 49.184235 -0.879047 34,425 277 508 1408
2021-09-22 14:58:34 GMT 49.183502 -0.869821 34,350 277 509 1408
2021-09-22 14:58:31 GMT 49.182487 -0.855922 34,300 277 509 1408
2021-09-22 14:58:29 GMT 49.181881 -0.848116 34,250 277 509 1408
2021-09-22 14:58:26 GMT 49.181213 -0.839186 34,200 277 509 1408
2021-09-22 14:58:24 GMT 49.180710 -0.832778 34,125 277 509 1472
2021-09-22 14:58:21 GMT 49.180023 -0.823482 34,050 277 510 1472
2021-09-22 14:58:19 GMT 49.178482 -0.803158 34,000 277 510 1472
2021-09-22 14:58:16 GMT 49.178482 -0.803158 33,825 277 511 1344
2021-09-22 14:58:12 GMT 49.177410 -0.789570 33,825 277 511 1344
2021-09-22 14:58:10 GMT 49.176899 -0.782414 33,775 277 511 1344
2021-09-22 14:58:07 GMT 49.176041 -0.771297 33,750 277 511 1344
2021-09-22 14:58:04 GMT 49.174942 -0.757000 33,650 277 511 1344
2021-09-22 14:58:01 GMT 49.174107 -0.745914 33,550 277 511 1344
2021-09-22 14:57:58 GMT 49.173523 -0.738408 33,550 277 511 1344
2021-09-22 14:57:55 GMT 49.172699 -0.727633 33,475 277 511 1344
2021-09-22 14:57:53 GMT 49.172333 -0.722633 33,450 277 511 1344
2021-09-22 14:57:50 GMT 49.170593 -0.700449 33,375 277 511 1280
2021-09-22 14:57:47 GMT 49.170593 -0.700449 33,325 277 511 1280
2021-09-22 14:57:45 GMT 49.169952 -0.691857 33,275 277 511 1280
2021-09-22 14:57:42 GMT 49.168167 -0.668898 33,100 277 511 1280
2021-09-22 14:57:39 GMT 49.168167 -0.668898 33,150 277 511 1344
2021-09-22 14:57:37 GMT 49.167892 -0.665377 33,100 277 511 1280
2021-09-22 14:57:33 GMT 49.166752 -0.650651 33,025 277 511 1344
2021-09-22 14:57:31 GMT 49.166100 -0.642845 32,975 277 511 1408
2021-09-22 14:57:29 GMT 49.165310 -0.632798 32,900 277 511 1472
2021-09-22 14:57:27 GMT 49.165009 -0.628826 32,900 277 511 1472
2021-09-22 14:57:24 GMT 49.164284 -0.619932 32,850 277 511 1472
2021-09-22 14:57:22 GMT 49.163445 -0.609235 32,775 277 511 1472
2021-09-22 14:57:20 GMT 49.162979 -0.603453 32,725 277 511 1536
2021-09-22 14:57:16 GMT 49.161255 -0.582346 32,450 277 511 1536
2021-09-22 14:57:14 GMT 49.161255 -0.582346 32,600 277 511 1536
2021-09-22 14:57:11 GMT 49.160374 -0.571289 32,525 277 511 1536
2021-09-22 14:57:09 GMT 49.160000 -0.566230 32,275 277 512 1472
2021-09-22 14:57:06 GMT 49.158829 -0.551570 32,350 277 512 1472
2021-09-22 14:57:04 GMT 49.157410 -0.533612 32,275 277 512 1472
2021-09-22 14:57:01 GMT 49.157410 -0.533612 32,150 277 512 1216
2021-09-22 14:56:58 GMT 49.156651 -0.523947 31,725 277 512 1408
2021-09-22 14:56:54 GMT 49.155533 -0.509244 32,100 277 512 1280
2021-09-22 14:56:52 GMT 49.154972 -0.502408 32,025 277 512 1216
2021-09-22 14:56:49 GMT 49.154137 -0.491638 32,025 277 512 1216
2021-09-22 14:56:46 GMT 49.153290 -0.480581 31,925 277 512 1152
2021-09-22 14:56:43 GMT 49.152599 -0.471617 31,850 277 512 1088
2021-09-22 14:56:40 GMT 49.151623 -0.458679 31,800 277 511 1024
2021-09-22 14:56:37 GMT 49.150784 -0.447982 31,775 277 511 1024
2021-09-22 14:56:35 GMT 49.150085 -0.439031 31,725 277 511 960
2021-09-22 14:56:32 GMT 49.149529 -0.432225 31,700 277 510 1024
2021-09-22 14:56:29 GMT 49.148598 -0.420082 31,650 277 510 1024
2021-09-22 14:56:26 GMT 49.147896 -0.411481 31,600 277 510 1024
2021-09-22 14:56:22 GMT 49.146652 -0.395437 31,400 277 509 1024
2021-09-22 14:56:19 GMT 49.145096 -0.376211 31,425 277 509 1216
2021-09-22 14:56:16 GMT 49.145096 -0.376211 31,425 277 509 1216
2021-09-22 14:56:13 GMT 49.144043 -0.363394 31,325 277 508 1472
2021-09-22 14:56:10 GMT 49.143288 -0.353731 31,300 277 508 1536
2021-09-22 14:56:07 GMT 49.142033 -0.338119 31,150 277 509 1536
2021-09-22 14:56:04 GMT 49.141205 -0.327759 31,150 277 509 1536
2021-09-22 14:56:01 GMT 49.140404 -0.318170 31,050 277 509 1280
2021-09-22 14:55:58 GMT 49.139938 -0.312460 31,000 277 509 1408
2021-09-22 14:55:55 GMT 49.138634 -0.296053 30,900 277 509 1152
2021-09-22 14:55:52 GMT 49.138077 -0.288969 30,875 277 509 1088
2021-09-22 14:55:50 GMT 49.137634 -0.283602 30,850 277 508 1024
2021-09-22 14:55:48 GMT 49.137085 -0.276489 30,800 277 508 1024
2021-09-22 14:55:45 GMT 49.136353 -0.267647 30,625 277 508 1024
2021-09-22 14:55:42 GMT 49.135162 -0.252333 30,700 277 508 1088
2021-09-22 14:55:39 GMT 49.134212 -0.240615 30,650 278 507 1088
2021-09-22 14:55:36 GMT 49.133652 -0.233882 30,600 278 507 1088
2021-09-22 14:55:34 GMT 49.133057 -0.226065 30,225 278 504 1024
2021-09-22 14:55:31 GMT 49.132187 -0.215431 30,525 278 506 1024
2021-09-22 14:55:29 GMT 49.131500 -0.206909 30,475 278 506 1024
2021-09-22 14:55:26 GMT 49.130539 -0.194866 30,425 278 505 1024
2021-09-22 14:55:21 GMT 49.129322 -0.180407 30,375 278 505 960
2021-09-22 14:55:19 GMT 49.128624 -0.171950 30,200 278 503 1024
2021-09-22 14:55:16 GMT 49.127834 -0.162048 30,275 278 504 960
2021-09-22 14:55:14 GMT 49.127106 -0.153245 30,200 278 503 1024
2021-09-22 14:55:10 GMT 49.126110 -0.140871 30,175 278 503 1088
2021-09-22 14:55:06 GMT 49.124954 -0.126484 30,100 278 502 1088
2021-09-22 14:55:03 GMT 49.123409 -0.107839 30,050 278 502 1152
2021-09-22 14:55:01 GMT 49.123409 -0.107839 30,000 278 502 1152
2021-09-22 14:54:59 GMT 49.121967 -0.090348 29,950 278 501 1152
2021-09-22 14:54:56 GMT 49.121967 -0.090348 29,875 278 501 1152
2021-09-22 14:54:54 GMT 49.121658 -0.086482 29,900 278 501 1152
2021-09-22 14:54:52 GMT 49.120850 -0.076326 29,850 278 501 1152
2021-09-22 14:54:49 GMT 49.120384 -0.070688 29,750 278 500 1088
2021-09-22 14:54:47 GMT 49.119453 -0.059485 29,725 278 500 1088
2021-09-22 14:54:45 GMT 49.118896 -0.052474 29,675 278 498 1152
2021-09-22 14:54:42 GMT 49.118042 -0.042326 29,675 278 499 1152
2021-09-22 14:54:39 GMT 49.116150 -0.019660 29,475 278 499 1152
2021-09-22 14:54:36 GMT 49.116150 -0.019660 29,550 278 498 1152
2021-09-22 14:54:33 GMT 49.115616 -0.013029 29,475 278 498 1152
2021-09-22 14:54:30 GMT 49.114613 -0.000867 29,450 278 498 1152
2021-09-22 14:54:26 GMT 49.113373 0.014085 29,325 278 497 1152
2021-09-22 14:54:24 GMT 49.111679 0.034621 29,275 278 497 1152
2021-09-22 14:54:20 GMT 49.111679 0.034621 29,250 278 497 1216
2021-09-22 14:54:18 GMT 49.110855 0.044650 29,200 278 496 1216
2021-09-22 14:54:15 GMT 49.110260 0.051622 29,150 278 496 1216
2021-09-22 14:54:10 GMT 49.108841 0.068946 29,075 278 495 1216
2021-09-22 14:54:07 GMT 49.108063 0.078665 29,000 278 495 1216
2021-09-22 14:54:05 GMT 49.107330 0.086975 28,875 278 494 1216
2021-09-22 14:54:02 GMT 49.106651 0.095624 28,900 278 494 1216
2021-09-22 14:54:00 GMT 49.106049 0.102491 28,875 278 494 1216
2021-09-22 14:53:58 GMT 49.105209 0.112899 28,825 278 494 1216
2021-09-22 14:53:55 GMT 49.104511 0.121139 28,775 278 493 1216
2021-09-22 14:53:53 GMT 49.104046 0.126704 28,700 278 493 1216
2021-09-22 14:53:50 GMT 49.102928 0.140437 28,675 278 493 1152
2021-09-22 14:53:46 GMT 49.101974 0.151837 28,600 278 492 1152
2021-09-22 14:53:43 GMT 49.100922 0.164232 28,550 278 492 1280
2021-09-22 14:53:41 GMT 49.100460 0.169348 28,525 278 492 1152
2021-09-22 14:53:39 GMT 49.099529 0.180335 28,450 278 492 1280
2021-09-22 14:53:35 GMT 49.098785 0.189297 28,375 278 492 1280
2021-09-22 14:53:33 GMT 49.098358 0.194444 28,300 278 491 1280
2021-09-22 14:53:30 GMT 49.097343 0.206427 28,325 278 491 1280
2021-09-22 14:53:27 GMT 49.096344 0.217755 28,175 278 490 0
2021-09-22 14:53:24 GMT 49.094501 0.239314 28,100 278 490 1280
2021-09-22 14:53:21 GMT 49.094501 0.239314 28,100 278 490 1280
2021-09-22 14:53:17 GMT 49.093384 0.252252 28,025 278 489 1280
2021-09-22 14:53:14 GMT 49.092499 0.262897 27,850 278 489 1280
2021-09-22 14:53:11 GMT 49.091034 0.279940 27,850 278 488 1280
2021-09-22 14:53:09 GMT 49.091034 0.279940 27,850 278 488 1280
2021-09-22 14:53:07 GMT 49.090267 0.288463 27,800 278 488 1216
2021-09-22 14:53:03 GMT 49.089241 0.300678 27,725 278 488 1280
2021-09-22 14:53:00 GMT 49.088634 0.307473 27,700 278 487 1280
2021-09-22 14:52:58 GMT 49.087936 0.315640 27,650 278 487 1280
2021-09-22 14:52:54 GMT 49.086411 0.332970 27,550 278 487 1344
2021-09-22 14:52:51 GMT 49.085518 0.343540 27,450 278 486 1280
2021-09-22 14:52:48 GMT 49.085098 0.348238 27,375 278 486 1280
2021-09-22 14:52:43 GMT 49.083435 0.366915 27,325 278 485 1280
2021-09-22 14:52:40 GMT 49.082611 0.376352 27,275 278 485 1280
2021-09-22 14:52:37 GMT 49.081787 0.385860 27,200 278 485 1280
2021-09-22 14:52:35 GMT 49.081009 0.394592 27,150 278 483 1216
2021-09-22 14:52:32 GMT 49.080048 0.405438 27,025 278 483 1216
2021-09-22 14:52:29 GMT 49.079327 0.413216 27,050 278 483 1216
2021-09-22 14:52:27 GMT 49.078720 0.420297 27,000 278 483 1216
2021-09-22 14:52:25 GMT 49.077942 0.429030 26,950 278 482 1216
2021-09-22 14:52:23 GMT 49.077000 0.439453 26,900 278 481 1280
2021-09-22 14:52:21 GMT 49.077000 0.439453 26,900 278 481 1280
2021-09-22 14:52:18 GMT 49.075882 0.452246 26,825 278 481 1280
2021-09-22 14:52:13 GMT 49.074371 0.468680 26,750 278 481 1280
2021-09-22 14:52:11 GMT 49.073959 0.473328 26,700 278 480 1280
2021-09-22 14:52:06 GMT 49.071945 0.495441 26,550 278 479 1216
2021-09-22 14:52:02 GMT 49.071041 0.505805 26,500 278 479 1280
2021-09-22 14:51:59 GMT 49.069702 0.520160 26,425 278 477 1280
2021-09-22 14:51:53 GMT 49.068432 0.534499 26,325 278 477 1280
2021-09-22 14:51:50 GMT 49.067642 0.543100 26,200 278 477 1280
2021-09-22 14:51:47 GMT 49.066589 0.554810 26,200 278 477 1280
2021-09-22 14:51:45 GMT 49.065948 0.561430 26,150 278 476 1280
2021-09-22 14:51:43 GMT 49.065083 0.571072 26,100 278 476 1280
2021-09-22 14:51:40 GMT 49.064335 0.579023 26,050 278 475 1280
2021-09-22 14:51:36 GMT 49.063248 0.590586 25,850 278 474 1344
2021-09-22 14:51:33 GMT 49.062428 0.599550 25,800 278 474 1344
2021-09-22 14:51:31 GMT 49.061821 0.606127 25,875 278 474 1344
2021-09-22 14:51:28 GMT 49.060799 0.617403 25,800 278 474 1408
2021-09-22 14:51:26 GMT 49.060226 0.623685 25,750 278 473 1408
2021-09-22 14:51:24 GMT 49.059631 0.630235 25,600 278 473 1408
2021-09-22 14:51:21 GMT 49.058762 0.640165 25,650 278 473 1408
2021-09-22 14:51:16 GMT 49.057308 0.657011 25,525 278 472 1344
2021-09-22 14:51:14 GMT 49.056702 0.663589 25,375 277 469 1408
2021-09-22 14:51:11 GMT 49.055786 0.675096 25,375 277 469 1408
2021-09-22 14:51:07 GMT 49.054840 0.686646 25,350 277 471 1408
2021-09-22 14:51:05 GMT 49.054092 0.696787 25,275 277 469 1344
2021-09-22 14:51:00 GMT 49.053165 0.709630 25,200 277 470 1408
2021-09-22 14:50:54 GMT 49.051720 0.729362 25,050 277 469 1408
2021-09-22 14:50:52 GMT 49.051163 0.737240 24,975 277 468 1408
2021-09-22 14:50:49 GMT 49.050419 0.747721 24,925 277 469 1408
2021-09-22 14:50:45 GMT 49.049580 0.758852 24,875 277 468 1408
2021-09-22 14:50:43 GMT 49.049068 0.765357 24,825 277 468 1408
2021-09-22 14:50:40 GMT 49.047390 0.788269 24,675 277 466 1472
2021-09-22 14:50:37 GMT 49.047390 0.788269 24,675 277 466 1472
2021-09-22 14:50:33 GMT 49.046555 0.799328 24,475 277 466 1472
2021-09-22 14:50:29 GMT 49.045807 0.809397 24,500 277 465 1472
2021-09-22 14:50:25 GMT 49.044785 0.823396 24,225 277 464 1472
2021-09-22 14:50:23 GMT 49.044296 0.829609 24,375 277 464 1472
2021-09-22 14:50:20 GMT 49.043621 0.839009 24,300 277 464 1472
2021-09-22 14:50:17 GMT 49.042831 0.849750 24,225 277 463 1472
2021-09-22 14:50:14 GMT 49.042130 0.859102 24,150 277 463 1472
2021-09-22 14:50:11 GMT 49.041275 0.870455 24,050 277 463 1472
2021-09-22 14:50:08 GMT 49.040501 0.881147 23,900 277 463 1472
2021-09-22 14:50:05 GMT 49.039902 0.889259 23,900 277 461 1472
2021-09-22 14:50:02 GMT 49.039261 0.897639 23,900 277 461 1472
2021-09-22 14:49:59 GMT 49.038406 0.908902 23,750 277 461 1472
2021-09-22 14:49:56 GMT 49.037842 0.917006 23,675 277 460 1536
2021-09-22 14:49:54 GMT 49.036499 0.934705 23,450 277 460 1536
2021-09-22 14:49:51 GMT 49.036499 0.934705 23,575 277 460 1536
2021-09-22 14:49:47 GMT 49.035599 0.946585 23,400 277 460 1536
2021-09-22 14:49:43 GMT 49.034588 0.959786 23,350 277 459 1536
2021-09-22 14:49:40 GMT 49.033859 0.969684 23,350 277 459 1536
2021-09-22 14:49:37 GMT 49.032124 0.992456 23,025 277 458 1536
2021-09-22 14:49:33 GMT 49.032124 0.992456 23,175 277 457 1600
2021-09-22 14:49:30 GMT 49.031387 1.002362 23,075 277 456 1600
2021-09-22 14:49:27 GMT 49.030727 1.011610 23,000 277 456 1664
2021-09-22 14:49:20 GMT 49.029053 1.033630 22,825 277 455 1536
2021-09-22 14:49:16 GMT 49.028091 1.046377 22,575 277 455 1408
2021-09-22 14:49:13 GMT 49.027313 1.056519 22,625 277 455 1408
2021-09-22 14:49:10 GMT 49.026535 1.066730 22,525 277 453 1600
2021-09-22 14:49:07 GMT 49.025665 1.077505 22,500 277 453 1600
2021-09-22 14:49:03 GMT 49.024612 1.091449 22,400 277 453 1536
2021-09-22 14:48:59 GMT 49.023788 1.101520 22,325 277 452 1536
2021-09-22 14:48:55 GMT 49.022160 1.122629 22,150 277 450 1728
2021-09-22 14:48:52 GMT 49.022160 1.122629 22,150 277 451 1600
2021-09-22 14:48:48 GMT 49.021229 1.134627 22,050 277 451 1664
2021-09-22 14:48:46 GMT 49.020809 1.139687 21,900 277 450 1856
2021-09-22 14:48:42 GMT 49.019852 1.151945 21,650 277 450 1856
2021-09-22 14:48:39 GMT 49.019073 1.161945 21,550 277 450 1856
2021-09-22 14:48:36 GMT 49.017105 1.186453 21,525 277 449 1856
2021-09-22 14:48:33 GMT 49.017105 1.186453 21,575 277 449 1856
2021-09-22 14:48:30 GMT 49.016712 1.191727 21,450 277 449 1856
2021-09-22 14:48:26 GMT 49.015690 1.204304 21,225 277 449 1856
2021-09-22 14:48:23 GMT 49.015133 1.211821 21,225 277 449 1856
2021-09-22 14:48:20 GMT 49.014130 1.224694 21,200 277 449 1856
2021-09-22 14:48:15 GMT 49.012897 1.240660 20,950 277 448 1664
2021-09-22 14:48:12 GMT 49.012199 1.250056 20,975 277 447 1664
2021-09-22 14:48:07 GMT 49.011032 1.265668 20,825 277 446 1536
2021-09-22 14:48:04 GMT 49.010429 1.273764 20,750 277 446 1472
2021-09-22 14:48:01 GMT 49.009777 1.282509 20,750 277 446 1472
2021-09-22 14:47:58 GMT 49.008957 1.292725 20,650 278 445 1408
2021-09-22 14:47:53 GMT 49.007538 1.308852 20,525 279 443 1472
2021-09-22 14:47:50 GMT 49.006805 1.316247 20,400 280 442 1536
2021-09-22 14:47:46 GMT 49.005707 1.326670 20,275 280 441 1664
2021-09-22 14:47:43 GMT 49.004288 1.338853 20,175 281 440 1728
2021-09-22 14:47:38 GMT 49.002777 1.351037 20,175 282 440 1728
2021-09-22 14:47:35 GMT 49.001495 1.360755 20,075 284 437 1472
2021-09-22 14:47:29 GMT 48.997375 1.389066 19,900 284 438 1536
2021-09-22 14:47:26 GMT 48.997375 1.389066 19,850 284 437 1472
2021-09-22 14:47:23 GMT 48.995636 1.399841 19,725 285 435 1536
2021-09-22 14:47:19 GMT 48.992386 1.418786 19,600 285 435 1536
2021-09-22 14:47:16 GMT 48.992386 1.418786 19,600 286 434 1728
2021-09-22 14:47:12 GMT 48.989822 1.432871 19,475 287 433 1920
2021-09-22 14:47:09 GMT 48.988178 1.441377 19,375 287 434 1984
2021-09-22 14:47:05 GMT 48.985840 1.453294 19,250 287 433 1920
2021-09-22 14:47:02 GMT 48.983963 1.462661 19,150 287 432 960
2021-09-22 14:46:59 GMT 48.983047 1.467309 19,075 287 432 1280
2021-09-22 14:46:56 GMT 48.980988 1.477802 19,025 287 431 640
2021-09-22 14:46:52 GMT 48.978333 1.491112 19,000 287 430 0
2021-09-22 14:46:49 GMT 48.975189 1.507078 19,000 287 430 64
2021-09-22 14:46:46 GMT 48.973793 1.514017 18,975 287 430 0
2021-09-22 14:46:43 GMT 48.973793 1.514017 18,975 287 430 0
2021-09-22 14:46:40 GMT 48.971786 1.524142 18,975 287 430 0
2021-09-22 14:46:37 GMT 48.970116 1.532520 18,975 287 430 0
2021-09-22 14:46:34 GMT 48.968624 1.540037 18,975 287 430 -64
2021-09-22 14:46:31 GMT 48.966297 1.551602 18,975 288 430 -64
2021-09-22 14:46:28 GMT 48.964828 1.558861 18,975 288 429 0
2021-09-22 14:46:23 GMT 48.962246 1.571840 19,000 288 429 0
2021-09-22 14:46:19 GMT 48.959919 1.583405 19,000 287 429 -64
2021-09-22 14:46:16 GMT 48.956955 1.598088 19,000 287 429 0
2021-09-22 14:46:14 GMT 48.956955 1.598088 19,000 287 429 0
2021-09-22 14:46:11 GMT 48.954987 1.607948 18,975 287 429 0
2021-09-22 14:46:08 GMT 48.953075 1.617448 18,975 287 429 -64
2021-09-22 14:46:05 GMT 48.951645 1.624638 19,000 287 429 -64
2021-09-22 14:46:02 GMT 48.949726 1.634216 18,975 287 429 0
2021-09-22 14:45:59 GMT 48.948143 1.642311 18,975 287 429 0
2021-09-22 14:45:55 GMT 48.945648 1.654710 18,975 287 430 0
2021-09-22 14:45:52 GMT 48.944183 1.661899 18,975 287 430 0
2021-09-22 14:45:49 GMT 48.942535 1.670274 18,975 287 430 0
2021-09-22 14:45:47 GMT 48.941254 1.676612 18,975 288 429 0
2021-09-22 14:45:44 GMT 48.939194 1.687035 18,975 288 430 -64
2021-09-22 14:45:39 GMT 48.935062 1.707507 18,975 287 430 -64
2021-09-22 14:45:33 GMT 48.932693 1.719360 18,975 288 430 0
2021-09-22 14:45:30 GMT 48.931335 1.726010 18,975 288 430 -64
2021-09-22 14:45:28 GMT 48.930450 1.730347 18,975 288 430 -64
2021-09-22 14:45:25 GMT 48.928391 1.740770 18,975 288 430 0
2021-09-22 14:45:20 GMT 48.925232 1.756334 18,975 288 430 -64
2021-09-22 14:45:17 GMT 48.923656 1.764173 18,975 288 431 -64
2021-09-22 14:45:14 GMT 48.921886 1.772846 18,975 288 431 -64
2021-09-22 14:45:10 GMT 48.919418 1.784989 18,975 287 431 -64
2021-09-22 14:45:06 GMT 48.917698 1.793663 19,000 288 432 0
2021-09-22 14:45:03 GMT 48.915985 1.802040 18,975 288 433 -64
2021-09-22 14:44:59 GMT 48.912964 1.817111 18,975 288 432 0
2021-09-22 14:44:57 GMT 48.911774 1.822956 18,975 288 433 -64
2021-09-22 14:44:54 GMT 48.910526 1.829007 18,975 288 433 -64
2021-09-22 14:44:50 GMT 48.907883 1.842041 18,975 288 433 -64
2021-09-22 14:44:47 GMT 48.906429 1.849317 18,975 288 434 -64
2021-09-22 14:44:44 GMT 48.904724 1.857746 18,975 288 434 -64
2021-09-22 14:44:41 GMT 48.902481 1.868803 18,975 288 434 -64
2021-09-22 14:44:38 GMT 48.900833 1.876972 19,000 288 434 -64
2021-09-22 14:44:35 GMT 48.899075 1.885384 19,000 288 434 -64
2021-09-22 14:44:32 GMT 48.897308 1.894130 19,000 288 434 -64
2021-09-22 14:44:29 GMT 48.895615 1.902607 19,000 288 434 -64
2021-09-22 14:44:26 GMT 48.893829 1.911339 19,000 288 434 -64
2021-09-22 14:44:22 GMT 48.888931 1.935143 19,000 288 434 -64
2021-09-22 14:44:18 GMT 48.888931 1.935143 19,000 288 434 -64
2021-09-22 14:44:15 GMT 48.886414 1.947688 19,000 288 434 -64
2021-09-22 14:44:12 GMT 48.885204 1.953470 19,000 288 433 64
2021-09-22 14:44:08 GMT 48.883484 1.961905 19,000 288 433 192
2021-09-22 14:44:05 GMT 48.881153 1.973202 18,975 288 433 320
2021-09-22 14:44:02 GMT 48.879150 1.983105 18,950 288 432 576
2021-09-22 14:43:59 GMT 48.875290 2.001906 18,925 288 432 768
2021-09-22 14:43:55 GMT 48.875290 2.001906 18,675 288 431 960
2021-09-22 14:43:52 GMT 48.873184 2.012259 18,825 288 431 1088
2021-09-22 14:43:49 GMT 48.871536 2.020358 18,800 288 430 1280
2021-09-22 14:43:46 GMT 48.870117 2.027259 18,750 288 429 1600
2021-09-22 14:43:42 GMT 48.867466 2.040204 18,575 288 428 1920
2021-09-22 14:43:39 GMT 48.865791 2.048227 18,550 288 428 1920
2021-09-22 14:43:36 GMT 48.864120 2.056556 18,450 288 428 1856
2021-09-22 14:43:33 GMT 48.861053 2.071416 18,275 288 426 1856
2021-09-22 14:43:30 GMT 48.861053 2.071416 18,300 288 427 1856
2021-09-22 14:43:27 GMT 48.859226 2.080247 18,150 288 426 1856
2021-09-22 14:43:24 GMT 48.856995 2.091089 18,075 288 425 1856
2021-09-22 14:43:21 GMT 48.855129 2.100196 18,000 288 425 1792
2021-09-22 14:43:17 GMT 48.852898 2.111037 17,900 288 424 1664
2021-09-22 14:43:14 GMT 48.849312 2.128601 17,700 288 418 1472
2021-09-22 14:43:10 GMT 48.849312 2.128601 17,750 288 421 1536
2021-09-22 14:43:06 GMT 48.846725 2.141278 17,600 288 418 1408
2021-09-22 14:43:03 GMT 48.844849 2.150292 17,525 288 418 1472
2021-09-22 14:43:00 GMT 48.843212 2.158380 17,500 288 417 1536
2021-09-22 14:42:56 GMT 48.840794 2.170161 17,350 288 415 1856
2021-09-22 14:42:53 GMT 48.839127 2.178180 17,175 288 414 1920
2021-09-22 14:42:49 GMT 48.836746 2.189871 17,175 288 414 1920
2021-09-22 14:42:45 GMT 48.834324 2.201819 17,050 288 413 1920
2021-09-22 14:42:42 GMT 48.833298 2.206806 16,975 288 413 1984
2021-09-22 14:42:39 GMT 48.831528 2.215365 16,900 288 413 1984
2021-09-22 14:42:36 GMT 48.829376 2.225858 16,825 288 413 1984
2021-09-22 14:42:33 GMT 48.827759 2.233911 16,575 288 412 1984
2021-09-22 14:42:30 GMT 48.826126 2.241845 16,425 288 410 2048
2021-09-22 14:42:26 GMT 48.823940 2.252559 16,450 288 410 1984
2021-09-22 14:42:22 GMT 48.821869 2.262761 16,075 288 409 2112
2021-09-22 14:42:19 GMT 48.819702 2.273447 15,250 288 409 2112
2021-09-22 14:42:15 GMT 48.818123 2.281109 16,125 287 408 2048
2021-09-22 14:42:12 GMT 48.816284 2.290720 15,875 284 406 2048
2021-09-22 14:42:09 GMT 48.814396 2.301419 15,850 283 406 2048
2021-09-22 14:42:06 GMT 48.813492 2.307270 15,800 283 407 2048
2021-09-22 14:42:02 GMT 48.811977 2.318115 15,575 281 405 2176
2021-09-22 14:41:59 GMT 48.810974 2.326214 15,525 279 404 2176
2021-09-22 14:41:56 GMT 48.809921 2.335722 15,450 279 405 2176
2021-09-22 14:41:52 GMT 48.809044 2.345581 15,225 277 404 2176
2021-09-22 14:41:49 GMT 48.808300 2.355700 15,225 276 403 2112
2021-09-22 14:41:46 GMT 48.807789 2.364157 15,100 275 403 2112
2021-09-22 14:41:42 GMT 48.806854 2.386921 14,775 272 401 2176
2021-09-22 14:41:38 GMT 48.806854 2.386921 14,825 272 401 2240
2021-09-22 14:41:35 GMT 48.806717 2.392851 14,750 271 401 2176
2021-09-22 14:41:32 GMT 48.806763 2.403189 14,500 266 400 2176
2021-09-22 14:41:28 GMT 48.807274 2.415836 14,475 265 400 2176
2021-09-22 14:41:25 GMT 48.807632 2.421077 14,325 262 399 2176
2021-09-22 14:41:22 GMT 48.808624 2.431303 14,150 259 398 2112
2021-09-22 14:41:19 GMT 48.810379 2.443613 14,150 256 397 2240
2021-09-22 14:41:16 GMT 48.811047 2.447638 14,050 255 397 2240
2021-09-22 14:41:13 GMT 48.812256 2.454388 13,775 255 397 2304
2021-09-22 14:41:10 GMT 48.814087 2.464600 13,825 255 396 2240
2021-09-22 14:41:07 GMT 48.815235 2.470695 13,750 255 396 2240
2021-09-22 14:41:04 GMT 48.816490 2.477634 13,650 255 395 2240
2021-09-22 14:41:01 GMT 48.818619 2.489108 13,400 255 393 2432
2021-09-22 14:40:58 GMT 48.819717 2.494953 13,325 255 393 2432
2021-09-22 14:40:55 GMT 48.820953 2.501855 13,250 255 393 2496
2021-09-22 14:40:52 GMT 48.822403 2.509581 13,125 255 393 2496
2021-09-22 14:40:49 GMT 48.823883 2.517841 13,075 255 393 2496
2021-09-22 14:40:45 GMT 48.825897 2.528662 12,925 255 392 2432
2021-09-22 14:40:41 GMT 48.827850 2.539287 12,700 255 391 2432
2021-09-22 14:40:38 GMT 48.829559 2.548476 12,575 255 391 2368
2021-09-22 14:40:35 GMT 48.831436 2.558803 12,475 255 391 2304
2021-09-22 14:40:30 GMT 48.833405 2.569604 12,325 255 388 2176
2021-09-22 14:40:27 GMT 48.834881 2.577740 12,225 255 388 2048
2021-09-22 14:40:23 GMT 48.838326 2.596604 12,000 255 385 1728
2021-09-22 14:40:19 GMT 48.838326 2.596604 12,000 255 385 1728
2021-09-22 14:40:15 GMT 48.840500 2.608830 11,850 255 380 1216
2021-09-22 14:40:12 GMT 48.842140 2.617854 11,800 255 379 1216
2021-09-22 14:40:07 GMT 48.844563 2.631153 11,700 255 376 1152
2021-09-22 14:40:04 GMT 48.845718 2.637493 11,675 255 373 1216
2021-09-22 14:40:01 GMT 48.846844 2.643802 11,600 255 368 1280
2021-09-22 14:39:58 GMT 48.848465 2.652564 11,550 255 368 1280
2021-09-22 14:39:54 GMT 48.850204 2.662494 11,475 255 365 1280
2021-09-22 14:39:51 GMT 48.851486 2.669396 11,425 255 362 1344
2021-09-22 14:39:47 GMT 48.853081 2.678496 11,350 255 360 1344
2021-09-22 14:39:43 GMT 48.854805 2.688181 11,250 255 357 1344
2021-09-22 14:39:40 GMT 48.855923 2.694469 11,200 255 354 1280
2021-09-22 14:39:37 GMT 48.857456 2.703070 11,150 256 351 1216
2021-09-22 14:39:33 GMT 48.860184 2.718412 11,050 255 346 1216
2021-09-22 14:39:30 GMT 48.860184 2.718412 11,000 256 345 1280
2021-09-22 14:39:26 GMT 48.862152 2.729610 10,925 255 337 1216
2021-09-22 14:39:23 GMT 48.863369 2.736246 10,350 255 337 1216
2021-09-22 14:39:19 GMT 48.865280 2.747233 10,750 255 334 1216
2021-09-22 14:39:16 GMT 48.866272 2.752850 10,700 255 329 1152
2021-09-22 14:39:13 GMT 48.867233 2.758202 10,650 255 327 1152
2021-09-22 14:39:10 GMT 48.868515 2.765315 10,600 255 321 1152
2021-09-22 14:39:06 GMT 48.869888 2.772964 10,550 255 321 1152
2021-09-22 14:39:03 GMT 48.871353 2.780950 10,475 255 317 1152
2021-09-22 14:39:00 GMT 48.872498 2.787358 10,425 255 313 1024
2021-09-22 14:38:57 GMT 48.873657 2.793924 10,375 197 287 2304
2021-09-22 14:38:53 GMT 48.876160 2.807922 10,300 255 306 1856
2021-09-22 14:38:50 GMT 48.876160 2.807922 10,200 254 304 2176
2021-09-22 14:38:47 GMT 48.877663 2.815030 10,075 247 302 2176
2021-09-22 14:38:43 GMT 48.879456 2.821937 9,900 244 301 2176
2021-09-22 14:38:40 GMT 48.881287 2.827219 9,850 239 299 2240
2021-09-22 14:38:36 GMT 48.884079 2.833980 9,725 234 298 2304
2021-09-22 14:38:32 GMT 48.887997 2.841267 9,550 226 295 2432
2021-09-22 14:38:29 GMT 48.890511 2.845025 9,450 222 293 2560
2021-09-22 14:38:26 GMT 48.893463 2.848980 9,325 217 291 2688
2021-09-22 14:38:21 GMT 48.900192 2.855811 9,000 205 289 2496
2021-09-22 14:38:13 GMT 48.910480 2.862011 8,700 194 286 2240
2021-09-22 14:38:10 GMT 48.912762 2.862878 8,600 191 284 2304
2021-09-22 14:38:06 GMT 48.918488 2.864324 8,500 187 282 2624
2021-09-22 14:38:00 GMT 48.926540 2.865336 8,225 184 281 2816
2021-09-22 14:37:56 GMT 48.931641 2.865671 8,025 183 280 2688
2021-09-22 14:37:52 GMT 48.937088 2.866094 7,850 183 280 2688
2021-09-22 14:37:49 GMT 48.940323 2.866347 7,775 183 279 2688
2021-09-22 14:37:45 GMT 48.945099 2.866657 7,600 183 279 2624
2021-09-22 14:37:42 GMT 48.949585 2.866998 7,425 183 278 2688
2021-09-22 14:37:39 GMT 48.952789 2.867150 7,350 182 277 2624
2021-09-22 14:37:36 GMT 48.957916 2.867361 7,175 182 277 2688
2021-09-22 14:37:31 GMT 48.963409 2.867504 6,975 136 267 2496
2021-09-22 14:37:28 GMT 48.966717 2.867359 6,875 175 273 2752
2021-09-22 14:37:25 GMT 48.970642 2.867009 6,750 173 273 2816
2021-09-22 14:37:21 GMT 48.976257 2.865842 6,525 166 271 2880
2021-09-22 14:37:18 GMT 48.979191 2.864685 6,400 131 265 2496
2021-09-22 14:37:15 GMT 48.983047 2.862643 6,275 157 269 2816
2021-09-22 14:37:08 GMT 48.991573 2.855289 5,900 144 268 2624
2021-09-22 14:37:05 GMT 48.993576 2.852783 5,825 138 267 2560
2021-09-22 14:37:02 GMT 48.997021 2.847700 5,650 129 265 2496
2021-09-22 14:36:58 GMT 48.999023 2.844121 5,575 124 264 2496
2021-09-22 14:36:55 GMT 49.001724 2.838159 5,425 119 263 2432
2021-09-22 14:36:51 GMT 49.003723 2.832232 5,200 112 262 2496
2021-09-22 14:36:48 GMT 49.005066 2.827289 5,150 105 261 2496
2021-09-22 14:36:44 GMT 49.006378 2.820017 4,975 101 260 2560
2021-09-22 14:36:38 GMT 49.007542 2.807368 4,700 93 258 2304
2021-09-22 14:36:34 GMT 49.007767 2.802147 4,600 92 257 2112
2021-09-22 14:36:31 GMT 49.007858 2.797077 4,150 85 242 1216
2021-09-22 14:36:28 GMT 49.007820 2.790455 4,400 88 252 1856
2021-09-22 14:36:25 GMT 49.007675 2.783907 4,275 86 249 1792
2021-09-22 14:36:19 GMT 49.006805 2.766724 4,075 85 238 1024
2021-09-22 14:36:14 GMT 49.006805 2.766724 4,050 85 238 1024
2021-09-22 14:36:08 GMT 49.006348 2.756864 3,950 85 229 1664
2021-09-22 14:36:04 GMT 49.005981 2.750455 3,825 85 226 1600
2021-09-22 14:36:00 GMT 49.005680 2.743980 3,725 85 219 832
2021-09-22 14:35:57 GMT 49.005447 2.739354 3,700 85 219 832
2021-09-22 14:35:54 GMT 49.005215 2.734728 3,650 85 214 832
2021-09-22 14:35:51 GMT 49.004883 2.728342 3,575 85 200 960
2021-09-22 14:35:47 GMT 49.004749 2.725332 3,550 86 203 960
2021-09-22 14:35:44 GMT 49.004517 2.720200 3,500 86 199 960
2021-09-22 14:35:38 GMT 49.004143 2.711599 3,375 86 191 896
2021-09-22 14:35:34 GMT 49.003922 2.706440 3,350 85 186 768
2021-09-22 14:35:30 GMT 49.003418 2.697214 3,300 84 177 768
2021-09-22 14:35:27 GMT 49.003418 2.697214 3,250 84 176 960
2021-09-22 14:35:23 GMT 49.003120 2.692662 3,175 84 172 1728
2021-09-22 14:35:18 GMT 49.002686 2.686016 3,000 84 171 2176
2021-09-22 14:35:14 GMT 49.002319 2.680523 2,825 84 171 2176
2021-09-22 14:35:09 GMT 49.002094 2.676327 2,375 84 171 2176
2021-09-22 14:35:06 GMT 49.001862 2.672847 2,375 84 171 2176
2021-09-22 14:35:03 GMT 49.001678 2.669100 2,475 84 171 2304
2021-09-22 14:34:59 GMT 49.001358 2.663269 2,300 85 171 2304
2021-09-22 14:34:56 GMT 49.001209 2.660932 2,225 84 171 2240
2021-09-22 14:34:53 GMT 49.000946 2.656508 2,075 84 171 2240
2021-09-22 14:34:47 GMT 49.000534 2.649536 1,875 84 171 2176
2021-09-22 14:34:43 GMT 49.000214 2.644536 1,725 84 171 2240
2021-09-22 14:34:37 GMT 48.999767 2.637152 1,425 84 171 2304
2021-09-22 14:34:33 GMT 48.999535 2.632599 1,350 84 171 2304
2021-09-22 14:34:29 GMT 48.999252 2.627704 1,175 85 172 2560
2021-09-22 14:34:26 GMT 48.999115 2.624535 975 86 173 2624
2021-09-22 14:34:22 GMT 48.998882 2.619083 925 86 173 2304
2021-09-22 14:34:17 GMT 48.998604 2.612939 675 86 173 2304
2021-09-22 14:34:11 GMT 48.998371 2.606434 475 86 172 2304
2021-09-22 14:34:05 GMT 48.998093 2.598917 225 86 172 2496
2021-09-22 14:33:24 GMT 48.996185 2.562037 0 84 53
2021-09-22 14:33:16 GMT 48.996071 2.559832 0 84 13
2021-09-22 14:33:05 GMT 48.996044 2.559363 0 84 0
2021-09-22 14:32:47 GMT 48.996037 2.559321 0 84 2
2021-09-22 14:32:44 GMT 48.996037 2.559286 0 84 4
2021-09-22 14:32:29 GMT 48.995987 2.558766 0 101 5
2021-09-22 14:32:25 GMT 48.995987 2.558712 0 106 5
2021-09-22 14:32:14 GMT 48.996044 2.558369 0 160 6
2021-09-22 14:32:05 GMT 48.996311 2.558230 0 174 7
2021-09-22 14:31:46 GMT 48.996872 2.558177 0 174 6
2021-09-22 14:31:45 GMT 48.996895 2.558159 0 174 5
2021-09-22 14:31:03 GMT 48.997150 2.558134 0 174 0
2021-09-22 14:30:51 GMT 48.997185 2.558134 0 174 2
2021-09-22 14:30:44 GMT 48.997238 2.558124 0 174 3
2021-09-22 14:30:30 GMT 48.997478 2.558107 0 174 5
2021-09-22 14:30:24 GMT 48.997627 2.558071 0 171 6
We lost coverage of the aircraft here for a total of 67 minutes
2021-09-22 13:23:02 GMT 49.000408 2.568670 0 174 2
2021-09-22 13:22:46 GMT 49.000648 2.568635 0 174 6
2021-09-22 13:22:33 GMT 49.000954 2.568578 0 199 4
2021-09-22 13:21:29 GMT 49.001202 2.569536 0 320 7
2021-09-22 13:21:00 GMT 49.000118 2.569933 0 351 9
2021-09-22 13:20:58 GMT 49.000008 2.569956 0 345 9
2021-09-22 13:20:46 GMT 48.999630 2.570097 0 309 8
2021-09-22 13:20:38 GMT 48.999443 2.570457 0 270 10
2021-09-22 13:20:27 GMT 48.999481 2.571311 0 264 16
2021-09-22 13:15:51 GMT 48.996140 2.561434 -75 85 129 0
2021-09-22 13:15:44 GMT 48.995811 2.554827 -50 85 145 -512
2021-09-22 13:15:34 GMT 48.995205 2.544419 100 85 145 -832
2021-09-22 13:15:23 GMT 48.994080 2.523193 400 85 144 -704
2021-09-22 13:15:13 GMT 48.994080 2.523193 350 85 144 -640
2021-09-22 13:15:03 GMT 48.993576 2.513475 475 84 146 -960
2021-09-22 13:14:53 GMT 48.992935 2.502348 650 85 148 -832
2021-09-22 13:14:44 GMT 48.992294 2.490375 775 85 146 -768
2021-09-22 13:14:37 GMT 48.992088 2.486452 825 84 146 -832
2021-09-22 13:14:33 GMT 48.991837 2.481995 950 85 147 -832
2021-09-22 13:14:22 GMT 48.991249 2.470984 1,025 85 147 -896
2021-09-22 13:14:19 GMT 48.991058 2.467557 1,075 85 149 -704
2021-09-22 13:14:11 GMT 48.990597 2.458914 1,175 85 149 -896
2021-09-22 13:14:08 GMT 48.990410 2.455806 1,200 85 149 -896
2021-09-22 13:14:03 GMT 48.990131 2.450529 1,275 85 149 -832
2021-09-22 13:13:59 GMT 48.989914 2.446500 1,325 85 148 -768
2021-09-22 13:13:52 GMT 48.989479 2.438531 1,425 84 146 -832
2021-09-22 13:13:48 GMT 48.989319 2.435514 2,700 85 166 -960
2021-09-22 13:13:42 GMT 48.988953 2.428964 1,550 85 148 -768
2021-09-22 13:13:38 GMT 48.988724 2.425232 1,600 85 148 -896
2021-09-22 13:13:32 GMT 48.988411 2.418799 1,675 85 151 -896
2021-09-22 13:13:28 GMT 48.988174 2.414879 1,725 85 154 -704
2021-09-22 13:13:23 GMT 48.987808 2.407837 1,825 84 160 -960
2021-09-22 13:13:19 GMT 48.987526 2.402970 1,875 85 163 -1088
2021-09-22 13:13:15 GMT 48.987339 2.399573 1,925 85 164 -896
2021-09-22 13:13:11 GMT 48.987076 2.395301 2,000 85 164 -960
2021-09-22 13:13:08 GMT 48.986938 2.392343 2,050 85 163 -896
2021-09-22 13:13:04 GMT 48.986664 2.387766 2,100 85 162 -960
2021-09-22 13:13:01 GMT 48.986481 2.384315 2,150 85 162 -960
2021-09-22 13:12:57 GMT 48.986206 2.379526 2,200 85 163 -960
2021-09-22 13:12:52 GMT 48.985847 2.372324 2,300 85 164 -960
2021-09-22 13:12:47 GMT 48.985611 2.368258 2,350 85 165 -960
2021-09-22 13:12:42 GMT 48.985107 2.358751 2,475 85 165 -896
2021-09-22 13:12:36 GMT 48.984833 2.353891 2,525 85 165 -960
2021-09-22 13:12:32 GMT 48.984604 2.350159 2,600 85 166 -896
2021-09-22 13:12:28 GMT 48.984329 2.345088 2,700 85 166 -960
2021-09-22 13:12:24 GMT 48.984100 2.341144 2,700 85 166 -960
2021-09-22 13:12:21 GMT 48.983917 2.337623 2,750 85 167 -1024
2021-09-22 13:12:17 GMT 48.983707 2.333511 2,800 85 166 -960
2021-09-22 13:12:12 GMT 48.983276 2.325651 2,925 85 166 -1024
2021-09-22 13:12:09 GMT 48.983150 2.323970 2,950 84 165 -1024
2021-09-22 13:12:05 GMT 48.982868 2.318838 3,000 84 165 -960
2021-09-22 13:12:00 GMT 48.982590 2.313890 3,075 85 164 -1024
2021-09-22 13:11:56 GMT 48.982315 2.308326 3,150 85 163 -960
2021-09-22 13:11:51 GMT 48.981892 2.301636 3,225 84 162 -832
2021-09-22 13:11:46 GMT 48.981674 2.297903 3,275 85 161 -896
2021-09-22 13:11:43 GMT 48.981426 2.293468 3,350 85 162 -832
2021-09-22 13:11:40 GMT 48.981262 2.290156 3,400 85 162 -832
2021-09-22 13:11:37 GMT 48.981052 2.286891 3,525 85 172 -1088
2021-09-22 13:11:33 GMT 48.980869 2.282988 3,450 85 164 -832
2021-09-22 13:11:30 GMT 48.980404 2.275037 3,525 84 169 -896
2021-09-22 13:11:27 GMT 48.980404 2.275037 5,925 85 172 -1088
2021-09-22 13:11:20 GMT 48.979984 2.266870 3,650 85 173 -1088
2021-09-22 13:11:16 GMT 48.979752 2.262533 3,700 85 174 -1088
2021-09-22 13:11:11 GMT 48.979385 2.256493 3,925 85 178 -1216
2021-09-22 13:11:08 GMT 48.979202 2.252972 3,850 84 179 -1216
2021-09-22 13:11:04 GMT 48.978790 2.245859 3,975 85 182 -1344
2021-09-22 13:10:59 GMT 48.978493 2.240633 4,050 85 184 -1280
2021-09-22 13:10:53 GMT 48.978073 2.233405 4,175 85 185 -1216
2021-09-22 13:10:50 GMT 48.977657 2.225310 4,275 85 185 -1216
2021-09-22 13:10:47 GMT 48.977657 2.225310 4,300 85 186 -1216
2021-09-22 13:10:43 GMT 48.977325 2.219731 4,375 84 187 -1216
2021-09-22 13:10:39 GMT 48.977051 2.215013 4,575 83 184 0
2021-09-22 13:10:36 GMT 48.976822 2.210787 4,500 85 186 -832
2021-09-22 13:10:32 GMT 48.976494 2.204927 4,575 85 185 -640
2021-09-22 13:10:29 GMT 48.976307 2.201819 4,600 83 184 0
2021-09-22 13:10:25 GMT 48.976044 2.196984 4,600 85 184 -192
2021-09-22 13:10:19 GMT 48.975559 2.189387 4,625 85 183 0
2021-09-22 13:10:15 GMT 48.974815 2.176811 5,925 265 256 -832
2021-09-22 13:10:10 GMT 48.974815 2.176811 4,625 85 183 -64
2021-09-22 13:10:05 GMT 48.974533 2.171279 4,625 85 183 -64
2021-09-22 13:09:59 GMT 48.973793 2.158524 4,625 75 186 64
2021-09-22 13:09:56 GMT 48.973793 2.158524 4,625 84 183 0
2021-09-22 13:09:49 GMT 48.972908 2.145659 4,625 83 184 0
2021-09-22 13:09:45 GMT 48.972908 2.145659 4,625 83 184 0
2021-09-22 13:09:39 GMT 48.971649 2.132070 4,625 75 186 64
2021-09-22 13:09:35 GMT 48.971649 2.132070 4,600 78 186 0
2021-09-22 13:09:28 GMT 48.970020 2.122891 4,600 70 189 0
2021-09-22 13:09:24 GMT 48.968952 2.118916 5,925 265 256 -832
2021-09-22 13:09:21 GMT 48.967026 2.113601 4,600 58 194 -128
2021-09-22 13:09:18 GMT 48.966248 2.111699 4,625 56 198 -192
2021-09-22 13:09:15 GMT 48.964622 2.107857 5,925 265 256 -832
2021-09-22 13:09:10 GMT 48.961990 2.101840 4,625 56 204 0
2021-09-22 13:09:07 GMT 48.960712 2.098822 4,625 56 206 0
2021-09-22 13:09:04 GMT 48.959221 2.095498 4,625 56 207 0
2021-09-22 13:08:58 GMT 48.955490 2.087191 4,625 54 207 -64
2021-09-22 13:08:54 GMT 48.953568 2.083177 5,925 265 256 -832
2021-09-22 13:08:48 GMT 48.949677 2.075853 4,625 40 214 -64
2021-09-22 13:08:44 GMT 48.947205 2.071979 4,625 41 213 -64
2021-09-22 13:08:38 GMT 48.941998 2.066080 4,625 18 226 -320
2021-09-22 13:08:35 GMT 48.938457 2.063550 4,625 15 228 -384
2021-09-22 13:08:30 GMT 48.933804 2.061527 4,675 7 232 -704
2021-09-22 13:08:27 GMT 48.931244 2.060948 4,675 7 232 -704
2021-09-22 13:08:24 GMT 48.927887 2.060711 4,725 359 237 -1088
2021-09-22 13:08:19 GMT 48.921654 2.061816 4,825 347 239 -960
2021-09-22 13:08:14 GMT 48.917000 2.063912 4,925 339 241 -896
2021-09-22 13:08:11 GMT 48.913834 2.066134 5,125 305 247 -768
2021-09-22 13:08:08 GMT 48.905453 2.075693 5,150 317 246 -704
2021-09-22 13:08:02 GMT 48.905453 2.075693 5,200 305 247 -768
2021-09-22 13:07:59 GMT 48.903217 2.079669 5,200 299 249 -832
2021-09-22 13:07:56 GMT 48.901634 2.083066 5,225 303 248 -768
2021-09-22 13:07:51 GMT 48.898750 2.091378 5,325 293 250 -1024
2021-09-22 13:07:48 GMT 48.897583 2.096205 5,375 287 250 -1024
2021-09-22 13:07:44 GMT 48.896530 2.103107 5,425 280 252 -1024
2021-09-22 13:07:36 GMT 48.896004 2.116386 5,575 268 253 -1152
2021-09-22 13:07:33 GMT 48.896210 2.121488 5,625 266 253 -1088
2021-09-22 13:07:28 GMT 48.896839 2.131926 5,775 265 254 -960
2021-09-22 13:07:24 GMT 48.897961 2.150429 5,925 265 256 -768
2021-09-22 13:07:18 GMT 48.898361 2.157053 5,900 265 256 -832
2021-09-22 13:07:13 GMT 48.898361 2.157053 5,900 265 256 -768
2021-09-22 13:07:09 GMT 48.898911 2.165997 5,975 265 257 -832
2021-09-22 13:07:05 GMT 48.899231 2.171067 6,000 265 258 -704
2021-09-22 13:07:01 GMT 48.899826 2.180504 6,050 265 259 -704
2021-09-22 13:06:58 GMT 48.900421 2.189589 7,175 265 261 -1856
2021-09-22 13:06:55 GMT 48.900421 2.189589 6,125 265 261 -1280
2021-09-22 13:06:52 GMT 48.900703 2.194880 6,200 265 260 -1536
2021-09-22 13:06:45 GMT 48.901474 2.207689 6,375 266 258 -1792
2021-09-22 13:06:36 GMT 48.902481 2.225084 6,650 265 260 -1920
2021-09-22 13:06:32 GMT 48.903637 2.244247 6,825 266 292 -1664
2021-09-22 13:06:26 GMT 48.903637 2.244247 6,975 265 263 -1920
2021-09-22 13:06:22 GMT 48.904011 2.250463 7,075 265 264 -1856
2021-09-22 13:06:19 GMT 48.904358 2.256212 7,175 265 264 -1856
2021-09-22 13:06:15 GMT 48.904861 2.264029 7,275 265 267 -1600
2021-09-22 13:06:11 GMT 48.905220 2.270122 7,375 265 268 -1536
2021-09-22 13:06:07 GMT 48.905731 2.277712 7,500 265 272 -1280
2021-09-22 13:06:04 GMT 48.906059 2.283349 7,525 265 273 -1280
2021-09-22 13:06:01 GMT 48.906464 2.289734 7,600 265 276 -1216
2021-09-22 13:05:55 GMT 48.907223 2.302359 7,700 265 283 -1152
2021-09-22 13:05:51 GMT 48.907597 2.308719 7,900 266 295 -2368
2021-09-22 13:05:47 GMT 48.908066 2.316988 7,900 266 292 -1664
2021-09-22 13:05:44 GMT 48.908386 2.322622 7,975 266 293 -1920
2021-09-22 13:05:41 GMT 48.908710 2.328596 8,000 266 294 -2048
2021-09-22 13:05:37 GMT 48.909302 2.339102 8,225 266 296 -2560
2021-09-22 13:05:34 GMT 48.909550 2.343413 8,375 266 299 -2560
2021-09-22 13:05:31 GMT 48.909943 2.350300 8,400 266 297 -2560
2021-09-22 13:05:27 GMT 48.910446 2.359455 8,750 266 299 -2560
2021-09-22 13:05:24 GMT 48.910713 2.364229 8,675 266 299 -2560
2021-09-22 13:05:21 GMT 48.911041 2.370723 9,025 266 300 -2624
2021-09-22 13:05:17 GMT 48.911591 2.379949 9,100 266 301 -2688
2021-09-22 13:05:14 GMT 48.911865 2.385442 9,425 266 302 -2880
2021-09-22 13:05:09 GMT 48.913101 2.406569 9,550 266 303 -2944
2021-09-22 13:05:04 GMT 48.913101 2.406569 9,550 266 303 -2944
2021-09-22 13:05:01 GMT 48.913513 2.414175 9,725 266 302 -3136
2021-09-22 13:04:56 GMT 48.914253 2.428774 10,075 266 301 -3200
2021-09-22 13:04:53 GMT 48.914253 2.428774 10,075 266 301 -3200
2021-09-22 13:04:49 GMT 48.914764 2.439326 10,325 266 300 -3072
2021-09-22 13:04:45 GMT 48.915089 2.446915 10,575 266 300 -2944
2021-09-22 13:04:42 GMT 48.915390 2.453472 10,725 266 300 -2944
2021-09-22 13:04:39 GMT 48.915756 2.460656 10,800 266 300 -2880
2021-09-22 13:04:36 GMT 48.915985 2.465656 11,000 266 300 -2880
2021-09-22 13:04:33 GMT 48.916252 2.472213 11,050 267 301 -2880
2021-09-22 13:04:29 GMT 48.916672 2.481537 11,275 267 301 -2880
2021-09-22 13:04:25 GMT 48.917038 2.489741 11,450 267 301 -2816
2021-09-22 13:04:21 GMT 48.917465 2.499245 11,625 267 302 -2624
2021-09-22 13:04:18 GMT 48.917679 2.503333 11,725 267 303 -2496
2021-09-22 13:04:15 GMT 48.918022 2.511171 11,850 266 304 -2304
2021-09-22 13:04:11 GMT 48.918442 2.519266 12,100 266 310 -1792
2021-09-22 13:04:08 GMT 48.918732 2.526433 12,100 266 309 -1856
2021-09-22 13:04:05 GMT 48.919048 2.532710 12,200 266 312 -1664
2021-09-22 13:04:02 GMT 48.919327 2.538854 12,275 266 316 -1536
2021-09-22 13:03:59 GMT 48.919651 2.545431 12,325 266 318 -1536
2021-09-22 13:03:56 GMT 48.919979 2.551286 12,450 266 323 -1536
2021-09-22 13:03:53 GMT 48.920334 2.558265 12,500 265 327 -1600
2021-09-22 13:03:49 GMT 48.920910 2.567621 12,550 265 330 -1600
2021-09-22 13:03:44 GMT 48.921608 2.579691 12,675 265 335 -1600
2021-09-22 13:03:41 GMT 48.921982 2.585097 12,775 265 340 -1536
2021-09-22 13:03:38 GMT 48.922531 2.594112 12,850 265 343 -1536
2021-09-22 13:03:35 GMT 48.922958 2.600146 12,950 264 350 -1536
2021-09-22 13:03:32 GMT 48.923656 2.609903 13,000 264 353 -1600
2021-09-22 13:03:28 GMT 48.924316 2.618056 13,075 263 357 -1728
2021-09-22 13:03:25 GMT 48.924820 2.624042 13,150 263 362 -1856
2021-09-22 13:03:22 GMT 48.925797 2.634406 13,325 262 372 -2240
2021-09-22 13:03:18 GMT 48.926540 2.642646 13,400 262 374 -2432
2021-09-22 13:03:15 GMT 48.927567 2.652705 13,525 261 376 -2560
2021-09-22 13:03:12 GMT 48.928356 2.660354 13,650 261 380 -2816
2021-09-22 13:03:08 GMT 48.929474 2.670328 13,825 261 383 -3008
2021-09-22 13:03:04 GMT 48.931801 2.690133 14,050 260 389 -2624
2021-09-22 13:03:01 GMT 48.932781 2.697722 14,300 260 391 -2112
2021-09-22 13:02:58 GMT 48.932781 2.697722 14,275 260 398 -1216
2021-09-22 13:02:53 GMT 48.934296 2.709538 14,350 259 402 -896
2021-09-22 13:02:50 GMT 48.935532 2.718975 14,375 259 404 -1024
2021-09-22 13:02:46 GMT 48.936996 2.730173 14,425 259 407 -1024
2021-09-22 13:02:43 GMT 48.937946 2.737692 14,500 260 409 -1024
2021-09-22 13:02:40 GMT 48.939018 2.746148 14,525 260 410 -960
2021-09-22 13:02:35 GMT 48.940556 2.759231 14,600 261 412 -896
2021-09-22 13:02:30 GMT 48.942139 2.774120 14,700 267 417 -704
2021-09-22 13:02:26 GMT 48.943268 2.788344 14,750 265 416 -768
2021-09-22 13:02:23 GMT 48.943588 2.793556 14,750 267 417 -704
2021-09-22 13:02:20 GMT 48.943859 2.804405 14,800 274 419 -704
2021-09-22 13:02:15 GMT 48.943176 2.819965 14,850 280 420 -640
2021-09-22 13:02:10 GMT 48.940887 2.836163 14,925 290 420 -512
2021-09-22 13:02:04 GMT 48.936783 2.852976 14,975 297 419 -448
2021-09-22 13:02:01 GMT 48.932499 2.864902 14,975 302 419 -256
2021-09-22 13:01:58 GMT 48.932499 2.864902 15,000 302 419 -256
2021-09-22 13:01:55 GMT 48.928848 2.872854 15,000 309 419 -64
2021-09-22 13:01:52 GMT 48.925507 2.879333 15,000 312 419 64
2021-09-22 13:01:49 GMT 48.921047 2.887091 15,000 313 419 0
2021-09-22 13:01:44 GMT 48.915554 2.896271 15,000 313 419 0
2021-09-22 13:01:41 GMT 48.907333 2.909968 15,000 313 420 -64
2021-09-22 13:01:38 GMT 48.907333 2.909968 15,000 313 420 0
2021-09-22 13:01:34 GMT 48.902115 2.918701 15,000 313 420 0
2021-09-22 13:01:31 GMT 48.892960 2.933983 14,975 313 420 0
2021-09-22 13:01:23 GMT 48.887695 2.942716 15,000 313 421 -64
2021-09-22 13:01:19 GMT 48.880875 2.954055 14,975 313 421 0
2021-09-22 13:01:14 GMT 48.876266 2.961683 15,000 313 421 -64
2021-09-22 13:01:11 GMT 48.871124 2.970112 14,975 313 421 0
2021-09-22 13:01:08 GMT 48.867512 2.975922 15,000 314 421 64
2021-09-22 13:01:03 GMT 48.861053 2.986521 14,975 312 421 -64
2021-09-22 13:01:00 GMT 48.856842 2.993563 15,000 311 421 0
2021-09-22 13:00:57 GMT 48.852081 3.002085 15,000 310 421 0
2021-09-22 13:00:53 GMT 48.848988 3.007796 15,000 308 421 -64
2021-09-22 13:00:50 GMT 48.844757 3.015958 15,000 307 421 0
2021-09-22 13:00:45 GMT 48.838577 3.028846 15,000 303 421 0
2021-09-22 13:00:41 GMT 48.835098 3.036663 15,000 303 421 -64
2021-09-22 13:00:38 GMT 48.830887 3.046593 15,000 303 421 -64
2021-09-22 13:00:34 GMT 48.827545 3.054551 15,000 303 421 0
2021-09-22 13:00:29 GMT 48.822636 3.066197 15,000 303 421 0
2021-09-22 13:00:26 GMT 48.819580 3.073425 15,000 303 420 0
2021-09-22 13:00:22 GMT 48.815098 3.084123 15,000 303 421 -64
2021-09-22 13:00:19 GMT 48.810196 3.095821 15,000 303 421 -64
2021-09-22 13:00:11 GMT 48.803055 3.112723 14,975 303 421 0
2021-09-22 13:00:08 GMT 48.800537 3.118638 15,000 303 421 0
2021-09-22 13:00:04 GMT 48.796555 3.128075 15,000 303 420 -64
2021-09-22 12:59:59 GMT 48.789726 3.144186 15,000 303 419 -64
2021-09-22 12:59:54 GMT 48.786072 3.152865 15,000 303 419 -64
2021-09-22 12:59:50 GMT 48.781677 3.163288 15,000 303 419 0
2021-09-22 12:59:47 GMT 48.778645 3.170495 15,000 303 419 0
2021-09-22 12:59:43 GMT 48.773529 3.182584 15,000 303 419 -64
2021-09-22 12:59:38 GMT 48.768215 3.195215 15,000 303 419 0
2021-09-22 12:59:34 GMT 48.764328 3.204346 14,975 303 419 -64
2021-09-22 12:59:29 GMT 48.759109 3.216741 14,975 303 419 -64
2021-09-22 12:59:23 GMT 48.753845 3.229065 15,000 303 419 0
2021-09-22 12:59:20 GMT 48.750015 3.238220 14,975 303 419 0
2021-09-22 12:59:17 GMT 48.746155 3.247305 14,975 303 419 0
2021-09-22 12:59:09 GMT 48.738190 3.266109 15,000 303 419 0
2021-09-22 12:59:06 GMT 48.734142 3.275733 15,000 303 419 -64
2021-09-22 12:59:02 GMT 48.730976 3.283177 15,000 303 420 -64
2021-09-22 12:58:59 GMT 48.727112 3.292307 15,000 303 420 0
2021-09-22 12:58:56 GMT 48.723770 3.300194 15,000 303 421 -64
2021-09-22 12:58:51 GMT 48.719662 3.309848 15,000 303 421 -64
2021-09-22 12:58:48 GMT 48.716499 3.317293 15,000 303 421 -64
2021-09-22 12:58:41 GMT 48.709328 3.334134 15,000 303 421 0
2021-09-22 12:58:38 GMT 48.706161 3.341578 15,000 303 421 -64
2021-09-22 12:58:31 GMT 48.698574 3.359431 15,000 303 421 -64
2021-09-22 12:58:28 GMT 48.695114 3.367591 15,000 303 421 0
2021-09-22 12:58:23 GMT 48.690147 3.379236 15,000 303 421 0
2021-09-22 12:58:20 GMT 48.686874 3.386888 15,000 303 421 0
2021-09-22 12:58:17 GMT 48.683716 3.394282 15,000 303 421 0
2021-09-22 12:58:11 GMT 48.676884 3.410315 15,000 303 421 -64
2021-09-22 12:58:08 GMT 48.673904 3.417254 15,000 303 421 0
2021-09-22 12:58:00 GMT 48.665588 3.436749 14,975 303 420 0
2021-09-22 12:57:57 GMT 48.663151 3.442407 15,000 303 420 0
2021-09-22 12:57:50 GMT 48.656029 3.459176 15,000 303 419 0
2021-09-22 12:57:46 GMT 48.650951 3.470957 15,000 303 419 -64
2021-09-22 12:57:41 GMT 48.644623 3.485702 14,975 303 419 -64
2021-09-22 12:57:37 GMT 48.641785 3.492314 15,000 303 419 0
2021-09-22 12:57:31 GMT 48.635124 3.507747 15,300 304 422 -1536
2021-09-22 12:57:25 GMT 48.628792 3.522491 14,975 303 419 -64
2021-09-22 12:57:18 GMT 48.621094 3.540415 14,975 303 420 -128
2021-09-22 12:57:15 GMT 48.618576 3.546330 14,975 303 420 -128
2021-09-22 12:57:10 GMT 48.612900 3.559570 15,000 303 420 -384
2021-09-22 12:57:06 GMT 48.609196 3.568244 15,025 303 420 -576
2021-09-22 12:57:01 GMT 48.602509 3.583726 15,475 303 425 -1536
2021-09-22 12:56:58 GMT 48.600220 3.589149 15,200 304 422 -1536
2021-09-22 12:56:55 GMT 48.597885 3.594572 15,200 304 422 -1536
2021-09-22 12:56:49 GMT 48.589874 3.613129 15,375 304 422 -1600
2021-09-22 12:56:46 GMT 48.586712 3.620501 15,450 304 423 -1600
2021-09-22 12:56:36 GMT 48.577423 3.642109 15,675 303 424 -1536
2021-09-22 12:56:28 GMT 48.567444 3.665560 15,875 303 426 -1472
2021-09-22 12:56:25 GMT 48.565475 3.669997 15,925 304 426 -1472
2021-09-22 12:56:16 GMT 48.555359 3.692744 16,125 305 428 -1280
2021-09-22 12:56:04 GMT 48.542038 3.720985 16,325 307 428 -1024
2021-09-22 12:55:56 GMT 48.531685 3.741640 16,475 308 428 -1088
2021-09-22 12:55:46 GMT 48.518650 3.766431 16,650 310 428 -1024
2021-09-22 12:55:37 GMT 48.508736 3.784284 16,800 311 429 -1088
2021-09-22 12:55:34 GMT 48.504181 3.792255 16,850 311 428 -1024
2021-09-22 12:55:25 GMT 48.492554 3.812608 16,975 311 428 -1088
2021-09-22 12:55:15 GMT 48.480015 3.834590 17,150 311 428 -1024
2021-09-22 12:55:04 GMT 48.465866 3.859229 17,325 311 430 -1024
2021-09-22 12:54:56 GMT 48.455063 3.878029 17,500 311 431 -1088
2021-09-22 12:54:53 GMT 48.451035 3.885075 17,525 311 431 -1024
2021-09-22 12:54:43 GMT 48.437988 3.907682 17,675 311 431 -1088
2021-09-22 12:54:34 GMT 48.425594 3.929202 17,825 311 431 -1024
2021-09-22 12:54:31 GMT 48.422195 3.935129 17,875 311 431 -1088
2021-09-22 12:54:27 GMT 48.417446 3.943297 18,000 311 433 -1088
2021-09-22 12:54:24 GMT 48.413132 3.950712 18,000 311 433 -1088
2021-09-22 12:54:21 GMT 48.409195 3.957543 18,050 311 433 -1088
2021-09-22 12:54:14 GMT 48.399765 3.973882 18,150 311 433 -1088
2021-09-22 12:54:07 GMT 48.391750 3.987748 18,275 312 435 -1152
2021-09-22 12:54:04 GMT 48.386856 3.996136 18,325 311 434 -1088
2021-09-22 12:53:59 GMT 48.380814 4.006629 18,400 312 435 -1152
2021-09-22 12:53:53 GMT 48.373547 4.019117 18,500 312 435 -1152
2021-09-22 12:53:43 GMT 48.359489 4.043258 18,700 312 438 -1280
2021-09-22 12:53:37 GMT 48.351562 4.056772 18,950 312 440 -1408
2021-09-22 12:53:34 GMT 48.346207 4.065998 18,925 312 441 -1536
2021-09-22 12:53:26 GMT 48.336678 4.082433 19,100 311 444 -1984
2021-09-22 12:53:23 GMT 48.332794 4.089168 19,200 311 443 -1856
2021-09-22 12:53:12 GMT 48.318104 4.114452 19,525 312 444 -2112
2021-09-22 12:53:05 GMT 48.308655 4.130715 19,750 312 445 -2112
2021-09-22 12:53:02 GMT 48.304459 4.137902 19,875 312 444 -2112
2021-09-22 12:52:52 GMT 48.290314 4.162058 20,200 312 445 -2112
2021-09-22 12:52:45 GMT 48.280956 4.178057 20,400 312 447 -2112
2021-09-22 12:52:42 GMT 48.276859 4.185068 20,975 312 449 -2112
2021-09-22 12:52:32 GMT 48.262573 4.209665 20,975 312 449 -2112
2021-09-22 12:52:21 GMT 48.249161 4.232694 21,200 312 450 -2112
2021-09-22 12:52:15 GMT 48.239429 4.249324 21,450 312 452 -2112
2021-09-22 12:52:12 GMT 48.226913 4.270724 21,700 312 452 -2112
2021-09-22 12:52:05 GMT 48.226913 4.270724 21,750 312 452 -2112
2021-09-22 12:52:02 GMT 48.220718 4.281343 21,900 312 453 -2112
2021-09-22 12:51:53 GMT 48.208694 4.301922 22,150 312 454 -2112
2021-09-22 12:51:50 GMT 48.201675 4.313941 22,350 312 454 -2112
2021-09-22 12:51:42 GMT 48.194462 4.326228 22,525 312 454 -2112
2021-09-22 12:51:37 GMT 48.187088 4.338755 22,575 312 457 -2112
2021-09-22 12:51:34 GMT 48.182217 4.347044 22,825 312 457 -2112
2021-09-22 12:51:31 GMT 48.178867 4.352754 22,925 312 457 -2112
2021-09-22 12:51:28 GMT 48.175415 4.358614 22,975 312 457 -2112
2021-09-22 12:51:19 GMT 48.162991 4.379786 23,275 312 458 -2112
2021-09-22 12:51:14 GMT 48.156097 4.391441 23,575 312 460 -2112
2021-09-22 12:51:09 GMT 48.148544 4.404350 23,800 312 460 -2112
2021-09-22 12:51:01 GMT 48.137009 4.423920 23,900 312 461 -2112
2021-09-22 12:50:58 GMT 48.123001 4.447702 24,300 312 464 -2112
2021-09-22 12:50:51 GMT 48.123001 4.447702 24,225 312 464 -2112
2021-09-22 12:50:48 GMT 48.118488 4.455379 24,325 312 464 -2112
2021-09-22 12:50:44 GMT 48.113087 4.464604 24,600 312 466 -2112
2021-09-22 12:50:39 GMT 48.106571 4.475661 24,600 312 466 -2112
2021-09-22 12:50:36 GMT 48.090279 4.503268 25,175 312 471 -2112
2021-09-22 12:50:28 GMT 48.090279 4.503268 24,975 312 469 -2112
2021-09-22 12:50:24 GMT 48.084553 4.512986 25,125 312 469 -2112
2021-09-22 12:50:21 GMT 48.079945 4.520804 25,225 312 470 -2112
2021-09-22 12:50:17 GMT 48.075378 4.528621 25,550 312 471 -2112
2021-09-22 12:50:14 GMT 48.069168 4.539070 25,475 312 471 -2112
2021-09-22 12:50:10 GMT 48.063126 4.549370 25,600 312 473 -2048
2021-09-22 12:50:06 GMT 48.059647 4.555206 25,700 312 473 -2112
2021-09-22 12:50:00 GMT 48.050400 4.570930 25,925 312 474 -2112
2021-09-22 12:49:57 GMT 48.041656 4.585625 26,050 312 475 -2112
2021-09-22 12:49:54 GMT 48.041656 4.585625 26,425 312 476 -2112
2021-09-22 12:49:50 GMT 48.035393 4.596229 26,250 312 476 -2112
2021-09-22 12:49:46 GMT 48.029854 4.605525 26,425 312 478 -2112
2021-09-22 12:49:43 GMT 48.026184 4.611717 26,450 312 478 -2112
2021-09-22 12:49:40 GMT 48.020599 4.621056 26,575 312 478 -2112
2021-09-22 12:49:36 GMT 48.014862 4.630667 26,750 312 479 -2112
2021-09-22 12:49:33 GMT 48.010765 4.637569 26,800 312 480 -2112
2021-09-22 12:49:31 GMT 48.006180 4.645226 26,900 312 480 -2112
2021-09-22 12:49:21 GMT 47.992191 4.668767 27,700 312 487 -2112
2021-09-22 12:49:18 GMT 47.982742 4.684683 27,700 312 487 -2112
2021-09-22 12:49:14 GMT 47.982742 4.684683 27,700 312 487 -2112
2021-09-22 12:49:10 GMT 47.976059 4.695900 27,700 312 487 -2112
2021-09-22 12:49:05 GMT 47.969379 4.707149 27,700 312 487 -2112
2021-09-22 12:49:00 GMT 47.961777 4.719933 28,400 312 487 -2112
2021-09-22 12:48:57 GMT 47.957462 4.727149 28,400 312 487 -2112
2021-09-22 12:48:53 GMT 47.952255 4.735931 28,400 312 487 -2112
2021-09-22 12:48:49 GMT 47.945343 4.747467 28,400 312 488 -2112
2021-09-22 12:48:45 GMT 47.939072 4.757973 28,550 312 488 -2112
2021-09-22 12:48:40 GMT 47.931442 4.770813 28,600 312 490 -2112
2021-09-22 12:48:33 GMT 47.914124 4.799858 28,975 312 496 -1728
2021-09-22 12:48:28 GMT 47.914124 4.799858 28,975 312 496 -1728
2021-09-22 12:48:23 GMT 47.905792 4.813772 30,225 312 493 -2304
2021-09-22 12:48:19 GMT 47.898972 4.825195 30,225 312 493 -2304
2021-09-22 12:48:13 GMT 47.891266 4.838139 30,225 312 494 -2112
2021-09-22 12:48:09 GMT 47.885166 4.848281 30,225 312 496 -1728
2021-09-22 12:48:04 GMT 47.877731 4.860764 29,975 312 498 -1408
2021-09-22 12:47:59 GMT 47.869812 4.874016 30,100 312 499 -1024
2021-09-22 12:47:51 GMT 47.857269 4.895027 30,150 312 500 -1088
2021-09-22 12:47:48 GMT 47.853607 4.901207 30,150 312 500 -1088
2021-09-22 12:47:38 GMT 47.836761 4.929428 30,350 312 500 -1088
2021-09-22 12:47:32 GMT 47.829071 4.942200 30,425 312 500 -1088
2021-09-22 12:47:21 GMT 47.811661 4.971102 30,600 312 500 -1024
2021-09-22 12:47:14 GMT 47.800907 4.988990 30,750 312 500 -1088
2021-09-22 12:47:11 GMT 47.796577 4.996174 30,775 312 500 -1024
2021-09-22 12:47:07 GMT 47.790154 5.006949 30,925 312 499 -1088
2021-09-22 12:47:02 GMT 47.782608 5.019447 30,925 312 499 -1088
2021-09-22 12:46:56 GMT 47.774002 5.033730 31,350 312 498 -1088
2021-09-22 12:46:50 GMT 47.764038 5.050331 31,225 312 497 -1088
2021-09-22 12:46:44 GMT 47.754684 5.065933 31,225 312 497 -1088
2021-09-22 12:46:40 GMT 47.749653 5.074275 31,275 312 497 -1088
2021-09-22 12:46:36 GMT 47.743378 5.084747 31,350 312 496 -1088
2021-09-22 12:46:31 GMT 47.735317 5.098220 31,625 312 496 -1088
2021-09-22 12:46:26 GMT 47.720261 5.123268 31,625 312 494 -1024
2021-09-22 12:46:22 GMT 47.720261 5.123268 31,625 312 494 -1024
2021-09-22 12:46:17 GMT 47.702171 5.153292 31,800 312 494 -1024
2021-09-22 12:46:09 GMT 47.702171 5.153292 31,825 312 495 -1024
2021-09-22 12:46:06 GMT 47.688717 5.175546 31,900 312 495 -1024
2021-09-22 12:46:01 GMT 47.688717 5.175546 31,950 312 500 -1024
2021-09-22 12:45:58 GMT 47.685040 5.181673 31,975 312 497 -1024
2021-09-22 12:45:54 GMT 47.677551 5.194130 32,050 312 499 -1024
2021-09-22 12:45:50 GMT 47.673122 5.201533 32,100 312 499 -1024
2021-09-22 12:45:46 GMT 47.664509 5.215830 32,175 312 500 -1024
2021-09-22 12:45:41 GMT 47.659470 5.224274 32,250 312 500 -1024
2021-09-22 12:45:38 GMT 47.654205 5.232994 32,325 312 501 -960
2021-09-22 12:45:35 GMT 47.648987 5.241714 32,625 312 501 -960
2021-09-22 12:45:32 GMT 47.644493 5.249070 32,625 312 501 -960
2021-09-22 12:45:29 GMT 47.640060 5.256546 32,625 312 501 -960
2021-09-22 12:45:25 GMT 47.626011 5.279776 32,625 312 501 -960
2021-09-22 12:45:20 GMT 47.626011 5.279776 32,625 312 501 -960
2021-09-22 12:45:17 GMT 47.621357 5.287452 32,825 312 500 -896
2021-09-22 12:45:12 GMT 47.609802 5.306534 32,825 312 499 -896
2021-09-22 12:45:05 GMT 47.601620 5.319989 32,850 312 499 -896
2021-09-22 12:45:02 GMT 47.598221 5.325623 32,850 312 497 -768
2021-09-22 12:45:00 GMT 47.596684 5.328087 32,875 312 497 -768
2021-09-22 12:44:58 GMT 47.592400 5.335200 32,900 313 496 -576
2021-09-22 12:44:57 GMT 47.590988 5.337433 32,925 313 496 -576
2021-09-22 12:44:54 GMT 47.586090 5.345535 32,950 313 494 -384
2021-09-22 12:44:52 GMT 47.583790 5.349285 32,950 313 494 -384
2021-09-22 12:44:50 GMT 47.579636 5.356041 32,975 313 494 -256
2021-09-22 12:44:45 GMT 47.572430 5.367807 33,000 312 492 0
2021-09-22 12:44:43 GMT 47.569405 5.372807 33,000 312 492 0
2021-09-22 12:44:40 GMT 47.555878 5.395042 32,975 312 491 0
2021-09-22 12:44:34 GMT 47.555878 5.395042 32,975 313 489 64
2021-09-22 12:44:30 GMT 47.548874 5.406372 32,975 315 486 64
2021-09-22 12:44:28 GMT 47.547153 5.409006 33,000 315 486 64
2021-09-22 12:44:25 GMT 47.542313 5.415908 33,000 320 483 64
2021-09-22 12:44:22 GMT 47.535934 5.424147 33,000 329 476 -64
2021-09-22 12:44:19 GMT 47.527222 5.433769 33,000 329 476 -64
2021-09-22 12:44:17 GMT 47.525391 5.435623 33,000 329 476 -64
2021-09-22 12:44:13 GMT 47.519394 5.441116 33,000 329 476 -64
2021-09-22 12:44:08 GMT 47.511494 5.447388 33,000 336 471 -64
2021-09-22 12:44:03 GMT 47.501579 5.453937 33,000 344 466 -64
2021-09-22 12:43:58 GMT 47.488029 5.460698 33,000 344 466 -64
2021-09-22 12:43:53 GMT 47.475266 5.464874 33,000 351 463 -64
2021-09-22 12:43:50 GMT 47.475266 5.464874 33,000 351 463 -64
2021-09-22 12:43:49 GMT 47.473160 5.465355 33,000 354 461 -64
2021-09-22 12:43:46 GMT 47.465515 5.466728 33,000 357 458 0
2021-09-22 12:43:44 GMT 47.460434 5.467278 33,000 358 458 64
2021-09-22 12:43:39 GMT 47.450729 5.467552 33,000 6 452 64
2021-09-22 12:43:34 GMT 47.432419 5.465080 33,000 8 450 64
2021-09-22 12:43:30 GMT 47.432419 5.465080 33,000 8 450 64
2021-09-22 12:43:26 GMT 47.421646 5.461825 33,000 21 439 -64
2021-09-22 12:43:22 GMT 47.413559 5.458420 33,000 21 439 -64
2021-09-22 12:43:19 GMT 47.409714 5.456497 33,000 21 439 -64
2021-09-22 12:43:16 GMT 47.403816 5.453163 33,000 26 435 0
2021-09-22 12:43:13 GMT 47.399185 5.450180 33,000 26 435 0
2021-09-22 12:43:10 GMT 47.392834 5.445697 33,000 30 432 0
2021-09-22 12:43:07 GMT 47.387569 5.441402 33,000 30 432 0
2021-09-22 12:43:04 GMT 47.382774 5.437106 33,000 32 430 0
2021-09-22 12:43:02 GMT 47.379318 5.433769 33,000 34 428 -64
2021-09-22 12:43:00 GMT 47.375839 5.430274 33,000 34 428 -64
2021-09-22 12:42:59 GMT 47.374100 5.428413 33,000 36 427 0
2021-09-22 12:42:56 GMT 47.369751 5.423470 33,000 37 426 -64
2021-09-22 12:42:54 GMT 47.366810 5.419992 33,000 39 425 0
2021-09-22 12:42:53 GMT 47.365173 5.417976 33,000 41 424 64
2021-09-22 12:42:52 GMT 47.362946 5.415133 33,000 41 424 64
2021-09-22 12:42:49 GMT 47.360733 5.412209 33,000 43 424 0
2021-09-22 12:42:48 GMT 47.358719 5.409462 33,000 44 424 64
2021-09-22 12:42:45 GMT 47.352982 5.401189 32,975 47 423 0
2021-09-22 12:42:42 GMT 47.347443 5.392315 33,000 49 423 0
2021-09-22 12:42:40 GMT 47.347443 5.392315 33,000 49 423 0
2021-09-22 12:42:38 GMT 47.344883 5.387878 33,000 50 423 0
2021-09-22 12:42:34 GMT 47.340927 5.380765 33,000 50 423 -64
2021-09-22 12:42:32 GMT 47.332855 5.366341 33,000 50 423 0
2021-09-22 12:42:29 GMT 47.332855 5.366341 33,000 50 423 0
2021-09-22 12:42:26 GMT 47.330383 5.361877 33,000 50 423 -64
2021-09-22 12:42:24 GMT 47.327408 5.356522 33,000 50 423 0
2021-09-22 12:42:21 GMT 47.323929 5.350273 33,000 50 423 0
2021-09-22 12:42:19 GMT 47.320999 5.344917 32,975 50 423 0
2021-09-22 12:42:17 GMT 47.319138 5.341539 33,000 50 423 0
2021-09-22 12:42:12 GMT 47.312202 5.329073 33,000 50 424 0
2021-09-22 12:42:09 GMT 47.308712 5.322806 33,000 50 424 64
2021-09-22 12:42:06 GMT 47.305267 5.316538 33,000 50 424 64
2021-09-22 12:42:02 GMT 47.300331 5.307664 32,975 50 424 -64
2021-09-22 12:42:00 GMT 47.298203 5.303856 33,000 50 424 -64
2021-09-22 12:41:57 GMT 47.293861 5.296044 33,000 50 424 -64
2021-09-22 12:41:54 GMT 47.289440 5.287945 33,000 50 424 -64
2021-09-22 12:41:50 GMT 47.284458 5.279001 33,000 50 426 0
2021-09-22 12:41:47 GMT 47.281082 5.273026 33,000 50 426 0
2021-09-22 12:41:44 GMT 47.278500 5.268296 33,000 50 426 0
2021-09-22 12:41:39 GMT 47.271835 5.256477 33,000 44 428 0
2021-09-22 12:41:36 GMT 47.259796 5.235809 33,000 44 428 0
2021-09-22 12:41:30 GMT 47.259796 5.235809 33,000 44 428 0
2021-09-22 12:41:26 GMT 47.254337 5.227027 33,000 44 428 0
2021-09-22 12:41:22 GMT 47.249405 5.219492 33,000 44 428 0
2021-09-22 12:41:19 GMT 47.245285 5.213631 33,000 41 428 0
2021-09-22 12:41:15 GMT 47.239208 5.205688 32,975 10 437 0
2021-09-22 12:41:09 GMT 47.229900 5.194843 32,975 34 429 0
2021-09-22 12:41:05 GMT 47.222900 5.187675 32,975 31 431 -64
2021-09-22 12:40:56 GMT 47.207108 5.174080 33,000 22 433 -64
2021-09-22 12:40:48 GMT 47.191040 5.163437 33,000 20 433 0
2021-09-22 12:40:43 GMT 47.183300 5.159278 33,000 15 435 0
2021-09-22 12:40:42 GMT 47.179482 5.157447 33,000 15 435 0
2021-09-22 12:40:36 GMT 47.170029 5.153549 33,000 10 437 64
2021-09-22 12:40:34 GMT 47.167053 5.152517 32,975 10 437 64
2021-09-22 12:40:26 GMT 47.149597 5.147869 32,975 2 440 64
2021-09-22 12:40:22 GMT 47.140503 5.146477 32,975 2 440 64
2021-09-22 12:40:17 GMT 47.124828 5.145616 32,975 1 441 64
2021-09-22 12:40:13 GMT 47.124828 5.145616 32,975 359 442 0
2021-09-22 12:40:10 GMT 47.118942 5.145790 32,975 356 443 -64
2021-09-22 12:40:06 GMT 47.110382 5.146408 32,975 356 443 -64
2021-09-22 12:40:03 GMT 47.098297 5.148010 33,000 355 444 -128
2021-09-22 12:40:00 GMT 47.098297 5.148010 33,000 355 444 -128
2021-09-22 12:39:57 GMT 47.089310 5.149348 33,000 355 443 -128
2021-09-22 12:39:53 GMT 47.083633 5.150123 33,000 356 443 -64
2021-09-22 12:39:48 GMT 47.072598 5.150968 33,000 1 440 0
2021-09-22 12:39:43 GMT 47.060211 5.150391 33,000 44 426 -64
2021-09-22 12:39:38 GMT 47.050766 5.148574 33,000 11 436 0
2021-09-22 12:39:33 GMT 47.044064 5.146531 33,000 44 426 -64
2021-09-22 12:39:25 GMT 47.027527 5.138443 33,000 29 430 -64
2021-09-22 12:39:21 GMT 47.020294 5.133430 33,000 29 430 -64
2021-09-22 12:39:15 GMT 47.010361 5.124916 33,000 35 428 -64
2021-09-22 12:39:12 GMT 47.006104 5.120659 33,000 35 428 -64
2021-09-22 12:39:07 GMT 46.997089 5.109910 32,975 43 426 -64
2021-09-22 12:39:03 GMT 46.992691 5.103699 33,000 46 425 -64
2021-09-22 12:38:56 GMT 46.982941 5.086811 33,000 53 424 -64
2021-09-22 12:38:52 GMT 46.978867 5.078087 33,000 59 423 0
2021-09-22 12:38:47 GMT 46.973831 5.065178 32,975 64 422 0
2021-09-22 12:38:43 GMT 46.970791 5.055612 32,975 69 422 0
2021-09-22 12:38:38 GMT 46.967018 5.040612 33,000 73 421 -64
2021-09-22 12:38:33 GMT 46.963577 5.018761 33,000 80 421 -64
2021-09-22 12:38:27 GMT 46.963017 5.012231 33,000 85 421 -64
2021-09-22 12:38:22 GMT 46.962364 4.997512 32,975 89 421 -64
2021-09-22 12:38:17 GMT 46.962643 4.983849 33,000 95 421 0
2021-09-22 12:38:12 GMT 46.963806 4.969460 33,000 100 421 0
2021-09-22 12:38:05 GMT 46.967285 4.948380 33,000 107 422 -64
2021-09-22 12:38:02 GMT 46.968933 4.941376 33,000 111 423 -64
2021-09-22 12:37:56 GMT 46.973236 4.926682 32,975 117 424 0
2021-09-22 12:37:51 GMT 46.978703 4.912438 33,000 121 424 -64
2021-09-22 12:37:46 GMT 46.983589 4.902015 33,000 127 426 -64
2021-09-22 12:37:41 GMT 46.990494 4.889740 33,000 133 427 -64
2021-09-22 12:37:36 GMT 46.997406 4.879440 33,000 140 430 0
2021-09-22 12:37:31 GMT 47.004913 4.869965 33,000 141 430 0
2021-09-22 12:37:27 GMT 47.011105 4.863140 33,000 145 431 0
2021-09-22 12:37:23 GMT 47.018738 4.855746 33,000 149 432 -64
2021-09-22 12:37:20 GMT 47.022034 4.852867 33,000 149 432 -64
2021-09-22 12:37:12 GMT 47.036957 4.841537 33,000 156 434 0
2021-09-22 12:37:09 GMT 47.041718 4.838448 33,000 157 435 0
2021-09-22 12:37:04 GMT 47.052441 4.832435 33,000 161 436 0
2021-09-22 12:37:01 GMT 47.063049 4.827667 33,000 165 437 -64
2021-09-22 12:36:58 GMT 47.063049 4.827667 33,000 167 437 0
2021-09-22 12:36:54 GMT 47.071110 4.824759 33,000 173 440 -64
2021-09-22 12:36:51 GMT 47.077858 4.822716 33,000 168 439 -64
2021-09-22 12:36:48 GMT 47.084656 4.821097 33,000 177 441 -64
2021-09-22 12:36:44 GMT 47.092709 4.819688 33,000 182 443 -64
2021-09-22 12:36:38 GMT 47.103325 4.818702 33,000 179 442 -64
2021-09-22 12:36:28 GMT 47.124180 4.819406 33,000 188 444 -64
2021-09-22 12:36:25 GMT 47.130478 4.820320 33,000 189 445 -64
2021-09-22 12:36:19 GMT 47.151947 4.825951 33,000 194 447 -64
2021-09-22 12:36:14 GMT 47.151947 4.825951 33,000 194 447 -64
2021-09-22 12:36:10 GMT 47.159958 4.829041 33,000 198 448 -64
2021-09-22 12:36:07 GMT 47.165863 4.831718 33,000 201 448 0
2021-09-22 12:36:03 GMT 47.174641 4.836308 33,000 203 449 0
2021-09-22 12:35:58 GMT 47.183670 4.841812 33,000 206 450 0
2021-09-22 12:35:53 GMT 47.195080 4.849971 33,000 209 451 64
2021-09-22 12:35:47 GMT 47.203037 4.856591 33,000 215 452 64
2021-09-22 12:35:40 GMT 47.215652 4.868634 32,975 215 452 64
2021-09-22 12:35:37 GMT 47.226315 4.880606 32,975 220 454 0
2021-09-22 12:35:30 GMT 47.233246 4.889122 33,000 223 455 0
2021-09-22 12:35:26 GMT 47.238235 4.895714 32,975 223 455 0
2021-09-22 12:35:17 GMT 47.253296 4.916382 33,000 224 454 0
2021-09-22 12:35:14 GMT 47.258389 4.923284 33,000 224 454 0
2021-09-22 12:35:07 GMT 47.268677 4.937393 33,000 223 454 -64
2021-09-22 12:34:57 GMT 47.285110 4.959975 33,000 223 454 -64
2021-09-22 12:34:45 GMT 47.301727 4.982722 33,000 223 454 0
2021-09-22 12:34:34 GMT 47.318207 5.005234 33,000 223 455 0
2021-09-22 12:34:25 GMT 47.333084 5.025490 33,000 223 455 0
2021-09-22 12:34:21 GMT 47.338943 5.033455 33,000 223 455 0
2021-09-22 12:34:14 GMT 47.349197 5.047325 33,000 223 457 0
2021-09-22 12:34:09 GMT 47.357254 5.058311 32,975 223 458 -64
2021-09-22 12:34:04 GMT 47.364853 5.068571 32,975 223 457 0
2021-09-22 12:33:54 GMT 47.381054 5.090543 33,000 223 458 -64
2021-09-22 12:33:47 GMT 47.391994 5.105262 33,000 223 459 -64
2021-09-22 12:33:43 GMT 47.398232 5.113713 33,000 225 464 0
2021-09-22 12:33:37 GMT 47.407196 5.125740 32,975 223 461 -64
2021-09-22 12:33:33 GMT 47.414291 5.135334 33,000 244 465 0
2021-09-22 12:33:26 GMT 47.427063 5.152588 33,000 223 464 0
2021-09-22 12:33:19 GMT 47.436592 5.165828 33,000 225 464 0
2021-09-22 12:33:15 GMT 47.442131 5.173786 33,000 227 465 0
2021-09-22 12:33:12 GMT 47.446793 5.180809 33,000 227 465 0
2021-09-22 12:33:09 GMT 47.451187 5.187744 33,000 229 465 0
2021-09-22 12:33:05 GMT 47.460239 5.203435 33,000 235 465 0
2021-09-22 12:33:02 GMT 47.464195 5.210970 33,000 235 465 0
2021-09-22 12:32:59 GMT 47.464195 5.210970 32,975 235 465 0
2021-09-22 12:32:56 GMT 47.472668 5.229281 33,000 244 465 0
2021-09-22 12:32:53 GMT 47.472668 5.229281 33,000 244 465 0
2021-09-22 12:32:49 GMT 47.476440 5.238577 33,000 241 465 0
2021-09-22 12:32:46 GMT 47.479065 5.245491 33,000 243 465 0
2021-09-22 12:32:43 GMT 47.482224 5.254486 33,000 246 464 0
2021-09-22 12:32:40 GMT 47.488541 5.275291 33,000 250 464 0
2021-09-22 12:32:36 GMT 47.488541 5.275291 33,000 250 465 0
2021-09-22 12:32:33 GMT 47.490967 5.284767 33,000 252 464 0
2021-09-22 12:32:29 GMT 47.493851 5.297333 33,000 256 464 0
2021-09-22 12:32:25 GMT 47.496231 5.309555 33,000 256 464 0
2021-09-22 12:32:20 GMT 47.498226 5.322172 33,000 259 463 0
2021-09-22 12:32:16 GMT 47.500134 5.337031 33,000 263 463 0
2021-09-22 12:32:13 GMT 47.501312 5.349861 33,000 263 463 0
2021-09-22 12:32:10 GMT 47.502369 5.368441 33,000 271 461 0
2021-09-22 12:32:07 GMT 47.502502 5.376297 33,000 271 461 0
2021-09-22 12:32:03 GMT 47.502502 5.376297 33,000 271 461 0
2021-09-22 12:31:59 GMT 47.502460 5.391681 33,000 275 460 0
2021-09-22 12:31:54 GMT 47.501862 5.406441 33,000 277 459 0
2021-09-22 12:31:49 GMT 47.500626 5.422646 33,000 279 459 0
2021-09-22 12:31:48 GMT 47.500320 5.425415 33,000 282 458 -64
2021-09-22 12:31:43 GMT 47.498703 5.438644 33,000 283 458 0
2021-09-22 12:31:39 GMT 47.497017 5.449923 33,000 288 456 -64
2021-09-22 12:31:36 GMT 47.495014 5.460768 33,000 288 456 -64
2021-09-22 12:31:28 GMT 47.488907 5.486984 33,000 295 454 0
2021-09-22 12:31:25 GMT 47.487305 5.492683 33,000 295 454 0
2021-09-22 12:31:19 GMT 47.481838 5.509784 33,000 298 453 0
2021-09-22 12:31:16 GMT 47.472202 5.534292 33,000 300 452 -64
2021-09-22 12:31:11 GMT 47.472202 5.534292 32,975 304 451 0
2021-09-22 12:31:07 GMT 47.469315 5.540680 32,975 305 451 0
2021-09-22 12:31:03 GMT 47.463684 5.552078 33,000 311 449 0
2021-09-22 12:31:00 GMT 47.457916 5.562584 33,000 311 449 0
2021-09-22 12:30:58 GMT 47.457916 5.562584 33,000 311 449 0
2021-09-22 12:30:55 GMT 47.453201 5.570343 32,975 318 446 -64
2021-09-22 12:30:53 GMT 47.450363 5.574738 33,000 318 446 -64
2021-09-22 12:30:51 GMT 47.447479 5.579063 32,975 318 446 -64
2021-09-22 12:30:47 GMT 47.440247 5.589088 33,000 321 445 -64
2021-09-22 12:30:39 GMT 47.427429 5.604263 33,000 324 443 -64
2021-09-22 12:30:36 GMT 47.423767 5.608177 33,000 328 443 -64
2021-09-22 12:30:31 GMT 47.412735 5.618614 33,000 332 441 -64
2021-09-22 12:30:29 GMT 47.412735 5.618614 33,000 332 441 -64
2021-09-22 12:30:27 GMT 47.408524 5.622185 33,000 332 441 -64
2021-09-22 12:30:26 GMT 47.406006 5.624245 33,000 334 440 -64
2021-09-22 12:30:22 GMT 47.393391 5.633240 33,000 336 439 -64
2021-09-22 12:30:20 GMT 47.393391 5.633240 33,000 339 438 -64
2021-09-22 12:30:17 GMT 47.383804 5.638939 33,000 339 438 -64
2021-09-22 12:30:14 GMT 47.383804 5.638939 33,000 342 437 -64
2021-09-22 12:30:12 GMT 47.380737 5.640518 33,000 343 437 -64
2021-09-22 12:30:09 GMT 47.374969 5.643265 33,000 344 436 -64
2021-09-22 12:30:05 GMT 47.367413 5.646409 33,000 346 435 -64
2021-09-22 12:30:03 GMT 47.362759 5.648170 33,000 348 434 -64
2021-09-22 12:30:02 GMT 47.360012 5.649015 33,000 351 434 0
2021-09-22 12:30:01 GMT 47.358009 5.649649 33,000 351 434 0
2021-09-22 12:29:59 GMT 47.354279 5.650681 33,000 353 433 0
2021-09-22 12:29:56 GMT 47.346558 5.652536 33,000 353 433 0
2021-09-22 12:29:52 GMT 47.343391 5.653100 33,000 355 433 0
2021-09-22 12:29:50 GMT 47.338394 5.653839 33,000 356 432 0
2021-09-22 12:29:48 GMT 47.334412 5.654320 33,000 357 431 -64
2021-09-22 12:29:45 GMT 47.326679 5.654931 33,000 359 431 0
2021-09-22 12:29:40 GMT 47.317703 5.655281 33,000 0 431 -64
2021-09-22 12:29:37 GMT 47.307129 5.655494 33,000 0 431 0
2021-09-22 12:29:35 GMT 47.307129 5.655494 33,000 0 432 0
2021-09-22 12:29:31 GMT 47.296555 5.655693 33,000 0 432 0
2021-09-22 12:29:29 GMT 47.296555 5.655693 33,000 0 432 0
2021-09-22 12:29:27 GMT 47.291382 5.655762 33,000 0 432 -64
2021-09-22 12:29:25 GMT 47.283993 5.655917 33,000 0 432 -64
2021-09-22 12:29:23 GMT 47.283993 5.655917 32,975 0 432 0
2021-09-22 12:29:21 GMT 47.279987 5.655987 33,000 0 432 0
2021-09-22 12:29:19 GMT 47.275406 5.656036 33,000 0 432 -64
2021-09-22 12:29:18 GMT 47.273609 5.656128 33,000 0 433 0
2021-09-22 12:29:13 GMT 47.265015 5.656242 33,000 0 433 -64
2021-09-22 12:29:11 GMT 47.260017 5.656339 33,000 0 433 -64
2021-09-22 12:29:08 GMT 47.254211 5.656448 33,000 0 433 -64
2021-09-22 12:29:04 GMT 47.245422 5.656586 33,000 0 433 -64
2021-09-22 12:29:01 GMT 47.240002 5.656691 33,000 0 434 0
2021-09-22 12:28:57 GMT 47.224407 5.656973 33,000 0 434 0
2021-09-22 12:28:54 GMT 47.224407 5.656973 33,000 0 435 -64
2021-09-22 12:28:51 GMT 47.219788 5.656998 33,000 0 435 -64
2021-09-22 12:28:48 GMT 47.207748 5.657204 32,975 0 435 -64
2021-09-22 12:28:45 GMT 47.202293 5.657325 33,000 0 435 -64
2021-09-22 12:28:42 GMT 47.202293 5.657325 33,000 0 435 -64
2021-09-22 12:28:37 GMT 47.192284 5.657466 33,000 0 435 0
2021-09-22 12:28:33 GMT 47.185440 5.657607 33,000 0 435 0
2021-09-22 12:28:31 GMT 47.172775 5.657822 33,000 0 435 -64
2021-09-22 12:28:28 GMT 47.160488 5.658029 33,000 0 435 -64
2021-09-22 12:28:23 GMT 47.160488 5.658029 33,000 0 435 -64
2021-09-22 12:28:18 GMT 47.152679 5.658165 33,000 0 435 0
2021-09-22 12:28:14 GMT 47.145447 5.658302 33,000 0 435 0
2021-09-22 12:28:11 GMT 47.132790 5.658522 33,000 0 435 0
2021-09-22 12:28:07 GMT 47.132790 5.658522 33,000 0 435 0
2021-09-22 12:28:05 GMT 47.128143 5.658646 33,000 0 436 0
2021-09-22 12:28:03 GMT 47.119476 5.658804 33,000 0 436 0
2021-09-22 12:28:01 GMT 47.119476 5.658804 32,975 0 437 0
2021-09-22 12:27:58 GMT 47.114456 5.658920 32,975 0 437 0
2021-09-22 12:27:56 GMT 47.109421 5.659015 32,975 0 438 0
2021-09-22 12:27:54 GMT 47.105373 5.659086 32,975 0 438 0
2021-09-22 12:27:51 GMT 47.098900 5.659156 32,975 0 439 -64
2021-09-22 12:27:49 GMT 47.092575 5.659195 33,000 0 440 -64
2021-09-22 12:27:47 GMT 47.090336 5.659227 33,000 0 441 0
2021-09-22 12:27:45 GMT 47.086487 5.659195 33,000 0 441 0
2021-09-22 12:27:43 GMT 47.082001 5.659126 33,000 1 441 0
2021-09-22 12:27:42 GMT 47.073853 5.658920 33,000 1 441 0
2021-09-22 12:27:39 GMT 47.073853 5.658920 33,000 1 441 0
2021-09-22 12:27:37 GMT 47.069992 5.658663 33,000 2 441 -64
2021-09-22 12:27:36 GMT 47.064102 5.658165 33,000 5 441 0
2021-09-22 12:27:34 GMT 47.064102 5.658165 33,000 5 441 0
2021-09-22 12:27:33 GMT 47.061844 5.657959 33,000 5 441 0
2021-09-22 12:27:31 GMT 47.051926 5.656380 33,000 9 440 0
2021-09-22 12:27:28 GMT 47.051926 5.656380 33,000 9 440 0
2021-09-22 12:27:25 GMT 47.046062 5.655142 33,000 11 440 0
2021-09-22 12:27:24 GMT 47.043690 5.654508 32,975 11 440 0
2021-09-22 12:27:21 GMT 47.036102 5.652255 32,975 14 439 -64
2021-09-22 12:27:18 GMT 47.032146 5.650846 32,975 14 439 -64
2021-09-22 12:27:17 GMT 47.030190 5.650142 33,000 15 439 -64
2021-09-22 12:27:10 GMT 47.017227 5.644295 33,000 20 437 0
2021-09-22 12:27:07 GMT 47.011337 5.641127 33,000 23 436 0
2021-09-22 12:27:01 GMT 46.999886 5.633874 33,000 27 435 -64
2021-09-22 12:26:58 GMT 46.994293 5.629807 33,000 29 434 -64
2021-09-22 12:26:56 GMT 46.988617 5.625343 33,000 29 434 -64
2021-09-22 12:26:52 GMT 46.983639 5.621056 33,000 32 433 0
2021-09-22 12:26:48 GMT 46.977539 5.615352 33,000 38 432 -64
2021-09-22 12:26:45 GMT 46.972324 5.609999 33,000 38 432 -64
2021-09-22 12:26:38 GMT 46.961243 5.597122 33,000 45 429 0
2021-09-22 12:26:34 GMT 46.955338 5.589294 33,000 45 429 0
2021-09-22 12:26:31 GMT 46.950958 5.583027 33,000 45 429 0
2021-09-22 12:26:27 GMT 46.945404 5.574326 33,000 54 427 0
2021-09-22 12:26:24 GMT 46.942673 5.569787 33,000 54 427 0
2021-09-22 12:26:23 GMT 46.941513 5.567734 32,975 54 427 0
2021-09-22 12:26:18 GMT 46.934555 5.554482 33,000 54 427 0
2021-09-22 12:26:14 GMT 46.930428 5.545701 33,000 63 425 -64
2021-09-22 12:26:12 GMT 46.928288 5.540842 33,000 63 425 -64
2021-09-22 12:26:09 GMT 46.924988 5.532715 33,000 63 425 -64
2021-09-22 12:26:06 GMT 46.922607 5.526405 32,975 63 425 -64
2021-09-22 12:26:02 GMT 46.919357 5.516922 32,975 65 424 -64
2021-09-22 12:26:00 GMT 46.916931 5.509094 33,000 66 424 -64
2021-09-22 12:25:58 GMT 46.915344 5.503587 32,975 70 424 -64
2021-09-22 12:25:55 GMT 46.913864 5.497971 33,000 70 424 -64
2021-09-22 12:25:51 GMT 46.910706 5.484444 33,000 79 423 0
2021-09-22 12:25:46 GMT 46.908600 5.473457 33,000 79 423 0
2021-09-22 12:25:38 GMT 46.905384 5.450839 33,000 82 421 0
2021-09-22 12:25:35 GMT 46.904434 5.440979 33,000 83 421 0
2021-09-22 12:25:28 GMT 46.903427 5.422302 33,000 89 421 0
2021-09-22 12:25:24 GMT 46.903194 5.409499 33,000 91 422 0
2021-09-22 12:25:20 GMT 46.903290 5.395592 32,975 91 422 0
2021-09-22 12:25:17 GMT 46.903336 5.391609 33,000 91 422 0
2021-09-22 12:25:14 GMT 46.903473 5.383095 33,000 91 422 0
2021-09-22 12:25:08 GMT 46.903755 5.364638 33,000 91 422 0
2021-09-22 12:25:05 GMT 46.903847 5.357807 33,000 91 422 0
2021-09-22 12:25:02 GMT 46.904079 5.344144 33,000 91 422 0
2021-09-22 12:24:58 GMT 46.904160 5.338188 33,000 91 422 0
2021-09-22 12:24:55 GMT 46.904343 5.324524 33,000 91 422 0
2021-09-22 12:24:51 GMT 46.904545 5.313439 33,000 91 422 0
2021-09-22 12:24:47 GMT 46.904663 5.305229 33,000 91 422 0
2021-09-22 12:24:43 GMT 46.904846 5.291565 33,000 91 422 0
2021-09-22 12:24:38 GMT 46.905010 5.279917 33,000 91 421 -64
2021-09-22 12:24:34 GMT 46.905167 5.268837 33,000 91 421 -64
2021-09-22 12:24:28 GMT 46.905533 5.245560 33,000 91 420 0
2021-09-22 12:24:23 GMT 46.905670 5.237045 33,000 91 420 0
2021-09-22 12:24:19 GMT 46.905853 5.225716 33,000 91 420 0
2021-09-22 12:24:17 GMT 46.906174 5.209305 33,000 91 420 0
2021-09-22 12:24:13 GMT 46.906174 5.209305 33,000 91 420 0
2021-09-22 12:24:09 GMT 46.906357 5.197975 33,000 91 420 0
2021-09-22 12:24:06 GMT 46.906540 5.188362 33,000 91 420 0
2021-09-22 12:24:03 GMT 46.906734 5.178434 33,000 91 420 0
2021-09-22 12:23:59 GMT 46.906918 5.167659 33,000 91 420 0
2021-09-22 12:23:57 GMT 46.907059 5.162025 33,000 91 420 0
2021-09-22 12:23:55 GMT 46.907227 5.150391 33,000 91 420 -64
2021-09-22 12:23:53 GMT 46.907227 5.150391 33,000 91 419 0
2021-09-22 12:23:46 GMT 46.907570 5.132024 33,000 91 419 0
2021-09-22 12:23:43 GMT 46.907711 5.125263 33,000 91 419 -64
2021-09-22 12:23:40 GMT 46.907898 5.115051 33,000 91 419 -64
2021-09-22 12:23:36 GMT 46.908051 5.104591 32,975 91 419 -64
2021-09-22 12:23:32 GMT 46.908234 5.093330 33,000 91 418 -64
2021-09-22 12:23:29 GMT 46.908409 5.084557 33,000 91 418 0
2021-09-22 12:23:26 GMT 46.908688 5.066528 33,000 91 418 0
2021-09-22 12:23:23 GMT 46.908688 5.066528 33,000 91 418 64
2021-09-22 12:23:19 GMT 46.908875 5.055824 32,975 91 418 0
2021-09-22 12:23:14 GMT 46.909103 5.041969 33,000 91 418 64
2021-09-22 12:23:12 GMT 46.909340 5.025400 33,000 91 418 64
2021-09-22 12:23:08 GMT 46.909527 5.015822 33,000 91 417 -64
2021-09-22 12:23:05 GMT 46.909527 5.015822 33,000 91 417 0
2021-09-22 12:23:02 GMT 46.909664 5.008498 33,000 91 417 0
2021-09-22 12:22:57 GMT 46.909946 4.992230 33,000 91 417 0
2021-09-22 12:22:54 GMT 46.910202 4.976738 33,000 91 417 0
2021-09-22 12:22:51 GMT 46.910362 4.967440 33,000 91 417 0
2021-09-22 12:22:47 GMT 46.910503 4.959059 33,000 91 417 0
2021-09-22 12:22:45 GMT 46.910599 4.953425 33,000 91 417 0
2021-09-22 12:22:43 GMT 46.910599 4.953425 33,000 91 417 -64
2021-09-22 12:22:41 GMT 46.910645 4.950608 33,000 91 417 -64
2021-09-22 12:22:38 GMT 46.910843 4.940758 33,000 91 417 -64
2021-09-22 12:22:37 GMT 46.910843 4.938492 33,000 91 417 -64
2021-09-22 12:22:34 GMT 46.911156 4.921312 32,975 91 417 0
2021-09-22 12:22:31 GMT 46.911156 4.921312 32,975 91 417 -64
2021-09-22 12:22:28 GMT 46.911297 4.912931 33,000 91 417 0
2021-09-22 12:22:24 GMT 46.911530 4.901663 33,000 91 417 -64
2021-09-22 12:22:21 GMT 46.911667 4.892349 33,000 91 417 -64
2021-09-22 12:22:18 GMT 46.912079 4.872643 33,000 91 417 -64
2021-09-22 12:22:14 GMT 46.912079 4.872643 33,000 91 417 -64
2021-09-22 12:22:11 GMT 46.912216 4.864265 33,000 91 417 0
2021-09-22 12:22:07 GMT 46.912445 4.853554 33,000 91 417 -64
2021-09-22 12:22:00 GMT 46.912811 4.833847 33,000 91 417 -64
2021-09-22 12:21:54 GMT 46.913132 4.818123 33,000 91 416 -64
2021-09-22 12:21:50 GMT 46.913361 4.805763 33,000 91 416 0
2021-09-22 12:21:44 GMT 46.913727 4.789009 33,000 91 415 0
2021-09-22 12:21:37 GMT 46.914135 4.768559 33,000 91 414 0
2021-09-22 12:21:33 GMT 46.914368 4.758179 33,000 91 415 0
2021-09-22 12:21:28 GMT 46.914734 4.740875 33,000 91 414 0
2021-09-22 12:21:24 GMT 46.914917 4.731949 33,000 91 414 0
2021-09-22 12:21:17 GMT 46.915253 4.713769 32,975 91 414 0
2021-09-22 12:21:13 GMT 46.915394 4.703768 32,975 91 414 0
2021-09-22 12:21:09 GMT 46.915649 4.690063 32,975 91 414 0
2021-09-22 12:21:03 GMT 46.915924 4.673859 32,975 91 414 -64
2021-09-22 12:20:58 GMT 46.916107 4.661568 33,000 91 415 -64
2021-09-22 12:20:53 GMT 46.916740 4.631723 33,000 91 415 -128
2021-09-22 12:20:48 GMT 46.916740 4.631723 33,000 92 414 -64
2021-09-22 12:20:43 GMT 46.917206 4.617709 33,000 94 415 -64
2021-09-22 12:20:38 GMT 46.917908 4.603764 33,000 95 415 0
2021-09-22 12:20:35 GMT 46.918488 4.595718 33,000 101 416 0
2021-09-22 12:20:32 GMT 46.919209 4.587637 33,000 99 415 -64
2021-09-22 12:20:25 GMT 46.921677 4.568904 33,000 103 416 0
2021-09-22 12:20:22 GMT 46.923214 4.560242 32,975 108 417 -64
2021-09-22 12:20:15 GMT 46.927635 4.540452 33,000 109 418 -64
2021-09-22 12:20:12 GMT 46.929565 4.533371 33,000 113 418 0
2021-09-22 12:20:04 GMT 46.936386 4.512428 33,000 121 421 0
2021-09-22 12:20:01 GMT 46.938675 4.506454 33,000 119 420 -64
2021-09-22 12:19:56 GMT 46.943649 4.494605 33,000 125 422 -64
2021-09-22 12:19:51 GMT 46.949387 4.482697 33,000 126 423 0
2021-09-22 12:19:46 GMT 46.956078 4.470379 32,975 131 425 -64
2021-09-22 12:19:42 GMT 46.961472 4.461617 33,000 134 427 -64
2021-09-22 12:19:36 GMT 46.969940 4.449463 32,975 138 430 0
2021-09-22 12:19:31 GMT 46.977127 4.440331 32,975 140 432 0
2021-09-22 12:19:25 GMT 46.986694 4.429619 32,975 145 436 64
2021-09-22 12:19:20 GMT 47.003700 4.414039 32,975 153 446 -64
2021-09-22 12:19:15 GMT 47.003700 4.414039 32,975 151 443 -64
2021-09-22 12:19:11 GMT 47.024048 4.399887 33,000 174 460 0
2021-09-22 12:19:05 GMT 47.024048 4.399887 33,000 158 451 -64
2021-09-22 12:19:00 GMT 47.031307 4.395869 33,000 160 454 -64
2021-09-22 12:18:54 GMT 47.044785 4.389725 33,000 166 458 -64
2021-09-22 12:18:51 GMT 47.052155 4.386978 33,000 166 458 -64
2021-09-22 12:18:47 GMT 47.058792 4.384987 33,000 172 459 0
2021-09-22 12:18:44 GMT 47.065243 4.383263 33,000 171 459 -64
2021-09-22 12:18:40 GMT 47.073250 4.381714 33,000 173 459 0
2021-09-22 12:18:36 GMT 47.088730 4.379974 33,000 178 461 -64
2021-09-22 12:18:33 GMT 47.093857 4.379837 33,000 179 462 -64
2021-09-22 12:18:30 GMT 47.093857 4.379837 33,000 184 462 0
2021-09-22 12:18:25 GMT 47.106441 4.380235 33,000 184 462 0
2021-09-22 12:18:20 GMT 47.116264 4.381432 33,000 187 464 -64
2021-09-22 12:18:16 GMT 47.123898 4.382841 33,000 189 464 -64
2021-09-22 12:18:13 GMT 47.131348 4.384644 33,000 196 467 -64
2021-09-22 12:18:09 GMT 47.138283 4.386784 33,000 194 466 -64
2021-09-22 12:18:06 GMT 47.147503 4.390094 33,000 196 466 -64
2021-09-22 12:18:02 GMT 47.153503 4.392677 33,000 198 467 -64
2021-09-22 12:17:59 GMT 47.159466 4.395517 33,000 200 468 -64
2021-09-22 12:17:54 GMT 47.170406 4.401574 33,000 204 469 0
20